<?xml version="1.0" encoding="UTF-8"?>
<gpx version="1.1" creator="https://www.youtrack.es" xsi:schemaLocation="http://www.topografix.com/GPX/1/1 http://www.topografix.com/GPX/1/1/gpx.xsd http://www.garmin.com/xmlschemas/GpxExtensions/v3 http://www.garmin.com/xmlschemas/GpxExtensionsv3.xsd http://www.garmin.com/xmlschemas/TrackPointExtension/v1 http://www.garmin.com/xmlschemas/TrackPointExtensionv1.xsd" xmlns:gpxtpx="http://www.garmin.com/xmlschemas/TrackPointExtension/v1" xmlns:gpxx="http://www.garmin.com/xmlschemas/GpxExtensions/v3" xmlns:xsi="http://www.w3.org/2001/XMLSchema-instance">
  <metadata>
    <author>
      <name>jose antonio de la fuente</name>
      <email id="nexusiete" domain="gmail.com"/>
    </author>
    <link href="https://www.youtrack.es">
      <text>YouTrack.es</text>
    </link>
    <time>2026-05-09T01:45:01Z</time>
  </metadata>
  <trk>
    <src>https://www.youtrack.es</src>
    <link href="https://www.youtrack.es/ruta/38106-cami-cavalls">
      <text>YouTrack.es</text>
    </link>
    <trkseg>
      <trkpt lat="39.940185" lon="3.959780">
        <ele>-7.189</ele>
        <time>2020-09-06T08:22:01Z</time>
      </trkpt>
      <trkpt lat="39.940181" lon="3.959777">
        <ele>-7.606</ele>
        <time>2020-09-06T08:22:02Z</time>
      </trkpt>
      <trkpt lat="39.940122" lon="3.959739">
        <ele>-7.626</ele>
        <time>2020-09-06T08:22:26Z</time>
      </trkpt>
      <trkpt lat="39.940091" lon="3.959637">
        <ele>-6.608</ele>
        <time>2020-09-06T08:22:52Z</time>
      </trkpt>
      <trkpt lat="39.940089" lon="3.959676">
        <ele>-5.253</ele>
        <time>2020-09-06T08:23:13Z</time>
      </trkpt>
      <trkpt lat="39.940060" lon="3.959659">
        <ele>-4.745</ele>
        <time>2020-09-06T08:23:42Z</time>
      </trkpt>
      <trkpt lat="39.940065" lon="3.959665">
        <ele>-5.228</ele>
        <time>2020-09-06T08:24:12Z</time>
      </trkpt>
      <trkpt lat="39.940055" lon="3.959654">
        <ele>0.185</ele>
        <time>2020-09-06T08:24:30Z</time>
      </trkpt>
      <trkpt lat="39.940055" lon="3.959654">
        <ele>0.143</ele>
        <time>2020-09-06T08:24:31Z</time>
      </trkpt>
      <trkpt lat="39.940060" lon="3.959664">
        <ele>-0.459</ele>
        <time>2020-09-06T08:24:53Z</time>
      </trkpt>
      <trkpt lat="39.940066" lon="3.959663">
        <ele>-0.973</ele>
        <time>2020-09-06T08:25:12Z</time>
      </trkpt>
      <trkpt lat="39.940073" lon="3.959661">
        <ele>0.122</ele>
        <time>2020-09-06T08:25:35Z</time>
      </trkpt>
      <trkpt lat="39.940079" lon="3.959640">
        <ele>-0.457</ele>
        <time>2020-09-06T08:25:53Z</time>
      </trkpt>
      <trkpt lat="39.940063" lon="3.959629">
        <ele>0.100</ele>
        <time>2020-09-06T08:26:13Z</time>
      </trkpt>
      <trkpt lat="39.940064" lon="3.959621">
        <ele>0.120</ele>
        <time>2020-09-06T08:26:23Z</time>
      </trkpt>
      <trkpt lat="39.940023" lon="3.959623">
        <ele>0.108</ele>
        <time>2020-09-06T08:26:28Z</time>
      </trkpt>
      <trkpt lat="39.939885" lon="3.959666">
        <ele>1.580</ele>
        <time>2020-09-06T08:26:44Z</time>
      </trkpt>
      <trkpt lat="39.939764" lon="3.959688">
        <ele>2.062</ele>
        <time>2020-09-06T08:26:57Z</time>
      </trkpt>
      <trkpt lat="39.939733" lon="3.959690">
        <ele>2.015</ele>
        <time>2020-09-06T08:27:00Z</time>
      </trkpt>
      <trkpt lat="39.939575" lon="3.959713">
        <ele>2.522</ele>
        <time>2020-09-06T08:27:15Z</time>
      </trkpt>
      <trkpt lat="39.939458" lon="3.959710">
        <ele>3.540</ele>
        <time>2020-09-06T08:27:26Z</time>
      </trkpt>
      <trkpt lat="39.939372" lon="3.959688">
        <ele>3.916</ele>
        <time>2020-09-06T08:27:37Z</time>
      </trkpt>
      <trkpt lat="39.939345" lon="3.959646">
        <ele>3.910</ele>
        <time>2020-09-06T08:27:41Z</time>
      </trkpt>
      <trkpt lat="39.939270" lon="3.959628">
        <ele>4.479</ele>
        <time>2020-09-06T08:27:55Z</time>
      </trkpt>
      <trkpt lat="39.939247" lon="3.959632">
        <ele>4.992</ele>
        <time>2020-09-06T08:28:16Z</time>
      </trkpt>
      <trkpt lat="39.939151" lon="3.959567">
        <ele>3.973</ele>
        <time>2020-09-06T08:28:31Z</time>
      </trkpt>
      <trkpt lat="39.938989" lon="3.959599">
        <ele>1.120</ele>
        <time>2020-09-06T08:28:48Z</time>
      </trkpt>
      <trkpt lat="39.938857" lon="3.959666">
        <ele>0.108</ele>
        <time>2020-09-06T08:29:05Z</time>
      </trkpt>
      <trkpt lat="39.938736" lon="3.959757">
        <ele>-0.424</ele>
        <time>2020-09-06T08:29:20Z</time>
      </trkpt>
      <trkpt lat="39.938563" lon="3.959880">
        <ele>0.136</ele>
        <time>2020-09-06T08:29:37Z</time>
      </trkpt>
      <trkpt lat="39.938508" lon="3.959931">
        <ele>-0.439</ele>
        <time>2020-09-06T08:29:44Z</time>
      </trkpt>
      <trkpt lat="39.938480" lon="3.959966">
        <ele>-0.436</ele>
        <time>2020-09-06T08:29:48Z</time>
      </trkpt>
      <trkpt lat="39.938364" lon="3.960102">
        <ele>-0.434</ele>
        <time>2020-09-06T08:30:04Z</time>
      </trkpt>
      <trkpt lat="39.938236" lon="3.960256">
        <ele>-0.410</ele>
        <time>2020-09-06T08:30:21Z</time>
      </trkpt>
      <trkpt lat="39.938103" lon="3.960437">
        <ele>-0.474</ele>
        <time>2020-09-06T08:30:40Z</time>
      </trkpt>
      <trkpt lat="39.938009" lon="3.960597">
        <ele>-0.953</ele>
        <time>2020-09-06T08:30:56Z</time>
      </trkpt>
      <trkpt lat="39.937957" lon="3.960778">
        <ele>-0.946</ele>
        <time>2020-09-06T08:31:13Z</time>
      </trkpt>
      <trkpt lat="39.937892" lon="3.960966">
        <ele>-0.988</ele>
        <time>2020-09-06T08:31:30Z</time>
      </trkpt>
      <trkpt lat="39.937870" lon="3.960974">
        <ele>-0.916</ele>
        <time>2020-09-06T08:31:43Z</time>
      </trkpt>
      <trkpt lat="39.937925" lon="3.960867">
        <ele>-0.908</ele>
        <time>2020-09-06T08:32:01Z</time>
      </trkpt>
      <trkpt lat="39.937906" lon="3.960924">
        <ele>-1.339</ele>
        <time>2020-09-06T08:32:11Z</time>
      </trkpt>
      <trkpt lat="39.937860" lon="3.961109">
        <ele>-0.941</ele>
        <time>2020-09-06T08:32:28Z</time>
      </trkpt>
      <trkpt lat="39.937876" lon="3.961241">
        <ele>-1.344</ele>
        <time>2020-09-06T08:32:44Z</time>
      </trkpt>
      <trkpt lat="39.937898" lon="3.961358">
        <ele>-1.311</ele>
        <time>2020-09-06T08:32:51Z</time>
      </trkpt>
      <trkpt lat="39.937906" lon="3.961621">
        <ele>-1.379</ele>
        <time>2020-09-06T08:33:07Z</time>
      </trkpt>
      <trkpt lat="39.937904" lon="3.961729">
        <ele>-1.395</ele>
        <time>2020-09-06T08:33:14Z</time>
      </trkpt>
      <trkpt lat="39.937922" lon="3.961833">
        <ele>-0.929</ele>
        <time>2020-09-06T08:33:22Z</time>
      </trkpt>
      <trkpt lat="39.937924" lon="3.962052">
        <ele>0.188</ele>
        <time>2020-09-06T08:33:36Z</time>
      </trkpt>
      <trkpt lat="39.937991" lon="3.962217">
        <ele>-0.483</ele>
        <time>2020-09-06T08:33:48Z</time>
      </trkpt>
      <trkpt lat="39.938028" lon="3.962354">
        <ele>0.125</ele>
        <time>2020-09-06T08:34:01Z</time>
      </trkpt>
      <trkpt lat="39.938058" lon="3.962527">
        <ele>0.617</ele>
        <time>2020-09-06T08:34:13Z</time>
      </trkpt>
      <trkpt lat="39.938100" lon="3.962689">
        <ele>2.508</ele>
        <time>2020-09-06T08:34:29Z</time>
      </trkpt>
      <trkpt lat="39.938102" lon="3.962785">
        <ele>4.433</ele>
        <time>2020-09-06T08:34:43Z</time>
      </trkpt>
      <trkpt lat="39.938143" lon="3.962973">
        <ele>4.425</ele>
        <time>2020-09-06T08:34:59Z</time>
      </trkpt>
      <trkpt lat="39.938156" lon="3.963083">
        <ele>5.998</ele>
        <time>2020-09-06T08:35:12Z</time>
      </trkpt>
      <trkpt lat="39.938188" lon="3.963234">
        <ele>6.815</ele>
        <time>2020-09-06T08:35:26Z</time>
      </trkpt>
      <trkpt lat="39.938172" lon="3.963348">
        <ele>8.783</ele>
        <time>2020-09-06T08:35:40Z</time>
      </trkpt>
      <trkpt lat="39.938126" lon="3.963486">
        <ele>10.799</ele>
        <time>2020-09-06T08:35:55Z</time>
      </trkpt>
      <trkpt lat="39.938069" lon="3.963621">
        <ele>12.163</ele>
        <time>2020-09-06T08:36:12Z</time>
      </trkpt>
      <trkpt lat="39.938003" lon="3.963713">
        <ele>14.052</ele>
        <time>2020-09-06T08:36:29Z</time>
      </trkpt>
      <trkpt lat="39.937970" lon="3.963689">
        <ele>16.989</ele>
        <time>2020-09-06T08:36:46Z</time>
      </trkpt>
      <trkpt lat="39.937892" lon="3.963716">
        <ele>18.806</ele>
        <time>2020-09-06T08:37:03Z</time>
      </trkpt>
      <trkpt lat="39.937766" lon="3.963747">
        <ele>20.826</ele>
        <time>2020-09-06T08:37:22Z</time>
      </trkpt>
      <trkpt lat="39.937655" lon="3.963686">
        <ele>24.108</ele>
        <time>2020-09-06T08:37:38Z</time>
      </trkpt>
      <trkpt lat="39.937573" lon="3.963676">
        <ele>26.093</ele>
        <time>2020-09-06T08:37:54Z</time>
      </trkpt>
      <trkpt lat="39.937470" lon="3.963704">
        <ele>28.585</ele>
        <time>2020-09-06T08:38:12Z</time>
      </trkpt>
      <trkpt lat="39.937359" lon="3.963744">
        <ele>29.988</ele>
        <time>2020-09-06T08:38:26Z</time>
      </trkpt>
      <trkpt lat="39.937281" lon="3.963784">
        <ele>31.885</ele>
        <time>2020-09-06T08:38:41Z</time>
      </trkpt>
      <trkpt lat="39.937253" lon="3.963759">
        <ele>34.283</ele>
        <time>2020-09-06T08:38:53Z</time>
      </trkpt>
      <trkpt lat="39.937238" lon="3.963669">
        <ele>35.219</ele>
        <time>2020-09-06T08:39:08Z</time>
      </trkpt>
      <trkpt lat="39.937218" lon="3.963619">
        <ele>35.753</ele>
        <time>2020-09-06T08:39:13Z</time>
      </trkpt>
      <trkpt lat="39.937174" lon="3.963571">
        <ele>36.172</ele>
        <time>2020-09-06T08:39:18Z</time>
      </trkpt>
      <trkpt lat="39.937142" lon="3.963496">
        <ele>36.117</ele>
        <time>2020-09-06T08:39:25Z</time>
      </trkpt>
      <trkpt lat="39.937120" lon="3.963321">
        <ele>36.687</ele>
        <time>2020-09-06T08:39:38Z</time>
      </trkpt>
      <trkpt lat="39.937111" lon="3.963280">
        <ele>36.615</ele>
        <time>2020-09-06T08:39:41Z</time>
      </trkpt>
      <trkpt lat="39.937046" lon="3.963130">
        <ele>37.108</ele>
        <time>2020-09-06T08:39:54Z</time>
      </trkpt>
      <trkpt lat="39.936942" lon="3.963045">
        <ele>38.586</ele>
        <time>2020-09-06T08:40:09Z</time>
      </trkpt>
      <trkpt lat="39.936831" lon="3.962971">
        <ele>39.068</ele>
        <time>2020-09-06T08:40:22Z</time>
      </trkpt>
      <trkpt lat="39.936707" lon="3.962881">
        <ele>39.091</ele>
        <time>2020-09-06T08:40:37Z</time>
      </trkpt>
      <trkpt lat="39.936550" lon="3.962765">
        <ele>39.068</ele>
        <time>2020-09-06T08:40:55Z</time>
      </trkpt>
      <trkpt lat="39.936403" lon="3.962624">
        <ele>39.026</ele>
        <time>2020-09-06T08:41:12Z</time>
      </trkpt>
      <trkpt lat="39.936297" lon="3.962517">
        <ele>39.092</ele>
        <time>2020-09-06T08:41:24Z</time>
      </trkpt>
      <trkpt lat="39.936132" lon="3.962396">
        <ele>39.076</ele>
        <time>2020-09-06T08:41:39Z</time>
      </trkpt>
      <trkpt lat="39.936010" lon="3.962284">
        <ele>39.545</ele>
        <time>2020-09-06T08:41:52Z</time>
      </trkpt>
      <trkpt lat="39.935866" lon="3.962200">
        <ele>39.584</ele>
        <time>2020-09-06T08:42:08Z</time>
      </trkpt>
      <trkpt lat="39.935756" lon="3.962152">
        <ele>40.007</ele>
        <time>2020-09-06T08:42:21Z</time>
      </trkpt>
      <trkpt lat="39.935733" lon="3.962152">
        <ele>40.517</ele>
        <time>2020-09-06T08:42:23Z</time>
      </trkpt>
      <trkpt lat="39.935521" lon="3.962023">
        <ele>40.908</ele>
        <time>2020-09-06T08:42:41Z</time>
      </trkpt>
      <trkpt lat="39.935353" lon="3.961941">
        <ele>40.063</ele>
        <time>2020-09-06T08:42:57Z</time>
      </trkpt>
      <trkpt lat="39.935171" lon="3.961811">
        <ele>38.575</ele>
        <time>2020-09-06T08:43:14Z</time>
      </trkpt>
      <trkpt lat="39.935013" lon="3.961699">
        <ele>37.628</ele>
        <time>2020-09-06T08:43:30Z</time>
      </trkpt>
      <trkpt lat="39.934972" lon="3.961774">
        <ele>38.125</ele>
        <time>2020-09-06T08:43:37Z</time>
      </trkpt>
      <trkpt lat="39.934943" lon="3.961830">
        <ele>37.693</ele>
        <time>2020-09-06T08:43:41Z</time>
      </trkpt>
      <trkpt lat="39.934849" lon="3.961979">
        <ele>38.529</ele>
        <time>2020-09-06T08:43:56Z</time>
      </trkpt>
      <trkpt lat="39.934764" lon="3.962067">
        <ele>38.513</ele>
        <time>2020-09-06T08:44:07Z</time>
      </trkpt>
      <trkpt lat="39.934645" lon="3.962116">
        <ele>38.542</ele>
        <time>2020-09-06T08:44:19Z</time>
      </trkpt>
      <trkpt lat="39.934500" lon="3.962199">
        <ele>39.027</ele>
        <time>2020-09-06T08:44:34Z</time>
      </trkpt>
      <trkpt lat="39.934316" lon="3.962226">
        <ele>39.068</ele>
        <time>2020-09-06T08:44:50Z</time>
      </trkpt>
      <trkpt lat="39.934227" lon="3.962253">
        <ele>39.514</ele>
        <time>2020-09-06T08:45:07Z</time>
      </trkpt>
      <trkpt lat="39.934226" lon="3.962254">
        <ele>40.508</ele>
        <time>2020-09-06T08:45:19Z</time>
      </trkpt>
      <trkpt lat="39.934223" lon="3.962249">
        <ele>40.047</ele>
        <time>2020-09-06T08:45:35Z</time>
      </trkpt>
      <trkpt lat="39.934222" lon="3.962249">
        <ele>40.019</ele>
        <time>2020-09-06T08:45:55Z</time>
      </trkpt>
      <trkpt lat="39.934214" lon="3.962250">
        <ele>40.042</ele>
        <time>2020-09-06T08:46:22Z</time>
      </trkpt>
      <trkpt lat="39.934160" lon="3.962243">
        <ele>40.979</ele>
        <time>2020-09-06T08:46:35Z</time>
      </trkpt>
      <trkpt lat="39.934144" lon="3.962225">
        <ele>40.587</ele>
        <time>2020-09-06T08:46:57Z</time>
      </trkpt>
      <trkpt lat="39.934142" lon="3.962222">
        <ele>41.413</ele>
        <time>2020-09-06T08:47:22Z</time>
      </trkpt>
      <trkpt lat="39.934141" lon="3.962206">
        <ele>41.477</ele>
        <time>2020-09-06T08:47:45Z</time>
      </trkpt>
      <trkpt lat="39.934143" lon="3.962216">
        <ele>41.426</ele>
        <time>2020-09-06T08:47:59Z</time>
      </trkpt>
      <trkpt lat="39.934152" lon="3.962253">
        <ele>41.499</ele>
        <time>2020-09-06T08:48:17Z</time>
      </trkpt>
      <trkpt lat="39.934177" lon="3.962345">
        <ele>40.907</ele>
        <time>2020-09-06T08:48:24Z</time>
      </trkpt>
      <trkpt lat="39.934217" lon="3.962453">
        <ele>40.927</ele>
        <time>2020-09-06T08:48:31Z</time>
      </trkpt>
      <trkpt lat="39.934237" lon="3.962542">
        <ele>40.908</ele>
        <time>2020-09-06T08:48:37Z</time>
      </trkpt>
      <trkpt lat="39.934267" lon="3.962693">
        <ele>40.994</ele>
        <time>2020-09-06T08:48:46Z</time>
      </trkpt>
      <trkpt lat="39.934285" lon="3.962859">
        <ele>40.936</ele>
        <time>2020-09-06T08:48:58Z</time>
      </trkpt>
      <trkpt lat="39.934294" lon="3.963022">
        <ele>41.439</ele>
        <time>2020-09-06T08:49:12Z</time>
      </trkpt>
      <trkpt lat="39.934239" lon="3.963229">
        <ele>40.516</ele>
        <time>2020-09-06T08:49:27Z</time>
      </trkpt>
      <trkpt lat="39.934193" lon="3.963428">
        <ele>40.094</ele>
        <time>2020-09-06T08:49:41Z</time>
      </trkpt>
      <trkpt lat="39.934179" lon="3.963484">
        <ele>40.050</ele>
        <time>2020-09-06T08:49:47Z</time>
      </trkpt>
      <trkpt lat="39.934209" lon="3.963705">
        <ele>39.524</ele>
        <time>2020-09-06T08:50:05Z</time>
      </trkpt>
      <trkpt lat="39.934201" lon="3.963943">
        <ele>38.513</ele>
        <time>2020-09-06T08:50:20Z</time>
      </trkpt>
      <trkpt lat="39.934205" lon="3.964018">
        <ele>39.034</ele>
        <time>2020-09-06T08:50:26Z</time>
      </trkpt>
      <trkpt lat="39.934227" lon="3.964193">
        <ele>38.155</ele>
        <time>2020-09-06T08:50:41Z</time>
      </trkpt>
      <trkpt lat="39.934213" lon="3.964419">
        <ele>36.610</ele>
        <time>2020-09-06T08:50:57Z</time>
      </trkpt>
      <trkpt lat="39.934206" lon="3.964477">
        <ele>36.608</ele>
        <time>2020-09-06T08:51:01Z</time>
      </trkpt>
      <trkpt lat="39.934213" lon="3.964510">
        <ele>36.688</ele>
        <time>2020-09-06T08:51:03Z</time>
      </trkpt>
      <trkpt lat="39.934198" lon="3.964726">
        <ele>36.180</ele>
        <time>2020-09-06T08:51:17Z</time>
      </trkpt>
      <trkpt lat="39.934205" lon="3.964886">
        <ele>34.763</ele>
        <time>2020-09-06T08:51:29Z</time>
      </trkpt>
      <trkpt lat="39.934221" lon="3.965099">
        <ele>33.720</ele>
        <time>2020-09-06T08:51:44Z</time>
      </trkpt>
      <trkpt lat="39.934258" lon="3.965282">
        <ele>32.858</ele>
        <time>2020-09-06T08:51:58Z</time>
      </trkpt>
      <trkpt lat="39.934263" lon="3.965300">
        <ele>33.394</ele>
        <time>2020-09-06T08:52:19Z</time>
      </trkpt>
      <trkpt lat="39.934314" lon="3.965418">
        <ele>31.888</ele>
        <time>2020-09-06T08:52:33Z</time>
      </trkpt>
      <trkpt lat="39.934373" lon="3.965533">
        <ele>30.977</ele>
        <time>2020-09-06T08:52:50Z</time>
      </trkpt>
      <trkpt lat="39.934423" lon="3.965680">
        <ele>28.988</ele>
        <time>2020-09-06T08:53:05Z</time>
      </trkpt>
      <trkpt lat="39.934444" lon="3.965706">
        <ele>28.524</ele>
        <time>2020-09-06T08:53:08Z</time>
      </trkpt>
      <trkpt lat="39.934472" lon="3.965771">
        <ele>28.526</ele>
        <time>2020-09-06T08:53:26Z</time>
      </trkpt>
      <trkpt lat="39.934461" lon="3.965828">
        <ele>28.508</ele>
        <time>2020-09-06T08:53:52Z</time>
      </trkpt>
      <trkpt lat="39.934516" lon="3.965954">
        <ele>29.423</ele>
        <time>2020-09-06T08:54:06Z</time>
      </trkpt>
      <trkpt lat="39.934527" lon="3.966093">
        <ele>29.495</ele>
        <time>2020-09-06T08:54:23Z</time>
      </trkpt>
      <trkpt lat="39.934398" lon="3.966106">
        <ele>28.918</ele>
        <time>2020-09-06T08:54:37Z</time>
      </trkpt>
      <trkpt lat="39.934302" lon="3.966098">
        <ele>28.515</ele>
        <time>2020-09-06T08:54:52Z</time>
      </trkpt>
      <trkpt lat="39.934183" lon="3.966135">
        <ele>28.083</ele>
        <time>2020-09-06T08:55:06Z</time>
      </trkpt>
      <trkpt lat="39.934058" lon="3.966215">
        <ele>28.059</ele>
        <time>2020-09-06T08:55:19Z</time>
      </trkpt>
      <trkpt lat="39.933985" lon="3.966347">
        <ele>27.543</ele>
        <time>2020-09-06T08:55:32Z</time>
      </trkpt>
      <trkpt lat="39.933952" lon="3.966496">
        <ele>28.582</ele>
        <time>2020-09-06T08:55:48Z</time>
      </trkpt>
      <trkpt lat="39.933862" lon="3.966666">
        <ele>29.942</ele>
        <time>2020-09-06T08:56:05Z</time>
      </trkpt>
      <trkpt lat="39.933750" lon="3.966799">
        <ele>30.922</ele>
        <time>2020-09-06T08:56:21Z</time>
      </trkpt>
      <trkpt lat="39.933712" lon="3.967012">
        <ele>31.814</ele>
        <time>2020-09-06T08:56:37Z</time>
      </trkpt>
      <trkpt lat="39.933692" lon="3.967216">
        <ele>33.308</ele>
        <time>2020-09-06T08:56:53Z</time>
      </trkpt>
      <trkpt lat="39.933732" lon="3.967441">
        <ele>33.799</ele>
        <time>2020-09-06T08:57:11Z</time>
      </trkpt>
      <trkpt lat="39.933755" lon="3.967556">
        <ele>34.291</ele>
        <time>2020-09-06T08:57:19Z</time>
      </trkpt>
      <trkpt lat="39.933785" lon="3.967629">
        <ele>34.294</ele>
        <time>2020-09-06T08:57:25Z</time>
      </trkpt>
      <trkpt lat="39.933853" lon="3.967860">
        <ele>34.781</ele>
        <time>2020-09-06T08:57:42Z</time>
      </trkpt>
      <trkpt lat="39.933975" lon="3.968028">
        <ele>34.769</ele>
        <time>2020-09-06T08:57:59Z</time>
      </trkpt>
      <trkpt lat="39.934041" lon="3.968123">
        <ele>35.215</ele>
        <time>2020-09-06T08:58:09Z</time>
      </trkpt>
      <trkpt lat="39.934179" lon="3.968250">
        <ele>36.139</ele>
        <time>2020-09-06T08:58:25Z</time>
      </trkpt>
      <trkpt lat="39.934258" lon="3.968293">
        <ele>35.718</ele>
        <time>2020-09-06T08:58:35Z</time>
      </trkpt>
      <trkpt lat="39.934343" lon="3.968399">
        <ele>36.147</ele>
        <time>2020-09-06T08:58:49Z</time>
      </trkpt>
      <trkpt lat="39.934281" lon="3.968433">
        <ele>35.229</ele>
        <time>2020-09-06T08:58:56Z</time>
      </trkpt>
      <trkpt lat="39.934147" lon="3.968530">
        <ele>34.221</ele>
        <time>2020-09-06T08:59:13Z</time>
      </trkpt>
      <trkpt lat="39.934019" lon="3.968606">
        <ele>33.308</ele>
        <time>2020-09-06T08:59:27Z</time>
      </trkpt>
      <trkpt lat="39.933921" lon="3.968688">
        <ele>32.879</ele>
        <time>2020-09-06T08:59:38Z</time>
      </trkpt>
      <trkpt lat="39.933805" lon="3.968705">
        <ele>30.921</ele>
        <time>2020-09-06T08:59:52Z</time>
      </trkpt>
      <trkpt lat="39.933656" lon="3.968574">
        <ele>29.924</ele>
        <time>2020-09-06T09:00:09Z</time>
      </trkpt>
      <trkpt lat="39.933602" lon="3.968538">
        <ele>29.451</ele>
        <time>2020-09-06T09:00:15Z</time>
      </trkpt>
      <trkpt lat="39.933568" lon="3.968504">
        <ele>28.599</ele>
        <time>2020-09-06T09:00:19Z</time>
      </trkpt>
      <trkpt lat="39.933398" lon="3.968500">
        <ele>26.035</ele>
        <time>2020-09-06T09:00:36Z</time>
      </trkpt>
      <trkpt lat="39.933298" lon="3.968514">
        <ele>26.099</ele>
        <time>2020-09-06T09:00:46Z</time>
      </trkpt>
      <trkpt lat="39.933201" lon="3.968489">
        <ele>25.658</ele>
        <time>2020-09-06T09:00:56Z</time>
      </trkpt>
      <trkpt lat="39.933157" lon="3.968590">
        <ele>24.655</ele>
        <time>2020-09-06T09:01:06Z</time>
      </trkpt>
      <trkpt lat="39.933207" lon="3.968722">
        <ele>22.707</ele>
        <time>2020-09-06T09:01:21Z</time>
      </trkpt>
      <trkpt lat="39.933213" lon="3.968846">
        <ele>19.317</ele>
        <time>2020-09-06T09:01:38Z</time>
      </trkpt>
      <trkpt lat="39.933157" lon="3.969015">
        <ele>17.908</ele>
        <time>2020-09-06T09:01:53Z</time>
      </trkpt>
      <trkpt lat="39.933157" lon="3.969045">
        <ele>17.450</ele>
        <time>2020-09-06T09:02:14Z</time>
      </trkpt>
      <trkpt lat="39.933172" lon="3.969173">
        <ele>16.072</ele>
        <time>2020-09-06T09:02:35Z</time>
      </trkpt>
      <trkpt lat="39.933184" lon="3.969343">
        <ele>13.655</ele>
        <time>2020-09-06T09:02:49Z</time>
      </trkpt>
      <trkpt lat="39.933175" lon="3.969482">
        <ele>12.172</ele>
        <time>2020-09-06T09:03:03Z</time>
      </trkpt>
      <trkpt lat="39.933229" lon="3.969628">
        <ele>9.720</ele>
        <time>2020-09-06T09:03:18Z</time>
      </trkpt>
      <trkpt lat="39.933279" lon="3.969748">
        <ele>7.396</ele>
        <time>2020-09-06T09:03:33Z</time>
      </trkpt>
      <trkpt lat="39.933290" lon="3.969856">
        <ele>5.940</ele>
        <time>2020-09-06T09:03:46Z</time>
      </trkpt>
      <trkpt lat="39.933336" lon="3.970053">
        <ele>4.959</ele>
        <time>2020-09-06T09:04:03Z</time>
      </trkpt>
      <trkpt lat="39.933358" lon="3.970227">
        <ele>3.944</ele>
        <time>2020-09-06T09:04:19Z</time>
      </trkpt>
      <trkpt lat="39.933325" lon="3.970396">
        <ele>4.405</ele>
        <time>2020-09-06T09:04:35Z</time>
      </trkpt>
      <trkpt lat="39.933272" lon="3.970544">
        <ele>4.415</ele>
        <time>2020-09-06T09:04:52Z</time>
      </trkpt>
      <trkpt lat="39.933282" lon="3.970565">
        <ele>3.908</ele>
        <time>2020-09-06T09:05:14Z</time>
      </trkpt>
      <trkpt lat="39.933285" lon="3.970582">
        <ele>4.429</ele>
        <time>2020-09-06T09:05:33Z</time>
      </trkpt>
      <trkpt lat="39.933285" lon="3.970581">
        <ele>3.971</ele>
        <time>2020-09-06T09:05:58Z</time>
      </trkpt>
      <trkpt lat="39.933289" lon="3.970589">
        <ele>3.924</ele>
        <time>2020-09-06T09:06:24Z</time>
      </trkpt>
      <trkpt lat="39.933300" lon="3.970537">
        <ele>4.481</ele>
        <time>2020-09-06T09:06:43Z</time>
      </trkpt>
      <trkpt lat="39.933297" lon="3.970485">
        <ele>3.939</ele>
        <time>2020-09-06T09:06:59Z</time>
      </trkpt>
      <trkpt lat="39.933339" lon="3.970382">
        <ele>3.575</ele>
        <time>2020-09-06T09:07:13Z</time>
      </trkpt>
      <trkpt lat="39.933363" lon="3.970370">
        <ele>3.969</ele>
        <time>2020-09-06T09:07:37Z</time>
      </trkpt>
      <trkpt lat="39.933361" lon="3.970374">
        <ele>4.488</ele>
        <time>2020-09-06T09:07:55Z</time>
      </trkpt>
      <trkpt lat="39.933371" lon="3.970368">
        <ele>3.914</ele>
        <time>2020-09-06T09:08:15Z</time>
      </trkpt>
      <trkpt lat="39.933349" lon="3.970425">
        <ele>3.954</ele>
        <time>2020-09-06T09:08:37Z</time>
      </trkpt>
      <trkpt lat="39.933370" lon="3.970367">
        <ele>4.409</ele>
        <time>2020-09-06T09:09:02Z</time>
      </trkpt>
      <trkpt lat="39.933366" lon="3.970060">
        <ele>4.908</ele>
        <time>2020-09-06T09:09:22Z</time>
      </trkpt>
      <trkpt lat="39.933383" lon="3.969859">
        <ele>5.976</ele>
        <time>2020-09-06T09:09:40Z</time>
      </trkpt>
      <trkpt lat="39.933379" lon="3.969749">
        <ele>7.398</ele>
        <time>2020-09-06T09:09:54Z</time>
      </trkpt>
      <trkpt lat="39.933439" lon="3.969823">
        <ele>6.311</ele>
        <time>2020-09-06T09:10:11Z</time>
      </trkpt>
      <trkpt lat="39.933534" lon="3.969889">
        <ele>6.328</ele>
        <time>2020-09-06T09:10:29Z</time>
      </trkpt>
      <trkpt lat="39.933701" lon="3.969967">
        <ele>6.366</ele>
        <time>2020-09-06T09:10:45Z</time>
      </trkpt>
      <trkpt lat="39.933747" lon="3.970018">
        <ele>6.342</ele>
        <time>2020-09-06T09:10:50Z</time>
      </trkpt>
      <trkpt lat="39.933795" lon="3.970082">
        <ele>6.326</ele>
        <time>2020-09-06T09:10:56Z</time>
      </trkpt>
      <trkpt lat="39.933880" lon="3.970211">
        <ele>7.815</ele>
        <time>2020-09-06T09:11:10Z</time>
      </trkpt>
      <trkpt lat="39.933924" lon="3.970267">
        <ele>8.389</ele>
        <time>2020-09-06T09:11:16Z</time>
      </trkpt>
      <trkpt lat="39.934008" lon="3.970437">
        <ele>9.206</ele>
        <time>2020-09-06T09:11:32Z</time>
      </trkpt>
      <trkpt lat="39.934058" lon="3.970573">
        <ele>9.726</ele>
        <time>2020-09-06T09:11:47Z</time>
      </trkpt>
      <trkpt lat="39.934060" lon="3.970582">
        <ele>9.708</ele>
        <time>2020-09-06T09:12:09Z</time>
      </trkpt>
      <trkpt lat="39.934067" lon="3.970588">
        <ele>9.743</ele>
        <time>2020-09-06T09:12:17Z</time>
      </trkpt>
      <trkpt lat="39.934131" lon="3.970702">
        <ele>10.295</ele>
        <time>2020-09-06T09:12:29Z</time>
      </trkpt>
      <trkpt lat="39.934138" lon="3.970734">
        <ele>10.738</ele>
        <time>2020-09-06T09:12:31Z</time>
      </trkpt>
      <trkpt lat="39.934203" lon="3.970875">
        <ele>11.195</ele>
        <time>2020-09-06T09:12:43Z</time>
      </trkpt>
      <trkpt lat="39.934204" lon="3.970887">
        <ele>11.173</ele>
        <time>2020-09-06T09:12:54Z</time>
      </trkpt>
      <trkpt lat="39.934230" lon="3.970950">
        <ele>11.139</ele>
        <time>2020-09-06T09:12:59Z</time>
      </trkpt>
      <trkpt lat="39.934283" lon="3.971122">
        <ele>12.613</ele>
        <time>2020-09-06T09:13:13Z</time>
      </trkpt>
      <trkpt lat="39.934313" lon="3.971264">
        <ele>14.572</ele>
        <time>2020-09-06T09:13:26Z</time>
      </trkpt>
      <trkpt lat="39.934350" lon="3.971447">
        <ele>16.037</ele>
        <time>2020-09-06T09:13:40Z</time>
      </trkpt>
      <trkpt lat="39.934355" lon="3.971459">
        <ele>16.049</ele>
        <time>2020-09-06T09:13:41Z</time>
      </trkpt>
      <trkpt lat="39.934420" lon="3.971593">
        <ele>16.413</ele>
        <time>2020-09-06T09:13:52Z</time>
      </trkpt>
      <trkpt lat="39.934440" lon="3.971654">
        <ele>16.408</ele>
        <time>2020-09-06T09:13:57Z</time>
      </trkpt>
      <trkpt lat="39.934461" lon="3.971687">
        <ele>16.968</ele>
        <time>2020-09-06T09:14:00Z</time>
      </trkpt>
      <trkpt lat="39.934488" lon="3.971740">
        <ele>16.960</ele>
        <time>2020-09-06T09:14:05Z</time>
      </trkpt>
      <trkpt lat="39.934572" lon="3.971841">
        <ele>16.973</ele>
        <time>2020-09-06T09:14:16Z</time>
      </trkpt>
      <trkpt lat="39.934592" lon="3.971883">
        <ele>16.930</ele>
        <time>2020-09-06T09:14:19Z</time>
      </trkpt>
      <trkpt lat="39.934642" lon="3.972021">
        <ele>16.988</ele>
        <time>2020-09-06T09:14:35Z</time>
      </trkpt>
      <trkpt lat="39.934691" lon="3.972123">
        <ele>16.434</ele>
        <time>2020-09-06T09:14:53Z</time>
      </trkpt>
      <trkpt lat="39.934745" lon="3.972329">
        <ele>15.068</ele>
        <time>2020-09-06T09:15:08Z</time>
      </trkpt>
      <trkpt lat="39.934785" lon="3.972526">
        <ele>12.197</ele>
        <time>2020-09-06T09:15:24Z</time>
      </trkpt>
      <trkpt lat="39.934829" lon="3.972681">
        <ele>10.246</ele>
        <time>2020-09-06T09:15:38Z</time>
      </trkpt>
      <trkpt lat="39.934856" lon="3.972794">
        <ele>8.788</ele>
        <time>2020-09-06T09:15:47Z</time>
      </trkpt>
      <trkpt lat="39.934855" lon="3.972882">
        <ele>8.316</ele>
        <time>2020-09-06T09:15:52Z</time>
      </trkpt>
      <trkpt lat="39.934896" lon="3.973037">
        <ele>7.308</ele>
        <time>2020-09-06T09:16:08Z</time>
      </trkpt>
      <trkpt lat="39.934893" lon="3.973060">
        <ele>5.969</ele>
        <time>2020-09-06T09:16:28Z</time>
      </trkpt>
      <trkpt lat="39.934879" lon="3.973066">
        <ele>2.541</ele>
        <time>2020-09-06T09:16:39Z</time>
      </trkpt>
      <trkpt lat="39.934854" lon="3.973070">
        <ele>0.124</ele>
        <time>2020-09-06T09:16:51Z</time>
      </trkpt>
      <trkpt lat="39.934782" lon="3.973081">
        <ele>-0.421</ele>
        <time>2020-09-06T09:16:57Z</time>
      </trkpt>
      <trkpt lat="39.934657" lon="3.973155">
        <ele>-2.819</ele>
        <time>2020-09-06T09:17:12Z</time>
      </trkpt>
      <trkpt lat="39.934624" lon="3.973217">
        <ele>-3.365</ele>
        <time>2020-09-06T09:17:17Z</time>
      </trkpt>
      <trkpt lat="39.934612" lon="3.973242">
        <ele>-3.359</ele>
        <time>2020-09-06T09:17:19Z</time>
      </trkpt>
      <trkpt lat="39.934531" lon="3.973392">
        <ele>-3.398</ele>
        <time>2020-09-06T09:17:34Z</time>
      </trkpt>
      <trkpt lat="39.934474" lon="3.973364">
        <ele>-1.831</ele>
        <time>2020-09-06T09:17:46Z</time>
      </trkpt>
      <trkpt lat="39.934431" lon="3.973337">
        <ele>0.161</ele>
        <time>2020-09-06T09:18:00Z</time>
      </trkpt>
      <trkpt lat="39.934432" lon="3.973325">
        <ele>1.107</ele>
        <time>2020-09-06T09:18:16Z</time>
      </trkpt>
      <trkpt lat="39.934391" lon="3.973357">
        <ele>3.508</ele>
        <time>2020-09-06T09:18:27Z</time>
      </trkpt>
      <trkpt lat="39.934363" lon="3.973361">
        <ele>6.328</ele>
        <time>2020-09-06T09:18:42Z</time>
      </trkpt>
      <trkpt lat="39.934261" lon="3.973340">
        <ele>9.290</ele>
        <time>2020-09-06T09:18:58Z</time>
      </trkpt>
      <trkpt lat="39.934195" lon="3.973371">
        <ele>11.623</ele>
        <time>2020-09-06T09:19:11Z</time>
      </trkpt>
      <trkpt lat="39.934179" lon="3.973371">
        <ele>13.150</ele>
        <time>2020-09-06T09:19:24Z</time>
      </trkpt>
      <trkpt lat="39.934129" lon="3.973372">
        <ele>15.598</ele>
        <time>2020-09-06T09:19:39Z</time>
      </trkpt>
      <trkpt lat="39.934083" lon="3.973363">
        <ele>18.844</ele>
        <time>2020-09-06T09:19:55Z</time>
      </trkpt>
      <trkpt lat="39.934049" lon="3.973410">
        <ele>20.398</ele>
        <time>2020-09-06T09:20:06Z</time>
      </trkpt>
      <trkpt lat="39.934030" lon="3.973414">
        <ele>20.817</ele>
        <time>2020-09-06T09:20:10Z</time>
      </trkpt>
      <trkpt lat="39.934003" lon="3.973421">
        <ele>21.213</ele>
        <time>2020-09-06T09:20:15Z</time>
      </trkpt>
      <trkpt lat="39.933976" lon="3.973446">
        <ele>23.243</ele>
        <time>2020-09-06T09:20:28Z</time>
      </trkpt>
      <trkpt lat="39.933955" lon="3.973480">
        <ele>25.107</ele>
        <time>2020-09-06T09:20:42Z</time>
      </trkpt>
      <trkpt lat="39.933948" lon="3.973483">
        <ele>27.508</ele>
        <time>2020-09-06T09:20:47Z</time>
      </trkpt>
      <trkpt lat="39.933914" lon="3.973485">
        <ele>28.066</ele>
        <time>2020-09-06T09:21:01Z</time>
      </trkpt>
      <trkpt lat="39.933860" lon="3.973489">
        <ele>28.598</ele>
        <time>2020-09-06T09:21:15Z</time>
      </trkpt>
      <trkpt lat="39.933795" lon="3.973464">
        <ele>28.521</ele>
        <time>2020-09-06T09:21:27Z</time>
      </trkpt>
      <trkpt lat="39.933766" lon="3.973409">
        <ele>28.558</ele>
        <time>2020-09-06T09:21:40Z</time>
      </trkpt>
      <trkpt lat="39.933761" lon="3.973357">
        <ele>27.066</ele>
        <time>2020-09-06T09:22:00Z</time>
      </trkpt>
      <trkpt lat="39.933762" lon="3.973348">
        <ele>27.082</ele>
        <time>2020-09-06T09:22:22Z</time>
      </trkpt>
      <trkpt lat="39.933756" lon="3.973348">
        <ele>27.526</ele>
        <time>2020-09-06T09:22:42Z</time>
      </trkpt>
      <trkpt lat="39.933754" lon="3.973344">
        <ele>27.095</ele>
        <time>2020-09-06T09:23:02Z</time>
      </trkpt>
      <trkpt lat="39.933751" lon="3.973336">
        <ele>27.027</ele>
        <time>2020-09-06T09:23:26Z</time>
      </trkpt>
      <trkpt lat="39.933747" lon="3.973360">
        <ele>28.068</ele>
        <time>2020-09-06T09:23:42Z</time>
      </trkpt>
      <trkpt lat="39.933752" lon="3.973370">
        <ele>28.014</ele>
        <time>2020-09-06T09:24:02Z</time>
      </trkpt>
      <trkpt lat="39.933747" lon="3.973374">
        <ele>28.008</ele>
        <time>2020-09-06T09:24:26Z</time>
      </trkpt>
      <trkpt lat="39.933743" lon="3.973407">
        <ele>28.527</ele>
        <time>2020-09-06T09:24:44Z</time>
      </trkpt>
      <trkpt lat="39.933774" lon="3.973495">
        <ele>28.959</ele>
        <time>2020-09-06T09:24:56Z</time>
      </trkpt>
      <trkpt lat="39.933762" lon="3.973617">
        <ele>30.432</ele>
        <time>2020-09-06T09:25:10Z</time>
      </trkpt>
      <trkpt lat="39.933653" lon="3.973680">
        <ele>30.499</ele>
        <time>2020-09-06T09:25:25Z</time>
      </trkpt>
      <trkpt lat="39.933661" lon="3.973689">
        <ele>30.447</ele>
        <time>2020-09-06T09:25:46Z</time>
      </trkpt>
      <trkpt lat="39.933667" lon="3.973801">
        <ele>30.973</ele>
        <time>2020-09-06T09:25:56Z</time>
      </trkpt>
      <trkpt lat="39.933644" lon="3.973853">
        <ele>30.977</ele>
        <time>2020-09-06T09:26:00Z</time>
      </trkpt>
      <trkpt lat="39.933668" lon="3.973971">
        <ele>31.396</ele>
        <time>2020-09-06T09:26:11Z</time>
      </trkpt>
      <trkpt lat="39.933701" lon="3.974193">
        <ele>32.346</ele>
        <time>2020-09-06T09:26:27Z</time>
      </trkpt>
      <trkpt lat="39.933735" lon="3.974307">
        <ele>33.388</ele>
        <time>2020-09-06T09:26:37Z</time>
      </trkpt>
      <trkpt lat="39.933748" lon="3.974468">
        <ele>35.216</ele>
        <time>2020-09-06T09:26:51Z</time>
      </trkpt>
      <trkpt lat="39.933711" lon="3.974627">
        <ele>36.108</ele>
        <time>2020-09-06T09:27:05Z</time>
      </trkpt>
      <trkpt lat="39.933703" lon="3.974647">
        <ele>36.149</ele>
        <time>2020-09-06T09:27:07Z</time>
      </trkpt>
      <trkpt lat="39.933617" lon="3.974894">
        <ele>35.711</ele>
        <time>2020-09-06T09:27:25Z</time>
      </trkpt>
      <trkpt lat="39.933624" lon="3.975166">
        <ele>36.194</ele>
        <time>2020-09-06T09:27:42Z</time>
      </trkpt>
      <trkpt lat="39.933580" lon="3.975300">
        <ele>36.121</ele>
        <time>2020-09-06T09:27:53Z</time>
      </trkpt>
      <trkpt lat="39.933533" lon="3.975557">
        <ele>37.169</ele>
        <time>2020-09-06T09:28:12Z</time>
      </trkpt>
      <trkpt lat="39.933477" lon="3.975750">
        <ele>37.135</ele>
        <time>2020-09-06T09:28:27Z</time>
      </trkpt>
      <trkpt lat="39.933466" lon="3.975953">
        <ele>37.649</ele>
        <time>2020-09-06T09:28:41Z</time>
      </trkpt>
      <trkpt lat="39.933444" lon="3.976182">
        <ele>38.578</ele>
        <time>2020-09-06T09:28:58Z</time>
      </trkpt>
      <trkpt lat="39.933370" lon="3.976393">
        <ele>39.555</ele>
        <time>2020-09-06T09:29:15Z</time>
      </trkpt>
      <trkpt lat="39.933332" lon="3.976451">
        <ele>39.507</ele>
        <time>2020-09-06T09:29:21Z</time>
      </trkpt>
      <trkpt lat="39.933257" lon="3.976589">
        <ele>40.017</ele>
        <time>2020-09-06T09:29:34Z</time>
      </trkpt>
      <trkpt lat="39.933131" lon="3.976827">
        <ele>40.508</ele>
        <time>2020-09-06T09:29:52Z</time>
      </trkpt>
      <trkpt lat="39.933107" lon="3.976881">
        <ele>40.010</ele>
        <time>2020-09-06T09:29:57Z</time>
      </trkpt>
      <trkpt lat="39.933087" lon="3.976949">
        <ele>40.522</ele>
        <time>2020-09-06T09:30:01Z</time>
      </trkpt>
      <trkpt lat="39.933078" lon="3.977004">
        <ele>40.075</ele>
        <time>2020-09-06T09:30:05Z</time>
      </trkpt>
      <trkpt lat="39.933070" lon="3.977083">
        <ele>39.592</ele>
        <time>2020-09-06T09:30:11Z</time>
      </trkpt>
      <trkpt lat="39.933003" lon="3.977273">
        <ele>39.570</ele>
        <time>2020-09-06T09:30:26Z</time>
      </trkpt>
      <trkpt lat="39.932947" lon="3.977493">
        <ele>39.086</ele>
        <time>2020-09-06T09:30:44Z</time>
      </trkpt>
      <trkpt lat="39.932945" lon="3.977506">
        <ele>38.530</ele>
        <time>2020-09-06T09:30:45Z</time>
      </trkpt>
      <trkpt lat="39.932948" lon="3.977748">
        <ele>38.139</ele>
        <time>2020-09-06T09:30:59Z</time>
      </trkpt>
      <trkpt lat="39.932951" lon="3.977766">
        <ele>38.121</ele>
        <time>2020-09-06T09:31:00Z</time>
      </trkpt>
      <trkpt lat="39.932925" lon="3.977933">
        <ele>38.141</ele>
        <time>2020-09-06T09:31:13Z</time>
      </trkpt>
      <trkpt lat="39.932915" lon="3.977961">
        <ele>38.105</ele>
        <time>2020-09-06T09:31:16Z</time>
      </trkpt>
      <trkpt lat="39.932878" lon="3.978245">
        <ele>37.108</ele>
        <time>2020-09-06T09:31:34Z</time>
      </trkpt>
      <trkpt lat="39.932933" lon="3.978478">
        <ele>37.677</ele>
        <time>2020-09-06T09:31:50Z</time>
      </trkpt>
      <trkpt lat="39.932952" lon="3.978534">
        <ele>38.199</ele>
        <time>2020-09-06T09:31:55Z</time>
      </trkpt>
      <trkpt lat="39.932960" lon="3.978651">
        <ele>38.582</ele>
        <time>2020-09-06T09:32:02Z</time>
      </trkpt>
      <trkpt lat="39.932972" lon="3.978884">
        <ele>39.019</ele>
        <time>2020-09-06T09:32:19Z</time>
      </trkpt>
      <trkpt lat="39.932957" lon="3.979132">
        <ele>40.047</ele>
        <time>2020-09-06T09:32:35Z</time>
      </trkpt>
      <trkpt lat="39.932959" lon="3.979233">
        <ele>40.093</ele>
        <time>2020-09-06T09:32:42Z</time>
      </trkpt>
      <trkpt lat="39.932938" lon="3.979421">
        <ele>40.987</ele>
        <time>2020-09-06T09:32:58Z</time>
      </trkpt>
      <trkpt lat="39.932868" lon="3.979647">
        <ele>41.446</ele>
        <time>2020-09-06T09:33:14Z</time>
      </trkpt>
      <trkpt lat="39.932820" lon="3.979781">
        <ele>41.482</ele>
        <time>2020-09-06T09:33:27Z</time>
      </trkpt>
      <trkpt lat="39.932738" lon="3.979907">
        <ele>41.443</ele>
        <time>2020-09-06T09:33:38Z</time>
      </trkpt>
      <trkpt lat="39.932732" lon="3.979960">
        <ele>41.917</ele>
        <time>2020-09-06T09:33:42Z</time>
      </trkpt>
      <trkpt lat="39.932773" lon="3.980111">
        <ele>42.408</ele>
        <time>2020-09-06T09:33:54Z</time>
      </trkpt>
      <trkpt lat="39.932797" lon="3.980285">
        <ele>41.913</ele>
        <time>2020-09-06T09:34:06Z</time>
      </trkpt>
      <trkpt lat="39.932802" lon="3.980333">
        <ele>41.925</ele>
        <time>2020-09-06T09:34:10Z</time>
      </trkpt>
      <trkpt lat="39.932799" lon="3.980470">
        <ele>42.478</ele>
        <time>2020-09-06T09:34:19Z</time>
      </trkpt>
      <trkpt lat="39.932797" lon="3.980537">
        <ele>42.915</ele>
        <time>2020-09-06T09:34:23Z</time>
      </trkpt>
      <trkpt lat="39.932821" lon="3.980706">
        <ele>42.973</ele>
        <time>2020-09-06T09:34:35Z</time>
      </trkpt>
      <trkpt lat="39.932817" lon="3.980724">
        <ele>42.979</ele>
        <time>2020-09-06T09:34:36Z</time>
      </trkpt>
      <trkpt lat="39.932780" lon="3.980889">
        <ele>43.863</ele>
        <time>2020-09-06T09:34:49Z</time>
      </trkpt>
      <trkpt lat="39.932713" lon="3.980994">
        <ele>43.812</ele>
        <time>2020-09-06T09:34:57Z</time>
      </trkpt>
      <trkpt lat="39.932658" lon="3.981202">
        <ele>44.339</ele>
        <time>2020-09-06T09:35:12Z</time>
      </trkpt>
      <trkpt lat="39.932654" lon="3.981354">
        <ele>44.301</ele>
        <time>2020-09-06T09:35:25Z</time>
      </trkpt>
      <trkpt lat="39.932699" lon="3.981477">
        <ele>44.321</ele>
        <time>2020-09-06T09:35:36Z</time>
      </trkpt>
      <trkpt lat="39.932703" lon="3.981689">
        <ele>44.308</ele>
        <time>2020-09-06T09:35:50Z</time>
      </trkpt>
      <trkpt lat="39.932672" lon="3.981861">
        <ele>43.848</ele>
        <time>2020-09-06T09:36:03Z</time>
      </trkpt>
      <trkpt lat="39.932606" lon="3.982047">
        <ele>42.940</ele>
        <time>2020-09-06T09:36:19Z</time>
      </trkpt>
      <trkpt lat="39.932582" lon="3.982081">
        <ele>42.953</ele>
        <time>2020-09-06T09:36:22Z</time>
      </trkpt>
      <trkpt lat="39.932490" lon="3.982300">
        <ele>42.960</ele>
        <time>2020-09-06T09:36:38Z</time>
      </trkpt>
      <trkpt lat="39.932388" lon="3.982474">
        <ele>42.948</ele>
        <time>2020-09-06T09:36:53Z</time>
      </trkpt>
      <trkpt lat="39.932255" lon="3.982585">
        <ele>43.484</ele>
        <time>2020-09-06T09:37:08Z</time>
      </trkpt>
      <trkpt lat="39.932174" lon="3.982761">
        <ele>43.428</ele>
        <time>2020-09-06T09:37:24Z</time>
      </trkpt>
      <trkpt lat="39.932160" lon="3.982951">
        <ele>43.467</ele>
        <time>2020-09-06T09:37:39Z</time>
      </trkpt>
      <trkpt lat="39.932123" lon="3.983072">
        <ele>42.952</ele>
        <time>2020-09-06T09:37:49Z</time>
      </trkpt>
      <trkpt lat="39.932094" lon="3.983210">
        <ele>42.453</ele>
        <time>2020-09-06T09:38:00Z</time>
      </trkpt>
      <trkpt lat="39.932140" lon="3.983443">
        <ele>41.408</ele>
        <time>2020-09-06T09:38:18Z</time>
      </trkpt>
      <trkpt lat="39.932144" lon="3.983470">
        <ele>41.408</ele>
        <time>2020-09-06T09:38:20Z</time>
      </trkpt>
      <trkpt lat="39.932097" lon="3.983674">
        <ele>41.430</ele>
        <time>2020-09-06T09:38:35Z</time>
      </trkpt>
      <trkpt lat="39.932109" lon="3.983843">
        <ele>41.432</ele>
        <time>2020-09-06T09:38:49Z</time>
      </trkpt>
      <trkpt lat="39.932203" lon="3.984022">
        <ele>41.935</ele>
        <time>2020-09-06T09:39:04Z</time>
      </trkpt>
      <trkpt lat="39.932168" lon="3.984209">
        <ele>41.482</ele>
        <time>2020-09-06T09:39:17Z</time>
      </trkpt>
      <trkpt lat="39.932134" lon="3.984309">
        <ele>40.920</ele>
        <time>2020-09-06T09:39:26Z</time>
      </trkpt>
      <trkpt lat="39.932109" lon="3.984377">
        <ele>40.966</ele>
        <time>2020-09-06T09:39:32Z</time>
      </trkpt>
      <trkpt lat="39.932098" lon="3.984448">
        <ele>40.950</ele>
        <time>2020-09-06T09:39:38Z</time>
      </trkpt>
      <trkpt lat="39.932103" lon="3.984512">
        <ele>40.539</ele>
        <time>2020-09-06T09:39:43Z</time>
      </trkpt>
      <trkpt lat="39.932115" lon="3.984615">
        <ele>40.031</ele>
        <time>2020-09-06T09:39:49Z</time>
      </trkpt>
      <trkpt lat="39.932076" lon="3.984773">
        <ele>39.561</ele>
        <time>2020-09-06T09:39:59Z</time>
      </trkpt>
      <trkpt lat="39.932074" lon="3.984804">
        <ele>39.507</ele>
        <time>2020-09-06T09:40:01Z</time>
      </trkpt>
      <trkpt lat="39.932005" lon="3.985013">
        <ele>40.008</ele>
        <time>2020-09-06T09:40:15Z</time>
      </trkpt>
      <trkpt lat="39.931948" lon="3.985170">
        <ele>40.928</ele>
        <time>2020-09-06T09:40:27Z</time>
      </trkpt>
      <trkpt lat="39.931905" lon="3.985292">
        <ele>42.410</ele>
        <time>2020-09-06T09:40:40Z</time>
      </trkpt>
      <trkpt lat="39.931934" lon="3.985426">
        <ele>43.433</ele>
        <time>2020-09-06T09:40:52Z</time>
      </trkpt>
      <trkpt lat="39.931902" lon="3.985511">
        <ele>43.830</ele>
        <time>2020-09-06T09:41:00Z</time>
      </trkpt>
      <trkpt lat="39.931814" lon="3.985614">
        <ele>44.368</ele>
        <time>2020-09-06T09:41:14Z</time>
      </trkpt>
      <trkpt lat="39.931774" lon="3.985783">
        <ele>44.834</ele>
        <time>2020-09-06T09:41:28Z</time>
      </trkpt>
      <trkpt lat="39.931749" lon="3.985803">
        <ele>44.858</ele>
        <time>2020-09-06T09:41:31Z</time>
      </trkpt>
      <trkpt lat="39.931643" lon="3.985896">
        <ele>45.317</ele>
        <time>2020-09-06T09:41:43Z</time>
      </trkpt>
      <trkpt lat="39.931593" lon="3.985900">
        <ele>45.364</ele>
        <time>2020-09-06T09:41:48Z</time>
      </trkpt>
      <trkpt lat="39.931457" lon="3.985900">
        <ele>44.806</ele>
        <time>2020-09-06T09:42:04Z</time>
      </trkpt>
      <trkpt lat="39.931429" lon="3.985922">
        <ele>44.816</ele>
        <time>2020-09-06T09:42:07Z</time>
      </trkpt>
      <trkpt lat="39.931289" lon="3.985995">
        <ele>45.308</ele>
        <time>2020-09-06T09:42:21Z</time>
      </trkpt>
      <trkpt lat="39.931231" lon="3.985971">
        <ele>44.841</ele>
        <time>2020-09-06T09:42:27Z</time>
      </trkpt>
      <trkpt lat="39.931063" lon="3.985962">
        <ele>44.313</ele>
        <time>2020-09-06T09:42:43Z</time>
      </trkpt>
      <trkpt lat="39.930937" lon="3.986094">
        <ele>44.386</ele>
        <time>2020-09-06T09:42:57Z</time>
      </trkpt>
      <trkpt lat="39.930834" lon="3.986202">
        <ele>43.483</ele>
        <time>2020-09-06T09:43:11Z</time>
      </trkpt>
      <trkpt lat="39.930772" lon="3.986352">
        <ele>42.431</ele>
        <time>2020-09-06T09:43:26Z</time>
      </trkpt>
      <trkpt lat="39.930688" lon="3.986458">
        <ele>41.427</ele>
        <time>2020-09-06T09:43:41Z</time>
      </trkpt>
      <trkpt lat="39.930662" lon="3.986588">
        <ele>39.531</ele>
        <time>2020-09-06T09:43:55Z</time>
      </trkpt>
      <trkpt lat="39.930640" lon="3.986720">
        <ele>38.140</ele>
        <time>2020-09-06T09:44:12Z</time>
      </trkpt>
      <trkpt lat="39.930661" lon="3.986789">
        <ele>36.642</ele>
        <time>2020-09-06T09:44:29Z</time>
      </trkpt>
      <trkpt lat="39.930681" lon="3.986904">
        <ele>34.722</ele>
        <time>2020-09-06T09:44:42Z</time>
      </trkpt>
      <trkpt lat="39.930707" lon="3.987056">
        <ele>31.814</ele>
        <time>2020-09-06T09:45:00Z</time>
      </trkpt>
      <trkpt lat="39.930730" lon="3.987107">
        <ele>31.308</ele>
        <time>2020-09-06T09:45:05Z</time>
      </trkpt>
      <trkpt lat="39.930789" lon="3.987172">
        <ele>30.449</ele>
        <time>2020-09-06T09:45:18Z</time>
      </trkpt>
      <trkpt lat="39.930789" lon="3.987252">
        <ele>28.531</ele>
        <time>2020-09-06T09:45:28Z</time>
      </trkpt>
      <trkpt lat="39.930821" lon="3.987344">
        <ele>27.064</ele>
        <time>2020-09-06T09:45:39Z</time>
      </trkpt>
      <trkpt lat="39.930765" lon="3.987420">
        <ele>24.651</ele>
        <time>2020-09-06T09:45:52Z</time>
      </trkpt>
      <trkpt lat="39.930716" lon="3.987458">
        <ele>22.769</ele>
        <time>2020-09-06T09:46:03Z</time>
      </trkpt>
      <trkpt lat="39.930717" lon="3.987530">
        <ele>20.845</ele>
        <time>2020-09-06T09:46:16Z</time>
      </trkpt>
      <trkpt lat="39.930663" lon="3.987581">
        <ele>18.829</ele>
        <time>2020-09-06T09:46:28Z</time>
      </trkpt>
      <trkpt lat="39.930679" lon="3.987689">
        <ele>16.468</ele>
        <time>2020-09-06T09:46:42Z</time>
      </trkpt>
      <trkpt lat="39.930695" lon="3.987724">
        <ele>15.511</ele>
        <time>2020-09-06T09:46:57Z</time>
      </trkpt>
      <trkpt lat="39.930695" lon="3.987729">
        <ele>15.521</ele>
        <time>2020-09-06T09:47:20Z</time>
      </trkpt>
      <trkpt lat="39.930693" lon="3.987740">
        <ele>15.503</ele>
        <time>2020-09-06T09:47:40Z</time>
      </trkpt>
      <trkpt lat="39.930716" lon="3.987757">
        <ele>14.508</ele>
        <time>2020-09-06T09:47:59Z</time>
      </trkpt>
      <trkpt lat="39.930767" lon="3.987806">
        <ele>12.686</ele>
        <time>2020-09-06T09:48:11Z</time>
      </trkpt>
      <trkpt lat="39.930766" lon="3.987847">
        <ele>10.778</ele>
        <time>2020-09-06T09:48:21Z</time>
      </trkpt>
      <trkpt lat="39.930785" lon="3.987904">
        <ele>9.771</ele>
        <time>2020-09-06T09:48:38Z</time>
      </trkpt>
      <trkpt lat="39.930819" lon="3.987980">
        <ele>7.868</ele>
        <time>2020-09-06T09:48:51Z</time>
      </trkpt>
      <trkpt lat="39.930855" lon="3.987990">
        <ele>5.996</ele>
        <time>2020-09-06T09:49:04Z</time>
      </trkpt>
      <trkpt lat="39.930870" lon="3.988001">
        <ele>5.992</ele>
        <time>2020-09-06T09:49:22Z</time>
      </trkpt>
      <trkpt lat="39.930873" lon="3.988009">
        <ele>5.986</ele>
        <time>2020-09-06T09:49:41Z</time>
      </trkpt>
      <trkpt lat="39.930876" lon="3.988022">
        <ele>5.975</ele>
        <time>2020-09-06T09:50:04Z</time>
      </trkpt>
      <trkpt lat="39.930874" lon="3.988024">
        <ele>5.471</ele>
        <time>2020-09-06T09:50:26Z</time>
      </trkpt>
      <trkpt lat="39.930876" lon="3.988022">
        <ele>5.441</ele>
        <time>2020-09-06T09:50:31Z</time>
      </trkpt>
      <trkpt lat="39.930856" lon="3.988010">
        <ele>4.915</ele>
        <time>2020-09-06T09:50:45Z</time>
      </trkpt>
      <trkpt lat="39.930874" lon="3.988015">
        <ele>5.408</ele>
        <time>2020-09-06T09:51:08Z</time>
      </trkpt>
      <trkpt lat="39.930882" lon="3.988020">
        <ele>4.932</ele>
        <time>2020-09-06T09:51:24Z</time>
      </trkpt>
      <trkpt lat="39.930889" lon="3.988024">
        <ele>4.954</ele>
        <time>2020-09-06T09:51:41Z</time>
      </trkpt>
      <trkpt lat="39.930891" lon="3.988034">
        <ele>5.997</ele>
        <time>2020-09-06T09:52:02Z</time>
      </trkpt>
      <trkpt lat="39.930884" lon="3.988032">
        <ele>5.464</ele>
        <time>2020-09-06T09:52:24Z</time>
      </trkpt>
      <trkpt lat="39.930890" lon="3.988024">
        <ele>5.942</ele>
        <time>2020-09-06T09:52:50Z</time>
      </trkpt>
      <trkpt lat="39.930895" lon="3.988019">
        <ele>5.938</ele>
        <time>2020-09-06T09:53:12Z</time>
      </trkpt>
      <trkpt lat="39.930899" lon="3.988024">
        <ele>5.932</ele>
        <time>2020-09-06T09:53:37Z</time>
      </trkpt>
      <trkpt lat="39.930905" lon="3.988028">
        <ele>5.991</ele>
        <time>2020-09-06T09:53:56Z</time>
      </trkpt>
      <trkpt lat="39.931004" lon="3.988064">
        <ele>4.912</ele>
        <time>2020-09-06T09:54:14Z</time>
      </trkpt>
      <trkpt lat="39.931026" lon="3.988093">
        <ele>4.432</ele>
        <time>2020-09-06T09:54:31Z</time>
      </trkpt>
      <trkpt lat="39.931032" lon="3.988101">
        <ele>3.905</ele>
        <time>2020-09-06T09:54:43Z</time>
      </trkpt>
      <trkpt lat="39.931047" lon="3.988134">
        <ele>3.008</ele>
        <time>2020-09-06T09:54:57Z</time>
      </trkpt>
      <trkpt lat="39.931050" lon="3.988130">
        <ele>2.576</ele>
        <time>2020-09-06T09:55:15Z</time>
      </trkpt>
      <trkpt lat="39.931052" lon="3.988145">
        <ele>0.698</ele>
        <time>2020-09-06T09:55:35Z</time>
      </trkpt>
      <trkpt lat="39.931061" lon="3.988175">
        <ele>-0.931</ele>
        <time>2020-09-06T09:55:49Z</time>
      </trkpt>
      <trkpt lat="39.931066" lon="3.988173">
        <ele>-0.918</ele>
        <time>2020-09-06T09:55:52Z</time>
      </trkpt>
      <trkpt lat="39.931089" lon="3.988158">
        <ele>0.196</ele>
        <time>2020-09-06T09:56:05Z</time>
      </trkpt>
      <trkpt lat="39.931090" lon="3.988148">
        <ele>-0.952</ele>
        <time>2020-09-06T09:56:21Z</time>
      </trkpt>
      <trkpt lat="39.931094" lon="3.988150">
        <ele>-1.376</ele>
        <time>2020-09-06T09:56:34Z</time>
      </trkpt>
      <trkpt lat="39.931101" lon="3.988145">
        <ele>0.195</ele>
        <time>2020-09-06T09:56:37Z</time>
      </trkpt>
      <trkpt lat="39.931104" lon="3.988148">
        <ele>-7.643</ele>
        <time>2020-09-06T09:56:43Z</time>
      </trkpt>
      <trkpt lat="39.931107" lon="3.988157">
        <ele>6.364</ele>
        <time>2020-09-06T09:56:44Z</time>
      </trkpt>
      <trkpt lat="39.931109" lon="3.988159">
        <ele>-0.410</ele>
        <time>2020-09-06T09:56:45Z</time>
      </trkpt>
      <trkpt lat="39.931170" lon="3.988136">
        <ele>-1.308</ele>
        <time>2020-09-06T09:56:58Z</time>
      </trkpt>
      <trkpt lat="39.931239" lon="3.988079">
        <ele>-1.839</ele>
        <time>2020-09-06T09:57:17Z</time>
      </trkpt>
      <trkpt lat="39.931254" lon="3.988061">
        <ele>-2.341</ele>
        <time>2020-09-06T09:57:21Z</time>
      </trkpt>
      <trkpt lat="39.931333" lon="3.988065">
        <ele>-2.844</ele>
        <time>2020-09-06T09:57:26Z</time>
      </trkpt>
      <trkpt lat="39.931448" lon="3.988195">
        <ele>-2.871</ele>
        <time>2020-09-06T09:57:47Z</time>
      </trkpt>
      <trkpt lat="39.931455" lon="3.988229">
        <ele>-3.859</ele>
        <time>2020-09-06T09:57:59Z</time>
      </trkpt>
      <trkpt lat="39.931449" lon="3.988233">
        <ele>-3.885</ele>
        <time>2020-09-06T09:58:13Z</time>
      </trkpt>
      <trkpt lat="39.931444" lon="3.988243">
        <ele>-3.389</ele>
        <time>2020-09-06T09:58:29Z</time>
      </trkpt>
      <trkpt lat="39.931499" lon="3.988314">
        <ele>-4.298</ele>
        <time>2020-09-06T09:58:40Z</time>
      </trkpt>
      <trkpt lat="39.931463" lon="3.988414">
        <ele>-2.812</ele>
        <time>2020-09-06T09:58:55Z</time>
      </trkpt>
      <trkpt lat="39.931398" lon="3.988573">
        <ele>-2.332</ele>
        <time>2020-09-06T09:59:11Z</time>
      </trkpt>
      <trkpt lat="39.931408" lon="3.988618">
        <ele>-2.305</ele>
        <time>2020-09-06T09:59:15Z</time>
      </trkpt>
      <trkpt lat="39.931397" lon="3.988725">
        <ele>-1.808</ele>
        <time>2020-09-06T09:59:24Z</time>
      </trkpt>
      <trkpt lat="39.931395" lon="3.988797">
        <ele>-1.836</ele>
        <time>2020-09-06T09:59:30Z</time>
      </trkpt>
      <trkpt lat="39.931404" lon="3.989031">
        <ele>-1.898</ele>
        <time>2020-09-06T09:59:49Z</time>
      </trkpt>
      <trkpt lat="39.931417" lon="3.989111">
        <ele>-2.371</ele>
        <time>2020-09-06T09:59:56Z</time>
      </trkpt>
      <trkpt lat="39.931453" lon="3.989290">
        <ele>-2.368</ele>
        <time>2020-09-06T10:00:11Z</time>
      </trkpt>
      <trkpt lat="39.931448" lon="3.989343">
        <ele>-2.366</ele>
        <time>2020-09-06T10:00:17Z</time>
      </trkpt>
      <trkpt lat="39.931421" lon="3.989453">
        <ele>-2.352</ele>
        <time>2020-09-06T10:00:26Z</time>
      </trkpt>
      <trkpt lat="39.931394" lon="3.989642">
        <ele>-2.376</ele>
        <time>2020-09-06T10:00:43Z</time>
      </trkpt>
      <trkpt lat="39.931349" lon="3.989716">
        <ele>-1.895</ele>
        <time>2020-09-06T10:00:55Z</time>
      </trkpt>
      <trkpt lat="39.931314" lon="3.989746">
        <ele>-1.392</ele>
        <time>2020-09-06T10:01:08Z</time>
      </trkpt>
      <trkpt lat="39.931283" lon="3.989810">
        <ele>-1.373</ele>
        <time>2020-09-06T10:01:19Z</time>
      </trkpt>
      <trkpt lat="39.931269" lon="3.989824">
        <ele>-1.320</ele>
        <time>2020-09-06T10:01:21Z</time>
      </trkpt>
      <trkpt lat="39.931238" lon="3.989839">
        <ele>-1.808</ele>
        <time>2020-09-06T10:01:25Z</time>
      </trkpt>
      <trkpt lat="39.931206" lon="3.989841">
        <ele>-1.854</ele>
        <time>2020-09-06T10:01:37Z</time>
      </trkpt>
      <trkpt lat="39.931173" lon="3.989871">
        <ele>-2.366</ele>
        <time>2020-09-06T10:01:49Z</time>
      </trkpt>
      <trkpt lat="39.931169" lon="3.989867">
        <ele>-2.399</ele>
        <time>2020-09-06T10:02:06Z</time>
      </trkpt>
      <trkpt lat="39.931149" lon="3.989863">
        <ele>-3.826</ele>
        <time>2020-09-06T10:02:21Z</time>
      </trkpt>
      <trkpt lat="39.931150" lon="3.989864">
        <ele>-3.844</ele>
        <time>2020-09-06T10:02:36Z</time>
      </trkpt>
      <trkpt lat="39.931144" lon="3.989862">
        <ele>-3.830</ele>
        <time>2020-09-06T10:02:53Z</time>
      </trkpt>
      <trkpt lat="39.931149" lon="3.989866">
        <ele>-3.334</ele>
        <time>2020-09-06T10:03:09Z</time>
      </trkpt>
      <trkpt lat="39.931155" lon="3.989871">
        <ele>-3.813</ele>
        <time>2020-09-06T10:03:27Z</time>
      </trkpt>
      <trkpt lat="39.931151" lon="3.989873">
        <ele>-3.858</ele>
        <time>2020-09-06T10:04:00Z</time>
      </trkpt>
      <trkpt lat="39.931152" lon="3.989874">
        <ele>-4.252</ele>
        <time>2020-09-06T10:04:35Z</time>
      </trkpt>
      <trkpt lat="39.931155" lon="3.989877">
        <ele>-4.217</ele>
        <time>2020-09-06T10:05:09Z</time>
      </trkpt>
      <trkpt lat="39.931155" lon="3.989880">
        <ele>-4.208</ele>
        <time>2020-09-06T10:05:39Z</time>
      </trkpt>
      <trkpt lat="39.931156" lon="3.989885">
        <ele>-4.230</ele>
        <time>2020-09-06T10:06:16Z</time>
      </trkpt>
      <trkpt lat="39.931160" lon="3.989883">
        <ele>-4.212</ele>
        <time>2020-09-06T10:06:51Z</time>
      </trkpt>
      <trkpt lat="39.931159" lon="3.989882">
        <ele>-4.745</ele>
        <time>2020-09-06T10:07:20Z</time>
      </trkpt>
      <trkpt lat="39.931159" lon="3.989880">
        <ele>-4.712</ele>
        <time>2020-09-06T10:07:52Z</time>
      </trkpt>
      <trkpt lat="39.931158" lon="3.989884">
        <ele>-4.230</ele>
        <time>2020-09-06T10:08:25Z</time>
      </trkpt>
      <trkpt lat="39.931156" lon="3.989885">
        <ele>-4.766</ele>
        <time>2020-09-06T10:08:55Z</time>
      </trkpt>
      <trkpt lat="39.931152" lon="3.989884">
        <ele>-5.280</ele>
        <time>2020-09-06T10:09:27Z</time>
      </trkpt>
      <trkpt lat="39.931150" lon="3.989884">
        <ele>-4.779</ele>
        <time>2020-09-06T10:09:40Z</time>
      </trkpt>
      <trkpt lat="39.931178" lon="3.989904">
        <ele>-4.734</ele>
        <time>2020-09-06T10:09:56Z</time>
      </trkpt>
      <trkpt lat="39.931178" lon="3.989909">
        <ele>-4.255</ele>
        <time>2020-09-06T10:10:22Z</time>
      </trkpt>
      <trkpt lat="39.931178" lon="3.989912">
        <ele>-4.210</ele>
        <time>2020-09-06T10:10:53Z</time>
      </trkpt>
      <trkpt lat="39.931174" lon="3.989913">
        <ele>-4.208</ele>
        <time>2020-09-06T10:11:23Z</time>
      </trkpt>
      <trkpt lat="39.931173" lon="3.989909">
        <ele>-3.398</ele>
        <time>2020-09-06T10:11:58Z</time>
      </trkpt>
      <trkpt lat="39.931180" lon="3.989906">
        <ele>-3.350</ele>
        <time>2020-09-06T10:12:24Z</time>
      </trkpt>
      <trkpt lat="39.931176" lon="3.989912">
        <ele>-4.213</ele>
        <time>2020-09-06T10:12:44Z</time>
      </trkpt>
      <trkpt lat="39.931172" lon="3.989910">
        <ele>-4.270</ele>
        <time>2020-09-06T10:13:12Z</time>
      </trkpt>
      <trkpt lat="39.931172" lon="3.989917">
        <ele>-4.748</ele>
        <time>2020-09-06T10:13:49Z</time>
      </trkpt>
      <trkpt lat="39.931180" lon="3.989918">
        <ele>-4.724</ele>
        <time>2020-09-06T10:14:23Z</time>
      </trkpt>
      <trkpt lat="39.931179" lon="3.989906">
        <ele>-4.738</ele>
        <time>2020-09-06T10:14:56Z</time>
      </trkpt>
      <trkpt lat="39.931176" lon="3.989897">
        <ele>-4.227</ele>
        <time>2020-09-06T10:15:24Z</time>
      </trkpt>
      <trkpt lat="39.931175" lon="3.989893">
        <ele>-4.227</ele>
        <time>2020-09-06T10:15:55Z</time>
      </trkpt>
      <trkpt lat="39.931175" lon="3.989887">
        <ele>-4.268</ele>
        <time>2020-09-06T10:16:31Z</time>
      </trkpt>
      <trkpt lat="39.931176" lon="3.989887">
        <ele>-4.214</ele>
        <time>2020-09-06T10:17:03Z</time>
      </trkpt>
      <trkpt lat="39.931177" lon="3.989887">
        <ele>-3.308</ele>
        <time>2020-09-06T10:17:30Z</time>
      </trkpt>
      <trkpt lat="39.931178" lon="3.989890">
        <ele>-3.857</ele>
        <time>2020-09-06T10:17:49Z</time>
      </trkpt>
      <trkpt lat="39.931179" lon="3.989888">
        <ele>-2.879</ele>
        <time>2020-09-06T10:18:16Z</time>
      </trkpt>
      <trkpt lat="39.931179" lon="3.989894">
        <ele>-3.312</ele>
        <time>2020-09-06T10:18:45Z</time>
      </trkpt>
      <trkpt lat="39.931188" lon="3.989904">
        <ele>-3.869</ele>
        <time>2020-09-06T10:19:05Z</time>
      </trkpt>
      <trkpt lat="39.931190" lon="3.989902">
        <ele>-3.337</ele>
        <time>2020-09-06T10:19:39Z</time>
      </trkpt>
      <trkpt lat="39.931183" lon="3.989905">
        <ele>-2.873</ele>
        <time>2020-09-06T10:20:02Z</time>
      </trkpt>
      <trkpt lat="39.931182" lon="3.989904">
        <ele>-2.897</ele>
        <time>2020-09-06T10:20:28Z</time>
      </trkpt>
      <trkpt lat="39.931178" lon="3.989900">
        <ele>-2.886</ele>
        <time>2020-09-06T10:20:50Z</time>
      </trkpt>
      <trkpt lat="39.931158" lon="3.989914">
        <ele>-2.377</ele>
        <time>2020-09-06T10:21:04Z</time>
      </trkpt>
      <trkpt lat="39.931117" lon="3.989976">
        <ele>-1.361</ele>
        <time>2020-09-06T10:21:16Z</time>
      </trkpt>
      <trkpt lat="39.931053" lon="3.990076">
        <ele>-0.927</ele>
        <time>2020-09-06T10:21:28Z</time>
      </trkpt>
      <trkpt lat="39.930999" lon="3.990109">
        <ele>-1.308</ele>
        <time>2020-09-06T10:21:34Z</time>
      </trkpt>
      <trkpt lat="39.930865" lon="3.990181">
        <ele>-0.992</ele>
        <time>2020-09-06T10:21:50Z</time>
      </trkpt>
      <trkpt lat="39.930827" lon="3.990215">
        <ele>0.144</ele>
        <time>2020-09-06T10:21:55Z</time>
      </trkpt>
      <trkpt lat="39.930774" lon="3.990282">
        <ele>-0.427</ele>
        <time>2020-09-06T10:22:04Z</time>
      </trkpt>
      <trkpt lat="39.930696" lon="3.990418">
        <ele>0.194</ele>
        <time>2020-09-06T10:22:20Z</time>
      </trkpt>
      <trkpt lat="39.930695" lon="3.990457">
        <ele>0.672</ele>
        <time>2020-09-06T10:22:24Z</time>
      </trkpt>
      <trkpt lat="39.930684" lon="3.990477">
        <ele>1.118</ele>
        <time>2020-09-06T10:22:26Z</time>
      </trkpt>
      <trkpt lat="39.930665" lon="3.990585">
        <ele>0.682</ele>
        <time>2020-09-06T10:22:36Z</time>
      </trkpt>
      <trkpt lat="39.930578" lon="3.990700">
        <ele>1.551</ele>
        <time>2020-09-06T10:22:53Z</time>
      </trkpt>
      <trkpt lat="39.930544" lon="3.990794">
        <ele>3.964</ele>
        <time>2020-09-06T10:23:06Z</time>
      </trkpt>
      <trkpt lat="39.930483" lon="3.990814">
        <ele>6.306</ele>
        <time>2020-09-06T10:23:21Z</time>
      </trkpt>
      <trkpt lat="39.930423" lon="3.990773">
        <ele>7.316</ele>
        <time>2020-09-06T10:23:36Z</time>
      </trkpt>
      <trkpt lat="39.930336" lon="3.990738">
        <ele>9.208</ele>
        <time>2020-09-06T10:23:50Z</time>
      </trkpt>
      <trkpt lat="39.930265" lon="3.990758">
        <ele>11.631</ele>
        <time>2020-09-06T10:24:05Z</time>
      </trkpt>
      <trkpt lat="39.930207" lon="3.990738">
        <ele>14.023</ele>
        <time>2020-09-06T10:24:21Z</time>
      </trkpt>
      <trkpt lat="39.930189" lon="3.990718">
        <ele>14.586</ele>
        <time>2020-09-06T10:24:41Z</time>
      </trkpt>
      <trkpt lat="39.930187" lon="3.990723">
        <ele>13.673</ele>
        <time>2020-09-06T10:25:00Z</time>
      </trkpt>
      <trkpt lat="39.930182" lon="3.990721">
        <ele>13.111</ele>
        <time>2020-09-06T10:25:21Z</time>
      </trkpt>
      <trkpt lat="39.930184" lon="3.990719">
        <ele>13.647</ele>
        <time>2020-09-06T10:25:44Z</time>
      </trkpt>
      <trkpt lat="39.930182" lon="3.990714">
        <ele>13.631</ele>
        <time>2020-09-06T10:26:11Z</time>
      </trkpt>
      <trkpt lat="39.930182" lon="3.990715">
        <ele>14.030</ele>
        <time>2020-09-06T10:26:32Z</time>
      </trkpt>
      <trkpt lat="39.930184" lon="3.990718">
        <ele>14.034</ele>
        <time>2020-09-06T10:26:55Z</time>
      </trkpt>
      <trkpt lat="39.930149" lon="3.990757">
        <ele>14.555</ele>
        <time>2020-09-06T10:27:14Z</time>
      </trkpt>
      <trkpt lat="39.930086" lon="3.990745">
        <ele>16.410</ele>
        <time>2020-09-06T10:27:27Z</time>
      </trkpt>
      <trkpt lat="39.930062" lon="3.990728">
        <ele>16.908</ele>
        <time>2020-09-06T10:27:30Z</time>
      </trkpt>
      <trkpt lat="39.929963" lon="3.990664">
        <ele>17.448</ele>
        <time>2020-09-06T10:27:43Z</time>
      </trkpt>
      <trkpt lat="39.929942" lon="3.990659">
        <ele>16.980</ele>
        <time>2020-09-06T10:27:45Z</time>
      </trkpt>
      <trkpt lat="39.929920" lon="3.990655">
        <ele>16.923</ele>
        <time>2020-09-06T10:27:47Z</time>
      </trkpt>
      <trkpt lat="39.929877" lon="3.990664">
        <ele>19.370</ele>
        <time>2020-09-06T10:27:59Z</time>
      </trkpt>
      <trkpt lat="39.929802" lon="3.990676">
        <ele>20.848</ele>
        <time>2020-09-06T10:28:11Z</time>
      </trkpt>
      <trkpt lat="39.929762" lon="3.990693">
        <ele>23.214</ele>
        <time>2020-09-06T10:28:24Z</time>
      </trkpt>
      <trkpt lat="39.929653" lon="3.990715">
        <ele>25.138</ele>
        <time>2020-09-06T10:28:40Z</time>
      </trkpt>
      <trkpt lat="39.929603" lon="3.990767">
        <ele>27.017</ele>
        <time>2020-09-06T10:28:53Z</time>
      </trkpt>
      <trkpt lat="39.929557" lon="3.990764">
        <ele>28.564</ele>
        <time>2020-09-06T10:29:05Z</time>
      </trkpt>
      <trkpt lat="39.929472" lon="3.990746">
        <ele>30.906</ele>
        <time>2020-09-06T10:29:18Z</time>
      </trkpt>
      <trkpt lat="39.929437" lon="3.990785">
        <ele>32.316</ele>
        <time>2020-09-06T10:29:32Z</time>
      </trkpt>
      <trkpt lat="39.929409" lon="3.990808">
        <ele>34.708</ele>
        <time>2020-09-06T10:29:46Z</time>
      </trkpt>
      <trkpt lat="39.929374" lon="3.990803">
        <ele>35.731</ele>
        <time>2020-09-06T10:29:58Z</time>
      </trkpt>
      <trkpt lat="39.929370" lon="3.990808">
        <ele>35.733</ele>
        <time>2020-09-06T10:30:23Z</time>
      </trkpt>
      <trkpt lat="39.929363" lon="3.990809">
        <ele>35.796</ele>
        <time>2020-09-06T10:30:49Z</time>
      </trkpt>
      <trkpt lat="39.929344" lon="3.990877">
        <ele>38.593</ele>
        <time>2020-09-06T10:31:04Z</time>
      </trkpt>
      <trkpt lat="39.929312" lon="3.990906">
        <ele>41.431</ele>
        <time>2020-09-06T10:31:19Z</time>
      </trkpt>
      <trkpt lat="39.929258" lon="3.990932">
        <ele>42.997</ele>
        <time>2020-09-06T10:31:32Z</time>
      </trkpt>
      <trkpt lat="39.929223" lon="3.990955">
        <ele>44.391</ele>
        <time>2020-09-06T10:31:44Z</time>
      </trkpt>
      <trkpt lat="39.929218" lon="3.990939">
        <ele>43.850</ele>
        <time>2020-09-06T10:31:58Z</time>
      </trkpt>
      <trkpt lat="39.929218" lon="3.990882">
        <ele>42.944</ele>
        <time>2020-09-06T10:32:14Z</time>
      </trkpt>
      <trkpt lat="39.929206" lon="3.990894">
        <ele>43.405</ele>
        <time>2020-09-06T10:32:37Z</time>
      </trkpt>
      <trkpt lat="39.929171" lon="3.990880">
        <ele>43.815</ele>
        <time>2020-09-06T10:32:55Z</time>
      </trkpt>
      <trkpt lat="39.929153" lon="3.990892">
        <ele>44.308</ele>
        <time>2020-09-06T10:33:21Z</time>
      </trkpt>
      <trkpt lat="39.929115" lon="3.990920">
        <ele>44.369</ele>
        <time>2020-09-06T10:33:49Z</time>
      </trkpt>
      <trkpt lat="39.929125" lon="3.990912">
        <ele>43.851</ele>
        <time>2020-09-06T10:34:22Z</time>
      </trkpt>
      <trkpt lat="39.929125" lon="3.990931">
        <ele>43.874</ele>
        <time>2020-09-06T10:34:43Z</time>
      </trkpt>
      <trkpt lat="39.929131" lon="3.990920">
        <ele>42.941</ele>
        <time>2020-09-06T10:35:15Z</time>
      </trkpt>
      <trkpt lat="39.929136" lon="3.990922">
        <ele>44.399</ele>
        <time>2020-09-06T10:35:43Z</time>
      </trkpt>
      <trkpt lat="39.929141" lon="3.990928">
        <ele>44.375</ele>
        <time>2020-09-06T10:36:16Z</time>
      </trkpt>
      <trkpt lat="39.929134" lon="3.990929">
        <ele>44.359</ele>
        <time>2020-09-06T10:36:51Z</time>
      </trkpt>
      <trkpt lat="39.929126" lon="3.990877">
        <ele>44.898</ele>
        <time>2020-09-06T10:37:15Z</time>
      </trkpt>
      <trkpt lat="39.929177" lon="3.990855">
        <ele>44.879</ele>
        <time>2020-09-06T10:37:36Z</time>
      </trkpt>
      <trkpt lat="39.929174" lon="3.990872">
        <ele>43.405</ele>
        <time>2020-09-06T10:38:01Z</time>
      </trkpt>
      <trkpt lat="39.929167" lon="3.990874">
        <ele>46.225</ele>
        <time>2020-09-06T10:38:18Z</time>
      </trkpt>
      <trkpt lat="39.929104" lon="3.990877">
        <ele>44.308</ele>
        <time>2020-09-06T10:38:40Z</time>
      </trkpt>
      <trkpt lat="39.929140" lon="3.990885">
        <ele>45.842</ele>
        <time>2020-09-06T10:38:59Z</time>
      </trkpt>
      <trkpt lat="39.929126" lon="3.990892">
        <ele>44.884</ele>
        <time>2020-09-06T10:39:25Z</time>
      </trkpt>
      <trkpt lat="39.929115" lon="3.990912">
        <ele>44.397</ele>
        <time>2020-09-06T10:39:50Z</time>
      </trkpt>
      <trkpt lat="39.929122" lon="3.990904">
        <ele>45.864</ele>
        <time>2020-09-06T10:40:11Z</time>
      </trkpt>
      <trkpt lat="39.929130" lon="3.990914">
        <ele>45.862</ele>
        <time>2020-09-06T10:40:43Z</time>
      </trkpt>
      <trkpt lat="39.929150" lon="3.990909">
        <ele>45.868</ele>
        <time>2020-09-06T10:41:06Z</time>
      </trkpt>
      <trkpt lat="39.929096" lon="3.990908">
        <ele>45.382</ele>
        <time>2020-09-06T10:41:21Z</time>
      </trkpt>
      <trkpt lat="39.929050" lon="3.990877">
        <ele>45.351</ele>
        <time>2020-09-06T10:41:27Z</time>
      </trkpt>
      <trkpt lat="39.929035" lon="3.990857">
        <ele>45.375</ele>
        <time>2020-09-06T10:41:29Z</time>
      </trkpt>
      <trkpt lat="39.928913" lon="3.990813">
        <ele>45.828</ele>
        <time>2020-09-06T10:41:39Z</time>
      </trkpt>
      <trkpt lat="39.928808" lon="3.990810">
        <ele>44.820</ele>
        <time>2020-09-06T10:41:51Z</time>
      </trkpt>
      <trkpt lat="39.928787" lon="3.990777">
        <ele>45.308</ele>
        <time>2020-09-06T10:41:54Z</time>
      </trkpt>
      <trkpt lat="39.928638" lon="3.990706">
        <ele>44.812</ele>
        <time>2020-09-06T10:42:08Z</time>
      </trkpt>
      <trkpt lat="39.928450" lon="3.990695">
        <ele>44.844</ele>
        <time>2020-09-06T10:42:24Z</time>
      </trkpt>
      <trkpt lat="39.928431" lon="3.990675">
        <ele>44.857</ele>
        <time>2020-09-06T10:42:26Z</time>
      </trkpt>
      <trkpt lat="39.928304" lon="3.990561">
        <ele>43.824</ele>
        <time>2020-09-06T10:42:44Z</time>
      </trkpt>
      <trkpt lat="39.928202" lon="3.990505">
        <ele>43.442</ele>
        <time>2020-09-06T10:42:56Z</time>
      </trkpt>
      <trkpt lat="39.928083" lon="3.990500">
        <ele>41.958</ele>
        <time>2020-09-06T10:43:11Z</time>
      </trkpt>
      <trkpt lat="39.928051" lon="3.990529">
        <ele>39.512</ele>
        <time>2020-09-06T10:43:23Z</time>
      </trkpt>
      <trkpt lat="39.928018" lon="3.990480">
        <ele>37.631</ele>
        <time>2020-09-06T10:43:35Z</time>
      </trkpt>
      <trkpt lat="39.927950" lon="3.990545">
        <ele>36.159</ele>
        <time>2020-09-06T10:43:48Z</time>
      </trkpt>
      <trkpt lat="39.927937" lon="3.990565">
        <ele>35.703</ele>
        <time>2020-09-06T10:43:50Z</time>
      </trkpt>
      <trkpt lat="39.927812" lon="3.990656">
        <ele>34.723</ele>
        <time>2020-09-06T10:44:04Z</time>
      </trkpt>
      <trkpt lat="39.927791" lon="3.990712">
        <ele>35.208</ele>
        <time>2020-09-06T10:44:08Z</time>
      </trkpt>
      <trkpt lat="39.927692" lon="3.990928">
        <ele>33.720</ele>
        <time>2020-09-06T10:44:25Z</time>
      </trkpt>
      <trkpt lat="39.927671" lon="3.991000">
        <ele>33.742</ele>
        <time>2020-09-06T10:44:39Z</time>
      </trkpt>
      <trkpt lat="39.927659" lon="3.991101">
        <ele>34.745</ele>
        <time>2020-09-06T10:44:53Z</time>
      </trkpt>
      <trkpt lat="39.927643" lon="3.991118">
        <ele>33.792</ele>
        <time>2020-09-06T10:44:57Z</time>
      </trkpt>
      <trkpt lat="39.927609" lon="3.991271">
        <ele>30.930</ele>
        <time>2020-09-06T10:45:13Z</time>
      </trkpt>
      <trkpt lat="39.927631" lon="3.991339">
        <ele>30.446</ele>
        <time>2020-09-06T10:45:24Z</time>
      </trkpt>
      <trkpt lat="39.927605" lon="3.991475">
        <ele>28.080</ele>
        <time>2020-09-06T10:45:38Z</time>
      </trkpt>
      <trkpt lat="39.927597" lon="3.991592">
        <ele>25.139</ele>
        <time>2020-09-06T10:45:51Z</time>
      </trkpt>
      <trkpt lat="39.927587" lon="3.991628">
        <ele>23.614</ele>
        <time>2020-09-06T10:46:03Z</time>
      </trkpt>
      <trkpt lat="39.927518" lon="3.991658">
        <ele>20.354</ele>
        <time>2020-09-06T10:46:19Z</time>
      </trkpt>
      <trkpt lat="39.927480" lon="3.991709">
        <ele>17.909</ele>
        <time>2020-09-06T10:46:32Z</time>
      </trkpt>
      <trkpt lat="39.927468" lon="3.991717">
        <ele>16.908</ele>
        <time>2020-09-06T10:46:46Z</time>
      </trkpt>
      <trkpt lat="39.927448" lon="3.991722">
        <ele>15.076</ele>
        <time>2020-09-06T10:47:03Z</time>
      </trkpt>
      <trkpt lat="39.927426" lon="3.991722">
        <ele>13.198</ele>
        <time>2020-09-06T10:47:16Z</time>
      </trkpt>
      <trkpt lat="39.927385" lon="3.991763">
        <ele>11.111</ele>
        <time>2020-09-06T10:47:29Z</time>
      </trkpt>
      <trkpt lat="39.927382" lon="3.991824">
        <ele>10.298</ele>
        <time>2020-09-06T10:47:34Z</time>
      </trkpt>
      <trkpt lat="39.927397" lon="3.991982">
        <ele>9.276</ele>
        <time>2020-09-06T10:47:46Z</time>
      </trkpt>
      <trkpt lat="39.927324" lon="3.991992">
        <ele>9.252</ele>
        <time>2020-09-06T10:47:52Z</time>
      </trkpt>
      <trkpt lat="39.927276" lon="3.992040">
        <ele>9.246</ele>
        <time>2020-09-06T10:47:59Z</time>
      </trkpt>
      <trkpt lat="39.927180" lon="3.992083">
        <ele>8.795</ele>
        <time>2020-09-06T10:48:11Z</time>
      </trkpt>
      <trkpt lat="39.927052" lon="3.992137">
        <ele>8.732</ele>
        <time>2020-09-06T10:48:26Z</time>
      </trkpt>
      <trkpt lat="39.927028" lon="3.992180">
        <ele>8.792</ele>
        <time>2020-09-06T10:48:31Z</time>
      </trkpt>
      <trkpt lat="39.926990" lon="3.992230">
        <ele>9.211</ele>
        <time>2020-09-06T10:48:36Z</time>
      </trkpt>
      <trkpt lat="39.926945" lon="3.992266">
        <ele>8.708</ele>
        <time>2020-09-06T10:48:41Z</time>
      </trkpt>
      <trkpt lat="39.926849" lon="3.992456">
        <ele>7.838</ele>
        <time>2020-09-06T10:48:57Z</time>
      </trkpt>
      <trkpt lat="39.926800" lon="3.992517">
        <ele>7.320</ele>
        <time>2020-09-06T10:49:06Z</time>
      </trkpt>
      <trkpt lat="39.926745" lon="3.992560">
        <ele>6.333</ele>
        <time>2020-09-06T10:49:20Z</time>
      </trkpt>
      <trkpt lat="39.926746" lon="3.992559">
        <ele>6.370</ele>
        <time>2020-09-06T10:49:23Z</time>
      </trkpt>
      <trkpt lat="39.926734" lon="3.992605">
        <ele>6.888</ele>
        <time>2020-09-06T10:49:28Z</time>
      </trkpt>
      <trkpt lat="39.926684" lon="3.992715">
        <ele>6.394</ele>
        <time>2020-09-06T10:49:43Z</time>
      </trkpt>
      <trkpt lat="39.926682" lon="3.992853">
        <ele>6.898</ele>
        <time>2020-09-06T10:49:56Z</time>
      </trkpt>
      <trkpt lat="39.926629" lon="3.993044">
        <ele>7.357</ele>
        <time>2020-09-06T10:50:10Z</time>
      </trkpt>
      <trkpt lat="39.926593" lon="3.993209">
        <ele>6.811</ele>
        <time>2020-09-06T10:50:24Z</time>
      </trkpt>
      <trkpt lat="39.926565" lon="3.993340">
        <ele>6.321</ele>
        <time>2020-09-06T10:50:33Z</time>
      </trkpt>
      <trkpt lat="39.926568" lon="3.993426">
        <ele>6.303</ele>
        <time>2020-09-06T10:50:40Z</time>
      </trkpt>
      <trkpt lat="39.926559" lon="3.993613">
        <ele>5.908</ele>
        <time>2020-09-06T10:50:54Z</time>
      </trkpt>
      <trkpt lat="39.926513" lon="3.993778">
        <ele>6.376</ele>
        <time>2020-09-06T10:51:08Z</time>
      </trkpt>
      <trkpt lat="39.926491" lon="3.993833">
        <ele>6.338</ele>
        <time>2020-09-06T10:51:14Z</time>
      </trkpt>
      <trkpt lat="39.926476" lon="3.993853">
        <ele>6.381</ele>
        <time>2020-09-06T10:51:16Z</time>
      </trkpt>
      <trkpt lat="39.926448" lon="3.993893">
        <ele>5.478</ele>
        <time>2020-09-06T10:51:21Z</time>
      </trkpt>
      <trkpt lat="39.926373" lon="3.994047">
        <ele>5.926</ele>
        <time>2020-09-06T10:51:36Z</time>
      </trkpt>
      <trkpt lat="39.926320" lon="3.994200">
        <ele>5.412</ele>
        <time>2020-09-06T10:51:51Z</time>
      </trkpt>
      <trkpt lat="39.926299" lon="3.994229">
        <ele>4.436</ele>
        <time>2020-09-06T10:51:55Z</time>
      </trkpt>
      <trkpt lat="39.926259" lon="3.994248">
        <ele>3.945</ele>
        <time>2020-09-06T10:52:00Z</time>
      </trkpt>
      <trkpt lat="39.926206" lon="3.994254">
        <ele>3.969</ele>
        <time>2020-09-06T10:52:06Z</time>
      </trkpt>
      <trkpt lat="39.926124" lon="3.994490">
        <ele>4.404</ele>
        <time>2020-09-06T10:52:24Z</time>
      </trkpt>
      <trkpt lat="39.926108" lon="3.994543">
        <ele>3.524</ele>
        <time>2020-09-06T10:52:29Z</time>
      </trkpt>
      <trkpt lat="39.926088" lon="3.994682">
        <ele>2.508</ele>
        <time>2020-09-06T10:52:40Z</time>
      </trkpt>
      <trkpt lat="39.926088" lon="3.994788">
        <ele>2.551</ele>
        <time>2020-09-06T10:52:52Z</time>
      </trkpt>
      <trkpt lat="39.926064" lon="3.994814">
        <ele>2.073</ele>
        <time>2020-09-06T10:52:55Z</time>
      </trkpt>
      <trkpt lat="39.925987" lon="3.995016">
        <ele>1.566</ele>
        <time>2020-09-06T10:53:11Z</time>
      </trkpt>
      <trkpt lat="39.925946" lon="3.995064">
        <ele>2.053</ele>
        <time>2020-09-06T10:53:17Z</time>
      </trkpt>
      <trkpt lat="39.925859" lon="3.995201">
        <ele>2.081</ele>
        <time>2020-09-06T10:53:31Z</time>
      </trkpt>
      <trkpt lat="39.925833" lon="3.995336">
        <ele>2.017</ele>
        <time>2020-09-06T10:53:42Z</time>
      </trkpt>
      <trkpt lat="39.925840" lon="3.995477">
        <ele>3.921</ele>
        <time>2020-09-06T10:53:56Z</time>
      </trkpt>
      <trkpt lat="39.925805" lon="3.995540">
        <ele>4.960</ele>
        <time>2020-09-06T10:54:05Z</time>
      </trkpt>
      <trkpt lat="39.925769" lon="3.995622">
        <ele>4.951</ele>
        <time>2020-09-06T10:54:12Z</time>
      </trkpt>
      <trkpt lat="39.925716" lon="3.995677">
        <ele>4.401</ele>
        <time>2020-09-06T10:54:20Z</time>
      </trkpt>
      <trkpt lat="39.925684" lon="3.995732">
        <ele>4.911</ele>
        <time>2020-09-06T10:54:26Z</time>
      </trkpt>
      <trkpt lat="39.925666" lon="3.995857">
        <ele>5.408</ele>
        <time>2020-09-06T10:54:40Z</time>
      </trkpt>
      <trkpt lat="39.925671" lon="3.995868">
        <ele>5.470</ele>
        <time>2020-09-06T10:54:57Z</time>
      </trkpt>
      <trkpt lat="39.925668" lon="3.995883">
        <ele>5.452</ele>
        <time>2020-09-06T10:54:59Z</time>
      </trkpt>
      <trkpt lat="39.925626" lon="3.996052">
        <ele>5.495</ele>
        <time>2020-09-06T10:55:17Z</time>
      </trkpt>
      <trkpt lat="39.925596" lon="3.996188">
        <ele>3.552</ele>
        <time>2020-09-06T10:55:33Z</time>
      </trkpt>
      <trkpt lat="39.925566" lon="3.996222">
        <ele>3.970</ele>
        <time>2020-09-06T10:55:42Z</time>
      </trkpt>
      <trkpt lat="39.925590" lon="3.996293">
        <ele>5.436</ele>
        <time>2020-09-06T10:55:55Z</time>
      </trkpt>
      <trkpt lat="39.925608" lon="3.996380">
        <ele>6.840</ele>
        <time>2020-09-06T10:56:06Z</time>
      </trkpt>
      <trkpt lat="39.925602" lon="3.996381">
        <ele>6.339</ele>
        <time>2020-09-06T10:56:07Z</time>
      </trkpt>
      <trkpt lat="39.925579" lon="3.996398">
        <ele>6.834</ele>
        <time>2020-09-06T10:56:10Z</time>
      </trkpt>
      <trkpt lat="39.925508" lon="3.996527">
        <ele>6.855</ele>
        <time>2020-09-06T10:56:24Z</time>
      </trkpt>
      <trkpt lat="39.925503" lon="3.996544">
        <ele>6.810</ele>
        <time>2020-09-06T10:56:26Z</time>
      </trkpt>
      <trkpt lat="39.925486" lon="3.996588">
        <ele>6.808</ele>
        <time>2020-09-06T10:56:30Z</time>
      </trkpt>
      <trkpt lat="39.925478" lon="3.996612">
        <ele>6.888</ele>
        <time>2020-09-06T10:56:32Z</time>
      </trkpt>
      <trkpt lat="39.925479" lon="3.996650">
        <ele>6.810</ele>
        <time>2020-09-06T10:56:35Z</time>
      </trkpt>
      <trkpt lat="39.925459" lon="3.996708">
        <ele>6.873</ele>
        <time>2020-09-06T10:56:40Z</time>
      </trkpt>
      <trkpt lat="39.925473" lon="3.996873">
        <ele>8.760</ele>
        <time>2020-09-06T10:56:56Z</time>
      </trkpt>
      <trkpt lat="39.925486" lon="3.996961">
        <ele>10.298</ele>
        <time>2020-09-06T10:57:10Z</time>
      </trkpt>
      <trkpt lat="39.925478" lon="3.997002">
        <ele>12.154</ele>
        <time>2020-09-06T10:57:27Z</time>
      </trkpt>
      <trkpt lat="39.925468" lon="3.997091">
        <ele>14.058</ele>
        <time>2020-09-06T10:57:38Z</time>
      </trkpt>
      <trkpt lat="39.925461" lon="3.997106">
        <ele>14.027</ele>
        <time>2020-09-06T10:57:40Z</time>
      </trkpt>
      <trkpt lat="39.925430" lon="3.997193">
        <ele>14.536</ele>
        <time>2020-09-06T10:57:48Z</time>
      </trkpt>
      <trkpt lat="39.925388" lon="3.997346">
        <ele>14.517</ele>
        <time>2020-09-06T10:58:01Z</time>
      </trkpt>
      <trkpt lat="39.925378" lon="3.997353">
        <ele>14.518</ele>
        <time>2020-09-06T10:58:02Z</time>
      </trkpt>
      <trkpt lat="39.925275" lon="3.997459">
        <ele>15.008</ele>
        <time>2020-09-06T10:58:16Z</time>
      </trkpt>
      <trkpt lat="39.925243" lon="3.997516">
        <ele>14.598</ele>
        <time>2020-09-06T10:58:21Z</time>
      </trkpt>
      <trkpt lat="39.925199" lon="3.997658">
        <ele>15.010</ele>
        <time>2020-09-06T10:58:35Z</time>
      </trkpt>
      <trkpt lat="39.925198" lon="3.997788">
        <ele>16.413</ele>
        <time>2020-09-06T10:58:47Z</time>
      </trkpt>
      <trkpt lat="39.925174" lon="3.997892">
        <ele>15.080</ele>
        <time>2020-09-06T10:58:55Z</time>
      </trkpt>
      <trkpt lat="39.925159" lon="3.997940">
        <ele>15.088</ele>
        <time>2020-09-06T10:58:59Z</time>
      </trkpt>
      <trkpt lat="39.925138" lon="3.998025">
        <ele>14.074</ele>
        <time>2020-09-06T10:59:05Z</time>
      </trkpt>
      <trkpt lat="39.925027" lon="3.998254">
        <ele>15.028</ele>
        <time>2020-09-06T10:59:27Z</time>
      </trkpt>
      <trkpt lat="39.925033" lon="3.998415">
        <ele>15.517</ele>
        <time>2020-09-06T10:59:44Z</time>
      </trkpt>
      <trkpt lat="39.925023" lon="3.998437">
        <ele>16.014</ele>
        <time>2020-09-06T10:59:47Z</time>
      </trkpt>
      <trkpt lat="39.925010" lon="3.998584">
        <ele>16.454</ele>
        <time>2020-09-06T11:00:02Z</time>
      </trkpt>
      <trkpt lat="39.924999" lon="3.998682">
        <ele>15.509</ele>
        <time>2020-09-06T11:00:14Z</time>
      </trkpt>
      <trkpt lat="39.924998" lon="3.998721">
        <ele>15.508</ele>
        <time>2020-09-06T11:00:17Z</time>
      </trkpt>
      <trkpt lat="39.924940" lon="3.998890">
        <ele>16.066</ele>
        <time>2020-09-06T11:00:32Z</time>
      </trkpt>
      <trkpt lat="39.924929" lon="3.998944">
        <ele>16.438</ele>
        <time>2020-09-06T11:00:38Z</time>
      </trkpt>
      <trkpt lat="39.924907" lon="3.999010">
        <ele>15.081</ele>
        <time>2020-09-06T11:00:52Z</time>
      </trkpt>
      <trkpt lat="39.924899" lon="3.999062">
        <ele>15.058</ele>
        <time>2020-09-06T11:00:56Z</time>
      </trkpt>
      <trkpt lat="39.924866" lon="3.999127">
        <ele>15.016</ele>
        <time>2020-09-06T11:01:03Z</time>
      </trkpt>
      <trkpt lat="39.924782" lon="3.999199">
        <ele>11.622</ele>
        <time>2020-09-06T11:01:18Z</time>
      </trkpt>
      <trkpt lat="39.924733" lon="3.999222">
        <ele>9.746</ele>
        <time>2020-09-06T11:01:31Z</time>
      </trkpt>
      <trkpt lat="39.924742" lon="3.999216">
        <ele>9.785</ele>
        <time>2020-09-06T11:01:45Z</time>
      </trkpt>
      <trkpt lat="39.924711" lon="3.999269">
        <ele>8.763</ele>
        <time>2020-09-06T11:01:55Z</time>
      </trkpt>
      <trkpt lat="39.924680" lon="3.999386">
        <ele>7.344</ele>
        <time>2020-09-06T11:02:09Z</time>
      </trkpt>
      <trkpt lat="39.924706" lon="3.999498">
        <ele>7.818</ele>
        <time>2020-09-06T11:02:22Z</time>
      </trkpt>
      <trkpt lat="39.924704" lon="3.999529">
        <ele>7.808</ele>
        <time>2020-09-06T11:02:25Z</time>
      </trkpt>
      <trkpt lat="39.924686" lon="3.999583">
        <ele>5.981</ele>
        <time>2020-09-06T11:02:40Z</time>
      </trkpt>
      <trkpt lat="39.924690" lon="3.999625">
        <ele>3.973</ele>
        <time>2020-09-06T11:02:53Z</time>
      </trkpt>
      <trkpt lat="39.924710" lon="3.999673">
        <ele>3.956</ele>
        <time>2020-09-06T11:02:58Z</time>
      </trkpt>
      <trkpt lat="39.924743" lon="3.999720">
        <ele>3.953</ele>
        <time>2020-09-06T11:03:04Z</time>
      </trkpt>
      <trkpt lat="39.924806" lon="3.999864">
        <ele>4.451</ele>
        <time>2020-09-06T11:03:18Z</time>
      </trkpt>
      <trkpt lat="39.924845" lon="3.999959">
        <ele>4.957</ele>
        <time>2020-09-06T11:03:32Z</time>
      </trkpt>
      <trkpt lat="39.924883" lon="4.000060">
        <ele>3.551</ele>
        <time>2020-09-06T11:03:46Z</time>
      </trkpt>
      <trkpt lat="39.924877" lon="4.000051">
        <ele>3.960</ele>
        <time>2020-09-06T11:03:49Z</time>
      </trkpt>
      <trkpt lat="39.924926" lon="4.000047">
        <ele>3.563</ele>
        <time>2020-09-06T11:04:01Z</time>
      </trkpt>
      <trkpt lat="39.924943" lon="4.000035">
        <ele>3.944</ele>
        <time>2020-09-06T11:04:13Z</time>
      </trkpt>
      <trkpt lat="39.924948" lon="4.000028">
        <ele>3.518</ele>
        <time>2020-09-06T11:04:31Z</time>
      </trkpt>
      <trkpt lat="39.924973" lon="3.999966">
        <ele>3.508</ele>
        <time>2020-09-06T11:04:51Z</time>
      </trkpt>
      <trkpt lat="39.924975" lon="3.999974">
        <ele>3.551</ele>
        <time>2020-09-06T11:04:57Z</time>
      </trkpt>
      <trkpt lat="39.925017" lon="3.999991">
        <ele>3.013</ele>
        <time>2020-09-06T11:05:03Z</time>
      </trkpt>
      <trkpt lat="39.925058" lon="4.000022">
        <ele>2.566</ele>
        <time>2020-09-06T11:05:09Z</time>
      </trkpt>
      <trkpt lat="39.925122" lon="3.999993">
        <ele>3.973</ele>
        <time>2020-09-06T11:05:21Z</time>
      </trkpt>
      <trkpt lat="39.925126" lon="3.999997">
        <ele>3.511</ele>
        <time>2020-09-06T11:05:42Z</time>
      </trkpt>
      <trkpt lat="39.925124" lon="3.999994">
        <ele>3.917</ele>
        <time>2020-09-06T11:05:56Z</time>
      </trkpt>
      <trkpt lat="39.925171" lon="3.999974">
        <ele>4.481</ele>
        <time>2020-09-06T11:06:03Z</time>
      </trkpt>
      <trkpt lat="39.925310" lon="3.999934">
        <ele>4.430</ele>
        <time>2020-09-06T11:06:17Z</time>
      </trkpt>
      <trkpt lat="39.925433" lon="3.999967">
        <ele>4.995</ele>
        <time>2020-09-06T11:06:26Z</time>
      </trkpt>
      <trkpt lat="39.925578" lon="3.999924">
        <ele>6.349</ele>
        <time>2020-09-06T11:06:42Z</time>
      </trkpt>
      <trkpt lat="39.925591" lon="3.999939">
        <ele>6.323</ele>
        <time>2020-09-06T11:06:59Z</time>
      </trkpt>
      <trkpt lat="39.925612" lon="3.999960">
        <ele>6.808</ele>
        <time>2020-09-06T11:07:13Z</time>
      </trkpt>
      <trkpt lat="39.925636" lon="3.999976">
        <ele>6.844</ele>
        <time>2020-09-06T11:07:31Z</time>
      </trkpt>
      <trkpt lat="39.925620" lon="3.999952">
        <ele>6.836</ele>
        <time>2020-09-06T11:07:59Z</time>
      </trkpt>
      <trkpt lat="39.925623" lon="3.999972">
        <ele>6.339</ele>
        <time>2020-09-06T11:08:16Z</time>
      </trkpt>
      <trkpt lat="39.925693" lon="4.000020">
        <ele>4.936</ele>
        <time>2020-09-06T11:08:28Z</time>
      </trkpt>
      <trkpt lat="39.925748" lon="4.000109">
        <ele>3.024</ele>
        <time>2020-09-06T11:08:39Z</time>
      </trkpt>
      <trkpt lat="39.925764" lon="4.000155">
        <ele>3.030</ele>
        <time>2020-09-06T11:08:43Z</time>
      </trkpt>
      <trkpt lat="39.925778" lon="4.000176">
        <ele>2.524</ele>
        <time>2020-09-06T11:08:45Z</time>
      </trkpt>
      <trkpt lat="39.925835" lon="4.000272">
        <ele>1.173</ele>
        <time>2020-09-06T11:08:58Z</time>
      </trkpt>
      <trkpt lat="39.925910" lon="4.000387">
        <ele>0.168</ele>
        <time>2020-09-06T11:09:09Z</time>
      </trkpt>
      <trkpt lat="39.925927" lon="4.000418">
        <ele>-0.442</ele>
        <time>2020-09-06T11:09:12Z</time>
      </trkpt>
      <trkpt lat="39.925983" lon="4.000578">
        <ele>-1.326</ele>
        <time>2020-09-06T11:09:24Z</time>
      </trkpt>
      <trkpt lat="39.926109" lon="4.000748">
        <ele>-0.908</ele>
        <time>2020-09-06T11:09:42Z</time>
      </trkpt>
      <trkpt lat="39.926112" lon="4.000799">
        <ele>-1.341</ele>
        <time>2020-09-06T11:09:55Z</time>
      </trkpt>
      <trkpt lat="39.926155" lon="4.000848">
        <ele>-2.863</ele>
        <time>2020-09-06T11:10:06Z</time>
      </trkpt>
      <trkpt lat="39.926158" lon="4.000861">
        <ele>-3.826</ele>
        <time>2020-09-06T11:10:08Z</time>
      </trkpt>
      <trkpt lat="39.926232" lon="4.000965">
        <ele>-3.813</ele>
        <time>2020-09-06T11:10:23Z</time>
      </trkpt>
      <trkpt lat="39.926286" lon="4.000965">
        <ele>-3.881</ele>
        <time>2020-09-06T11:10:34Z</time>
      </trkpt>
      <trkpt lat="39.926288" lon="4.000966">
        <ele>-4.297</ele>
        <time>2020-09-06T11:10:35Z</time>
      </trkpt>
      <trkpt lat="39.926315" lon="4.000978">
        <ele>-4.231</ele>
        <time>2020-09-06T11:10:38Z</time>
      </trkpt>
      <trkpt lat="39.926372" lon="4.001023">
        <ele>-3.810</ele>
        <time>2020-09-06T11:10:51Z</time>
      </trkpt>
      <trkpt lat="39.926369" lon="4.001017">
        <ele>-3.319</ele>
        <time>2020-09-06T11:11:01Z</time>
      </trkpt>
      <trkpt lat="39.926428" lon="4.000960">
        <ele>-2.809</ele>
        <time>2020-09-06T11:11:12Z</time>
      </trkpt>
      <trkpt lat="39.926477" lon="4.000983">
        <ele>-1.319</ele>
        <time>2020-09-06T11:11:24Z</time>
      </trkpt>
      <trkpt lat="39.926601" lon="4.001033">
        <ele>0.608</ele>
        <time>2020-09-06T11:11:36Z</time>
      </trkpt>
      <trkpt lat="39.926682" lon="4.001196">
        <ele>3.066</ele>
        <time>2020-09-06T11:11:55Z</time>
      </trkpt>
      <trkpt lat="39.926583" lon="4.001266">
        <ele>3.988</ele>
        <time>2020-09-06T11:12:10Z</time>
      </trkpt>
      <trkpt lat="39.926483" lon="4.001339">
        <ele>5.941</ele>
        <time>2020-09-06T11:12:23Z</time>
      </trkpt>
      <trkpt lat="39.926413" lon="4.001408">
        <ele>7.398</ele>
        <time>2020-09-06T11:12:35Z</time>
      </trkpt>
      <trkpt lat="39.926316" lon="4.001453">
        <ele>8.326</ele>
        <time>2020-09-06T11:12:45Z</time>
      </trkpt>
      <trkpt lat="39.926188" lon="4.001471">
        <ele>10.232</ele>
        <time>2020-09-06T11:13:00Z</time>
      </trkpt>
      <trkpt lat="39.926090" lon="4.001445">
        <ele>11.616</ele>
        <time>2020-09-06T11:13:14Z</time>
      </trkpt>
      <trkpt lat="39.925996" lon="4.001426">
        <ele>12.695</ele>
        <time>2020-09-06T11:13:28Z</time>
      </trkpt>
      <trkpt lat="39.925901" lon="4.001399">
        <ele>14.047</ele>
        <time>2020-09-06T11:13:41Z</time>
      </trkpt>
      <trkpt lat="39.925770" lon="4.001387">
        <ele>16.429</ele>
        <time>2020-09-06T11:13:58Z</time>
      </trkpt>
      <trkpt lat="39.925668" lon="4.001423">
        <ele>17.421</ele>
        <time>2020-09-06T11:14:11Z</time>
      </trkpt>
      <trkpt lat="39.925577" lon="4.001499">
        <ele>18.808</ele>
        <time>2020-09-06T11:14:24Z</time>
      </trkpt>
      <trkpt lat="39.925499" lon="4.001592">
        <ele>19.869</ele>
        <time>2020-09-06T11:14:35Z</time>
      </trkpt>
      <trkpt lat="39.925438" lon="4.001670">
        <ele>20.391</ele>
        <time>2020-09-06T11:14:43Z</time>
      </trkpt>
      <trkpt lat="39.925380" lon="4.001727">
        <ele>20.374</ele>
        <time>2020-09-06T11:14:51Z</time>
      </trkpt>
      <trkpt lat="39.925283" lon="4.001901">
        <ele>20.871</ele>
        <time>2020-09-06T11:15:06Z</time>
      </trkpt>
      <trkpt lat="39.925247" lon="4.002057">
        <ele>21.719</ele>
        <time>2020-09-06T11:15:19Z</time>
      </trkpt>
      <trkpt lat="39.925255" lon="4.002244">
        <ele>22.245</ele>
        <time>2020-09-06T11:15:34Z</time>
      </trkpt>
      <trkpt lat="39.925354" lon="4.002353">
        <ele>22.289</ele>
        <time>2020-09-06T11:15:46Z</time>
      </trkpt>
      <trkpt lat="39.925496" lon="4.002456">
        <ele>23.268</ele>
        <time>2020-09-06T11:16:01Z</time>
      </trkpt>
      <trkpt lat="39.925570" lon="4.002532">
        <ele>23.263</ele>
        <time>2020-09-06T11:16:09Z</time>
      </trkpt>
      <trkpt lat="39.925707" lon="4.002636">
        <ele>23.644</ele>
        <time>2020-09-06T11:16:22Z</time>
      </trkpt>
      <trkpt lat="39.925790" lon="4.002735">
        <ele>24.118</ele>
        <time>2020-09-06T11:16:34Z</time>
      </trkpt>
      <trkpt lat="39.925862" lon="4.002886">
        <ele>23.608</ele>
        <time>2020-09-06T11:16:47Z</time>
      </trkpt>
      <trkpt lat="39.925910" lon="4.003066">
        <ele>23.251</ele>
        <time>2020-09-06T11:17:02Z</time>
      </trkpt>
      <trkpt lat="39.925933" lon="4.003175">
        <ele>22.793</ele>
        <time>2020-09-06T11:17:10Z</time>
      </trkpt>
      <trkpt lat="39.925928" lon="4.003398">
        <ele>22.766</ele>
        <time>2020-09-06T11:17:25Z</time>
      </trkpt>
      <trkpt lat="39.925960" lon="4.003619">
        <ele>21.273</ele>
        <time>2020-09-06T11:17:43Z</time>
      </trkpt>
      <trkpt lat="39.925930" lon="4.003891">
        <ele>19.331</ele>
        <time>2020-09-06T11:18:01Z</time>
      </trkpt>
      <trkpt lat="39.925940" lon="4.004076">
        <ele>18.457</ele>
        <time>2020-09-06T11:18:14Z</time>
      </trkpt>
      <trkpt lat="39.925936" lon="4.004332">
        <ele>17.481</ele>
        <time>2020-09-06T11:18:33Z</time>
      </trkpt>
      <trkpt lat="39.925933" lon="4.004511">
        <ele>16.430</ele>
        <time>2020-09-06T11:18:48Z</time>
      </trkpt>
      <trkpt lat="39.925914" lon="4.004666">
        <ele>15.531</ele>
        <time>2020-09-06T11:19:02Z</time>
      </trkpt>
      <trkpt lat="39.925894" lon="4.004744">
        <ele>15.061</ele>
        <time>2020-09-06T11:19:17Z</time>
      </trkpt>
      <trkpt lat="39.925903" lon="4.004746">
        <ele>14.007</ele>
        <time>2020-09-06T11:19:49Z</time>
      </trkpt>
      <trkpt lat="39.925847" lon="4.004908">
        <ele>12.608</ele>
        <time>2020-09-06T11:19:59Z</time>
      </trkpt>
      <trkpt lat="39.925777" lon="4.005136">
        <ele>10.718</ele>
        <time>2020-09-06T11:20:16Z</time>
      </trkpt>
      <trkpt lat="39.925721" lon="4.005334">
        <ele>7.830</ele>
        <time>2020-09-06T11:20:31Z</time>
      </trkpt>
      <trkpt lat="39.925682" lon="4.005433">
        <ele>6.373</ele>
        <time>2020-09-06T11:20:40Z</time>
      </trkpt>
      <trkpt lat="39.925583" lon="4.005555">
        <ele>3.040</ele>
        <time>2020-09-06T11:20:58Z</time>
      </trkpt>
      <trkpt lat="39.925439" lon="4.005632">
        <ele>0.178</ele>
        <time>2020-09-06T11:21:14Z</time>
      </trkpt>
      <trkpt lat="39.925400" lon="4.005580">
        <ele>-0.494</ele>
        <time>2020-09-06T11:21:19Z</time>
      </trkpt>
      <trkpt lat="39.925273" lon="4.005451">
        <ele>-2.398</ele>
        <time>2020-09-06T11:21:34Z</time>
      </trkpt>
      <trkpt lat="39.925230" lon="4.005424">
        <ele>-2.337</ele>
        <time>2020-09-06T11:21:39Z</time>
      </trkpt>
      <trkpt lat="39.925160" lon="4.005316">
        <ele>-2.329</ele>
        <time>2020-09-06T11:21:49Z</time>
      </trkpt>
      <trkpt lat="39.925067" lon="4.005205">
        <ele>-2.800</ele>
        <time>2020-09-06T11:22:04Z</time>
      </trkpt>
      <trkpt lat="39.925047" lon="4.005200">
        <ele>-1.320</ele>
        <time>2020-09-06T11:22:19Z</time>
      </trkpt>
      <trkpt lat="39.925040" lon="4.005175">
        <ele>0.108</ele>
        <time>2020-09-06T11:22:32Z</time>
      </trkpt>
      <trkpt lat="39.925018" lon="4.005139">
        <ele>2.047</ele>
        <time>2020-09-06T11:22:45Z</time>
      </trkpt>
      <trkpt lat="39.924995" lon="4.005005">
        <ele>3.569</ele>
        <time>2020-09-06T11:23:03Z</time>
      </trkpt>
      <trkpt lat="39.924904" lon="4.004902">
        <ele>4.932</ele>
        <time>2020-09-06T11:23:17Z</time>
      </trkpt>
      <trkpt lat="39.924819" lon="4.004866">
        <ele>6.819</ele>
        <time>2020-09-06T11:23:30Z</time>
      </trkpt>
      <trkpt lat="39.924746" lon="4.004820">
        <ele>7.847</ele>
        <time>2020-09-06T11:23:41Z</time>
      </trkpt>
      <trkpt lat="39.924675" lon="4.004769">
        <ele>7.823</ele>
        <time>2020-09-06T11:23:53Z</time>
      </trkpt>
      <trkpt lat="39.924669" lon="4.004762">
        <ele>8.757</ele>
        <time>2020-09-06T11:24:11Z</time>
      </trkpt>
      <trkpt lat="39.924633" lon="4.004735">
        <ele>8.756</ele>
        <time>2020-09-06T11:24:25Z</time>
      </trkpt>
      <trkpt lat="39.924632" lon="4.004733">
        <ele>7.887</ele>
        <time>2020-09-06T11:24:46Z</time>
      </trkpt>
      <trkpt lat="39.924632" lon="4.004732">
        <ele>9.242</ele>
        <time>2020-09-06T11:25:04Z</time>
      </trkpt>
      <trkpt lat="39.924629" lon="4.004732">
        <ele>7.826</ele>
        <time>2020-09-06T11:25:23Z</time>
      </trkpt>
      <trkpt lat="39.924628" lon="4.004732">
        <ele>7.808</ele>
        <time>2020-09-06T11:25:34Z</time>
      </trkpt>
      <trkpt lat="39.924675" lon="4.004761">
        <ele>7.843</ele>
        <time>2020-09-06T11:25:42Z</time>
      </trkpt>
      <trkpt lat="39.924716" lon="4.004751">
        <ele>6.885</ele>
        <time>2020-09-06T11:26:01Z</time>
      </trkpt>
      <trkpt lat="39.924726" lon="4.004748">
        <ele>6.868</ele>
        <time>2020-09-06T11:26:27Z</time>
      </trkpt>
      <trkpt lat="39.924727" lon="4.004750">
        <ele>8.715</ele>
        <time>2020-09-06T11:26:38Z</time>
      </trkpt>
      <trkpt lat="39.924727" lon="4.004749">
        <ele>7.313</ele>
        <time>2020-09-06T11:26:42Z</time>
      </trkpt>
      <trkpt lat="39.924722" lon="4.004747">
        <ele>7.819</ele>
        <time>2020-09-06T11:26:58Z</time>
      </trkpt>
      <trkpt lat="39.924622" lon="4.004740">
        <ele>7.843</ele>
        <time>2020-09-06T11:27:12Z</time>
      </trkpt>
      <trkpt lat="39.924620" lon="4.004757">
        <ele>8.312</ele>
        <time>2020-09-06T11:27:35Z</time>
      </trkpt>
      <trkpt lat="39.924611" lon="4.004758">
        <ele>8.398</ele>
        <time>2020-09-06T11:27:52Z</time>
      </trkpt>
      <trkpt lat="39.924524" lon="4.004759">
        <ele>8.715</ele>
        <time>2020-09-06T11:28:06Z</time>
      </trkpt>
      <trkpt lat="39.924514" lon="4.004754">
        <ele>9.226</ele>
        <time>2020-09-06T11:28:07Z</time>
      </trkpt>
      <trkpt lat="39.924435" lon="4.004739">
        <ele>9.208</ele>
        <time>2020-09-06T11:28:15Z</time>
      </trkpt>
      <trkpt lat="39.924295" lon="4.004787">
        <ele>10.254</ele>
        <time>2020-09-06T11:28:32Z</time>
      </trkpt>
      <trkpt lat="39.924262" lon="4.004785">
        <ele>10.766</ele>
        <time>2020-09-06T11:28:35Z</time>
      </trkpt>
      <trkpt lat="39.924199" lon="4.004811">
        <ele>10.799</ele>
        <time>2020-09-06T11:28:41Z</time>
      </trkpt>
      <trkpt lat="39.924145" lon="4.004835">
        <ele>10.726</ele>
        <time>2020-09-06T11:28:47Z</time>
      </trkpt>
      <trkpt lat="39.924122" lon="4.004887">
        <ele>11.144</ele>
        <time>2020-09-06T11:28:52Z</time>
      </trkpt>
      <trkpt lat="39.924086" lon="4.004952">
        <ele>12.160</ele>
        <time>2020-09-06T11:29:02Z</time>
      </trkpt>
      <trkpt lat="39.923979" lon="4.004965">
        <ele>11.614</ele>
        <time>2020-09-06T11:29:14Z</time>
      </trkpt>
      <trkpt lat="39.923919" lon="4.004982">
        <ele>12.153</ele>
        <time>2020-09-06T11:29:26Z</time>
      </trkpt>
      <trkpt lat="39.923914" lon="4.004997">
        <ele>12.145</ele>
        <time>2020-09-06T11:29:45Z</time>
      </trkpt>
      <trkpt lat="39.923837" lon="4.004986">
        <ele>11.147</ele>
        <time>2020-09-06T11:29:57Z</time>
      </trkpt>
      <trkpt lat="39.923810" lon="4.004961">
        <ele>10.711</ele>
        <time>2020-09-06T11:30:01Z</time>
      </trkpt>
      <trkpt lat="39.923717" lon="4.004916">
        <ele>10.208</ele>
        <time>2020-09-06T11:30:13Z</time>
      </trkpt>
      <trkpt lat="39.923671" lon="4.004949">
        <ele>8.729</ele>
        <time>2020-09-06T11:30:27Z</time>
      </trkpt>
      <trkpt lat="39.923658" lon="4.004961">
        <ele>9.231</ele>
        <time>2020-09-06T11:30:40Z</time>
      </trkpt>
      <trkpt lat="39.923576" lon="4.005046">
        <ele>9.774</ele>
        <time>2020-09-06T11:30:54Z</time>
      </trkpt>
      <trkpt lat="39.923511" lon="4.005067">
        <ele>9.211</ele>
        <time>2020-09-06T11:31:07Z</time>
      </trkpt>
      <trkpt lat="39.923473" lon="4.005103">
        <ele>9.259</ele>
        <time>2020-09-06T11:31:24Z</time>
      </trkpt>
      <trkpt lat="39.923420" lon="4.005133">
        <ele>8.785</ele>
        <time>2020-09-06T11:31:33Z</time>
      </trkpt>
      <trkpt lat="39.923354" lon="4.005195">
        <ele>8.759</ele>
        <time>2020-09-06T11:31:45Z</time>
      </trkpt>
      <trkpt lat="39.923319" lon="4.005254">
        <ele>10.798</ele>
        <time>2020-09-06T11:31:58Z</time>
      </trkpt>
      <trkpt lat="39.923244" lon="4.005303">
        <ele>11.618</ele>
        <time>2020-09-06T11:32:11Z</time>
      </trkpt>
      <trkpt lat="39.923171" lon="4.005372">
        <ele>12.698</ele>
        <time>2020-09-06T11:32:23Z</time>
      </trkpt>
      <trkpt lat="39.923159" lon="4.005404">
        <ele>14.517</ele>
        <time>2020-09-06T11:32:34Z</time>
      </trkpt>
      <trkpt lat="39.923130" lon="4.005444">
        <ele>15.008</ele>
        <time>2020-09-06T11:32:43Z</time>
      </trkpt>
      <trkpt lat="39.923077" lon="4.005484">
        <ele>15.576</ele>
        <time>2020-09-06T11:32:51Z</time>
      </trkpt>
      <trkpt lat="39.923050" lon="4.005492">
        <ele>15.098</ele>
        <time>2020-09-06T11:32:54Z</time>
      </trkpt>
      <trkpt lat="39.923018" lon="4.005568">
        <ele>16.921</ele>
        <time>2020-09-06T11:33:05Z</time>
      </trkpt>
      <trkpt lat="39.923005" lon="4.005668">
        <ele>18.868</ele>
        <time>2020-09-06T11:33:17Z</time>
      </trkpt>
      <trkpt lat="39.922961" lon="4.005767">
        <ele>19.836</ele>
        <time>2020-09-06T11:33:29Z</time>
      </trkpt>
      <trkpt lat="39.922901" lon="4.005833">
        <ele>19.892</ele>
        <time>2020-09-06T11:33:37Z</time>
      </trkpt>
      <trkpt lat="39.922809" lon="4.005909">
        <ele>19.396</ele>
        <time>2020-09-06T11:33:52Z</time>
      </trkpt>
      <trkpt lat="39.922737" lon="4.005872">
        <ele>17.915</ele>
        <time>2020-09-06T11:34:05Z</time>
      </trkpt>
      <trkpt lat="39.922715" lon="4.005860">
        <ele>17.464</ele>
        <time>2020-09-06T11:34:11Z</time>
      </trkpt>
      <trkpt lat="39.922721" lon="4.005801">
        <ele>16.406</ele>
        <time>2020-09-06T11:34:24Z</time>
      </trkpt>
      <trkpt lat="39.922697" lon="4.005827">
        <ele>16.416</ele>
        <time>2020-09-06T11:34:43Z</time>
      </trkpt>
      <trkpt lat="39.922659" lon="4.005906">
        <ele>16.008</ele>
        <time>2020-09-06T11:34:51Z</time>
      </trkpt>
      <trkpt lat="39.922614" lon="4.006017">
        <ele>15.061</ele>
        <time>2020-09-06T11:35:04Z</time>
      </trkpt>
      <trkpt lat="39.922605" lon="4.006140">
        <ele>13.143</ele>
        <time>2020-09-06T11:35:17Z</time>
      </trkpt>
      <trkpt lat="39.922560" lon="4.006189">
        <ele>12.676</ele>
        <time>2020-09-06T11:35:25Z</time>
      </trkpt>
      <trkpt lat="39.922533" lon="4.006262">
        <ele>13.133</ele>
        <time>2020-09-06T11:35:37Z</time>
      </trkpt>
      <trkpt lat="39.922493" lon="4.006338">
        <ele>13.151</ele>
        <time>2020-09-06T11:35:45Z</time>
      </trkpt>
      <trkpt lat="39.922456" lon="4.006448">
        <ele>13.637</ele>
        <time>2020-09-06T11:35:57Z</time>
      </trkpt>
      <trkpt lat="39.922413" lon="4.006511">
        <ele>13.141</ele>
        <time>2020-09-06T11:36:09Z</time>
      </trkpt>
      <trkpt lat="39.922369" lon="4.006529">
        <ele>12.150</ele>
        <time>2020-09-06T11:36:17Z</time>
      </trkpt>
      <trkpt lat="39.922340" lon="4.006643">
        <ele>12.194</ele>
        <time>2020-09-06T11:36:30Z</time>
      </trkpt>
      <trkpt lat="39.922343" lon="4.006725">
        <ele>14.057</ele>
        <time>2020-09-06T11:36:44Z</time>
      </trkpt>
      <trkpt lat="39.922314" lon="4.006932">
        <ele>14.022</ele>
        <time>2020-09-06T11:37:01Z</time>
      </trkpt>
      <trkpt lat="39.922318" lon="4.007083">
        <ele>14.008</ele>
        <time>2020-09-06T11:37:15Z</time>
      </trkpt>
      <trkpt lat="39.922325" lon="4.007181">
        <ele>14.024</ele>
        <time>2020-09-06T11:37:22Z</time>
      </trkpt>
      <trkpt lat="39.922327" lon="4.007312">
        <ele>12.636</ele>
        <time>2020-09-06T11:37:34Z</time>
      </trkpt>
      <trkpt lat="39.922331" lon="4.007389">
        <ele>12.639</ele>
        <time>2020-09-06T11:37:49Z</time>
      </trkpt>
      <trkpt lat="39.922345" lon="4.007419">
        <ele>12.126</ele>
        <time>2020-09-06T11:38:07Z</time>
      </trkpt>
      <trkpt lat="39.922346" lon="4.007445">
        <ele>12.114</ele>
        <time>2020-09-06T11:38:24Z</time>
      </trkpt>
      <trkpt lat="39.922359" lon="4.007492">
        <ele>10.780</ele>
        <time>2020-09-06T11:38:35Z</time>
      </trkpt>
      <trkpt lat="39.922365" lon="4.007506">
        <ele>9.754</ele>
        <time>2020-09-06T11:38:49Z</time>
      </trkpt>
      <trkpt lat="39.922374" lon="4.007519">
        <ele>8.343</ele>
        <time>2020-09-06T11:39:04Z</time>
      </trkpt>
      <trkpt lat="39.922376" lon="4.007524">
        <ele>7.328</ele>
        <time>2020-09-06T11:39:08Z</time>
      </trkpt>
      <trkpt lat="39.922418" lon="4.007599">
        <ele>5.989</ele>
        <time>2020-09-06T11:39:21Z</time>
      </trkpt>
      <trkpt lat="39.922408" lon="4.007626">
        <ele>4.417</ele>
        <time>2020-09-06T11:39:35Z</time>
      </trkpt>
      <trkpt lat="39.922391" lon="4.007663">
        <ele>5.408</ele>
        <time>2020-09-06T11:39:50Z</time>
      </trkpt>
      <trkpt lat="39.922334" lon="4.007705">
        <ele>7.327</ele>
        <time>2020-09-06T11:40:02Z</time>
      </trkpt>
      <trkpt lat="39.922289" lon="4.007736">
        <ele>7.899</ele>
        <time>2020-09-06T11:40:14Z</time>
      </trkpt>
      <trkpt lat="39.922219" lon="4.007745">
        <ele>9.742</ele>
        <time>2020-09-06T11:40:26Z</time>
      </trkpt>
      <trkpt lat="39.922196" lon="4.007747">
        <ele>10.259</ele>
        <time>2020-09-06T11:40:37Z</time>
      </trkpt>
      <trkpt lat="39.922144" lon="4.007751">
        <ele>11.647</ele>
        <time>2020-09-06T11:40:50Z</time>
      </trkpt>
      <trkpt lat="39.922112" lon="4.007745">
        <ele>12.123</ele>
        <time>2020-09-06T11:40:55Z</time>
      </trkpt>
      <trkpt lat="39.922026" lon="4.007802">
        <ele>13.697</ele>
        <time>2020-09-06T11:41:11Z</time>
      </trkpt>
      <trkpt lat="39.921981" lon="4.007890">
        <ele>15.566</ele>
        <time>2020-09-06T11:41:23Z</time>
      </trkpt>
      <trkpt lat="39.921922" lon="4.008028">
        <ele>16.986</ele>
        <time>2020-09-06T11:41:39Z</time>
      </trkpt>
      <trkpt lat="39.921841" lon="4.008157">
        <ele>16.960</ele>
        <time>2020-09-06T11:41:53Z</time>
      </trkpt>
      <trkpt lat="39.921834" lon="4.008162">
        <ele>17.426</ele>
        <time>2020-09-06T11:41:54Z</time>
      </trkpt>
      <trkpt lat="39.921762" lon="4.008198">
        <ele>16.408</ele>
        <time>2020-09-06T11:42:04Z</time>
      </trkpt>
      <trkpt lat="39.921008" lon="4.014509">
        <ele>5.443</ele>
        <time>2020-09-06T12:07:01Z</time>
      </trkpt>
      <trkpt lat="39.921006" lon="4.014511">
        <ele>5.445</ele>
        <time>2020-09-06T12:07:02Z</time>
      </trkpt>
      <trkpt lat="39.920986" lon="4.014481">
        <ele>9.218</ele>
        <time>2020-09-06T12:07:30Z</time>
      </trkpt>
      <trkpt lat="39.921011" lon="4.014578">
        <ele>11.695</ele>
        <time>2020-09-06T12:08:01Z</time>
      </trkpt>
      <trkpt lat="39.921004" lon="4.014547">
        <ele>10.233</ele>
        <time>2020-09-06T12:08:18Z</time>
      </trkpt>
      <trkpt lat="39.921055" lon="4.014602">
        <ele>11.669</ele>
        <time>2020-09-06T12:08:36Z</time>
      </trkpt>
      <trkpt lat="39.921042" lon="4.014600">
        <ele>12.123</ele>
        <time>2020-09-06T12:08:58Z</time>
      </trkpt>
      <trkpt lat="39.921065" lon="4.014628">
        <ele>14.532</ele>
        <time>2020-09-06T12:09:12Z</time>
      </trkpt>
      <trkpt lat="39.921098" lon="4.014731">
        <ele>16.068</ele>
        <time>2020-09-06T12:09:26Z</time>
      </trkpt>
      <trkpt lat="39.921157" lon="4.014827">
        <ele>17.442</ele>
        <time>2020-09-06T12:09:39Z</time>
      </trkpt>
      <trkpt lat="39.921222" lon="4.014928">
        <ele>17.926</ele>
        <time>2020-09-06T12:09:52Z</time>
      </trkpt>
      <trkpt lat="39.921253" lon="4.015022">
        <ele>18.408</ele>
        <time>2020-09-06T12:10:06Z</time>
      </trkpt>
      <trkpt lat="39.921298" lon="4.015010">
        <ele>19.891</ele>
        <time>2020-09-06T12:10:21Z</time>
      </trkpt>
      <trkpt lat="39.921382" lon="4.015102">
        <ele>21.733</ele>
        <time>2020-09-06T12:10:34Z</time>
      </trkpt>
      <trkpt lat="39.921448" lon="4.015190">
        <ele>22.776</ele>
        <time>2020-09-06T12:10:46Z</time>
      </trkpt>
      <trkpt lat="39.921448" lon="4.015223">
        <ele>22.793</ele>
        <time>2020-09-06T12:10:50Z</time>
      </trkpt>
      <trkpt lat="39.921458" lon="4.015273">
        <ele>22.791</ele>
        <time>2020-09-06T12:10:54Z</time>
      </trkpt>
      <trkpt lat="39.921458" lon="4.015298">
        <ele>22.727</ele>
        <time>2020-09-06T12:10:56Z</time>
      </trkpt>
      <trkpt lat="39.921517" lon="4.015487">
        <ele>22.761</ele>
        <time>2020-09-06T12:11:11Z</time>
      </trkpt>
      <trkpt lat="39.921633" lon="4.015612">
        <ele>23.650</ele>
        <time>2020-09-06T12:11:27Z</time>
      </trkpt>
      <trkpt lat="39.921703" lon="4.015729">
        <ele>24.625</ele>
        <time>2020-09-06T12:11:41Z</time>
      </trkpt>
      <trkpt lat="39.921773" lon="4.015838">
        <ele>26.526</ele>
        <time>2020-09-06T12:11:55Z</time>
      </trkpt>
      <trkpt lat="39.921835" lon="4.015934">
        <ele>27.508</ele>
        <time>2020-09-06T12:12:08Z</time>
      </trkpt>
      <trkpt lat="39.921900" lon="4.016066">
        <ele>28.508</ele>
        <time>2020-09-06T12:12:21Z</time>
      </trkpt>
      <trkpt lat="39.921968" lon="4.016159">
        <ele>28.917</ele>
        <time>2020-09-06T12:12:33Z</time>
      </trkpt>
      <trkpt lat="39.922069" lon="4.016327">
        <ele>29.999</ele>
        <time>2020-09-06T12:12:50Z</time>
      </trkpt>
      <trkpt lat="39.922136" lon="4.016458">
        <ele>30.492</ele>
        <time>2020-09-06T12:13:04Z</time>
      </trkpt>
      <trkpt lat="39.922149" lon="4.016496">
        <ele>30.479</ele>
        <time>2020-09-06T12:13:07Z</time>
      </trkpt>
      <trkpt lat="39.922172" lon="4.016529">
        <ele>30.447</ele>
        <time>2020-09-06T12:13:10Z</time>
      </trkpt>
      <trkpt lat="39.922201" lon="4.016559">
        <ele>30.443</ele>
        <time>2020-09-06T12:13:15Z</time>
      </trkpt>
      <trkpt lat="39.922290" lon="4.016722">
        <ele>31.327</ele>
        <time>2020-09-06T12:13:30Z</time>
      </trkpt>
      <trkpt lat="39.922396" lon="4.016831">
        <ele>32.816</ele>
        <time>2020-09-06T12:13:45Z</time>
      </trkpt>
      <trkpt lat="39.922435" lon="4.016947">
        <ele>33.724</ele>
        <time>2020-09-06T12:13:58Z</time>
      </trkpt>
      <trkpt lat="39.922503" lon="4.017099">
        <ele>31.304</ele>
        <time>2020-09-06T12:14:15Z</time>
      </trkpt>
      <trkpt lat="39.922543" lon="4.017184">
        <ele>34.714</ele>
        <time>2020-09-06T12:14:24Z</time>
      </trkpt>
      <trkpt lat="39.922631" lon="4.017342">
        <ele>35.208</ele>
        <time>2020-09-06T12:14:41Z</time>
      </trkpt>
      <trkpt lat="39.922658" lon="4.017387">
        <ele>34.737</ele>
        <time>2020-09-06T12:14:45Z</time>
      </trkpt>
      <trkpt lat="39.922746" lon="4.017576">
        <ele>35.749</ele>
        <time>2020-09-06T12:15:01Z</time>
      </trkpt>
      <trkpt lat="39.922784" lon="4.017609">
        <ele>35.792</ele>
        <time>2020-09-06T12:15:07Z</time>
      </trkpt>
      <trkpt lat="39.922793" lon="4.017593">
        <ele>35.789</ele>
        <time>2020-09-06T12:15:09Z</time>
      </trkpt>
      <trkpt lat="39.922753" lon="4.017772">
        <ele>35.277</ele>
        <time>2020-09-06T12:15:15Z</time>
      </trkpt>
      <trkpt lat="39.922785" lon="4.017956">
        <ele>35.283</ele>
        <time>2020-09-06T12:15:29Z</time>
      </trkpt>
      <trkpt lat="39.922775" lon="4.018042">
        <ele>34.257</ele>
        <time>2020-09-06T12:15:38Z</time>
      </trkpt>
      <trkpt lat="39.922769" lon="4.018194">
        <ele>33.356</ele>
        <time>2020-09-06T12:15:49Z</time>
      </trkpt>
      <trkpt lat="39.922767" lon="4.018408">
        <ele>33.388</ele>
        <time>2020-09-06T12:16:04Z</time>
      </trkpt>
      <trkpt lat="39.922725" lon="4.018609">
        <ele>31.824</ele>
        <time>2020-09-06T12:16:20Z</time>
      </trkpt>
      <trkpt lat="39.922672" lon="4.018737">
        <ele>30.426</ele>
        <time>2020-09-06T12:16:33Z</time>
      </trkpt>
      <trkpt lat="39.922656" lon="4.018779">
        <ele>29.908</ele>
        <time>2020-09-06T12:16:37Z</time>
      </trkpt>
      <trkpt lat="39.922650" lon="4.018868">
        <ele>29.923</ele>
        <time>2020-09-06T12:16:45Z</time>
      </trkpt>
      <trkpt lat="39.922709" lon="4.019064">
        <ele>29.975</ele>
        <time>2020-09-06T12:16:59Z</time>
      </trkpt>
      <trkpt lat="39.922789" lon="4.019269">
        <ele>29.988</ele>
        <time>2020-09-06T12:17:14Z</time>
      </trkpt>
      <trkpt lat="39.922901" lon="4.019410">
        <ele>28.085</ele>
        <time>2020-09-06T12:17:29Z</time>
      </trkpt>
      <trkpt lat="39.923007" lon="4.019478">
        <ele>28.523</ele>
        <time>2020-09-06T12:17:44Z</time>
      </trkpt>
      <trkpt lat="39.922973" lon="4.019580">
        <ele>28.519</ele>
        <time>2020-09-06T12:17:57Z</time>
      </trkpt>
      <trkpt lat="39.922830" lon="4.019633">
        <ele>28.033</ele>
        <time>2020-09-06T12:18:13Z</time>
      </trkpt>
      <trkpt lat="39.922695" lon="4.019745">
        <ele>27.542</ele>
        <time>2020-09-06T12:18:27Z</time>
      </trkpt>
      <trkpt lat="39.922641" lon="4.019812">
        <ele>27.093</ele>
        <time>2020-09-06T12:18:35Z</time>
      </trkpt>
      <trkpt lat="39.922582" lon="4.019984">
        <ele>26.565</ele>
        <time>2020-09-06T12:18:51Z</time>
      </trkpt>
      <trkpt lat="39.922503" lon="4.020077">
        <ele>24.121</ele>
        <time>2020-09-06T12:19:05Z</time>
      </trkpt>
      <trkpt lat="39.922440" lon="4.020103">
        <ele>21.208</ele>
        <time>2020-09-06T12:19:20Z</time>
      </trkpt>
      <trkpt lat="39.922433" lon="4.020144">
        <ele>20.844</ele>
        <time>2020-09-06T12:19:31Z</time>
      </trkpt>
      <trkpt lat="39.922417" lon="4.020182">
        <ele>19.866</ele>
        <time>2020-09-06T12:19:34Z</time>
      </trkpt>
      <trkpt lat="39.922398" lon="4.020324">
        <ele>20.849</ele>
        <time>2020-09-06T12:19:46Z</time>
      </trkpt>
      <trkpt lat="39.922338" lon="4.020466">
        <ele>18.476</ele>
        <time>2020-09-06T12:19:59Z</time>
      </trkpt>
      <trkpt lat="39.922292" lon="4.020654">
        <ele>17.944</ele>
        <time>2020-09-06T12:20:12Z</time>
      </trkpt>
      <trkpt lat="39.922261" lon="4.020846">
        <ele>18.450</ele>
        <time>2020-09-06T12:20:26Z</time>
      </trkpt>
      <trkpt lat="39.922251" lon="4.020996">
        <ele>20.384</ele>
        <time>2020-09-06T12:20:40Z</time>
      </trkpt>
      <trkpt lat="39.922249" lon="4.021005">
        <ele>20.313</ele>
        <time>2020-09-06T12:20:41Z</time>
      </trkpt>
      <trkpt lat="39.922204" lon="4.021124">
        <ele>21.761</ele>
        <time>2020-09-06T12:20:56Z</time>
      </trkpt>
      <trkpt lat="39.922136" lon="4.021271">
        <ele>22.721</ele>
        <time>2020-09-06T12:21:10Z</time>
      </trkpt>
      <trkpt lat="39.922130" lon="4.021277">
        <ele>22.213</ele>
        <time>2020-09-06T12:21:11Z</time>
      </trkpt>
      <trkpt lat="39.922058" lon="4.021429">
        <ele>22.708</ele>
        <time>2020-09-06T12:21:25Z</time>
      </trkpt>
      <trkpt lat="39.922024" lon="4.021566">
        <ele>23.631</ele>
        <time>2020-09-06T12:21:37Z</time>
      </trkpt>
      <trkpt lat="39.922021" lon="4.021577">
        <ele>23.653</ele>
        <time>2020-09-06T12:21:38Z</time>
      </trkpt>
      <trkpt lat="39.922014" lon="4.021607">
        <ele>24.186</ele>
        <time>2020-09-06T12:21:40Z</time>
      </trkpt>
      <trkpt lat="39.921997" lon="4.021702">
        <ele>25.133</ele>
        <time>2020-09-06T12:21:53Z</time>
      </trkpt>
      <trkpt lat="39.921941" lon="4.021780">
        <ele>24.621</ele>
        <time>2020-09-06T12:22:02Z</time>
      </trkpt>
      <trkpt lat="39.921865" lon="4.021872">
        <ele>24.617</ele>
        <time>2020-09-06T12:22:16Z</time>
      </trkpt>
      <trkpt lat="39.921871" lon="4.021927">
        <ele>24.191</ele>
        <time>2020-09-06T12:22:21Z</time>
      </trkpt>
      <trkpt lat="39.921829" lon="4.022086">
        <ele>24.170</ele>
        <time>2020-09-06T12:22:34Z</time>
      </trkpt>
      <trkpt lat="39.921797" lon="4.022192">
        <ele>24.162</ele>
        <time>2020-09-06T12:22:42Z</time>
      </trkpt>
      <trkpt lat="39.921720" lon="4.022377">
        <ele>23.683</ele>
        <time>2020-09-06T12:22:58Z</time>
      </trkpt>
      <trkpt lat="39.921710" lon="4.022411">
        <ele>23.611</ele>
        <time>2020-09-06T12:23:01Z</time>
      </trkpt>
      <trkpt lat="39.921654" lon="4.022579">
        <ele>21.208</ele>
        <time>2020-09-06T12:23:15Z</time>
      </trkpt>
      <trkpt lat="39.921623" lon="4.022656">
        <ele>20.321</ele>
        <time>2020-09-06T12:23:22Z</time>
      </trkpt>
      <trkpt lat="39.921565" lon="4.022797">
        <ele>19.863</ele>
        <time>2020-09-06T12:23:34Z</time>
      </trkpt>
      <trkpt lat="39.921545" lon="4.022871">
        <ele>19.336</ele>
        <time>2020-09-06T12:23:40Z</time>
      </trkpt>
      <trkpt lat="39.921448" lon="4.023067">
        <ele>17.493</ele>
        <time>2020-09-06T12:23:56Z</time>
      </trkpt>
      <trkpt lat="39.921433" lon="4.023114">
        <ele>17.471</ele>
        <time>2020-09-06T12:24:00Z</time>
      </trkpt>
      <trkpt lat="39.921422" lon="4.023162">
        <ele>16.967</ele>
        <time>2020-09-06T12:24:16Z</time>
      </trkpt>
      <trkpt lat="39.921426" lon="4.023184">
        <ele>16.481</ele>
        <time>2020-09-06T12:24:30Z</time>
      </trkpt>
      <trkpt lat="39.921334" lon="4.023370">
        <ele>16.090</ele>
        <time>2020-09-06T12:24:46Z</time>
      </trkpt>
      <trkpt lat="39.921302" lon="4.023437">
        <ele>16.024</ele>
        <time>2020-09-06T12:24:53Z</time>
      </trkpt>
      <trkpt lat="39.921255" lon="4.023602">
        <ele>14.004</ele>
        <time>2020-09-06T12:25:06Z</time>
      </trkpt>
      <trkpt lat="39.921189" lon="4.023849">
        <ele>12.614</ele>
        <time>2020-09-06T12:25:24Z</time>
      </trkpt>
      <trkpt lat="39.921177" lon="4.024076">
        <ele>11.608</ele>
        <time>2020-09-06T12:25:41Z</time>
      </trkpt>
      <trkpt lat="39.921172" lon="4.024139">
        <ele>11.197</ele>
        <time>2020-09-06T12:25:46Z</time>
      </trkpt>
      <trkpt lat="39.921221" lon="4.024351">
        <ele>10.779</ele>
        <time>2020-09-06T12:26:01Z</time>
      </trkpt>
      <trkpt lat="39.921243" lon="4.024526">
        <ele>9.242</ele>
        <time>2020-09-06T12:26:13Z</time>
      </trkpt>
      <trkpt lat="39.921250" lon="4.024556">
        <ele>9.299</ele>
        <time>2020-09-06T12:26:15Z</time>
      </trkpt>
      <trkpt lat="39.921317" lon="4.024742">
        <ele>7.857</ele>
        <time>2020-09-06T12:26:31Z</time>
      </trkpt>
      <trkpt lat="39.921419" lon="4.024900">
        <ele>4.923</ele>
        <time>2020-09-06T12:26:46Z</time>
      </trkpt>
      <trkpt lat="39.921479" lon="4.024932">
        <ele>4.997</ele>
        <time>2020-09-06T12:27:01Z</time>
      </trkpt>
      <trkpt lat="39.921477" lon="4.024973">
        <ele>3.986</ele>
        <time>2020-09-06T12:27:25Z</time>
      </trkpt>
      <trkpt lat="39.921476" lon="4.024991">
        <ele>3.595</ele>
        <time>2020-09-06T12:27:31Z</time>
      </trkpt>
      <trkpt lat="39.921327" lon="4.025096">
        <ele>2.549</ele>
        <time>2020-09-06T12:27:47Z</time>
      </trkpt>
      <trkpt lat="39.921326" lon="4.025111">
        <ele>2.523</ele>
        <time>2020-09-06T12:28:05Z</time>
      </trkpt>
      <trkpt lat="39.921328" lon="4.025115">
        <ele>2.508</ele>
        <time>2020-09-06T12:28:14Z</time>
      </trkpt>
      <trkpt lat="39.921302" lon="4.025165">
        <ele>2.044</ele>
        <time>2020-09-06T12:28:18Z</time>
      </trkpt>
      <trkpt lat="39.921164" lon="4.025311">
        <ele>1.146</ele>
        <time>2020-09-06T12:28:34Z</time>
      </trkpt>
      <trkpt lat="39.921065" lon="4.025429">
        <ele>0.619</ele>
        <time>2020-09-06T12:28:49Z</time>
      </trkpt>
      <trkpt lat="39.920977" lon="4.025533">
        <ele>0.666</ele>
        <time>2020-09-06T12:29:03Z</time>
      </trkpt>
      <trkpt lat="39.920920" lon="4.025648">
        <ele>1.584</ele>
        <time>2020-09-06T12:29:17Z</time>
      </trkpt>
      <trkpt lat="39.920877" lon="4.025695">
        <ele>1.560</ele>
        <time>2020-09-06T12:29:25Z</time>
      </trkpt>
      <trkpt lat="39.920822" lon="4.025739">
        <ele>2.024</ele>
        <time>2020-09-06T12:29:32Z</time>
      </trkpt>
      <trkpt lat="39.920708" lon="4.025893">
        <ele>3.013</ele>
        <time>2020-09-06T12:29:50Z</time>
      </trkpt>
      <trkpt lat="39.920616" lon="4.026033">
        <ele>3.085</ele>
        <time>2020-09-06T12:30:05Z</time>
      </trkpt>
      <trkpt lat="39.920530" lon="4.026147">
        <ele>3.589</ele>
        <time>2020-09-06T12:30:20Z</time>
      </trkpt>
      <trkpt lat="39.920495" lon="4.026268">
        <ele>4.917</ele>
        <time>2020-09-06T12:30:34Z</time>
      </trkpt>
      <trkpt lat="39.920471" lon="4.026345">
        <ele>5.408</ele>
        <time>2020-09-06T12:30:41Z</time>
      </trkpt>
      <trkpt lat="39.920404" lon="4.026445">
        <ele>5.983</ele>
        <time>2020-09-06T12:30:53Z</time>
      </trkpt>
      <trkpt lat="39.920388" lon="4.026460">
        <ele>5.955</ele>
        <time>2020-09-06T12:30:55Z</time>
      </trkpt>
      <trkpt lat="39.920342" lon="4.026544">
        <ele>5.968</ele>
        <time>2020-09-06T12:31:08Z</time>
      </trkpt>
      <trkpt lat="39.920333" lon="4.026548">
        <ele>5.475</ele>
        <time>2020-09-06T12:31:23Z</time>
      </trkpt>
      <trkpt lat="39.920326" lon="4.026571">
        <ele>5.933</ele>
        <time>2020-09-06T12:31:29Z</time>
      </trkpt>
      <trkpt lat="39.920239" lon="4.026771">
        <ele>5.989</ele>
        <time>2020-09-06T12:31:46Z</time>
      </trkpt>
      <trkpt lat="39.920166" lon="4.026861">
        <ele>5.913</ele>
        <time>2020-09-06T12:31:57Z</time>
      </trkpt>
      <trkpt lat="39.920132" lon="4.026868">
        <ele>5.932</ele>
        <time>2020-09-06T12:32:00Z</time>
      </trkpt>
      <trkpt lat="39.920049" lon="4.026932">
        <ele>4.477</ele>
        <time>2020-09-06T12:32:10Z</time>
      </trkpt>
      <trkpt lat="39.920001" lon="4.026945">
        <ele>3.961</ele>
        <time>2020-09-06T12:32:15Z</time>
      </trkpt>
      <trkpt lat="39.919898" lon="4.027076">
        <ele>3.927</ele>
        <time>2020-09-06T12:32:31Z</time>
      </trkpt>
      <trkpt lat="39.919795" lon="4.027189">
        <ele>4.408</ele>
        <time>2020-09-06T12:32:46Z</time>
      </trkpt>
      <trkpt lat="39.919737" lon="4.027294">
        <ele>4.992</ele>
        <time>2020-09-06T12:32:57Z</time>
      </trkpt>
      <trkpt lat="39.919728" lon="4.027319">
        <ele>5.494</ele>
        <time>2020-09-06T12:32:59Z</time>
      </trkpt>
      <trkpt lat="39.919618" lon="4.027522">
        <ele>3.957</ele>
        <time>2020-09-06T12:33:17Z</time>
      </trkpt>
      <trkpt lat="39.919537" lon="4.027675">
        <ele>3.974</ele>
        <time>2020-09-06T12:33:34Z</time>
      </trkpt>
      <trkpt lat="39.919532" lon="4.027710">
        <ele>4.452</ele>
        <time>2020-09-06T12:33:37Z</time>
      </trkpt>
      <trkpt lat="39.919446" lon="4.027891">
        <ele>4.978</ele>
        <time>2020-09-06T12:33:54Z</time>
      </trkpt>
      <trkpt lat="39.919365" lon="4.028129">
        <ele>4.422</ele>
        <time>2020-09-06T12:34:13Z</time>
      </trkpt>
      <trkpt lat="39.919308" lon="4.028290">
        <ele>4.431</ele>
        <time>2020-09-06T12:34:26Z</time>
      </trkpt>
      <trkpt lat="39.919225" lon="4.028476">
        <ele>3.918</ele>
        <time>2020-09-06T12:34:41Z</time>
      </trkpt>
      <trkpt lat="39.919128" lon="4.028639">
        <ele>3.098</ele>
        <time>2020-09-06T12:34:55Z</time>
      </trkpt>
      <trkpt lat="39.919014" lon="4.028871">
        <ele>2.017</ele>
        <time>2020-09-06T12:35:13Z</time>
      </trkpt>
      <trkpt lat="39.918980" lon="4.028922">
        <ele>2.008</ele>
        <time>2020-09-06T12:35:18Z</time>
      </trkpt>
      <trkpt lat="39.918930" lon="4.029096">
        <ele>1.526</ele>
        <time>2020-09-06T12:35:32Z</time>
      </trkpt>
      <trkpt lat="39.918892" lon="4.029150">
        <ele>1.148</ele>
        <time>2020-09-06T12:35:37Z</time>
      </trkpt>
      <trkpt lat="39.918881" lon="4.029183">
        <ele>1.121</ele>
        <time>2020-09-06T12:35:40Z</time>
      </trkpt>
      <trkpt lat="39.918867" lon="4.029250">
        <ele>1.158</ele>
        <time>2020-09-06T12:35:45Z</time>
      </trkpt>
      <trkpt lat="39.918773" lon="4.029464">
        <ele>2.546</ele>
        <time>2020-09-06T12:36:02Z</time>
      </trkpt>
      <trkpt lat="39.918688" lon="4.029653">
        <ele>1.522</ele>
        <time>2020-09-06T12:36:17Z</time>
      </trkpt>
      <trkpt lat="39.918605" lon="4.029785">
        <ele>3.086</ele>
        <time>2020-09-06T12:36:30Z</time>
      </trkpt>
      <trkpt lat="39.918586" lon="4.029802">
        <ele>3.085</ele>
        <time>2020-09-06T12:36:32Z</time>
      </trkpt>
      <trkpt lat="39.918500" lon="4.029980">
        <ele>3.077</ele>
        <time>2020-09-06T12:36:47Z</time>
      </trkpt>
      <trkpt lat="39.918498" lon="4.029990">
        <ele>3.061</ele>
        <time>2020-09-06T12:36:48Z</time>
      </trkpt>
      <trkpt lat="39.918433" lon="4.030096">
        <ele>3.927</ele>
        <time>2020-09-06T12:36:58Z</time>
      </trkpt>
      <trkpt lat="39.918325" lon="4.030292">
        <ele>4.408</ele>
        <time>2020-09-06T12:37:14Z</time>
      </trkpt>
      <trkpt lat="39.918265" lon="4.030356">
        <ele>3.932</ele>
        <time>2020-09-06T12:37:21Z</time>
      </trkpt>
      <trkpt lat="39.918230" lon="4.030380">
        <ele>3.924</ele>
        <time>2020-09-06T12:37:25Z</time>
      </trkpt>
      <trkpt lat="39.918068" lon="4.030509">
        <ele>3.057</ele>
        <time>2020-09-06T12:37:42Z</time>
      </trkpt>
      <trkpt lat="39.917956" lon="4.030632">
        <ele>2.534</ele>
        <time>2020-09-06T12:37:55Z</time>
      </trkpt>
      <trkpt lat="39.917860" lon="4.030736">
        <ele>2.512</ele>
        <time>2020-09-06T12:38:06Z</time>
      </trkpt>
      <trkpt lat="39.917692" lon="4.030834">
        <ele>1.538</ele>
        <time>2020-09-06T12:38:22Z</time>
      </trkpt>
      <trkpt lat="39.917628" lon="4.030853">
        <ele>1.522</ele>
        <time>2020-09-06T12:38:28Z</time>
      </trkpt>
      <trkpt lat="39.917559" lon="4.030989">
        <ele>1.191</ele>
        <time>2020-09-06T12:38:41Z</time>
      </trkpt>
      <trkpt lat="39.917554" lon="4.031006">
        <ele>1.552</ele>
        <time>2020-09-06T12:38:43Z</time>
      </trkpt>
      <trkpt lat="39.917517" lon="4.031166">
        <ele>2.553</ele>
        <time>2020-09-06T12:38:54Z</time>
      </trkpt>
      <trkpt lat="39.917524" lon="4.031255">
        <ele>2.008</ele>
        <time>2020-09-06T12:39:00Z</time>
      </trkpt>
      <trkpt lat="39.917534" lon="4.031279">
        <ele>2.008</ele>
        <time>2020-09-06T12:39:02Z</time>
      </trkpt>
      <trkpt lat="39.917529" lon="4.031342">
        <ele>2.090</ele>
        <time>2020-09-06T12:39:08Z</time>
      </trkpt>
      <trkpt lat="39.917504" lon="4.031546">
        <ele>2.562</ele>
        <time>2020-09-06T12:39:23Z</time>
      </trkpt>
      <trkpt lat="39.917472" lon="4.031764">
        <ele>2.515</ele>
        <time>2020-09-06T12:39:38Z</time>
      </trkpt>
      <trkpt lat="39.917475" lon="4.032021">
        <ele>1.562</ele>
        <time>2020-09-06T12:39:55Z</time>
      </trkpt>
      <trkpt lat="39.917474" lon="4.032270">
        <ele>1.190</ele>
        <time>2020-09-06T12:40:11Z</time>
      </trkpt>
      <trkpt lat="39.917488" lon="4.032485">
        <ele>2.086</ele>
        <time>2020-09-06T12:40:26Z</time>
      </trkpt>
      <trkpt lat="39.917443" lon="4.032708">
        <ele>2.050</ele>
        <time>2020-09-06T12:40:42Z</time>
      </trkpt>
      <trkpt lat="39.917336" lon="4.032934">
        <ele>1.519</ele>
        <time>2020-09-06T12:41:00Z</time>
      </trkpt>
      <trkpt lat="39.917245" lon="4.033136">
        <ele>2.017</ele>
        <time>2020-09-06T12:41:15Z</time>
      </trkpt>
      <trkpt lat="39.917195" lon="4.033333">
        <ele>2.087</ele>
        <time>2020-09-06T12:41:30Z</time>
      </trkpt>
      <trkpt lat="39.917195" lon="4.033345">
        <ele>2.015</ele>
        <time>2020-09-06T12:41:31Z</time>
      </trkpt>
      <trkpt lat="39.917256" lon="4.033410">
        <ele>3.008</ele>
        <time>2020-09-06T12:41:44Z</time>
      </trkpt>
      <trkpt lat="39.917275" lon="4.033460">
        <ele>3.026</ele>
        <time>2020-09-06T12:41:50Z</time>
      </trkpt>
      <trkpt lat="39.917186" lon="4.033567">
        <ele>2.018</ele>
        <time>2020-09-06T12:42:06Z</time>
      </trkpt>
      <trkpt lat="39.917182" lon="4.033573">
        <ele>2.031</ele>
        <time>2020-09-06T12:42:10Z</time>
      </trkpt>
      <trkpt lat="39.917128" lon="4.033621">
        <ele>1.568</ele>
        <time>2020-09-06T12:42:16Z</time>
      </trkpt>
      <trkpt lat="39.917030" lon="4.033855">
        <ele>0.686</ele>
        <time>2020-09-06T12:42:34Z</time>
      </trkpt>
      <trkpt lat="39.917018" lon="4.033939">
        <ele>1.112</ele>
        <time>2020-09-06T12:42:47Z</time>
      </trkpt>
      <trkpt lat="39.917014" lon="4.033944">
        <ele>1.576</ele>
        <time>2020-09-06T12:42:55Z</time>
      </trkpt>
      <trkpt lat="39.916910" lon="4.034183">
        <ele>1.595</ele>
        <time>2020-09-06T12:43:14Z</time>
      </trkpt>
      <trkpt lat="39.916835" lon="4.034412">
        <ele>2.093</ele>
        <time>2020-09-06T12:43:31Z</time>
      </trkpt>
      <trkpt lat="39.916740" lon="4.034623">
        <ele>2.565</ele>
        <time>2020-09-06T12:43:47Z</time>
      </trkpt>
      <trkpt lat="39.916649" lon="4.034860">
        <ele>2.521</ele>
        <time>2020-09-06T12:44:04Z</time>
      </trkpt>
      <trkpt lat="39.916573" lon="4.035075">
        <ele>3.008</ele>
        <time>2020-09-06T12:44:21Z</time>
      </trkpt>
      <trkpt lat="39.916461" lon="4.035301">
        <ele>3.014</ele>
        <time>2020-09-06T12:44:38Z</time>
      </trkpt>
      <trkpt lat="39.916389" lon="4.035544">
        <ele>2.036</ele>
        <time>2020-09-06T12:44:55Z</time>
      </trkpt>
      <trkpt lat="39.916312" lon="4.035801">
        <ele>1.599</ele>
        <time>2020-09-06T12:45:13Z</time>
      </trkpt>
      <trkpt lat="39.916239" lon="4.035992">
        <ele>2.086</ele>
        <time>2020-09-06T12:45:27Z</time>
      </trkpt>
      <trkpt lat="39.916141" lon="4.036225">
        <ele>2.534</ele>
        <time>2020-09-06T12:45:43Z</time>
      </trkpt>
      <trkpt lat="39.916011" lon="4.036442">
        <ele>3.550</ele>
        <time>2020-09-06T12:46:01Z</time>
      </trkpt>
      <trkpt lat="39.915966" lon="4.036475">
        <ele>3.584</ele>
        <time>2020-09-06T12:46:05Z</time>
      </trkpt>
      <trkpt lat="39.915876" lon="4.036541">
        <ele>3.593</ele>
        <time>2020-09-06T12:46:16Z</time>
      </trkpt>
      <trkpt lat="39.915758" lon="4.036585">
        <ele>3.586</ele>
        <time>2020-09-06T12:46:28Z</time>
      </trkpt>
      <trkpt lat="39.915690" lon="4.036584">
        <ele>3.060</ele>
        <time>2020-09-06T12:46:34Z</time>
      </trkpt>
      <trkpt lat="39.915581" lon="4.036610">
        <ele>3.026</ele>
        <time>2020-09-06T12:46:41Z</time>
      </trkpt>
      <trkpt lat="39.915402" lon="4.036614">
        <ele>2.508</ele>
        <time>2020-09-06T12:46:55Z</time>
      </trkpt>
      <trkpt lat="39.915248" lon="4.036758">
        <ele>2.513</ele>
        <time>2020-09-06T12:47:11Z</time>
      </trkpt>
      <trkpt lat="39.915108" lon="4.036912">
        <ele>2.085</ele>
        <time>2020-09-06T12:47:27Z</time>
      </trkpt>
      <trkpt lat="39.915003" lon="4.037051">
        <ele>2.528</ele>
        <time>2020-09-06T12:47:41Z</time>
      </trkpt>
      <trkpt lat="39.915020" lon="4.037309">
        <ele>3.055</ele>
        <time>2020-09-06T12:47:58Z</time>
      </trkpt>
      <trkpt lat="39.915055" lon="4.037484">
        <ele>2.553</ele>
        <time>2020-09-06T12:48:10Z</time>
      </trkpt>
      <trkpt lat="39.915050" lon="4.037555">
        <ele>2.539</ele>
        <time>2020-09-06T12:48:14Z</time>
      </trkpt>
      <trkpt lat="39.915026" lon="4.037772">
        <ele>2.573</ele>
        <time>2020-09-06T12:48:28Z</time>
      </trkpt>
      <trkpt lat="39.914907" lon="4.037944">
        <ele>2.552</ele>
        <time>2020-09-06T12:48:46Z</time>
      </trkpt>
      <trkpt lat="39.914955" lon="4.038109">
        <ele>2.534</ele>
        <time>2020-09-06T12:49:00Z</time>
      </trkpt>
      <trkpt lat="39.915024" lon="4.038272">
        <ele>3.055</ele>
        <time>2020-09-06T12:49:11Z</time>
      </trkpt>
      <trkpt lat="39.915135" lon="4.038463">
        <ele>3.010</ele>
        <time>2020-09-06T12:49:26Z</time>
      </trkpt>
      <trkpt lat="39.915137" lon="4.038472">
        <ele>3.008</ele>
        <time>2020-09-06T12:49:27Z</time>
      </trkpt>
      <trkpt lat="39.915152" lon="4.038548">
        <ele>3.518</ele>
        <time>2020-09-06T12:49:32Z</time>
      </trkpt>
      <trkpt lat="39.915119" lon="4.038793">
        <ele>3.520</ele>
        <time>2020-09-06T12:49:48Z</time>
      </trkpt>
      <trkpt lat="39.915097" lon="4.039068">
        <ele>3.963</ele>
        <time>2020-09-06T12:50:06Z</time>
      </trkpt>
      <trkpt lat="39.915081" lon="4.039218">
        <ele>3.930</ele>
        <time>2020-09-06T12:50:16Z</time>
      </trkpt>
      <trkpt lat="39.915090" lon="4.039292">
        <ele>3.558</ele>
        <time>2020-09-06T12:50:21Z</time>
      </trkpt>
      <trkpt lat="39.915090" lon="4.039518">
        <ele>3.964</ele>
        <time>2020-09-06T12:50:37Z</time>
      </trkpt>
      <trkpt lat="39.915075" lon="4.039755">
        <ele>4.428</ele>
        <time>2020-09-06T12:50:52Z</time>
      </trkpt>
      <trkpt lat="39.915065" lon="4.039828">
        <ele>3.987</ele>
        <time>2020-09-06T12:50:58Z</time>
      </trkpt>
      <trkpt lat="39.915044" lon="4.039920">
        <ele>3.973</ele>
        <time>2020-09-06T12:51:04Z</time>
      </trkpt>
      <trkpt lat="39.914895" lon="4.040051">
        <ele>2.585</ele>
        <time>2020-09-06T12:51:19Z</time>
      </trkpt>
      <trkpt lat="39.914880" lon="4.040071">
        <ele>3.013</ele>
        <time>2020-09-06T12:51:21Z</time>
      </trkpt>
      <trkpt lat="39.914834" lon="4.040320">
        <ele>3.908</ele>
        <time>2020-09-06T12:51:38Z</time>
      </trkpt>
      <trkpt lat="39.914791" lon="4.040507">
        <ele>4.492</ele>
        <time>2020-09-06T12:51:52Z</time>
      </trkpt>
      <trkpt lat="39.914698" lon="4.040763">
        <ele>4.954</ele>
        <time>2020-09-06T12:52:10Z</time>
      </trkpt>
      <trkpt lat="39.914650" lon="4.041014">
        <ele>5.467</ele>
        <time>2020-09-06T12:52:26Z</time>
      </trkpt>
      <trkpt lat="39.914622" lon="4.041116">
        <ele>5.454</ele>
        <time>2020-09-06T12:52:35Z</time>
      </trkpt>
      <trkpt lat="39.914608" lon="4.041331">
        <ele>5.422</ele>
        <time>2020-09-06T12:52:52Z</time>
      </trkpt>
      <trkpt lat="39.914573" lon="4.041472">
        <ele>5.988</ele>
        <time>2020-09-06T12:53:04Z</time>
      </trkpt>
      <trkpt lat="39.914472" lon="4.041638">
        <ele>6.312</ele>
        <time>2020-09-06T12:53:17Z</time>
      </trkpt>
      <trkpt lat="39.914366" lon="4.041909">
        <ele>5.951</ele>
        <time>2020-09-06T12:53:33Z</time>
      </trkpt>
      <trkpt lat="39.914294" lon="4.042151">
        <ele>4.927</ele>
        <time>2020-09-06T12:53:50Z</time>
      </trkpt>
      <trkpt lat="39.914257" lon="4.042352">
        <ele>3.968</ele>
        <time>2020-09-06T12:54:03Z</time>
      </trkpt>
      <trkpt lat="39.914174" lon="4.042539">
        <ele>2.514</ele>
        <time>2020-09-06T12:54:20Z</time>
      </trkpt>
      <trkpt lat="39.914070" lon="4.042689">
        <ele>2.508</ele>
        <time>2020-09-06T12:54:37Z</time>
      </trkpt>
      <trkpt lat="39.913956" lon="4.042898">
        <ele>2.557</ele>
        <time>2020-09-06T12:54:52Z</time>
      </trkpt>
      <trkpt lat="39.913942" lon="4.042919">
        <ele>2.589</ele>
        <time>2020-09-06T12:54:54Z</time>
      </trkpt>
      <trkpt lat="39.913811" lon="4.043139">
        <ele>3.082</ele>
        <time>2020-09-06T12:55:11Z</time>
      </trkpt>
      <trkpt lat="39.913691" lon="4.043327">
        <ele>3.929</ele>
        <time>2020-09-06T12:55:26Z</time>
      </trkpt>
      <trkpt lat="39.913556" lon="4.043550">
        <ele>3.927</ele>
        <time>2020-09-06T12:55:45Z</time>
      </trkpt>
      <trkpt lat="39.913487" lon="4.043680">
        <ele>4.423</ele>
        <time>2020-09-06T12:55:59Z</time>
      </trkpt>
      <trkpt lat="39.913420" lon="4.043794">
        <ele>4.957</ele>
        <time>2020-09-06T12:56:13Z</time>
      </trkpt>
      <trkpt lat="39.913334" lon="4.043879">
        <ele>4.986</ele>
        <time>2020-09-06T12:56:26Z</time>
      </trkpt>
      <trkpt lat="39.913265" lon="4.043963">
        <ele>5.983</ele>
        <time>2020-09-06T12:56:42Z</time>
      </trkpt>
      <trkpt lat="39.913237" lon="4.043929">
        <ele>4.925</ele>
        <time>2020-09-06T12:56:49Z</time>
      </trkpt>
      <trkpt lat="39.913205" lon="4.043727">
        <ele>4.417</ele>
        <time>2020-09-06T12:57:07Z</time>
      </trkpt>
      <trkpt lat="39.913207" lon="4.043714">
        <ele>4.408</ele>
        <time>2020-09-06T12:57:27Z</time>
      </trkpt>
      <trkpt lat="39.913197" lon="4.043719">
        <ele>4.963</ele>
        <time>2020-09-06T12:57:47Z</time>
      </trkpt>
      <trkpt lat="39.913196" lon="4.043719">
        <ele>4.985</ele>
        <time>2020-09-06T12:57:48Z</time>
      </trkpt>
      <trkpt lat="39.913201" lon="4.043745">
        <ele>4.938</ele>
        <time>2020-09-06T12:57:51Z</time>
      </trkpt>
      <trkpt lat="39.913209" lon="4.043852">
        <ele>4.425</ele>
        <time>2020-09-06T12:58:03Z</time>
      </trkpt>
      <trkpt lat="39.913220" lon="4.043863">
        <ele>3.943</ele>
        <time>2020-09-06T12:58:19Z</time>
      </trkpt>
      <trkpt lat="39.913228" lon="4.043857">
        <ele>2.529</ele>
        <time>2020-09-06T12:58:37Z</time>
      </trkpt>
      <trkpt lat="39.913226" lon="4.043864">
        <ele>3.513</ele>
        <time>2020-09-06T12:59:04Z</time>
      </trkpt>
      <trkpt lat="39.913227" lon="4.043864">
        <ele>3.022</ele>
        <time>2020-09-06T12:59:11Z</time>
      </trkpt>
      <trkpt lat="39.913165" lon="4.043876">
        <ele>4.922</ele>
        <time>2020-09-06T13:12:33Z</time>
      </trkpt>
      <trkpt lat="39.913179" lon="4.043874">
        <ele>4.962</ele>
        <time>2020-09-06T13:12:34Z</time>
      </trkpt>
      <trkpt lat="39.913205" lon="4.043859">
        <ele>3.908</ele>
        <time>2020-09-06T13:13:07Z</time>
      </trkpt>
      <trkpt lat="39.913198" lon="4.043850">
        <ele>3.508</ele>
        <time>2020-09-06T13:13:38Z</time>
      </trkpt>
      <trkpt lat="39.913206" lon="4.043834">
        <ele>3.987</ele>
        <time>2020-09-06T13:14:03Z</time>
      </trkpt>
      <trkpt lat="39.913202" lon="4.043827">
        <ele>3.929</ele>
        <time>2020-09-06T13:14:33Z</time>
      </trkpt>
      <trkpt lat="39.913213" lon="4.043838">
        <ele>3.942</ele>
        <time>2020-09-06T13:15:07Z</time>
      </trkpt>
      <trkpt lat="39.913265" lon="4.043824">
        <ele>4.489</ele>
        <time>2020-09-06T13:15:33Z</time>
      </trkpt>
      <trkpt lat="39.913227" lon="4.043841">
        <ele>4.917</ele>
        <time>2020-09-06T13:15:53Z</time>
      </trkpt>
      <trkpt lat="39.913210" lon="4.043851">
        <ele>4.983</ele>
        <time>2020-09-06T13:16:27Z</time>
      </trkpt>
      <trkpt lat="39.913216" lon="4.043847">
        <ele>4.497</ele>
        <time>2020-09-06T13:17:04Z</time>
      </trkpt>
      <trkpt lat="39.913214" lon="4.043843">
        <ele>4.966</ele>
        <time>2020-09-06T13:17:38Z</time>
      </trkpt>
      <trkpt lat="39.913216" lon="4.043836">
        <ele>4.914</ele>
        <time>2020-09-06T13:18:14Z</time>
      </trkpt>
      <trkpt lat="39.913224" lon="4.043831">
        <ele>5.454</ele>
        <time>2020-09-06T13:18:54Z</time>
      </trkpt>
      <trkpt lat="39.913216" lon="4.043842">
        <ele>4.909</ele>
        <time>2020-09-06T13:19:31Z</time>
      </trkpt>
      <trkpt lat="39.913213" lon="4.043830">
        <ele>5.408</ele>
        <time>2020-09-06T13:20:07Z</time>
      </trkpt>
      <trkpt lat="39.913202" lon="4.043837">
        <ele>4.966</ele>
        <time>2020-09-06T13:20:41Z</time>
      </trkpt>
      <trkpt lat="39.913207" lon="4.043830">
        <ele>5.478</ele>
        <time>2020-09-06T13:21:19Z</time>
      </trkpt>
      <trkpt lat="39.913202" lon="4.043830">
        <ele>5.951</ele>
        <time>2020-09-06T13:21:59Z</time>
      </trkpt>
      <trkpt lat="39.913205" lon="4.043829">
        <ele>6.318</ele>
        <time>2020-09-06T13:22:26Z</time>
      </trkpt>
      <trkpt lat="39.913210" lon="4.043837">
        <ele>6.386</ele>
        <time>2020-09-06T13:22:56Z</time>
      </trkpt>
      <trkpt lat="39.913206" lon="4.043843">
        <ele>5.932</ele>
        <time>2020-09-06T13:23:30Z</time>
      </trkpt>
      <trkpt lat="39.913205" lon="4.043841">
        <ele>6.396</ele>
        <time>2020-09-06T13:24:00Z</time>
      </trkpt>
      <trkpt lat="39.913207" lon="4.043841">
        <ele>5.945</ele>
        <time>2020-09-06T13:24:37Z</time>
      </trkpt>
      <trkpt lat="39.913209" lon="4.043842">
        <ele>5.952</ele>
        <time>2020-09-06T13:25:11Z</time>
      </trkpt>
      <trkpt lat="39.913207" lon="4.043840">
        <ele>6.353</ele>
        <time>2020-09-06T13:25:44Z</time>
      </trkpt>
      <trkpt lat="39.913201" lon="4.043849">
        <ele>6.808</ele>
        <time>2020-09-06T13:26:18Z</time>
      </trkpt>
      <trkpt lat="39.913204" lon="4.043858">
        <ele>6.808</ele>
        <time>2020-09-06T13:26:47Z</time>
      </trkpt>
      <trkpt lat="39.913198" lon="4.043861">
        <ele>6.380</ele>
        <time>2020-09-06T13:27:19Z</time>
      </trkpt>
      <trkpt lat="39.913197" lon="4.043874">
        <ele>7.322</ele>
        <time>2020-09-06T13:28:01Z</time>
      </trkpt>
      <trkpt lat="39.913189" lon="4.043869">
        <ele>7.385</ele>
        <time>2020-09-06T13:28:40Z</time>
      </trkpt>
      <trkpt lat="39.913190" lon="4.043862">
        <ele>7.312</ele>
        <time>2020-09-06T13:29:17Z</time>
      </trkpt>
      <trkpt lat="39.913189" lon="4.043866">
        <ele>7.330</ele>
        <time>2020-09-06T13:29:52Z</time>
      </trkpt>
      <trkpt lat="39.913192" lon="4.043858">
        <ele>7.886</ele>
        <time>2020-09-06T13:30:26Z</time>
      </trkpt>
      <trkpt lat="39.913195" lon="4.043858">
        <ele>7.880</ele>
        <time>2020-09-06T13:31:00Z</time>
      </trkpt>
      <trkpt lat="39.913189" lon="4.043855">
        <ele>7.849</ele>
        <time>2020-09-06T13:31:30Z</time>
      </trkpt>
      <trkpt lat="39.913201" lon="4.043858">
        <ele>7.896</ele>
        <time>2020-09-06T13:32:01Z</time>
      </trkpt>
      <trkpt lat="39.913198" lon="4.043864">
        <ele>7.831</ele>
        <time>2020-09-06T13:32:35Z</time>
      </trkpt>
      <trkpt lat="39.913195" lon="4.043858">
        <ele>7.824</ele>
        <time>2020-09-06T13:33:08Z</time>
      </trkpt>
      <trkpt lat="39.913194" lon="4.043859">
        <ele>7.808</ele>
        <time>2020-09-06T13:33:40Z</time>
      </trkpt>
      <trkpt lat="39.913197" lon="4.043853">
        <ele>8.784</ele>
        <time>2020-09-06T13:34:16Z</time>
      </trkpt>
      <trkpt lat="39.913199" lon="4.043859">
        <ele>8.356</ele>
        <time>2020-09-06T13:34:50Z</time>
      </trkpt>
      <trkpt lat="39.913201" lon="4.043858">
        <ele>7.849</ele>
        <time>2020-09-06T13:35:26Z</time>
      </trkpt>
      <trkpt lat="39.913198" lon="4.043865">
        <ele>8.366</ele>
        <time>2020-09-06T13:36:00Z</time>
      </trkpt>
      <trkpt lat="39.913199" lon="4.043865">
        <ele>7.824</ele>
        <time>2020-09-06T13:36:36Z</time>
      </trkpt>
      <trkpt lat="39.913199" lon="4.043864">
        <ele>8.370</ele>
        <time>2020-09-06T13:37:10Z</time>
      </trkpt>
      <trkpt lat="39.913197" lon="4.043867">
        <ele>8.394</ele>
        <time>2020-09-06T13:37:48Z</time>
      </trkpt>
      <trkpt lat="39.913202" lon="4.043869">
        <ele>8.333</ele>
        <time>2020-09-06T13:38:23Z</time>
      </trkpt>
      <trkpt lat="39.913202" lon="4.043860">
        <ele>8.312</ele>
        <time>2020-09-06T13:38:51Z</time>
      </trkpt>
      <trkpt lat="39.913201" lon="4.043850">
        <ele>8.332</ele>
        <time>2020-09-06T13:39:21Z</time>
      </trkpt>
      <trkpt lat="39.913204" lon="4.043851">
        <ele>8.705</ele>
        <time>2020-09-06T13:39:55Z</time>
      </trkpt>
      <trkpt lat="39.913200" lon="4.043862">
        <ele>8.308</ele>
        <time>2020-09-06T13:40:29Z</time>
      </trkpt>
      <trkpt lat="39.913197" lon="4.043855">
        <ele>8.346</ele>
        <time>2020-09-06T13:41:02Z</time>
      </trkpt>
      <trkpt lat="39.913190" lon="4.043840">
        <ele>8.368</ele>
        <time>2020-09-06T13:41:30Z</time>
      </trkpt>
      <trkpt lat="39.913190" lon="4.043852">
        <ele>7.821</ele>
        <time>2020-09-06T13:41:57Z</time>
      </trkpt>
      <trkpt lat="39.913198" lon="4.043857">
        <ele>8.328</ele>
        <time>2020-09-06T13:42:30Z</time>
      </trkpt>
      <trkpt lat="39.913202" lon="4.043855">
        <ele>7.866</ele>
        <time>2020-09-06T13:43:02Z</time>
      </trkpt>
      <trkpt lat="39.913208" lon="4.043855">
        <ele>7.872</ele>
        <time>2020-09-06T13:43:34Z</time>
      </trkpt>
      <trkpt lat="39.913209" lon="4.043853">
        <ele>7.846</ele>
        <time>2020-09-06T13:44:09Z</time>
      </trkpt>
      <trkpt lat="39.913216" lon="4.043853">
        <ele>7.835</ele>
        <time>2020-09-06T13:44:35Z</time>
      </trkpt>
      <trkpt lat="39.913220" lon="4.043862">
        <ele>7.319</ele>
        <time>2020-09-06T13:45:10Z</time>
      </trkpt>
      <trkpt lat="39.913217" lon="4.043870">
        <ele>7.309</ele>
        <time>2020-09-06T13:45:51Z</time>
      </trkpt>
      <trkpt lat="39.913214" lon="4.043869">
        <ele>7.319</ele>
        <time>2020-09-06T13:46:20Z</time>
      </trkpt>
      <trkpt lat="39.913211" lon="4.043868">
        <ele>7.308</ele>
        <time>2020-09-06T13:46:52Z</time>
      </trkpt>
      <trkpt lat="39.913206" lon="4.043863">
        <ele>7.386</ele>
        <time>2020-09-06T13:47:29Z</time>
      </trkpt>
      <trkpt lat="39.913204" lon="4.043872">
        <ele>7.388</ele>
        <time>2020-09-06T13:48:04Z</time>
      </trkpt>
      <trkpt lat="39.913199" lon="4.043869">
        <ele>6.891</ele>
        <time>2020-09-06T13:48:40Z</time>
      </trkpt>
      <trkpt lat="39.913195" lon="4.043873">
        <ele>6.838</ele>
        <time>2020-09-06T13:49:14Z</time>
      </trkpt>
      <trkpt lat="39.913195" lon="4.043869">
        <ele>6.886</ele>
        <time>2020-09-06T13:49:50Z</time>
      </trkpt>
      <trkpt lat="39.913199" lon="4.043880">
        <ele>6.382</ele>
        <time>2020-09-06T13:50:31Z</time>
      </trkpt>
      <trkpt lat="39.913195" lon="4.043873">
        <ele>6.336</ele>
        <time>2020-09-06T13:51:03Z</time>
      </trkpt>
      <trkpt lat="39.913187" lon="4.043869">
        <ele>6.335</ele>
        <time>2020-09-06T13:51:26Z</time>
      </trkpt>
      <trkpt lat="39.913196" lon="4.043864">
        <ele>5.937</ele>
        <time>2020-09-06T13:51:59Z</time>
      </trkpt>
      <trkpt lat="39.913191" lon="4.043850">
        <ele>6.349</ele>
        <time>2020-09-06T13:52:34Z</time>
      </trkpt>
      <trkpt lat="39.913193" lon="4.043847">
        <ele>5.913</ele>
        <time>2020-09-06T13:53:07Z</time>
      </trkpt>
      <trkpt lat="39.913196" lon="4.043859">
        <ele>6.308</ele>
        <time>2020-09-06T13:53:41Z</time>
      </trkpt>
      <trkpt lat="39.913196" lon="4.043863">
        <ele>6.348</ele>
        <time>2020-09-06T13:54:16Z</time>
      </trkpt>
      <trkpt lat="39.913196" lon="4.043868">
        <ele>5.460</ele>
        <time>2020-09-06T13:54:48Z</time>
      </trkpt>
      <trkpt lat="39.913200" lon="4.043878">
        <ele>4.953</ele>
        <time>2020-09-06T13:55:24Z</time>
      </trkpt>
      <trkpt lat="39.913199" lon="4.043883">
        <ele>5.930</ele>
        <time>2020-09-06T13:55:59Z</time>
      </trkpt>
      <trkpt lat="39.913200" lon="4.043879">
        <ele>5.998</ele>
        <time>2020-09-06T13:56:37Z</time>
      </trkpt>
      <trkpt lat="39.913194" lon="4.043869">
        <ele>5.494</ele>
        <time>2020-09-06T13:57:15Z</time>
      </trkpt>
      <trkpt lat="39.913195" lon="4.043869">
        <ele>5.428</ele>
        <time>2020-09-06T13:57:54Z</time>
      </trkpt>
      <trkpt lat="39.913192" lon="4.043869">
        <ele>5.447</ele>
        <time>2020-09-06T13:58:21Z</time>
      </trkpt>
      <trkpt lat="39.913189" lon="4.043872">
        <ele>5.988</ele>
        <time>2020-09-06T13:58:59Z</time>
      </trkpt>
      <trkpt lat="39.913197" lon="4.043868">
        <ele>5.924</ele>
        <time>2020-09-06T13:59:37Z</time>
      </trkpt>
      <trkpt lat="39.913191" lon="4.043878">
        <ele>4.926</ele>
        <time>2020-09-06T14:00:14Z</time>
      </trkpt>
      <trkpt lat="39.913182" lon="4.043865">
        <ele>5.908</ele>
        <time>2020-09-06T14:00:50Z</time>
      </trkpt>
      <trkpt lat="39.913175" lon="4.043866">
        <ele>5.463</ele>
        <time>2020-09-06T14:01:30Z</time>
      </trkpt>
      <trkpt lat="39.913170" lon="4.043862">
        <ele>5.445</ele>
        <time>2020-09-06T14:02:05Z</time>
      </trkpt>
      <trkpt lat="39.913168" lon="4.043863">
        <ele>5.458</ele>
        <time>2020-09-06T14:02:47Z</time>
      </trkpt>
      <trkpt lat="39.913170" lon="4.043862">
        <ele>4.945</ele>
        <time>2020-09-06T14:03:20Z</time>
      </trkpt>
      <trkpt lat="39.913165" lon="4.043865">
        <ele>4.923</ele>
        <time>2020-09-06T14:03:54Z</time>
      </trkpt>
      <trkpt lat="39.913171" lon="4.043874">
        <ele>4.969</ele>
        <time>2020-09-06T14:04:30Z</time>
      </trkpt>
      <trkpt lat="39.913189" lon="4.043874">
        <ele>4.943</ele>
        <time>2020-09-06T14:05:11Z</time>
      </trkpt>
      <trkpt lat="39.913196" lon="4.043883">
        <ele>3.952</ele>
        <time>2020-09-06T14:05:49Z</time>
      </trkpt>
      <trkpt lat="39.913202" lon="4.043888">
        <ele>4.412</ele>
        <time>2020-09-06T14:06:26Z</time>
      </trkpt>
      <trkpt lat="39.913210" lon="4.043889">
        <ele>4.432</ele>
        <time>2020-09-06T14:06:57Z</time>
      </trkpt>
      <trkpt lat="39.913209" lon="4.043875">
        <ele>4.905</ele>
        <time>2020-09-06T14:07:16Z</time>
      </trkpt>
      <trkpt lat="39.913211" lon="4.043864">
        <ele>3.908</ele>
        <time>2020-09-06T14:07:39Z</time>
      </trkpt>
      <trkpt lat="39.913206" lon="4.043865">
        <ele>4.446</ele>
        <time>2020-09-06T14:08:01Z</time>
      </trkpt>
      <trkpt lat="39.913198" lon="4.043858">
        <ele>4.968</ele>
        <time>2020-09-06T14:08:17Z</time>
      </trkpt>
      <trkpt lat="39.913199" lon="4.043850">
        <ele>4.971</ele>
        <time>2020-09-06T14:08:41Z</time>
      </trkpt>
      <trkpt lat="39.913199" lon="4.043847">
        <ele>5.438</ele>
        <time>2020-09-06T14:09:03Z</time>
      </trkpt>
      <trkpt lat="39.913196" lon="4.043814">
        <ele>4.986</ele>
        <time>2020-09-06T14:09:21Z</time>
      </trkpt>
      <trkpt lat="39.913178" lon="4.043728">
        <ele>4.992</ele>
        <time>2020-09-06T14:09:34Z</time>
      </trkpt>
      <trkpt lat="39.913113" lon="4.043782">
        <ele>3.926</ele>
        <time>2020-09-06T14:09:48Z</time>
      </trkpt>
      <trkpt lat="39.913075" lon="4.043818">
        <ele>4.465</ele>
        <time>2020-09-06T14:09:54Z</time>
      </trkpt>
      <trkpt lat="39.912997" lon="4.043770">
        <ele>3.591</ele>
        <time>2020-09-06T14:10:08Z</time>
      </trkpt>
      <trkpt lat="39.912913" lon="4.043678">
        <ele>1.581</ele>
        <time>2020-09-06T14:10:26Z</time>
      </trkpt>
      <trkpt lat="39.912824" lon="4.043653">
        <ele>1.519</ele>
        <time>2020-09-06T14:10:42Z</time>
      </trkpt>
      <trkpt lat="39.912825" lon="4.043654">
        <ele>1.108</ele>
        <time>2020-09-06T14:10:46Z</time>
      </trkpt>
      <trkpt lat="39.912690" lon="4.043699">
        <ele>0.694</ele>
        <time>2020-09-06T14:11:02Z</time>
      </trkpt>
      <trkpt lat="39.912563" lon="4.043755">
        <ele>0.126</ele>
        <time>2020-09-06T14:11:17Z</time>
      </trkpt>
      <trkpt lat="39.912523" lon="4.043798">
        <ele>0.139</ele>
        <time>2020-09-06T14:11:22Z</time>
      </trkpt>
      <trkpt lat="39.912432" lon="4.043911">
        <ele>0.156</ele>
        <time>2020-09-06T14:11:39Z</time>
      </trkpt>
      <trkpt lat="39.912389" lon="4.043971">
        <ele>1.114</ele>
        <time>2020-09-06T14:11:47Z</time>
      </trkpt>
      <trkpt lat="39.912299" lon="4.044048">
        <ele>1.190</ele>
        <time>2020-09-06T14:12:01Z</time>
      </trkpt>
      <trkpt lat="39.912227" lon="4.044144">
        <ele>2.014</ele>
        <time>2020-09-06T14:12:15Z</time>
      </trkpt>
      <trkpt lat="39.912180" lon="4.044254">
        <ele>3.523</ele>
        <time>2020-09-06T14:12:29Z</time>
      </trkpt>
      <trkpt lat="39.912165" lon="4.044336">
        <ele>5.412</ele>
        <time>2020-09-06T14:12:44Z</time>
      </trkpt>
      <trkpt lat="39.912136" lon="4.044404">
        <ele>6.832</ele>
        <time>2020-09-06T14:12:56Z</time>
      </trkpt>
      <trkpt lat="39.912049" lon="4.044405">
        <ele>7.305</ele>
        <time>2020-09-06T14:13:07Z</time>
      </trkpt>
      <trkpt lat="39.911956" lon="4.044367">
        <ele>5.908</ele>
        <time>2020-09-06T14:13:18Z</time>
      </trkpt>
      <trkpt lat="39.911896" lon="4.044362">
        <ele>5.966</ele>
        <time>2020-09-06T14:13:25Z</time>
      </trkpt>
      <trkpt lat="39.911789" lon="4.044357">
        <ele>5.438</ele>
        <time>2020-09-06T14:13:39Z</time>
      </trkpt>
      <trkpt lat="39.911753" lon="4.044341">
        <ele>5.421</ele>
        <time>2020-09-06T14:13:52Z</time>
      </trkpt>
      <trkpt lat="39.911743" lon="4.044378">
        <ele>5.918</ele>
        <time>2020-09-06T14:14:07Z</time>
      </trkpt>
      <trkpt lat="39.911688" lon="4.044442">
        <ele>7.316</ele>
        <time>2020-09-06T14:14:22Z</time>
      </trkpt>
      <trkpt lat="39.911675" lon="4.044445">
        <ele>7.382</ele>
        <time>2020-09-06T14:14:24Z</time>
      </trkpt>
      <trkpt lat="39.911639" lon="4.044512">
        <ele>8.766</ele>
        <time>2020-09-06T14:14:37Z</time>
      </trkpt>
      <trkpt lat="39.911621" lon="4.044553">
        <ele>10.235</ele>
        <time>2020-09-06T14:14:47Z</time>
      </trkpt>
      <trkpt lat="39.911582" lon="4.044601">
        <ele>11.629</ele>
        <time>2020-09-06T14:14:57Z</time>
      </trkpt>
      <trkpt lat="39.911499" lon="4.044630">
        <ele>12.100</ele>
        <time>2020-09-06T14:15:08Z</time>
      </trkpt>
      <trkpt lat="39.911431" lon="4.044644">
        <ele>12.120</ele>
        <time>2020-09-06T14:15:18Z</time>
      </trkpt>
      <trkpt lat="39.911341" lon="4.044692">
        <ele>12.608</ele>
        <time>2020-09-06T14:15:32Z</time>
      </trkpt>
      <trkpt lat="39.911248" lon="4.044717">
        <ele>12.177</ele>
        <time>2020-09-06T14:15:44Z</time>
      </trkpt>
      <trkpt lat="39.911209" lon="4.044690">
        <ele>12.189</ele>
        <time>2020-09-06T14:15:48Z</time>
      </trkpt>
      <trkpt lat="39.911150" lon="4.044648">
        <ele>11.172</ele>
        <time>2020-09-06T14:15:55Z</time>
      </trkpt>
      <trkpt lat="39.911122" lon="4.044609">
        <ele>11.149</ele>
        <time>2020-09-06T14:16:01Z</time>
      </trkpt>
      <trkpt lat="39.911080" lon="4.044583">
        <ele>10.747</ele>
        <time>2020-09-06T14:16:07Z</time>
      </trkpt>
      <trkpt lat="39.911072" lon="4.044578">
        <ele>10.743</ele>
        <time>2020-09-06T14:16:08Z</time>
      </trkpt>
      <trkpt lat="39.911022" lon="4.044518">
        <ele>9.737</ele>
        <time>2020-09-06T14:16:21Z</time>
      </trkpt>
      <trkpt lat="39.910950" lon="4.044480">
        <ele>9.256</ele>
        <time>2020-09-06T14:16:30Z</time>
      </trkpt>
      <trkpt lat="39.910932" lon="4.044476">
        <ele>9.226</ele>
        <time>2020-09-06T14:16:32Z</time>
      </trkpt>
      <trkpt lat="39.910902" lon="4.044472">
        <ele>9.247</ele>
        <time>2020-09-06T14:16:35Z</time>
      </trkpt>
      <trkpt lat="39.910845" lon="4.044482">
        <ele>9.211</ele>
        <time>2020-09-06T14:16:41Z</time>
      </trkpt>
      <trkpt lat="39.910744" lon="4.044551">
        <ele>9.708</ele>
        <time>2020-09-06T14:16:54Z</time>
      </trkpt>
      <trkpt lat="39.910665" lon="4.044622">
        <ele>10.257</ele>
        <time>2020-09-06T14:17:05Z</time>
      </trkpt>
      <trkpt lat="39.910659" lon="4.044631">
        <ele>10.269</ele>
        <time>2020-09-06T14:17:06Z</time>
      </trkpt>
      <trkpt lat="39.910557" lon="4.044780">
        <ele>10.282</ele>
        <time>2020-09-06T14:17:21Z</time>
      </trkpt>
      <trkpt lat="39.910492" lon="4.044951">
        <ele>10.219</ele>
        <time>2020-09-06T14:17:35Z</time>
      </trkpt>
      <trkpt lat="39.910481" lon="4.044974">
        <ele>10.217</ele>
        <time>2020-09-06T14:17:37Z</time>
      </trkpt>
      <trkpt lat="39.910473" lon="4.044997">
        <ele>9.783</ele>
        <time>2020-09-06T14:17:39Z</time>
      </trkpt>
      <trkpt lat="39.910439" lon="4.045083">
        <ele>9.247</ele>
        <time>2020-09-06T14:17:47Z</time>
      </trkpt>
      <trkpt lat="39.910443" lon="4.045167">
        <ele>8.796</ele>
        <time>2020-09-06T14:17:53Z</time>
      </trkpt>
      <trkpt lat="39.910451" lon="4.045203">
        <ele>8.792</ele>
        <time>2020-09-06T14:17:56Z</time>
      </trkpt>
      <trkpt lat="39.910465" lon="4.045390">
        <ele>8.373</ele>
        <time>2020-09-06T14:18:11Z</time>
      </trkpt>
      <trkpt lat="39.910481" lon="4.045426">
        <ele>8.320</ele>
        <time>2020-09-06T14:18:15Z</time>
      </trkpt>
      <trkpt lat="39.910539" lon="4.045567">
        <ele>7.808</ele>
        <time>2020-09-06T14:18:30Z</time>
      </trkpt>
      <trkpt lat="39.910445" lon="4.045680">
        <ele>6.834</ele>
        <time>2020-09-06T14:18:40Z</time>
      </trkpt>
      <trkpt lat="39.910423" lon="4.045737">
        <ele>6.386</ele>
        <time>2020-09-06T14:18:45Z</time>
      </trkpt>
      <trkpt lat="39.910431" lon="4.045876">
        <ele>5.919</ele>
        <time>2020-09-06T14:19:02Z</time>
      </trkpt>
      <trkpt lat="39.910434" lon="4.045924">
        <ele>5.976</ele>
        <time>2020-09-06T14:19:05Z</time>
      </trkpt>
      <trkpt lat="39.910452" lon="4.045949">
        <ele>5.994</ele>
        <time>2020-09-06T14:19:07Z</time>
      </trkpt>
      <trkpt lat="39.910541" lon="4.046075">
        <ele>5.430</ele>
        <time>2020-09-06T14:19:19Z</time>
      </trkpt>
      <trkpt lat="39.910566" lon="4.046132">
        <ele>4.984</ele>
        <time>2020-09-06T14:19:23Z</time>
      </trkpt>
      <trkpt lat="39.910564" lon="4.046279">
        <ele>3.523</ele>
        <time>2020-09-06T14:19:34Z</time>
      </trkpt>
      <trkpt lat="39.910629" lon="4.046483">
        <ele>3.536</ele>
        <time>2020-09-06T14:19:50Z</time>
      </trkpt>
      <trkpt lat="39.910744" lon="4.046553">
        <ele>3.517</ele>
        <time>2020-09-06T14:20:02Z</time>
      </trkpt>
      <trkpt lat="39.910840" lon="4.046699">
        <ele>4.418</ele>
        <time>2020-09-06T14:20:17Z</time>
      </trkpt>
      <trkpt lat="39.910861" lon="4.046875">
        <ele>5.408</ele>
        <time>2020-09-06T14:20:30Z</time>
      </trkpt>
      <trkpt lat="39.910857" lon="4.047043">
        <ele>3.988</ele>
        <time>2020-09-06T14:20:42Z</time>
      </trkpt>
      <trkpt lat="39.910846" lon="4.047082">
        <ele>3.950</ele>
        <time>2020-09-06T14:20:45Z</time>
      </trkpt>
      <trkpt lat="39.910845" lon="4.047240">
        <ele>3.933</ele>
        <time>2020-09-06T14:20:56Z</time>
      </trkpt>
      <trkpt lat="39.910790" lon="4.047438">
        <ele>3.090</ele>
        <time>2020-09-06T14:21:11Z</time>
      </trkpt>
      <trkpt lat="39.910781" lon="4.047462">
        <ele>3.078</ele>
        <time>2020-09-06T14:21:13Z</time>
      </trkpt>
      <trkpt lat="39.910686" lon="4.047661">
        <ele>1.574</ele>
        <time>2020-09-06T14:21:29Z</time>
      </trkpt>
      <trkpt lat="39.910601" lon="4.047785">
        <ele>2.078</ele>
        <time>2020-09-06T14:21:41Z</time>
      </trkpt>
      <trkpt lat="39.910535" lon="4.047849">
        <ele>2.097</ele>
        <time>2020-09-06T14:21:55Z</time>
      </trkpt>
      <trkpt lat="39.910533" lon="4.047904">
        <ele>3.073</ele>
        <time>2020-09-06T14:21:59Z</time>
      </trkpt>
      <trkpt lat="39.910540" lon="4.048118">
        <ele>3.585</ele>
        <time>2020-09-06T14:22:14Z</time>
      </trkpt>
      <trkpt lat="39.910558" lon="4.048239">
        <ele>3.913</ele>
        <time>2020-09-06T14:22:24Z</time>
      </trkpt>
      <trkpt lat="39.910519" lon="4.048332">
        <ele>4.908</ele>
        <time>2020-09-06T14:22:34Z</time>
      </trkpt>
      <trkpt lat="39.910378" lon="4.048372">
        <ele>5.472</ele>
        <time>2020-09-06T14:22:48Z</time>
      </trkpt>
      <trkpt lat="39.910245" lon="4.048476">
        <ele>5.454</ele>
        <time>2020-09-06T14:23:03Z</time>
      </trkpt>
      <trkpt lat="39.910146" lon="4.048606">
        <ele>5.477</ele>
        <time>2020-09-06T14:23:16Z</time>
      </trkpt>
      <trkpt lat="39.910122" lon="4.048686">
        <ele>5.934</ele>
        <time>2020-09-06T14:23:23Z</time>
      </trkpt>
      <trkpt lat="39.910108" lon="4.048723">
        <ele>6.382</ele>
        <time>2020-09-06T14:23:26Z</time>
      </trkpt>
      <trkpt lat="39.910063" lon="4.048817">
        <ele>6.348</ele>
        <time>2020-09-06T14:23:34Z</time>
      </trkpt>
      <trkpt lat="39.909997" lon="4.049011">
        <ele>7.332</ele>
        <time>2020-09-06T14:23:49Z</time>
      </trkpt>
      <trkpt lat="39.909916" lon="4.049196">
        <ele>7.821</ele>
        <time>2020-09-06T14:24:04Z</time>
      </trkpt>
      <trkpt lat="39.909820" lon="4.049382">
        <ele>9.258</ele>
        <time>2020-09-06T14:24:20Z</time>
      </trkpt>
      <trkpt lat="39.909767" lon="4.049479">
        <ele>8.752</ele>
        <time>2020-09-06T14:24:29Z</time>
      </trkpt>
      <trkpt lat="39.909671" lon="4.049657">
        <ele>9.717</ele>
        <time>2020-09-06T14:24:45Z</time>
      </trkpt>
      <trkpt lat="39.909577" lon="4.049823">
        <ele>9.708</ele>
        <time>2020-09-06T14:25:00Z</time>
      </trkpt>
      <trkpt lat="39.909557" lon="4.049873">
        <ele>9.780</ele>
        <time>2020-09-06T14:25:04Z</time>
      </trkpt>
      <trkpt lat="39.909481" lon="4.049996">
        <ele>9.752</ele>
        <time>2020-09-06T14:25:15Z</time>
      </trkpt>
      <trkpt lat="39.909389" lon="4.050184">
        <ele>9.725</ele>
        <time>2020-09-06T14:25:31Z</time>
      </trkpt>
      <trkpt lat="39.909383" lon="4.050213">
        <ele>9.252</ele>
        <time>2020-09-06T14:25:33Z</time>
      </trkpt>
      <trkpt lat="39.909342" lon="4.050321">
        <ele>9.230</ele>
        <time>2020-09-06T14:25:42Z</time>
      </trkpt>
      <trkpt lat="39.909280" lon="4.050382">
        <ele>8.396</ele>
        <time>2020-09-06T14:25:49Z</time>
      </trkpt>
      <trkpt lat="39.909254" lon="4.050415">
        <ele>8.390</ele>
        <time>2020-09-06T14:25:52Z</time>
      </trkpt>
      <trkpt lat="39.909213" lon="4.050637">
        <ele>7.869</ele>
        <time>2020-09-06T14:26:08Z</time>
      </trkpt>
      <trkpt lat="39.909104" lon="4.050768">
        <ele>6.311</ele>
        <time>2020-09-06T14:26:23Z</time>
      </trkpt>
      <trkpt lat="39.908990" lon="4.050840">
        <ele>5.921</ele>
        <time>2020-09-06T14:26:35Z</time>
      </trkpt>
      <trkpt lat="39.908861" lon="4.051015">
        <ele>4.903</ele>
        <time>2020-09-06T14:26:53Z</time>
      </trkpt>
      <trkpt lat="39.908851" lon="4.051035">
        <ele>4.908</ele>
        <time>2020-09-06T14:26:55Z</time>
      </trkpt>
      <trkpt lat="39.908720" lon="4.051186">
        <ele>3.026</ele>
        <time>2020-09-06T14:27:12Z</time>
      </trkpt>
      <trkpt lat="39.908588" lon="4.051366">
        <ele>2.598</ele>
        <time>2020-09-06T14:27:30Z</time>
      </trkpt>
      <trkpt lat="39.908468" lon="4.051544">
        <ele>1.141</ele>
        <time>2020-09-06T14:27:46Z</time>
      </trkpt>
      <trkpt lat="39.908360" lon="4.051714">
        <ele>1.168</ele>
        <time>2020-09-06T14:28:01Z</time>
      </trkpt>
      <trkpt lat="39.908248" lon="4.051918">
        <ele>1.176</ele>
        <time>2020-09-06T14:28:18Z</time>
      </trkpt>
      <trkpt lat="39.908140" lon="4.052087">
        <ele>0.122</ele>
        <time>2020-09-06T14:28:33Z</time>
      </trkpt>
      <trkpt lat="39.908109" lon="4.052160">
        <ele>0.656</ele>
        <time>2020-09-06T14:28:39Z</time>
      </trkpt>
      <trkpt lat="39.907980" lon="4.052385">
        <ele>0.115</ele>
        <time>2020-09-06T14:28:58Z</time>
      </trkpt>
      <trkpt lat="39.907903" lon="4.052593">
        <ele>0.642</ele>
        <time>2020-09-06T14:29:14Z</time>
      </trkpt>
      <trkpt lat="39.907815" lon="4.052787">
        <ele>2.022</ele>
        <time>2020-09-06T14:29:30Z</time>
      </trkpt>
      <trkpt lat="39.907796" lon="4.052822">
        <ele>1.114</ele>
        <time>2020-09-06T14:29:33Z</time>
      </trkpt>
      <trkpt lat="39.907714" lon="4.053037">
        <ele>0.608</ele>
        <time>2020-09-06T14:29:50Z</time>
      </trkpt>
      <trkpt lat="39.907711" lon="4.053059">
        <ele>0.699</ele>
        <time>2020-09-06T14:29:54Z</time>
      </trkpt>
      <trkpt lat="39.907682" lon="4.053098">
        <ele>0.611</ele>
        <time>2020-09-06T14:29:58Z</time>
      </trkpt>
      <trkpt lat="39.907668" lon="4.053111">
        <ele>0.644</ele>
        <time>2020-09-06T14:30:00Z</time>
      </trkpt>
      <trkpt lat="39.907618" lon="4.053183">
        <ele>1.141</ele>
        <time>2020-09-06T14:30:15Z</time>
      </trkpt>
      <trkpt lat="39.907613" lon="4.053191">
        <ele>1.179</ele>
        <time>2020-09-06T14:30:16Z</time>
      </trkpt>
      <trkpt lat="39.907584" lon="4.053295">
        <ele>0.625</ele>
        <time>2020-09-06T14:30:28Z</time>
      </trkpt>
      <trkpt lat="39.907577" lon="4.053407">
        <ele>0.689</ele>
        <time>2020-09-06T14:30:36Z</time>
      </trkpt>
      <trkpt lat="39.907627" lon="4.053491">
        <ele>0.178</ele>
        <time>2020-09-06T14:30:43Z</time>
      </trkpt>
      <trkpt lat="39.907632" lon="4.053542">
        <ele>-0.465</ele>
        <time>2020-09-06T14:30:48Z</time>
      </trkpt>
      <trkpt lat="39.907698" lon="4.053694">
        <ele>0.168</ele>
        <time>2020-09-06T14:31:02Z</time>
      </trkpt>
      <trkpt lat="39.907708" lon="4.053698">
        <ele>0.114</ele>
        <time>2020-09-06T14:31:07Z</time>
      </trkpt>
      <trkpt lat="39.907715" lon="4.053739">
        <ele>0.108</ele>
        <time>2020-09-06T14:31:10Z</time>
      </trkpt>
      <trkpt lat="39.907772" lon="4.053951">
        <ele>0.151</ele>
        <time>2020-09-06T14:31:26Z</time>
      </trkpt>
      <trkpt lat="39.907774" lon="4.054111">
        <ele>0.683</ele>
        <time>2020-09-06T14:31:40Z</time>
      </trkpt>
      <trkpt lat="39.907773" lon="4.054186">
        <ele>1.176</ele>
        <time>2020-09-06T14:31:45Z</time>
      </trkpt>
      <trkpt lat="39.907741" lon="4.054387">
        <ele>1.543</ele>
        <time>2020-09-06T14:32:00Z</time>
      </trkpt>
      <trkpt lat="39.907706" lon="4.054492">
        <ele>2.041</ele>
        <time>2020-09-06T14:32:09Z</time>
      </trkpt>
      <trkpt lat="39.907681" lon="4.054697">
        <ele>2.547</ele>
        <time>2020-09-06T14:32:25Z</time>
      </trkpt>
      <trkpt lat="39.907668" lon="4.054775">
        <ele>3.021</ele>
        <time>2020-09-06T14:32:31Z</time>
      </trkpt>
      <trkpt lat="39.907630" lon="4.054973">
        <ele>4.420</ele>
        <time>2020-09-06T14:32:47Z</time>
      </trkpt>
      <trkpt lat="39.907631" lon="4.055140">
        <ele>5.928</ele>
        <time>2020-09-06T14:33:00Z</time>
      </trkpt>
      <trkpt lat="39.907599" lon="4.055197">
        <ele>4.989</ele>
        <time>2020-09-06T14:33:09Z</time>
      </trkpt>
      <trkpt lat="39.907581" lon="4.055217">
        <ele>3.917</ele>
        <time>2020-09-06T14:33:12Z</time>
      </trkpt>
      <trkpt lat="39.907606" lon="4.055407">
        <ele>1.508</ele>
        <time>2020-09-06T14:33:26Z</time>
      </trkpt>
      <trkpt lat="39.907652" lon="4.055587">
        <ele>1.557</ele>
        <time>2020-09-06T14:33:40Z</time>
      </trkpt>
      <trkpt lat="39.907678" lon="4.055737">
        <ele>2.019</ele>
        <time>2020-09-06T14:33:54Z</time>
      </trkpt>
      <trkpt lat="39.907694" lon="4.055918">
        <ele>2.072</ele>
        <time>2020-09-06T14:34:10Z</time>
      </trkpt>
      <trkpt lat="39.907721" lon="4.056063">
        <ele>1.589</ele>
        <time>2020-09-06T14:34:23Z</time>
      </trkpt>
      <trkpt lat="39.907771" lon="4.056249">
        <ele>1.567</ele>
        <time>2020-09-06T14:34:40Z</time>
      </trkpt>
      <trkpt lat="39.907778" lon="4.056423">
        <ele>1.513</ele>
        <time>2020-09-06T14:34:56Z</time>
      </trkpt>
      <trkpt lat="39.907740" lon="4.056540">
        <ele>1.517</ele>
        <time>2020-09-06T14:35:06Z</time>
      </trkpt>
      <trkpt lat="39.907648" lon="4.056697">
        <ele>1.156</ele>
        <time>2020-09-06T14:35:23Z</time>
      </trkpt>
      <trkpt lat="39.907546" lon="4.056819">
        <ele>1.189</ele>
        <time>2020-09-06T14:35:38Z</time>
      </trkpt>
      <trkpt lat="39.907428" lon="4.056954">
        <ele>0.606</ele>
        <time>2020-09-06T14:35:54Z</time>
      </trkpt>
      <trkpt lat="39.907307" lon="4.057102">
        <ele>1.126</ele>
        <time>2020-09-06T14:36:11Z</time>
      </trkpt>
      <trkpt lat="39.907216" lon="4.057216">
        <ele>1.108</ele>
        <time>2020-09-06T14:36:25Z</time>
      </trkpt>
      <trkpt lat="39.907134" lon="4.057344">
        <ele>1.513</ele>
        <time>2020-09-06T14:36:40Z</time>
      </trkpt>
      <trkpt lat="39.907103" lon="4.057417">
        <ele>1.515</ele>
        <time>2020-09-06T14:36:47Z</time>
      </trkpt>
      <trkpt lat="39.907046" lon="4.057577">
        <ele>1.558</ele>
        <time>2020-09-06T14:37:02Z</time>
      </trkpt>
      <trkpt lat="39.907035" lon="4.057597">
        <ele>2.075</ele>
        <time>2020-09-06T14:37:04Z</time>
      </trkpt>
      <trkpt lat="39.906949" lon="4.057723">
        <ele>2.093</ele>
        <time>2020-09-06T14:37:20Z</time>
      </trkpt>
      <trkpt lat="39.906873" lon="4.057850">
        <ele>2.099</ele>
        <time>2020-09-06T14:37:34Z</time>
      </trkpt>
      <trkpt lat="39.906844" lon="4.057867">
        <ele>2.083</ele>
        <time>2020-09-06T14:37:37Z</time>
      </trkpt>
      <trkpt lat="39.906741" lon="4.057983">
        <ele>3.542</ele>
        <time>2020-09-06T14:37:54Z</time>
      </trkpt>
      <trkpt lat="39.906737" lon="4.058029">
        <ele>3.938</ele>
        <time>2020-09-06T14:37:58Z</time>
      </trkpt>
      <trkpt lat="39.906725" lon="4.058165">
        <ele>5.470</ele>
        <time>2020-09-06T14:38:09Z</time>
      </trkpt>
      <trkpt lat="39.906702" lon="4.058332">
        <ele>6.817</ele>
        <time>2020-09-06T14:38:23Z</time>
      </trkpt>
      <trkpt lat="39.906743" lon="4.058408">
        <ele>6.308</ele>
        <time>2020-09-06T14:38:30Z</time>
      </trkpt>
      <trkpt lat="39.906753" lon="4.058461">
        <ele>6.348</ele>
        <time>2020-09-06T14:38:35Z</time>
      </trkpt>
      <trkpt lat="39.906691" lon="4.058649">
        <ele>5.460</ele>
        <time>2020-09-06T14:38:52Z</time>
      </trkpt>
      <trkpt lat="39.906649" lon="4.058819">
        <ele>4.993</ele>
        <time>2020-09-06T14:39:06Z</time>
      </trkpt>
      <trkpt lat="39.906650" lon="4.058974">
        <ele>4.950</ele>
        <time>2020-09-06T14:39:19Z</time>
      </trkpt>
      <trkpt lat="39.906653" lon="4.059065">
        <ele>4.458</ele>
        <time>2020-09-06T14:39:27Z</time>
      </trkpt>
      <trkpt lat="39.906648" lon="4.059112">
        <ele>4.474</ele>
        <time>2020-09-06T14:39:30Z</time>
      </trkpt>
      <trkpt lat="39.906627" lon="4.059261">
        <ele>3.538</ele>
        <time>2020-09-06T14:39:42Z</time>
      </trkpt>
      <trkpt lat="39.906573" lon="4.059439">
        <ele>3.097</ele>
        <time>2020-09-06T14:39:58Z</time>
      </trkpt>
      <trkpt lat="39.906528" lon="4.059621">
        <ele>3.034</ele>
        <time>2020-09-06T14:40:14Z</time>
      </trkpt>
      <trkpt lat="39.906477" lon="4.059772">
        <ele>3.055</ele>
        <time>2020-09-06T14:40:29Z</time>
      </trkpt>
      <trkpt lat="39.906411" lon="4.059882">
        <ele>3.510</ele>
        <time>2020-09-06T14:40:43Z</time>
      </trkpt>
      <trkpt lat="39.906343" lon="4.059972">
        <ele>4.408</ele>
        <time>2020-09-06T14:40:57Z</time>
      </trkpt>
      <trkpt lat="39.906250" lon="4.060075">
        <ele>3.958</ele>
        <time>2020-09-06T14:41:11Z</time>
      </trkpt>
      <trkpt lat="39.906188" lon="4.060216">
        <ele>3.960</ele>
        <time>2020-09-06T14:41:27Z</time>
      </trkpt>
      <trkpt lat="39.906164" lon="4.060328">
        <ele>3.913</ele>
        <time>2020-09-06T14:41:38Z</time>
      </trkpt>
      <trkpt lat="39.906119" lon="4.060502">
        <ele>4.460</ele>
        <time>2020-09-06T14:41:54Z</time>
      </trkpt>
      <trkpt lat="39.906110" lon="4.060552">
        <ele>4.458</ele>
        <time>2020-09-06T14:41:58Z</time>
      </trkpt>
      <trkpt lat="39.906028" lon="4.060730">
        <ele>3.914</ele>
        <time>2020-09-06T14:42:15Z</time>
      </trkpt>
      <trkpt lat="39.905954" lon="4.060895">
        <ele>3.928</ele>
        <time>2020-09-06T14:42:31Z</time>
      </trkpt>
      <trkpt lat="39.905940" lon="4.060910">
        <ele>3.527</ele>
        <time>2020-09-06T14:42:33Z</time>
      </trkpt>
      <trkpt lat="39.905922" lon="4.060935">
        <ele>3.924</ele>
        <time>2020-09-06T14:42:36Z</time>
      </trkpt>
      <trkpt lat="39.905827" lon="4.061091">
        <ele>3.504</ele>
        <time>2020-09-06T14:42:53Z</time>
      </trkpt>
      <trkpt lat="39.905777" lon="4.061159">
        <ele>3.914</ele>
        <time>2020-09-06T14:43:02Z</time>
      </trkpt>
      <trkpt lat="39.905756" lon="4.061180">
        <ele>3.908</ele>
        <time>2020-09-06T14:43:05Z</time>
      </trkpt>
      <trkpt lat="39.905672" lon="4.061278">
        <ele>3.537</ele>
        <time>2020-09-06T14:43:17Z</time>
      </trkpt>
      <trkpt lat="39.905631" lon="4.061311">
        <ele>3.019</ele>
        <time>2020-09-06T14:43:22Z</time>
      </trkpt>
      <trkpt lat="39.905563" lon="4.061352">
        <ele>3.062</ele>
        <time>2020-09-06T14:43:30Z</time>
      </trkpt>
      <trkpt lat="39.905476" lon="4.061483">
        <ele>3.069</ele>
        <time>2020-09-06T14:43:45Z</time>
      </trkpt>
      <trkpt lat="39.905437" lon="4.061621">
        <ele>3.957</ele>
        <time>2020-09-06T14:44:01Z</time>
      </trkpt>
      <trkpt lat="39.905406" lon="4.061777">
        <ele>4.453</ele>
        <time>2020-09-06T14:44:17Z</time>
      </trkpt>
      <trkpt lat="39.905313" lon="4.061960">
        <ele>3.937</ele>
        <time>2020-09-06T14:44:34Z</time>
      </trkpt>
      <trkpt lat="39.905228" lon="4.062100">
        <ele>3.916</ele>
        <time>2020-09-06T14:44:49Z</time>
      </trkpt>
      <trkpt lat="39.905213" lon="4.062114">
        <ele>3.989</ele>
        <time>2020-09-06T14:44:51Z</time>
      </trkpt>
      <trkpt lat="39.905061" lon="4.062234">
        <ele>3.506</ele>
        <time>2020-09-06T14:45:08Z</time>
      </trkpt>
      <trkpt lat="39.904958" lon="4.062394">
        <ele>2.526</ele>
        <time>2020-09-06T14:45:25Z</time>
      </trkpt>
      <trkpt lat="39.904880" lon="4.062569">
        <ele>2.508</ele>
        <time>2020-09-06T14:45:41Z</time>
      </trkpt>
      <trkpt lat="39.904788" lon="4.062733">
        <ele>3.083</ele>
        <time>2020-09-06T14:45:59Z</time>
      </trkpt>
      <trkpt lat="39.904749" lon="4.062862">
        <ele>3.595</ele>
        <time>2020-09-06T14:46:13Z</time>
      </trkpt>
      <trkpt lat="39.904660" lon="4.063090">
        <ele>2.558</ele>
        <time>2020-09-06T14:46:32Z</time>
      </trkpt>
      <trkpt lat="39.904590" lon="4.063216">
        <ele>2.515</ele>
        <time>2020-09-06T14:46:47Z</time>
      </trkpt>
      <trkpt lat="39.904533" lon="4.063275">
        <ele>1.513</ele>
        <time>2020-09-06T14:46:55Z</time>
      </trkpt>
      <trkpt lat="39.904421" lon="4.063422">
        <ele>1.539</ele>
        <time>2020-09-06T14:47:11Z</time>
      </trkpt>
      <trkpt lat="39.904322" lon="4.063576">
        <ele>1.113</ele>
        <time>2020-09-06T14:47:28Z</time>
      </trkpt>
      <trkpt lat="39.904230" lon="4.063747">
        <ele>1.112</ele>
        <time>2020-09-06T14:47:45Z</time>
      </trkpt>
      <trkpt lat="39.904225" lon="4.063755">
        <ele>1.524</ele>
        <time>2020-09-06T14:47:46Z</time>
      </trkpt>
      <trkpt lat="39.904207" lon="4.063800">
        <ele>1.104</ele>
        <time>2020-09-06T14:47:50Z</time>
      </trkpt>
      <trkpt lat="39.904125" lon="4.063954">
        <ele>1.114</ele>
        <time>2020-09-06T14:48:06Z</time>
      </trkpt>
      <trkpt lat="39.904097" lon="4.063986">
        <ele>0.608</ele>
        <time>2020-09-06T14:48:10Z</time>
      </trkpt>
      <trkpt lat="39.904070" lon="4.064018">
        <ele>0.617</ele>
        <time>2020-09-06T14:48:14Z</time>
      </trkpt>
      <trkpt lat="39.903960" lon="4.064140">
        <ele>1.159</ele>
        <time>2020-09-06T14:48:29Z</time>
      </trkpt>
      <trkpt lat="39.903892" lon="4.064264">
        <ele>1.142</ele>
        <time>2020-09-06T14:48:44Z</time>
      </trkpt>
      <trkpt lat="39.903835" lon="4.064411">
        <ele>2.089</ele>
        <time>2020-09-06T14:49:00Z</time>
      </trkpt>
      <trkpt lat="39.903823" lon="4.064430">
        <ele>2.087</ele>
        <time>2020-09-06T14:49:02Z</time>
      </trkpt>
      <trkpt lat="39.903747" lon="4.064595">
        <ele>2.523</ele>
        <time>2020-09-06T14:49:19Z</time>
      </trkpt>
      <trkpt lat="39.903667" lon="4.064733">
        <ele>2.547</ele>
        <time>2020-09-06T14:49:34Z</time>
      </trkpt>
      <trkpt lat="39.903562" lon="4.064891">
        <ele>3.026</ele>
        <time>2020-09-06T14:49:52Z</time>
      </trkpt>
      <trkpt lat="39.903469" lon="4.065051">
        <ele>3.599</ele>
        <time>2020-09-06T14:50:10Z</time>
      </trkpt>
      <trkpt lat="39.903402" lon="4.065114">
        <ele>3.507</ele>
        <time>2020-09-06T14:50:20Z</time>
      </trkpt>
      <trkpt lat="39.903286" lon="4.065270">
        <ele>3.027</ele>
        <time>2020-09-06T14:50:37Z</time>
      </trkpt>
      <trkpt lat="39.903171" lon="4.065438">
        <ele>2.008</ele>
        <time>2020-09-06T14:50:55Z</time>
      </trkpt>
      <trkpt lat="39.903049" lon="4.065582">
        <ele>1.124</ele>
        <time>2020-09-06T14:51:12Z</time>
      </trkpt>
      <trkpt lat="39.902946" lon="4.065719">
        <ele>1.136</ele>
        <time>2020-09-06T14:51:28Z</time>
      </trkpt>
      <trkpt lat="39.902854" lon="4.065869">
        <ele>0.679</ele>
        <time>2020-09-06T14:51:43Z</time>
      </trkpt>
      <trkpt lat="39.902811" lon="4.065997">
        <ele>1.126</ele>
        <time>2020-09-06T14:51:54Z</time>
      </trkpt>
      <trkpt lat="39.902735" lon="4.066208">
        <ele>0.124</ele>
        <time>2020-09-06T14:52:12Z</time>
      </trkpt>
      <trkpt lat="39.902710" lon="4.066284">
        <ele>0.640</ele>
        <time>2020-09-06T14:52:19Z</time>
      </trkpt>
      <trkpt lat="39.902645" lon="4.066550">
        <ele>0.614</ele>
        <time>2020-09-06T14:52:42Z</time>
      </trkpt>
      <trkpt lat="39.902631" lon="4.066586">
        <ele>1.143</ele>
        <time>2020-09-06T14:52:45Z</time>
      </trkpt>
      <trkpt lat="39.902550" lon="4.066805">
        <ele>0.696</ele>
        <time>2020-09-06T14:53:03Z</time>
      </trkpt>
      <trkpt lat="39.902493" lon="4.067023">
        <ele>0.131</ele>
        <time>2020-09-06T14:53:22Z</time>
      </trkpt>
      <trkpt lat="39.902428" lon="4.067213">
        <ele>-0.424</ele>
        <time>2020-09-06T14:53:38Z</time>
      </trkpt>
      <trkpt lat="39.902335" lon="4.067388">
        <ele>-0.408</ele>
        <time>2020-09-06T14:53:55Z</time>
      </trkpt>
      <trkpt lat="39.902214" lon="4.067502">
        <ele>0.164</ele>
        <time>2020-09-06T14:54:11Z</time>
      </trkpt>
      <trkpt lat="39.902108" lon="4.067607">
        <ele>0.126</ele>
        <time>2020-09-06T14:54:26Z</time>
      </trkpt>
      <trkpt lat="39.902003" lon="4.067743">
        <ele>0.689</ele>
        <time>2020-09-06T14:54:41Z</time>
      </trkpt>
      <trkpt lat="39.901853" lon="4.067784">
        <ele>0.156</ele>
        <time>2020-09-06T14:54:57Z</time>
      </trkpt>
      <trkpt lat="39.901784" lon="4.067821">
        <ele>0.114</ele>
        <time>2020-09-06T14:55:05Z</time>
      </trkpt>
      <trkpt lat="39.901751" lon="4.068039">
        <ele>-0.490</ele>
        <time>2020-09-06T14:55:22Z</time>
      </trkpt>
      <trkpt lat="39.901705" lon="4.068200">
        <ele>-0.464</ele>
        <time>2020-09-06T14:55:36Z</time>
      </trkpt>
      <trkpt lat="39.901682" lon="4.068241">
        <ele>-0.433</ele>
        <time>2020-09-06T14:55:40Z</time>
      </trkpt>
      <trkpt lat="39.901599" lon="4.068365">
        <ele>1.516</ele>
        <time>2020-09-06T14:55:55Z</time>
      </trkpt>
      <trkpt lat="39.901472" lon="4.068444">
        <ele>1.576</ele>
        <time>2020-09-06T14:56:10Z</time>
      </trkpt>
      <trkpt lat="39.901384" lon="4.068439">
        <ele>1.513</ele>
        <time>2020-09-06T14:56:20Z</time>
      </trkpt>
      <trkpt lat="39.901259" lon="4.068447">
        <ele>0.608</ele>
        <time>2020-09-06T14:56:32Z</time>
      </trkpt>
      <trkpt lat="39.901219" lon="4.068628">
        <ele>-0.446</ele>
        <time>2020-09-06T14:56:48Z</time>
      </trkpt>
      <trkpt lat="39.901201" lon="4.068631">
        <ele>-0.498</ele>
        <time>2020-09-06T14:56:50Z</time>
      </trkpt>
      <trkpt lat="39.901169" lon="4.068634">
        <ele>-0.411</ele>
        <time>2020-09-06T14:56:53Z</time>
      </trkpt>
      <trkpt lat="39.901131" lon="4.068649">
        <ele>-0.968</ele>
        <time>2020-09-06T14:56:57Z</time>
      </trkpt>
      <trkpt lat="39.900960" lon="4.068678">
        <ele>-1.376</ele>
        <time>2020-09-06T14:57:14Z</time>
      </trkpt>
      <trkpt lat="39.900951" lon="4.068675">
        <ele>-1.392</ele>
        <time>2020-09-06T14:57:15Z</time>
      </trkpt>
      <trkpt lat="39.900913" lon="4.068666">
        <ele>-1.386</ele>
        <time>2020-09-06T14:57:19Z</time>
      </trkpt>
      <trkpt lat="39.900831" lon="4.068687">
        <ele>-1.385</ele>
        <time>2020-09-06T14:57:28Z</time>
      </trkpt>
      <trkpt lat="39.900786" lon="4.068761">
        <ele>-1.381</ele>
        <time>2020-09-06T14:57:35Z</time>
      </trkpt>
      <trkpt lat="39.900725" lon="4.068984">
        <ele>-1.361</ele>
        <time>2020-09-06T14:57:51Z</time>
      </trkpt>
      <trkpt lat="39.900680" lon="4.069136">
        <ele>-1.317</ele>
        <time>2020-09-06T14:58:02Z</time>
      </trkpt>
      <trkpt lat="39.900641" lon="4.069288">
        <ele>-1.808</ele>
        <time>2020-09-06T14:58:13Z</time>
      </trkpt>
      <trkpt lat="39.900610" lon="4.069399">
        <ele>-1.313</ele>
        <time>2020-09-06T14:58:21Z</time>
      </trkpt>
      <trkpt lat="39.900543" lon="4.069590">
        <ele>-1.875</ele>
        <time>2020-09-06T14:58:36Z</time>
      </trkpt>
      <trkpt lat="39.900491" lon="4.069691">
        <ele>-1.818</ele>
        <time>2020-09-06T14:58:45Z</time>
      </trkpt>
      <trkpt lat="39.900395" lon="4.069878">
        <ele>-1.835</ele>
        <time>2020-09-06T14:59:00Z</time>
      </trkpt>
      <trkpt lat="39.900327" lon="4.070016">
        <ele>-1.333</ele>
        <time>2020-09-06T14:59:12Z</time>
      </trkpt>
      <trkpt lat="39.900261" lon="4.070144">
        <ele>-1.869</ele>
        <time>2020-09-06T14:59:22Z</time>
      </trkpt>
      <trkpt lat="39.900240" lon="4.070180">
        <ele>-1.333</ele>
        <time>2020-09-06T14:59:25Z</time>
      </trkpt>
      <trkpt lat="39.900175" lon="4.070356">
        <ele>-1.862</ele>
        <time>2020-09-06T14:59:39Z</time>
      </trkpt>
      <trkpt lat="39.900115" lon="4.070550">
        <ele>-2.386</ele>
        <time>2020-09-06T14:59:54Z</time>
      </trkpt>
      <trkpt lat="39.900006" lon="4.070748">
        <ele>-2.360</ele>
        <time>2020-09-06T15:00:09Z</time>
      </trkpt>
      <trkpt lat="39.899937" lon="4.070966">
        <ele>-1.826</ele>
        <time>2020-09-06T15:00:25Z</time>
      </trkpt>
      <trkpt lat="39.899922" lon="4.070996">
        <ele>-1.808</ele>
        <time>2020-09-06T15:00:28Z</time>
      </trkpt>
      <trkpt lat="39.899872" lon="4.071151">
        <ele>-2.333</ele>
        <time>2020-09-06T15:00:40Z</time>
      </trkpt>
      <trkpt lat="39.899823" lon="4.071311">
        <ele>-1.835</ele>
        <time>2020-09-06T15:00:53Z</time>
      </trkpt>
      <trkpt lat="39.899733" lon="4.071533">
        <ele>-2.378</ele>
        <time>2020-09-06T15:01:09Z</time>
      </trkpt>
      <trkpt lat="39.899646" lon="4.071684">
        <ele>-2.815</ele>
        <time>2020-09-06T15:01:22Z</time>
      </trkpt>
      <trkpt lat="39.899623" lon="4.071752">
        <ele>-2.813</ele>
        <time>2020-09-06T15:01:26Z</time>
      </trkpt>
      <trkpt lat="39.899548" lon="4.071896">
        <ele>-2.329</ele>
        <time>2020-09-06T15:01:39Z</time>
      </trkpt>
      <trkpt lat="39.899491" lon="4.072043">
        <ele>-2.843</ele>
        <time>2020-09-06T15:01:50Z</time>
      </trkpt>
      <trkpt lat="39.899413" lon="4.072235">
        <ele>-2.322</ele>
        <time>2020-09-06T15:02:04Z</time>
      </trkpt>
      <trkpt lat="39.899349" lon="4.072403">
        <ele>-2.888</ele>
        <time>2020-09-06T15:02:18Z</time>
      </trkpt>
      <trkpt lat="39.899322" lon="4.072625">
        <ele>-2.824</ele>
        <time>2020-09-06T15:02:32Z</time>
      </trkpt>
      <trkpt lat="39.899299" lon="4.072679">
        <ele>-2.326</ele>
        <time>2020-09-06T15:02:37Z</time>
      </trkpt>
      <trkpt lat="39.899269" lon="4.072811">
        <ele>-2.308</ele>
        <time>2020-09-06T15:02:46Z</time>
      </trkpt>
      <trkpt lat="39.899219" lon="4.072948">
        <ele>-2.883</ele>
        <time>2020-09-06T15:02:57Z</time>
      </trkpt>
      <trkpt lat="39.899202" lon="4.072998">
        <ele>-2.875</ele>
        <time>2020-09-06T15:03:00Z</time>
      </trkpt>
      <trkpt lat="39.899152" lon="4.073105">
        <ele>-2.848</ele>
        <time>2020-09-06T15:03:09Z</time>
      </trkpt>
      <trkpt lat="39.899121" lon="4.073154">
        <ele>-2.835</ele>
        <time>2020-09-06T15:03:14Z</time>
      </trkpt>
      <trkpt lat="39.899071" lon="4.073235">
        <ele>-2.333</ele>
        <time>2020-09-06T15:03:21Z</time>
      </trkpt>
      <trkpt lat="39.899008" lon="4.073346">
        <ele>-2.379</ele>
        <time>2020-09-06T15:03:31Z</time>
      </trkpt>
      <trkpt lat="39.898967" lon="4.073461">
        <ele>-2.893</ele>
        <time>2020-09-06T15:03:39Z</time>
      </trkpt>
      <trkpt lat="39.898922" lon="4.073543">
        <ele>-5.252</ele>
        <time>2020-09-06T15:03:45Z</time>
      </trkpt>
      <trkpt lat="39.898916" lon="4.073551">
        <ele>1.542</ele>
        <time>2020-09-06T15:03:46Z</time>
      </trkpt>
      <trkpt lat="39.898913" lon="4.073558">
        <ele>-2.322</ele>
        <time>2020-09-06T15:03:47Z</time>
      </trkpt>
      <trkpt lat="39.898927" lon="4.073565">
        <ele>-2.814</ele>
        <time>2020-09-06T15:04:02Z</time>
      </trkpt>
      <trkpt lat="39.898967" lon="4.073607">
        <ele>-2.308</ele>
        <time>2020-09-06T15:04:09Z</time>
      </trkpt>
      <trkpt lat="39.899038" lon="4.073663">
        <ele>-1.389</ele>
        <time>2020-09-06T15:04:20Z</time>
      </trkpt>
      <trkpt lat="39.899189" lon="4.073774">
        <ele>1.581</ele>
        <time>2020-09-06T15:04:36Z</time>
      </trkpt>
      <trkpt lat="39.899287" lon="4.073855">
        <ele>0.694</ele>
        <time>2020-09-06T15:04:49Z</time>
      </trkpt>
      <trkpt lat="39.899306" lon="4.073871">
        <ele>1.111</ele>
        <time>2020-09-06T15:04:51Z</time>
      </trkpt>
      <trkpt lat="39.899344" lon="4.073904">
        <ele>1.149</ele>
        <time>2020-09-06T15:04:55Z</time>
      </trkpt>
      <trkpt lat="39.899522" lon="4.074014">
        <ele>2.045</ele>
        <time>2020-09-06T15:05:11Z</time>
      </trkpt>
      <trkpt lat="39.899705" lon="4.074059">
        <ele>-0.439</ele>
        <time>2020-09-06T15:05:27Z</time>
      </trkpt>
      <trkpt lat="39.899738" lon="4.074097">
        <ele>0.158</ele>
        <time>2020-09-06T15:05:31Z</time>
      </trkpt>
      <trkpt lat="39.899628" lon="4.074319">
        <ele>0.116</ele>
        <time>2020-09-06T15:05:49Z</time>
      </trkpt>
      <trkpt lat="39.899524" lon="4.074501">
        <ele>0.176</ele>
        <time>2020-09-06T15:06:05Z</time>
      </trkpt>
      <trkpt lat="39.899422" lon="4.074667">
        <ele>-0.913</ele>
        <time>2020-09-06T15:06:21Z</time>
      </trkpt>
      <trkpt lat="39.899336" lon="4.074763">
        <ele>-0.408</ele>
        <time>2020-09-06T15:06:30Z</time>
      </trkpt>
      <trkpt lat="39.899309" lon="4.074827">
        <ele>0.176</ele>
        <time>2020-09-06T15:06:35Z</time>
      </trkpt>
      <trkpt lat="39.899223" lon="4.074999">
        <ele>-0.448</ele>
        <time>2020-09-06T15:06:50Z</time>
      </trkpt>
      <trkpt lat="39.899095" lon="4.075203">
        <ele>-0.931</ele>
        <time>2020-09-06T15:07:07Z</time>
      </trkpt>
      <trkpt lat="39.898966" lon="4.075400">
        <ele>-0.988</ele>
        <time>2020-09-06T15:07:25Z</time>
      </trkpt>
      <trkpt lat="39.898955" lon="4.075411">
        <ele>-0.916</ele>
        <time>2020-09-06T15:07:26Z</time>
      </trkpt>
      <trkpt lat="39.898946" lon="4.075423">
        <ele>-1.352</ele>
        <time>2020-09-06T15:07:27Z</time>
      </trkpt>
      <trkpt lat="39.898824" lon="4.075640">
        <ele>-0.996</ele>
        <time>2020-09-06T15:07:45Z</time>
      </trkpt>
      <trkpt lat="39.898768" lon="4.075737">
        <ele>-0.415</ele>
        <time>2020-09-06T15:07:53Z</time>
      </trkpt>
      <trkpt lat="39.898725" lon="4.075802">
        <ele>-0.487</ele>
        <time>2020-09-06T15:07:59Z</time>
      </trkpt>
      <trkpt lat="39.898613" lon="4.075990">
        <ele>-0.442</ele>
        <time>2020-09-06T15:08:15Z</time>
      </trkpt>
      <trkpt lat="39.898625" lon="4.076012">
        <ele>-0.926</ele>
        <time>2020-09-06T15:08:21Z</time>
      </trkpt>
      <trkpt lat="39.898719" lon="4.076249">
        <ele>-0.908</ele>
        <time>2020-09-06T15:08:38Z</time>
      </trkpt>
      <trkpt lat="39.898829" lon="4.076407">
        <ele>-0.933</ele>
        <time>2020-09-06T15:08:54Z</time>
      </trkpt>
      <trkpt lat="39.898994" lon="4.076577">
        <ele>-1.345</ele>
        <time>2020-09-06T15:09:12Z</time>
      </trkpt>
      <trkpt lat="39.899090" lon="4.076784">
        <ele>-0.988</ele>
        <time>2020-09-06T15:09:29Z</time>
      </trkpt>
      <trkpt lat="39.899214" lon="4.076860">
        <ele>0.185</ele>
        <time>2020-09-06T15:09:43Z</time>
      </trkpt>
      <trkpt lat="39.899269" lon="4.076967">
        <ele>0.633</ele>
        <time>2020-09-06T15:09:56Z</time>
      </trkpt>
      <trkpt lat="39.899287" lon="4.077036">
        <ele>1.519</ele>
        <time>2020-09-06T15:10:02Z</time>
      </trkpt>
      <trkpt lat="39.899276" lon="4.077058">
        <ele>1.593</ele>
        <time>2020-09-06T15:10:04Z</time>
      </trkpt>
      <trkpt lat="39.899237" lon="4.077136">
        <ele>2.052</ele>
        <time>2020-09-06T15:10:15Z</time>
      </trkpt>
      <trkpt lat="39.899146" lon="4.077248">
        <ele>2.011</ele>
        <time>2020-09-06T15:10:27Z</time>
      </trkpt>
      <trkpt lat="39.899076" lon="4.077386">
        <ele>2.521</ele>
        <time>2020-09-06T15:10:41Z</time>
      </trkpt>
      <trkpt lat="39.899062" lon="4.077473">
        <ele>3.003</ele>
        <time>2020-09-06T15:10:55Z</time>
      </trkpt>
      <trkpt lat="39.899016" lon="4.077596">
        <ele>3.508</ele>
        <time>2020-09-06T15:11:08Z</time>
      </trkpt>
      <trkpt lat="39.898912" lon="4.077727">
        <ele>3.596</ele>
        <time>2020-09-06T15:11:22Z</time>
      </trkpt>
      <trkpt lat="39.898887" lon="4.077817">
        <ele>3.568</ele>
        <time>2020-09-06T15:11:34Z</time>
      </trkpt>
      <trkpt lat="39.898888" lon="4.077983">
        <ele>3.971</ele>
        <time>2020-09-06T15:11:48Z</time>
      </trkpt>
      <trkpt lat="39.898893" lon="4.078085">
        <ele>3.998</ele>
        <time>2020-09-06T15:12:01Z</time>
      </trkpt>
      <trkpt lat="39.898920" lon="4.078107">
        <ele>4.476</ele>
        <time>2020-09-06T15:12:06Z</time>
      </trkpt>
      <trkpt lat="39.898960" lon="4.078175">
        <ele>4.482</ele>
        <time>2020-09-06T15:12:17Z</time>
      </trkpt>
      <trkpt lat="39.898977" lon="4.078202">
        <ele>4.986</ele>
        <time>2020-09-06T15:12:20Z</time>
      </trkpt>
      <trkpt lat="39.898996" lon="4.078223">
        <ele>4.955</ele>
        <time>2020-09-06T15:12:22Z</time>
      </trkpt>
      <trkpt lat="39.899085" lon="4.078377">
        <ele>5.917</ele>
        <time>2020-09-06T15:12:35Z</time>
      </trkpt>
      <trkpt lat="39.899255" lon="4.078435">
        <ele>7.387</ele>
        <time>2020-09-06T15:12:52Z</time>
      </trkpt>
      <trkpt lat="39.899324" lon="4.078408">
        <ele>8.315</ele>
        <time>2020-09-06T15:13:06Z</time>
      </trkpt>
      <trkpt lat="39.899332" lon="4.078419">
        <ele>8.308</ele>
        <time>2020-09-06T15:13:25Z</time>
      </trkpt>
      <trkpt lat="39.899359" lon="4.078414">
        <ele>7.886</ele>
        <time>2020-09-06T15:13:46Z</time>
      </trkpt>
      <trkpt lat="39.899422" lon="4.078392">
        <ele>7.898</ele>
        <time>2020-09-06T15:14:08Z</time>
      </trkpt>
      <trkpt lat="39.899483" lon="4.078369">
        <ele>7.811</ele>
        <time>2020-09-06T15:14:26Z</time>
      </trkpt>
      <trkpt lat="39.899471" lon="4.078323">
        <ele>8.338</ele>
        <time>2020-09-06T15:14:51Z</time>
      </trkpt>
      <trkpt lat="39.899449" lon="4.078330">
        <ele>8.316</ele>
        <time>2020-09-06T15:15:16Z</time>
      </trkpt>
      <trkpt lat="39.899418" lon="4.078337">
        <ele>8.792</ele>
        <time>2020-09-06T15:15:39Z</time>
      </trkpt>
      <trkpt lat="39.899410" lon="4.078440">
        <ele>9.766</ele>
        <time>2020-09-06T15:15:54Z</time>
      </trkpt>
      <trkpt lat="39.899477" lon="4.078484">
        <ele>9.785</ele>
        <time>2020-09-06T15:16:12Z</time>
      </trkpt>
      <trkpt lat="39.899850" lon="4.078423">
        <ele>-44.618</ele>
        <time>2020-09-04T07:06:05Z</time>
      </trkpt>
      <trkpt lat="39.899845" lon="4.078411">
        <ele>-44.698</ele>
        <time>2020-09-04T07:06:06Z</time>
      </trkpt>
      <trkpt lat="39.899811" lon="4.078325">
        <ele>-44.617</ele>
        <time>2020-09-04T07:06:30Z</time>
      </trkpt>
      <trkpt lat="39.899789" lon="4.078260">
        <ele>-44.608</ele>
        <time>2020-09-04T07:06:54Z</time>
      </trkpt>
      <trkpt lat="39.899803" lon="4.078303">
        <ele>-39.826</ele>
        <time>2020-09-04T07:07:09Z</time>
      </trkpt>
      <trkpt lat="39.899808" lon="4.078306">
        <ele>-35.068</ele>
        <time>2020-09-04T07:07:11Z</time>
      </trkpt>
      <trkpt lat="39.899816" lon="4.078308">
        <ele>-30.711</ele>
        <time>2020-09-04T07:07:13Z</time>
      </trkpt>
      <trkpt lat="39.899822" lon="4.078311">
        <ele>-26.368</ele>
        <time>2020-09-04T07:07:15Z</time>
      </trkpt>
      <trkpt lat="39.899824" lon="4.078311">
        <ele>-23.036</ele>
        <time>2020-09-04T07:07:17Z</time>
      </trkpt>
      <trkpt lat="39.899822" lon="4.078309">
        <ele>-19.133</ele>
        <time>2020-09-04T07:07:19Z</time>
      </trkpt>
      <trkpt lat="39.899819" lon="4.078308">
        <ele>-15.874</ele>
        <time>2020-09-04T07:07:21Z</time>
      </trkpt>
      <trkpt lat="39.899820" lon="4.078303">
        <ele>-11.488</ele>
        <time>2020-09-04T07:07:24Z</time>
      </trkpt>
      <trkpt lat="39.899815" lon="4.078283">
        <ele>-8.698</ele>
        <time>2020-09-04T07:07:26Z</time>
      </trkpt>
      <trkpt lat="39.899814" lon="4.078270">
        <ele>-4.715</ele>
        <time>2020-09-04T07:07:29Z</time>
      </trkpt>
      <trkpt lat="39.899823" lon="4.078277">
        <ele>-0.426</ele>
        <time>2020-09-04T07:07:33Z</time>
      </trkpt>
      <trkpt lat="39.899826" lon="4.078275">
        <ele>3.008</ele>
        <time>2020-09-04T07:07:37Z</time>
      </trkpt>
      <trkpt lat="39.899817" lon="4.078270">
        <ele>6.344</ele>
        <time>2020-09-04T07:07:42Z</time>
      </trkpt>
      <trkpt lat="39.899814" lon="4.078271">
        <ele>7.316</ele>
        <time>2020-09-04T07:07:44Z</time>
      </trkpt>
      <trkpt lat="39.899811" lon="4.078270">
        <ele>9.229</ele>
        <time>2020-09-04T07:07:47Z</time>
      </trkpt>
      <trkpt lat="39.899822" lon="4.078285">
        <ele>12.136</ele>
        <time>2020-09-04T07:07:57Z</time>
      </trkpt>
      <trkpt lat="39.899813" lon="4.078293">
        <ele>14.544</ele>
        <time>2020-09-04T07:08:13Z</time>
      </trkpt>
      <trkpt lat="39.899779" lon="4.078320">
        <ele>15.041</ele>
        <time>2020-09-04T07:08:17Z</time>
      </trkpt>
      <trkpt lat="39.899749" lon="4.078351">
        <ele>14.592</ele>
        <time>2020-09-04T07:08:20Z</time>
      </trkpt>
      <trkpt lat="39.899641" lon="4.078438">
        <ele>14.576</ele>
        <time>2020-09-04T07:08:32Z</time>
      </trkpt>
      <trkpt lat="39.899492" lon="4.078489">
        <ele>13.652</ele>
        <time>2020-09-04T07:08:46Z</time>
      </trkpt>
      <trkpt lat="39.899344" lon="4.078433">
        <ele>13.153</ele>
        <time>2020-09-04T07:09:01Z</time>
      </trkpt>
      <trkpt lat="39.899280" lon="4.078446">
        <ele>11.108</ele>
        <time>2020-09-04T07:11:55Z</time>
      </trkpt>
      <trkpt lat="39.899388" lon="4.078611">
        <ele>12.108</ele>
        <time>2020-09-04T07:12:10Z</time>
      </trkpt>
      <trkpt lat="39.899445" lon="4.078724">
        <ele>14.530</ele>
        <time>2020-09-04T07:12:22Z</time>
      </trkpt>
      <trkpt lat="39.899470" lon="4.078785">
        <ele>15.572</ele>
        <time>2020-09-04T07:12:36Z</time>
      </trkpt>
      <trkpt lat="39.899469" lon="4.078787">
        <ele>15.055</ele>
        <time>2020-09-04T07:12:57Z</time>
      </trkpt>
      <trkpt lat="39.899468" lon="4.078784">
        <ele>15.062</ele>
        <time>2020-09-04T07:13:28Z</time>
      </trkpt>
      <trkpt lat="39.899471" lon="4.078783">
        <ele>15.010</ele>
        <time>2020-09-04T07:13:59Z</time>
      </trkpt>
      <trkpt lat="39.899472" lon="4.078783">
        <ele>14.567</ele>
        <time>2020-09-04T07:14:25Z</time>
      </trkpt>
      <trkpt lat="39.899473" lon="4.078788">
        <ele>15.028</ele>
        <time>2020-09-04T07:14:48Z</time>
      </trkpt>
      <trkpt lat="39.899474" lon="4.078791">
        <ele>15.052</ele>
        <time>2020-09-04T07:15:08Z</time>
      </trkpt>
      <trkpt lat="39.899477" lon="4.078795">
        <ele>15.041</ele>
        <time>2020-09-04T07:15:42Z</time>
      </trkpt>
      <trkpt lat="39.899475" lon="4.078796">
        <ele>15.081</ele>
        <time>2020-09-04T07:16:05Z</time>
      </trkpt>
      <trkpt lat="39.899474" lon="4.078792">
        <ele>14.509</ele>
        <time>2020-09-04T07:16:32Z</time>
      </trkpt>
      <trkpt lat="39.899475" lon="4.078793">
        <ele>15.008</ele>
        <time>2020-09-04T07:16:49Z</time>
      </trkpt>
      <trkpt lat="39.899509" lon="4.078845">
        <ele>15.599</ele>
        <time>2020-09-04T07:16:59Z</time>
      </trkpt>
      <trkpt lat="39.899481" lon="4.078902">
        <ele>16.071</ele>
        <time>2020-09-04T07:17:05Z</time>
      </trkpt>
      <trkpt lat="39.899476" lon="4.078916">
        <ele>16.054</ele>
        <time>2020-09-04T07:17:20Z</time>
      </trkpt>
      <trkpt lat="39.899476" lon="4.078915">
        <ele>16.011</ele>
        <time>2020-09-04T07:17:22Z</time>
      </trkpt>
      <trkpt lat="39.899477" lon="4.078916">
        <ele>16.089</ele>
        <time>2020-09-04T07:17:30Z</time>
      </trkpt>
      <trkpt lat="39.899490" lon="4.078937">
        <ele>16.056</ele>
        <time>2020-09-04T07:17:33Z</time>
      </trkpt>
      <trkpt lat="39.899505" lon="4.079047">
        <ele>16.417</ele>
        <time>2020-09-04T07:17:42Z</time>
      </trkpt>
      <trkpt lat="39.899483" lon="4.079065">
        <ele>16.991</ele>
        <time>2020-09-04T07:17:45Z</time>
      </trkpt>
      <trkpt lat="39.899442" lon="4.079057">
        <ele>16.936</ele>
        <time>2020-09-04T07:17:49Z</time>
      </trkpt>
      <trkpt lat="39.899300" lon="4.079155">
        <ele>17.917</ele>
        <time>2020-09-04T07:18:03Z</time>
      </trkpt>
      <trkpt lat="39.899190" lon="4.079294">
        <ele>18.818</ele>
        <time>2020-09-04T07:18:16Z</time>
      </trkpt>
      <trkpt lat="39.899148" lon="4.079347">
        <ele>19.308</ele>
        <time>2020-09-04T07:18:22Z</time>
      </trkpt>
      <trkpt lat="39.899133" lon="4.079365">
        <ele>19.878</ele>
        <time>2020-09-04T07:18:24Z</time>
      </trkpt>
      <trkpt lat="39.899130" lon="4.079390">
        <ele>19.840</ele>
        <time>2020-09-04T07:18:26Z</time>
      </trkpt>
      <trkpt lat="39.899146" lon="4.079506">
        <ele>20.823</ele>
        <time>2020-09-04T07:18:40Z</time>
      </trkpt>
      <trkpt lat="39.899137" lon="4.079514">
        <ele>20.850</ele>
        <time>2020-09-04T07:18:50Z</time>
      </trkpt>
      <trkpt lat="39.899093" lon="4.079514">
        <ele>20.818</ele>
        <time>2020-09-04T07:18:54Z</time>
      </trkpt>
      <trkpt lat="39.899059" lon="4.079511">
        <ele>20.825</ele>
        <time>2020-09-04T07:18:57Z</time>
      </trkpt>
      <trkpt lat="39.898980" lon="4.079550">
        <ele>21.736</ele>
        <time>2020-09-04T07:19:05Z</time>
      </trkpt>
      <trkpt lat="39.898954" lon="4.079574">
        <ele>21.790</ele>
        <time>2020-09-04T07:19:08Z</time>
      </trkpt>
      <trkpt lat="39.898871" lon="4.079654">
        <ele>22.278</ele>
        <time>2020-09-04T07:19:18Z</time>
      </trkpt>
      <trkpt lat="39.898852" lon="4.079734">
        <ele>23.633</ele>
        <time>2020-09-04T07:19:25Z</time>
      </trkpt>
      <trkpt lat="39.898734" lon="4.079863">
        <ele>24.126</ele>
        <time>2020-09-04T07:19:41Z</time>
      </trkpt>
      <trkpt lat="39.898714" lon="4.079856">
        <ele>24.608</ele>
        <time>2020-09-04T07:19:43Z</time>
      </trkpt>
      <trkpt lat="39.898567" lon="4.079828">
        <ele>24.112</ele>
        <time>2020-09-04T07:19:57Z</time>
      </trkpt>
      <trkpt lat="39.898432" lon="4.079980">
        <ele>22.744</ele>
        <time>2020-09-04T07:20:13Z</time>
      </trkpt>
      <trkpt lat="39.898249" lon="4.080100">
        <ele>21.267</ele>
        <time>2020-09-04T07:20:31Z</time>
      </trkpt>
      <trkpt lat="39.898206" lon="4.080255">
        <ele>23.214</ele>
        <time>2020-09-04T07:20:43Z</time>
      </trkpt>
      <trkpt lat="39.898190" lon="4.080389">
        <ele>24.692</ele>
        <time>2020-09-04T07:20:54Z</time>
      </trkpt>
      <trkpt lat="39.898170" lon="4.080432">
        <ele>24.159</ele>
        <time>2020-09-04T07:20:57Z</time>
      </trkpt>
      <trkpt lat="39.898128" lon="4.080487">
        <ele>24.150</ele>
        <time>2020-09-04T07:21:02Z</time>
      </trkpt>
      <trkpt lat="39.897923" lon="4.080476">
        <ele>25.184</ele>
        <time>2020-09-04T07:21:19Z</time>
      </trkpt>
      <trkpt lat="39.897783" lon="4.080499">
        <ele>24.642</ele>
        <time>2020-09-04T07:21:35Z</time>
      </trkpt>
      <trkpt lat="39.897796" lon="4.080510">
        <ele>24.622</ele>
        <time>2020-09-04T07:21:41Z</time>
      </trkpt>
      <trkpt lat="39.897712" lon="4.080603">
        <ele>25.614</ele>
        <time>2020-09-04T07:21:54Z</time>
      </trkpt>
      <trkpt lat="39.897642" lon="4.080712">
        <ele>26.508</ele>
        <time>2020-09-04T07:22:07Z</time>
      </trkpt>
      <trkpt lat="39.897700" lon="4.080813">
        <ele>28.049</ele>
        <time>2020-09-04T07:22:20Z</time>
      </trkpt>
      <trkpt lat="39.897784" lon="4.080849">
        <ele>30.441</ele>
        <time>2020-09-04T07:22:36Z</time>
      </trkpt>
      <trkpt lat="39.897678" lon="4.080934">
        <ele>31.884</ele>
        <time>2020-09-04T07:22:50Z</time>
      </trkpt>
      <trkpt lat="39.897583" lon="4.081012">
        <ele>33.341</ele>
        <time>2020-09-04T07:23:03Z</time>
      </trkpt>
      <trkpt lat="39.897501" lon="4.081066">
        <ele>35.229</ele>
        <time>2020-09-04T07:23:15Z</time>
      </trkpt>
      <trkpt lat="39.897482" lon="4.081092">
        <ele>36.116</ele>
        <time>2020-09-04T07:23:32Z</time>
      </trkpt>
      <trkpt lat="39.897429" lon="4.081121">
        <ele>36.647</ele>
        <time>2020-09-04T07:23:50Z</time>
      </trkpt>
      <trkpt lat="39.897256" lon="4.081158">
        <ele>38.181</ele>
        <time>2020-09-04T07:24:06Z</time>
      </trkpt>
      <trkpt lat="39.897110" lon="4.081192">
        <ele>38.592</ele>
        <time>2020-09-04T07:24:19Z</time>
      </trkpt>
      <trkpt lat="39.897095" lon="4.081197">
        <ele>38.573</ele>
        <time>2020-09-04T07:24:20Z</time>
      </trkpt>
      <trkpt lat="39.896921" lon="4.081239">
        <ele>38.520</ele>
        <time>2020-09-04T07:24:35Z</time>
      </trkpt>
      <trkpt lat="39.896799" lon="4.081314">
        <ele>40.508</ele>
        <time>2020-09-04T07:24:48Z</time>
      </trkpt>
      <trkpt lat="39.896710" lon="4.081380">
        <ele>42.914</ele>
        <time>2020-09-04T07:25:01Z</time>
      </trkpt>
      <trkpt lat="39.896668" lon="4.081413">
        <ele>43.456</ele>
        <time>2020-09-04T07:25:06Z</time>
      </trkpt>
      <trkpt lat="39.896587" lon="4.081480">
        <ele>44.899</ele>
        <time>2020-09-04T07:25:20Z</time>
      </trkpt>
      <trkpt lat="39.896564" lon="4.081504">
        <ele>45.826</ele>
        <time>2020-09-04T07:25:32Z</time>
      </trkpt>
      <trkpt lat="39.896567" lon="4.081505">
        <ele>45.814</ele>
        <time>2020-09-04T07:26:03Z</time>
      </trkpt>
      <trkpt lat="39.896567" lon="4.081505">
        <ele>45.311</ele>
        <time>2020-09-04T07:26:09Z</time>
      </trkpt>
      <trkpt lat="39.896482" lon="4.081569">
        <ele>47.762</ele>
        <time>2020-09-04T07:26:23Z</time>
      </trkpt>
      <trkpt lat="39.896384" lon="4.081648">
        <ele>49.686</ele>
        <time>2020-09-04T07:26:36Z</time>
      </trkpt>
      <trkpt lat="39.896361" lon="4.081792">
        <ele>49.171</ele>
        <time>2020-09-04T07:26:49Z</time>
      </trkpt>
      <trkpt lat="39.896316" lon="4.081797">
        <ele>50.141</ele>
        <time>2020-09-04T07:27:02Z</time>
      </trkpt>
      <trkpt lat="39.896256" lon="4.081830">
        <ele>50.615</ele>
        <time>2020-09-04T07:27:08Z</time>
      </trkpt>
      <trkpt lat="39.896233" lon="4.081940">
        <ele>49.608</ele>
        <time>2020-09-04T07:27:16Z</time>
      </trkpt>
      <trkpt lat="39.896234" lon="4.082154">
        <ele>47.232</ele>
        <time>2020-09-04T07:27:29Z</time>
      </trkpt>
      <trkpt lat="39.896202" lon="4.082286">
        <ele>46.264</ele>
        <time>2020-09-04T07:27:38Z</time>
      </trkpt>
      <trkpt lat="39.896193" lon="4.082364">
        <ele>45.897</ele>
        <time>2020-09-04T07:27:44Z</time>
      </trkpt>
      <trkpt lat="39.896176" lon="4.082391">
        <ele>45.884</ele>
        <time>2020-09-04T07:27:46Z</time>
      </trkpt>
      <trkpt lat="39.896083" lon="4.082547">
        <ele>43.812</ele>
        <time>2020-09-04T07:28:00Z</time>
      </trkpt>
      <trkpt lat="39.896076" lon="4.082612">
        <ele>40.969</ele>
        <time>2020-09-04T07:28:13Z</time>
      </trkpt>
      <trkpt lat="39.896030" lon="4.082708">
        <ele>39.040</ele>
        <time>2020-09-04T07:28:25Z</time>
      </trkpt>
      <trkpt lat="39.895938" lon="4.082670">
        <ele>36.634</ele>
        <time>2020-09-04T07:28:39Z</time>
      </trkpt>
      <trkpt lat="39.895919" lon="4.082664">
        <ele>35.738</ele>
        <time>2020-09-04T07:28:51Z</time>
      </trkpt>
      <trkpt lat="39.895836" lon="4.082611">
        <ele>32.870</ele>
        <time>2020-09-04T07:29:05Z</time>
      </trkpt>
      <trkpt lat="39.895740" lon="4.082463">
        <ele>31.817</ele>
        <time>2020-09-04T07:29:19Z</time>
      </trkpt>
      <trkpt lat="39.895705" lon="4.082288">
        <ele>31.308</ele>
        <time>2020-09-04T07:29:32Z</time>
      </trkpt>
      <trkpt lat="39.895671" lon="4.082156">
        <ele>30.968</ele>
        <time>2020-09-04T07:29:48Z</time>
      </trkpt>
      <trkpt lat="39.895670" lon="4.082149">
        <ele>30.960</ele>
        <time>2020-09-04T07:30:14Z</time>
      </trkpt>
      <trkpt lat="39.895685" lon="4.082068">
        <ele>30.453</ele>
        <time>2020-09-04T07:30:38Z</time>
      </trkpt>
      <trkpt lat="39.895645" lon="4.081959">
        <ele>30.490</ele>
        <time>2020-09-04T07:30:53Z</time>
      </trkpt>
      <trkpt lat="39.895483" lon="4.081842">
        <ele>28.938</ele>
        <time>2020-09-04T07:31:07Z</time>
      </trkpt>
      <trkpt lat="39.895453" lon="4.081836">
        <ele>28.995</ele>
        <time>2020-09-04T07:31:10Z</time>
      </trkpt>
      <trkpt lat="39.895386" lon="4.081836">
        <ele>28.586</ele>
        <time>2020-09-04T07:31:13Z</time>
      </trkpt>
      <trkpt lat="39.895171" lon="4.081786">
        <ele>27.520</ele>
        <time>2020-09-04T07:31:26Z</time>
      </trkpt>
      <trkpt lat="39.895126" lon="4.081788">
        <ele>27.045</ele>
        <time>2020-09-04T07:31:29Z</time>
      </trkpt>
      <trkpt lat="39.895087" lon="4.081813">
        <ele>27.047</ele>
        <time>2020-09-04T07:31:33Z</time>
      </trkpt>
      <trkpt lat="39.894924" lon="4.081914">
        <ele>25.611</ele>
        <time>2020-09-04T07:31:47Z</time>
      </trkpt>
      <trkpt lat="39.894782" lon="4.081974">
        <ele>24.608</ele>
        <time>2020-09-04T07:32:00Z</time>
      </trkpt>
      <trkpt lat="39.894658" lon="4.082041">
        <ele>24.169</ele>
        <time>2020-09-04T07:32:10Z</time>
      </trkpt>
      <trkpt lat="39.894508" lon="4.082176">
        <ele>23.221</ele>
        <time>2020-09-04T07:32:25Z</time>
      </trkpt>
      <trkpt lat="39.894425" lon="4.082290">
        <ele>23.614</ele>
        <time>2020-09-04T07:32:40Z</time>
      </trkpt>
      <trkpt lat="39.894423" lon="4.082285">
        <ele>23.281</ele>
        <time>2020-09-04T07:32:58Z</time>
      </trkpt>
      <trkpt lat="39.894423" lon="4.082287">
        <ele>22.779</ele>
        <time>2020-09-04T07:33:23Z</time>
      </trkpt>
      <trkpt lat="39.894428" lon="4.082284">
        <ele>22.766</ele>
        <time>2020-09-04T07:33:50Z</time>
      </trkpt>
      <trkpt lat="39.894417" lon="4.082279">
        <ele>22.787</ele>
        <time>2020-09-04T07:34:07Z</time>
      </trkpt>
      <trkpt lat="39.894395" lon="4.082282">
        <ele>22.751</ele>
        <time>2020-09-04T07:34:09Z</time>
      </trkpt>
      <trkpt lat="39.894230" lon="4.082320">
        <ele>22.222</ele>
        <time>2020-09-04T07:34:25Z</time>
      </trkpt>
      <trkpt lat="39.894154" lon="4.082252">
        <ele>22.762</ele>
        <time>2020-09-04T07:34:37Z</time>
      </trkpt>
      <trkpt lat="39.894120" lon="4.082231">
        <ele>22.208</ele>
        <time>2020-09-04T07:34:41Z</time>
      </trkpt>
      <trkpt lat="39.894024" lon="4.082119">
        <ele>21.208</ele>
        <time>2020-09-04T07:34:52Z</time>
      </trkpt>
      <trkpt lat="39.893850" lon="4.082039">
        <ele>20.817</ele>
        <time>2020-09-04T07:35:09Z</time>
      </trkpt>
      <trkpt lat="39.893789" lon="4.082022">
        <ele>20.869</ele>
        <time>2020-09-04T07:35:15Z</time>
      </trkpt>
      <trkpt lat="39.893628" lon="4.081994">
        <ele>21.282</ele>
        <time>2020-09-04T07:35:36Z</time>
      </trkpt>
      <trkpt lat="39.893630" lon="4.082011">
        <ele>20.829</ele>
        <time>2020-09-04T07:35:57Z</time>
      </trkpt>
      <trkpt lat="39.893634" lon="4.082005">
        <ele>20.877</ele>
        <time>2020-09-04T07:36:25Z</time>
      </trkpt>
      <trkpt lat="39.893634" lon="4.082050">
        <ele>20.314</ele>
        <time>2020-09-04T07:36:51Z</time>
      </trkpt>
      <trkpt lat="39.893629" lon="4.082041">
        <ele>20.335</ele>
        <time>2020-09-04T07:37:15Z</time>
      </trkpt>
      <trkpt lat="39.893622" lon="4.082031">
        <ele>19.829</ele>
        <time>2020-09-04T07:37:37Z</time>
      </trkpt>
      <trkpt lat="39.893576" lon="4.082010">
        <ele>18.895</ele>
        <time>2020-09-04T07:37:55Z</time>
      </trkpt>
      <trkpt lat="39.893568" lon="4.082012">
        <ele>18.449</ele>
        <time>2020-09-04T07:37:56Z</time>
      </trkpt>
      <trkpt lat="39.893422" lon="4.081948">
        <ele>16.423</ele>
        <time>2020-09-04T07:38:11Z</time>
      </trkpt>
      <trkpt lat="39.893403" lon="4.081943">
        <ele>16.008</ele>
        <time>2020-09-04T07:38:13Z</time>
      </trkpt>
      <trkpt lat="39.893363" lon="4.081905">
        <ele>15.574</ele>
        <time>2020-09-04T07:38:18Z</time>
      </trkpt>
      <trkpt lat="39.893331" lon="4.081885">
        <ele>15.076</ele>
        <time>2020-09-04T07:38:22Z</time>
      </trkpt>
      <trkpt lat="39.893293" lon="4.081859">
        <ele>14.599</ele>
        <time>2020-09-04T07:38:26Z</time>
      </trkpt>
      <trkpt lat="39.893278" lon="4.081842">
        <ele>14.596</ele>
        <time>2020-09-04T07:38:28Z</time>
      </trkpt>
      <trkpt lat="39.893198" lon="4.081795">
        <ele>13.624</ele>
        <time>2020-09-04T07:38:38Z</time>
      </trkpt>
      <trkpt lat="39.893109" lon="4.081746">
        <ele>12.171</ele>
        <time>2020-09-04T07:38:50Z</time>
      </trkpt>
      <trkpt lat="39.893019" lon="4.081745">
        <ele>11.682</ele>
        <time>2020-09-04T07:39:01Z</time>
      </trkpt>
      <trkpt lat="39.892903" lon="4.081745">
        <ele>10.776</ele>
        <time>2020-09-04T07:39:12Z</time>
      </trkpt>
      <trkpt lat="39.892850" lon="4.081741">
        <ele>10.255</ele>
        <time>2020-09-04T07:39:17Z</time>
      </trkpt>
      <trkpt lat="39.892799" lon="4.081755">
        <ele>9.707</ele>
        <time>2020-09-04T07:39:22Z</time>
      </trkpt>
      <trkpt lat="39.892767" lon="4.081769">
        <ele>9.217</ele>
        <time>2020-09-04T07:39:25Z</time>
      </trkpt>
      <trkpt lat="39.892675" lon="4.081807">
        <ele>8.308</ele>
        <time>2020-09-04T07:39:36Z</time>
      </trkpt>
      <trkpt lat="39.892603" lon="4.081795">
        <ele>8.330</ele>
        <time>2020-09-04T07:39:44Z</time>
      </trkpt>
      <trkpt lat="39.892535" lon="4.081815">
        <ele>6.312</ele>
        <time>2020-09-04T07:39:58Z</time>
      </trkpt>
      <trkpt lat="39.892464" lon="4.081823">
        <ele>3.595</ele>
        <time>2020-09-04T07:40:11Z</time>
      </trkpt>
      <trkpt lat="39.892423" lon="4.081848">
        <ele>1.592</ele>
        <time>2020-09-04T07:40:24Z</time>
      </trkpt>
      <trkpt lat="39.892391" lon="4.081856">
        <ele>1.190</ele>
        <time>2020-09-04T07:40:27Z</time>
      </trkpt>
      <trkpt lat="39.892370" lon="4.081862">
        <ele>1.137</ele>
        <time>2020-09-04T07:40:29Z</time>
      </trkpt>
      <trkpt lat="39.892287" lon="4.081856">
        <ele>0.188</ele>
        <time>2020-09-04T07:40:37Z</time>
      </trkpt>
      <trkpt lat="39.892127" lon="4.081819">
        <ele>-1.822</ele>
        <time>2020-09-04T07:40:52Z</time>
      </trkpt>
      <trkpt lat="39.892049" lon="4.081885">
        <ele>-2.368</ele>
        <time>2020-09-04T07:41:05Z</time>
      </trkpt>
      <trkpt lat="39.891942" lon="4.081879">
        <ele>-3.342</ele>
        <time>2020-09-04T07:41:18Z</time>
      </trkpt>
      <trkpt lat="39.891908" lon="4.081870">
        <ele>-3.826</ele>
        <time>2020-09-04T07:41:23Z</time>
      </trkpt>
      <trkpt lat="39.891887" lon="4.081865">
        <ele>-4.208</ele>
        <time>2020-09-04T07:41:25Z</time>
      </trkpt>
      <trkpt lat="39.891818" lon="4.081868">
        <ele>-4.211</ele>
        <time>2020-09-04T07:41:33Z</time>
      </trkpt>
      <trkpt lat="39.891716" lon="4.081858">
        <ele>-4.263</ele>
        <time>2020-09-04T07:41:45Z</time>
      </trkpt>
      <trkpt lat="39.891679" lon="4.081874">
        <ele>-4.736</ele>
        <time>2020-09-04T07:41:59Z</time>
      </trkpt>
      <trkpt lat="39.891643" lon="4.081889">
        <ele>-5.253</ele>
        <time>2020-09-04T07:42:04Z</time>
      </trkpt>
      <trkpt lat="39.891551" lon="4.081950">
        <ele>-5.261</ele>
        <time>2020-09-04T07:42:16Z</time>
      </trkpt>
      <trkpt lat="39.891476" lon="4.082048">
        <ele>-4.758</ele>
        <time>2020-09-04T07:42:29Z</time>
      </trkpt>
      <trkpt lat="39.891372" lon="4.082177">
        <ele>-4.749</ele>
        <time>2020-09-04T07:42:43Z</time>
      </trkpt>
      <trkpt lat="39.891372" lon="4.082195">
        <ele>-4.233</ele>
        <time>2020-09-04T07:42:59Z</time>
      </trkpt>
      <trkpt lat="39.891383" lon="4.082194">
        <ele>-4.293</ele>
        <time>2020-09-04T07:43:24Z</time>
      </trkpt>
      <trkpt lat="39.891386" lon="4.082191">
        <ele>-4.765</ele>
        <time>2020-09-04T07:43:34Z</time>
      </trkpt>
      <trkpt lat="39.891377" lon="4.082218">
        <ele>-5.221</ele>
        <time>2020-09-04T07:43:36Z</time>
      </trkpt>
      <trkpt lat="39.891347" lon="4.082344">
        <ele>-4.208</ele>
        <time>2020-09-04T07:43:49Z</time>
      </trkpt>
      <trkpt lat="39.891283" lon="4.082366">
        <ele>-2.894</ele>
        <time>2020-09-04T07:43:59Z</time>
      </trkpt>
      <trkpt lat="39.891285" lon="4.082404">
        <ele>-1.846</ele>
        <time>2020-09-04T07:44:03Z</time>
      </trkpt>
      <trkpt lat="39.891319" lon="4.082469">
        <ele>-0.489</ele>
        <time>2020-09-04T07:44:16Z</time>
      </trkpt>
      <trkpt lat="39.891322" lon="4.082465">
        <ele>-0.486</ele>
        <time>2020-09-04T07:44:36Z</time>
      </trkpt>
      <trkpt lat="39.891325" lon="4.082466">
        <ele>-0.494</ele>
        <time>2020-09-04T07:45:01Z</time>
      </trkpt>
      <trkpt lat="39.891372" lon="4.082571">
        <ele>0.161</ele>
        <time>2020-09-04T07:45:16Z</time>
      </trkpt>
      <trkpt lat="39.891385" lon="4.082698">
        <ele>2.012</ele>
        <time>2020-09-04T07:45:29Z</time>
      </trkpt>
      <trkpt lat="39.891409" lon="4.082723">
        <ele>1.166</ele>
        <time>2020-09-04T07:45:33Z</time>
      </trkpt>
      <trkpt lat="39.891434" lon="4.082854">
        <ele>2.053</ele>
        <time>2020-09-04T07:45:48Z</time>
      </trkpt>
      <trkpt lat="39.891441" lon="4.082919">
        <ele>3.904</ele>
        <time>2020-09-04T07:46:00Z</time>
      </trkpt>
      <trkpt lat="39.891479" lon="4.083069">
        <ele>5.414</ele>
        <time>2020-09-04T07:46:14Z</time>
      </trkpt>
      <trkpt lat="39.891356" lon="4.083105">
        <ele>7.308</ele>
        <time>2020-09-04T07:46:31Z</time>
      </trkpt>
      <trkpt lat="39.891396" lon="4.083192">
        <ele>8.330</ele>
        <time>2020-09-04T07:46:41Z</time>
      </trkpt>
      <trkpt lat="39.891443" lon="4.083233">
        <ele>8.712</ele>
        <time>2020-09-04T07:46:46Z</time>
      </trkpt>
      <trkpt lat="39.891470" lon="4.083306">
        <ele>10.255</ele>
        <time>2020-09-04T07:46:58Z</time>
      </trkpt>
      <trkpt lat="39.891478" lon="4.083459">
        <ele>11.142</ele>
        <time>2020-09-04T07:47:11Z</time>
      </trkpt>
      <trkpt lat="39.891478" lon="4.083567">
        <ele>12.690</ele>
        <time>2020-09-04T07:47:25Z</time>
      </trkpt>
      <trkpt lat="39.891490" lon="4.083725">
        <ele>14.527</ele>
        <time>2020-09-04T07:47:39Z</time>
      </trkpt>
      <trkpt lat="39.891500" lon="4.083751">
        <ele>14.578</ele>
        <time>2020-09-04T07:47:41Z</time>
      </trkpt>
      <trkpt lat="39.891617" lon="4.083945">
        <ele>15.032</ele>
        <time>2020-09-04T07:47:58Z</time>
      </trkpt>
      <trkpt lat="39.891626" lon="4.084005">
        <ele>15.565</ele>
        <time>2020-09-04T07:48:03Z</time>
      </trkpt>
      <trkpt lat="39.891635" lon="4.084030">
        <ele>15.568</ele>
        <time>2020-09-04T07:48:05Z</time>
      </trkpt>
      <trkpt lat="39.891747" lon="4.084141">
        <ele>16.414</ele>
        <time>2020-09-04T07:48:21Z</time>
      </trkpt>
      <trkpt lat="39.891762" lon="4.084318">
        <ele>17.908</ele>
        <time>2020-09-04T07:48:35Z</time>
      </trkpt>
      <trkpt lat="39.891880" lon="4.084491">
        <ele>18.491</ele>
        <time>2020-09-04T07:48:51Z</time>
      </trkpt>
      <trkpt lat="39.891975" lon="4.084645">
        <ele>19.333</ele>
        <time>2020-09-04T07:49:05Z</time>
      </trkpt>
      <trkpt lat="39.891998" lon="4.084700">
        <ele>20.326</ele>
        <time>2020-09-04T07:49:10Z</time>
      </trkpt>
      <trkpt lat="39.892070" lon="4.084755">
        <ele>20.873</ele>
        <time>2020-09-04T07:49:25Z</time>
      </trkpt>
      <trkpt lat="39.892074" lon="4.084741">
        <ele>20.881</ele>
        <time>2020-09-04T07:49:52Z</time>
      </trkpt>
      <trkpt lat="39.892077" lon="4.084739">
        <ele>20.898</ele>
        <time>2020-09-04T07:50:16Z</time>
      </trkpt>
      <trkpt lat="39.892129" lon="4.084765">
        <ele>19.839</ele>
        <time>2020-09-04T07:50:29Z</time>
      </trkpt>
      <trkpt lat="39.892218" lon="4.084886">
        <ele>20.883</ele>
        <time>2020-09-04T07:50:42Z</time>
      </trkpt>
      <trkpt lat="39.892220" lon="4.084901">
        <ele>20.886</ele>
        <time>2020-09-04T07:50:43Z</time>
      </trkpt>
      <trkpt lat="39.892238" lon="4.084974">
        <ele>21.260</ele>
        <time>2020-09-04T07:50:49Z</time>
      </trkpt>
      <trkpt lat="39.892267" lon="4.085092">
        <ele>21.726</ele>
        <time>2020-09-04T07:50:58Z</time>
      </trkpt>
      <trkpt lat="39.892285" lon="4.085177">
        <ele>22.208</ele>
        <time>2020-09-04T07:51:04Z</time>
      </trkpt>
      <trkpt lat="39.892344" lon="4.085322">
        <ele>23.233</ele>
        <time>2020-09-04T07:51:17Z</time>
      </trkpt>
      <trkpt lat="39.892354" lon="4.085373">
        <ele>23.645</ele>
        <time>2020-09-04T07:51:21Z</time>
      </trkpt>
      <trkpt lat="39.892340" lon="4.085518">
        <ele>24.668</ele>
        <time>2020-09-04T07:51:35Z</time>
      </trkpt>
      <trkpt lat="39.892291" lon="4.085603">
        <ele>24.635</ele>
        <time>2020-09-04T07:51:43Z</time>
      </trkpt>
      <trkpt lat="39.892258" lon="4.085656">
        <ele>25.143</ele>
        <time>2020-09-04T07:51:57Z</time>
      </trkpt>
      <trkpt lat="39.892220" lon="4.085794">
        <ele>26.040</ele>
        <time>2020-09-04T07:52:16Z</time>
      </trkpt>
      <trkpt lat="39.892263" lon="4.085946">
        <ele>27.031</ele>
        <time>2020-09-04T07:52:30Z</time>
      </trkpt>
      <trkpt lat="39.892287" lon="4.086027">
        <ele>27.525</ele>
        <time>2020-09-04T07:52:45Z</time>
      </trkpt>
      <trkpt lat="39.892293" lon="4.086021">
        <ele>28.037</ele>
        <time>2020-09-04T07:53:08Z</time>
      </trkpt>
      <trkpt lat="39.892328" lon="4.086089">
        <ele>28.049</ele>
        <time>2020-09-04T07:53:23Z</time>
      </trkpt>
      <trkpt lat="39.892394" lon="4.086197">
        <ele>28.913</ele>
        <time>2020-09-04T07:53:34Z</time>
      </trkpt>
      <trkpt lat="39.892464" lon="4.086310">
        <ele>30.408</ele>
        <time>2020-09-04T07:53:47Z</time>
      </trkpt>
      <trkpt lat="39.892579" lon="4.086406">
        <ele>30.968</ele>
        <time>2020-09-04T07:54:00Z</time>
      </trkpt>
      <trkpt lat="39.892616" lon="4.086575">
        <ele>32.330</ele>
        <time>2020-09-04T07:54:14Z</time>
      </trkpt>
      <trkpt lat="39.892622" lon="4.086712">
        <ele>33.743</ele>
        <time>2020-09-04T07:54:27Z</time>
      </trkpt>
      <trkpt lat="39.892646" lon="4.086859">
        <ele>34.220</ele>
        <time>2020-09-04T07:54:39Z</time>
      </trkpt>
      <trkpt lat="39.892604" lon="4.086967">
        <ele>36.658</ele>
        <time>2020-09-04T07:54:55Z</time>
      </trkpt>
      <trkpt lat="39.892533" lon="4.086990">
        <ele>37.125</ele>
        <time>2020-09-04T07:55:07Z</time>
      </trkpt>
      <trkpt lat="39.892470" lon="4.086995">
        <ele>38.546</ele>
        <time>2020-09-04T07:55:20Z</time>
      </trkpt>
      <trkpt lat="39.892440" lon="4.086990">
        <ele>40.990</ele>
        <time>2020-09-04T07:55:34Z</time>
      </trkpt>
      <trkpt lat="39.892400" lon="4.087130">
        <ele>42.916</ele>
        <time>2020-09-04T07:55:50Z</time>
      </trkpt>
      <trkpt lat="39.892339" lon="4.087209">
        <ele>44.876</ele>
        <time>2020-09-04T07:56:05Z</time>
      </trkpt>
      <trkpt lat="39.892283" lon="4.087269">
        <ele>46.213</ele>
        <time>2020-09-04T07:56:17Z</time>
      </trkpt>
      <trkpt lat="39.892250" lon="4.087373">
        <ele>47.708</ele>
        <time>2020-09-04T07:56:30Z</time>
      </trkpt>
      <trkpt lat="39.892228" lon="4.087397">
        <ele>48.696</ele>
        <time>2020-09-04T07:56:47Z</time>
      </trkpt>
      <trkpt lat="39.892180" lon="4.087403">
        <ele>50.658</ele>
        <time>2020-09-04T07:57:01Z</time>
      </trkpt>
      <trkpt lat="39.892126" lon="4.087528">
        <ele>50.621</ele>
        <time>2020-09-04T07:57:15Z</time>
      </trkpt>
      <trkpt lat="39.892179" lon="4.087683">
        <ele>50.118</ele>
        <time>2020-09-04T07:57:32Z</time>
      </trkpt>
      <trkpt lat="39.892174" lon="4.087764">
        <ele>52.096</ele>
        <time>2020-09-04T07:57:42Z</time>
      </trkpt>
      <trkpt lat="39.892258" lon="4.087784">
        <ele>53.913</ele>
        <time>2020-09-04T07:57:55Z</time>
      </trkpt>
      <trkpt lat="39.892219" lon="4.087877">
        <ele>55.474</ele>
        <time>2020-09-04T07:58:09Z</time>
      </trkpt>
      <trkpt lat="39.892206" lon="4.087887">
        <ele>55.458</ele>
        <time>2020-09-04T07:58:11Z</time>
      </trkpt>
      <trkpt lat="39.892171" lon="4.087913">
        <ele>55.433</ele>
        <time>2020-09-04T07:58:15Z</time>
      </trkpt>
      <trkpt lat="39.892037" lon="4.087991">
        <ele>56.323</ele>
        <time>2020-09-04T07:58:30Z</time>
      </trkpt>
      <trkpt lat="39.892005" lon="4.088022">
        <ele>56.815</ele>
        <time>2020-09-04T07:58:41Z</time>
      </trkpt>
      <trkpt lat="39.891987" lon="4.088045">
        <ele>57.308</ele>
        <time>2020-09-04T07:58:58Z</time>
      </trkpt>
      <trkpt lat="39.892007" lon="4.088118">
        <ele>58.338</ele>
        <time>2020-09-04T07:59:17Z</time>
      </trkpt>
      <trkpt lat="39.892028" lon="4.088297">
        <ele>60.270</ele>
        <time>2020-09-04T07:59:33Z</time>
      </trkpt>
      <trkpt lat="39.892070" lon="4.088479">
        <ele>61.193</ele>
        <time>2020-09-04T07:59:49Z</time>
      </trkpt>
      <trkpt lat="39.892109" lon="4.088706">
        <ele>63.190</ele>
        <time>2020-09-04T08:00:12Z</time>
      </trkpt>
      <trkpt lat="39.892123" lon="4.088680">
        <ele>63.158</ele>
        <time>2020-09-04T08:00:30Z</time>
      </trkpt>
      <trkpt lat="39.892161" lon="4.088702">
        <ele>64.055</ele>
        <time>2020-09-04T08:00:46Z</time>
      </trkpt>
      <trkpt lat="39.892162" lon="4.088806">
        <ele>64.046</ele>
        <time>2020-09-04T08:00:49Z</time>
      </trkpt>
      <trkpt lat="39.892200" lon="4.088964">
        <ele>65.550</ele>
        <time>2020-09-04T08:01:02Z</time>
      </trkpt>
      <trkpt lat="39.892250" lon="4.089167">
        <ele>66.472</ele>
        <time>2020-09-04T08:01:17Z</time>
      </trkpt>
      <trkpt lat="39.892299" lon="4.089385">
        <ele>66.413</ele>
        <time>2020-09-04T08:01:31Z</time>
      </trkpt>
      <trkpt lat="39.892321" lon="4.089586">
        <ele>66.414</ele>
        <time>2020-09-04T08:01:46Z</time>
      </trkpt>
      <trkpt lat="39.892337" lon="4.089670">
        <ele>66.408</ele>
        <time>2020-09-04T08:01:52Z</time>
      </trkpt>
      <trkpt lat="39.892352" lon="4.089708">
        <ele>66.472</ele>
        <time>2020-09-04T08:01:55Z</time>
      </trkpt>
      <trkpt lat="39.892392" lon="4.089889">
        <ele>66.924</ele>
        <time>2020-09-04T08:02:10Z</time>
      </trkpt>
      <trkpt lat="39.892394" lon="4.089943">
        <ele>66.937</ele>
        <time>2020-09-04T08:02:15Z</time>
      </trkpt>
      <trkpt lat="39.892425" lon="4.090003">
        <ele>66.974</ele>
        <time>2020-09-04T08:02:20Z</time>
      </trkpt>
      <trkpt lat="39.892478" lon="4.090206">
        <ele>67.442</ele>
        <time>2020-09-04T08:02:35Z</time>
      </trkpt>
      <trkpt lat="39.892533" lon="4.090392">
        <ele>68.339</ele>
        <time>2020-09-04T08:02:49Z</time>
      </trkpt>
      <trkpt lat="39.892568" lon="4.090497">
        <ele>68.380</ele>
        <time>2020-09-04T08:02:57Z</time>
      </trkpt>
      <trkpt lat="39.892587" lon="4.090707">
        <ele>68.844</ele>
        <time>2020-09-04T08:03:11Z</time>
      </trkpt>
      <trkpt lat="39.892607" lon="4.090749">
        <ele>68.879</ele>
        <time>2020-09-04T08:03:15Z</time>
      </trkpt>
      <trkpt lat="39.892629" lon="4.090870">
        <ele>69.305</ele>
        <time>2020-09-04T08:03:24Z</time>
      </trkpt>
      <trkpt lat="39.892614" lon="4.090997">
        <ele>69.325</ele>
        <time>2020-09-04T08:03:37Z</time>
      </trkpt>
      <trkpt lat="39.892611" lon="4.091010">
        <ele>69.308</ele>
        <time>2020-09-04T08:04:07Z</time>
      </trkpt>
      <trkpt lat="39.892620" lon="4.091046">
        <ele>69.312</ele>
        <time>2020-09-04T08:04:20Z</time>
      </trkpt>
      <trkpt lat="39.892655" lon="4.091141">
        <ele>69.864</ele>
        <time>2020-09-04T08:04:31Z</time>
      </trkpt>
      <trkpt lat="39.892713" lon="4.091348">
        <ele>70.357</ele>
        <time>2020-09-04T08:04:46Z</time>
      </trkpt>
      <trkpt lat="39.892760" lon="4.091574">
        <ele>70.334</ele>
        <time>2020-09-04T08:05:02Z</time>
      </trkpt>
      <trkpt lat="39.892772" lon="4.091648">
        <ele>70.352</ele>
        <time>2020-09-04T08:05:07Z</time>
      </trkpt>
      <trkpt lat="39.892851" lon="4.091903">
        <ele>70.349</ele>
        <time>2020-09-04T08:05:25Z</time>
      </trkpt>
      <trkpt lat="39.892919" lon="4.092126">
        <ele>70.330</ele>
        <time>2020-09-04T08:05:41Z</time>
      </trkpt>
      <trkpt lat="39.892981" lon="4.092335">
        <ele>69.884</ele>
        <time>2020-09-04T08:05:55Z</time>
      </trkpt>
      <trkpt lat="39.893060" lon="4.092574">
        <ele>69.854</ele>
        <time>2020-09-04T08:06:11Z</time>
      </trkpt>
      <trkpt lat="39.893164" lon="4.092812">
        <ele>69.356</ele>
        <time>2020-09-04T08:06:29Z</time>
      </trkpt>
      <trkpt lat="39.893177" lon="4.092852">
        <ele>69.311</ele>
        <time>2020-09-04T08:06:32Z</time>
      </trkpt>
      <trkpt lat="39.893219" lon="4.092968">
        <ele>69.308</ele>
        <time>2020-09-04T08:06:47Z</time>
      </trkpt>
      <trkpt lat="39.893219" lon="4.092970">
        <ele>69.390</ele>
        <time>2020-09-04T08:06:48Z</time>
      </trkpt>
      <trkpt lat="39.893242" lon="4.093055">
        <ele>69.362</ele>
        <time>2020-09-04T08:06:54Z</time>
      </trkpt>
      <trkpt lat="39.893338" lon="4.093299">
        <ele>68.815</ele>
        <time>2020-09-04T08:07:10Z</time>
      </trkpt>
      <trkpt lat="39.893365" lon="4.093351">
        <ele>68.842</ele>
        <time>2020-09-04T08:07:14Z</time>
      </trkpt>
      <trkpt lat="39.893400" lon="4.093445">
        <ele>68.860</ele>
        <time>2020-09-04T08:07:21Z</time>
      </trkpt>
      <trkpt lat="39.893485" lon="4.093646">
        <ele>68.347</ele>
        <time>2020-09-04T08:07:36Z</time>
      </trkpt>
      <trkpt lat="39.893490" lon="4.093673">
        <ele>68.368</ele>
        <time>2020-09-04T08:07:38Z</time>
      </trkpt>
      <trkpt lat="39.893576" lon="4.093876">
        <ele>68.372</ele>
        <time>2020-09-04T08:07:54Z</time>
      </trkpt>
      <trkpt lat="39.893630" lon="4.093990">
        <ele>68.857</ele>
        <time>2020-09-04T08:08:04Z</time>
      </trkpt>
      <trkpt lat="39.893723" lon="4.094259">
        <ele>68.800</ele>
        <time>2020-09-04T08:08:22Z</time>
      </trkpt>
      <trkpt lat="39.893835" lon="4.094514">
        <ele>68.820</ele>
        <time>2020-09-04T08:08:41Z</time>
      </trkpt>
      <trkpt lat="39.893939" lon="4.094695">
        <ele>69.308</ele>
        <time>2020-09-04T08:08:56Z</time>
      </trkpt>
      <trkpt lat="39.894030" lon="4.094886">
        <ele>69.370</ele>
        <time>2020-09-04T08:09:11Z</time>
      </trkpt>
      <trkpt lat="39.894037" lon="4.094906">
        <ele>70.332</ele>
        <time>2020-09-04T08:09:24Z</time>
      </trkpt>
      <trkpt lat="39.894049" lon="4.094914">
        <ele>69.385</ele>
        <time>2020-09-04T08:09:41Z</time>
      </trkpt>
      <trkpt lat="39.894029" lon="4.094908">
        <ele>69.372</ele>
        <time>2020-09-04T08:09:54Z</time>
      </trkpt>
      <trkpt lat="39.894053" lon="4.094918">
        <ele>69.350</ele>
        <time>2020-09-04T08:10:13Z</time>
      </trkpt>
      <trkpt lat="39.894120" lon="4.095057">
        <ele>68.877</ele>
        <time>2020-09-04T08:10:22Z</time>
      </trkpt>
      <trkpt lat="39.894171" lon="4.095140">
        <ele>69.318</ele>
        <time>2020-09-04T08:10:28Z</time>
      </trkpt>
      <trkpt lat="39.894181" lon="4.095187">
        <ele>68.862</ele>
        <time>2020-09-04T08:10:31Z</time>
      </trkpt>
      <trkpt lat="39.894242" lon="4.095231">
        <ele>68.873</ele>
        <time>2020-09-04T08:10:37Z</time>
      </trkpt>
      <trkpt lat="39.894373" lon="4.095481">
        <ele>67.985</ele>
        <time>2020-09-04T08:10:56Z</time>
      </trkpt>
      <trkpt lat="39.894473" lon="4.095653">
        <ele>66.913</ele>
        <time>2020-09-04T08:11:10Z</time>
      </trkpt>
      <trkpt lat="39.894595" lon="4.095841">
        <ele>66.908</ele>
        <time>2020-09-04T08:11:26Z</time>
      </trkpt>
      <trkpt lat="39.894726" lon="4.096062">
        <ele>66.432</ele>
        <time>2020-09-04T08:11:43Z</time>
      </trkpt>
      <trkpt lat="39.894834" lon="4.096195">
        <ele>66.464</ele>
        <time>2020-09-04T08:11:56Z</time>
      </trkpt>
      <trkpt lat="39.894895" lon="4.096223">
        <ele>65.927</ele>
        <time>2020-09-04T08:12:03Z</time>
      </trkpt>
      <trkpt lat="39.894946" lon="4.096267">
        <ele>65.584</ele>
        <time>2020-09-04T08:12:08Z</time>
      </trkpt>
      <trkpt lat="39.894961" lon="4.096352">
        <ele>64.572</ele>
        <time>2020-09-04T08:12:22Z</time>
      </trkpt>
      <trkpt lat="39.894961" lon="4.096421">
        <ele>63.179</ele>
        <time>2020-09-04T08:12:43Z</time>
      </trkpt>
      <trkpt lat="39.894975" lon="4.096450">
        <ele>62.650</ele>
        <time>2020-09-04T08:12:46Z</time>
      </trkpt>
      <trkpt lat="39.895081" lon="4.096619">
        <ele>61.194</ele>
        <time>2020-09-04T08:13:00Z</time>
      </trkpt>
      <trkpt lat="39.895219" lon="4.096799">
        <ele>59.775</ele>
        <time>2020-09-04T08:13:15Z</time>
      </trkpt>
      <trkpt lat="39.895329" lon="4.096990">
        <ele>59.728</ele>
        <time>2020-09-04T08:13:31Z</time>
      </trkpt>
      <trkpt lat="39.895370" lon="4.097071">
        <ele>59.720</ele>
        <time>2020-09-04T08:13:47Z</time>
      </trkpt>
      <trkpt lat="39.895353" lon="4.097097">
        <ele>59.208</ele>
        <time>2020-09-04T08:13:54Z</time>
      </trkpt>
      <trkpt lat="39.895181" lon="4.097513">
        <ele>60.792</ele>
        <time>2020-09-04T08:17:31Z</time>
      </trkpt>
      <trkpt lat="39.895177" lon="4.097511">
        <ele>60.774</ele>
        <time>2020-09-04T08:17:32Z</time>
      </trkpt>
      <trkpt lat="39.895197" lon="4.097502">
        <ele>61.167</ele>
        <time>2020-09-04T08:17:50Z</time>
      </trkpt>
      <trkpt lat="39.895185" lon="4.097504">
        <ele>61.684</ele>
        <time>2020-09-04T08:18:23Z</time>
      </trkpt>
      <trkpt lat="39.895200" lon="4.097545">
        <ele>61.172</ele>
        <time>2020-09-04T08:18:39Z</time>
      </trkpt>
      <trkpt lat="39.895215" lon="4.097587">
        <ele>60.759</ele>
        <time>2020-09-04T08:18:43Z</time>
      </trkpt>
      <trkpt lat="39.895199" lon="4.097621">
        <ele>60.760</ele>
        <time>2020-09-04T08:18:46Z</time>
      </trkpt>
      <trkpt lat="39.895128" lon="4.097712">
        <ele>60.784</ele>
        <time>2020-09-04T08:18:57Z</time>
      </trkpt>
      <trkpt lat="39.894997" lon="4.097930">
        <ele>60.791</ele>
        <time>2020-09-04T08:19:15Z</time>
      </trkpt>
      <trkpt lat="39.894882" lon="4.098146">
        <ele>59.281</ele>
        <time>2020-09-04T08:19:34Z</time>
      </trkpt>
      <trkpt lat="39.894876" lon="4.098250">
        <ele>58.319</ele>
        <time>2020-09-04T08:19:43Z</time>
      </trkpt>
      <trkpt lat="39.894892" lon="4.098515">
        <ele>57.808</ele>
        <time>2020-09-04T08:20:00Z</time>
      </trkpt>
      <trkpt lat="39.894874" lon="4.098713">
        <ele>57.894</ele>
        <time>2020-09-04T08:20:13Z</time>
      </trkpt>
      <trkpt lat="39.894831" lon="4.098950">
        <ele>57.396</ele>
        <time>2020-09-04T08:20:29Z</time>
      </trkpt>
      <trkpt lat="39.894826" lon="4.098962">
        <ele>58.369</ele>
        <time>2020-09-04T08:20:30Z</time>
      </trkpt>
      <trkpt lat="39.894770" lon="4.099052">
        <ele>56.886</ele>
        <time>2020-09-04T08:20:43Z</time>
      </trkpt>
      <trkpt lat="39.894752" lon="4.099091">
        <ele>57.344</ele>
        <time>2020-09-04T08:20:59Z</time>
      </trkpt>
      <trkpt lat="39.894739" lon="4.099219">
        <ele>56.821</ele>
        <time>2020-09-04T08:21:13Z</time>
      </trkpt>
      <trkpt lat="39.894736" lon="4.099207">
        <ele>56.882</ele>
        <time>2020-09-04T08:21:29Z</time>
      </trkpt>
      <trkpt lat="39.894761" lon="4.099234">
        <ele>56.876</ele>
        <time>2020-09-04T08:21:43Z</time>
      </trkpt>
      <trkpt lat="39.894725" lon="4.099125">
        <ele>56.856</ele>
        <time>2020-09-04T08:21:57Z</time>
      </trkpt>
      <trkpt lat="39.894677" lon="4.099072">
        <ele>56.859</ele>
        <time>2020-09-04T08:22:10Z</time>
      </trkpt>
      <trkpt lat="39.894697" lon="4.099100">
        <ele>56.814</ele>
        <time>2020-09-04T08:22:13Z</time>
      </trkpt>
      <trkpt lat="39.894807" lon="4.099284">
        <ele>56.308</ele>
        <time>2020-09-04T08:22:28Z</time>
      </trkpt>
      <trkpt lat="39.894864" lon="4.099534">
        <ele>56.360</ele>
        <time>2020-09-04T08:22:45Z</time>
      </trkpt>
      <trkpt lat="39.894880" lon="4.099720">
        <ele>56.352</ele>
        <time>2020-09-04T08:23:01Z</time>
      </trkpt>
      <trkpt lat="39.894882" lon="4.099713">
        <ele>56.375</ele>
        <time>2020-09-04T08:23:24Z</time>
      </trkpt>
      <trkpt lat="39.894910" lon="4.099901">
        <ele>56.392</ele>
        <time>2020-09-04T08:23:39Z</time>
      </trkpt>
      <trkpt lat="39.894928" lon="4.100033">
        <ele>56.390</ele>
        <time>2020-09-04T08:23:47Z</time>
      </trkpt>
      <trkpt lat="39.894945" lon="4.100084">
        <ele>56.357</ele>
        <time>2020-09-04T08:23:51Z</time>
      </trkpt>
      <trkpt lat="39.894971" lon="4.100356">
        <ele>56.348</ele>
        <time>2020-09-04T08:24:07Z</time>
      </trkpt>
      <trkpt lat="39.895013" lon="4.100620">
        <ele>56.822</ele>
        <time>2020-09-04T08:24:24Z</time>
      </trkpt>
      <trkpt lat="39.895018" lon="4.100665">
        <ele>56.896</ele>
        <time>2020-09-04T08:24:27Z</time>
      </trkpt>
      <trkpt lat="39.895036" lon="4.100800">
        <ele>57.331</ele>
        <time>2020-09-04T08:24:36Z</time>
      </trkpt>
      <trkpt lat="39.895077" lon="4.101073">
        <ele>58.324</ele>
        <time>2020-09-04T08:24:54Z</time>
      </trkpt>
      <trkpt lat="39.895107" lon="4.101350">
        <ele>59.208</ele>
        <time>2020-09-04T08:25:11Z</time>
      </trkpt>
      <trkpt lat="39.895140" lon="4.101617">
        <ele>59.784</ele>
        <time>2020-09-04T08:25:28Z</time>
      </trkpt>
      <trkpt lat="39.895193" lon="4.101902">
        <ele>59.786</ele>
        <time>2020-09-04T08:25:47Z</time>
      </trkpt>
      <trkpt lat="39.895224" lon="4.102170">
        <ele>60.299</ele>
        <time>2020-09-04T08:26:04Z</time>
      </trkpt>
      <trkpt lat="39.895233" lon="4.102212">
        <ele>60.726</ele>
        <time>2020-09-04T08:26:07Z</time>
      </trkpt>
      <trkpt lat="39.895260" lon="4.102456">
        <ele>60.774</ele>
        <time>2020-09-04T08:26:22Z</time>
      </trkpt>
      <trkpt lat="39.895294" lon="4.102690">
        <ele>60.721</ele>
        <time>2020-09-04T08:26:37Z</time>
      </trkpt>
      <trkpt lat="39.895309" lon="4.102874">
        <ele>60.762</ele>
        <time>2020-09-04T08:26:49Z</time>
      </trkpt>
      <trkpt lat="39.895360" lon="4.103131">
        <ele>60.796</ele>
        <time>2020-09-04T08:27:07Z</time>
      </trkpt>
      <trkpt lat="39.895367" lon="4.103182">
        <ele>60.714</ele>
        <time>2020-09-04T08:27:10Z</time>
      </trkpt>
      <trkpt lat="39.895402" lon="4.103436">
        <ele>60.754</ele>
        <time>2020-09-04T08:27:26Z</time>
      </trkpt>
      <trkpt lat="39.895422" lon="4.103653">
        <ele>60.709</ele>
        <time>2020-09-04T08:27:40Z</time>
      </trkpt>
      <trkpt lat="39.895461" lon="4.103894">
        <ele>60.208</ele>
        <time>2020-09-04T08:27:56Z</time>
      </trkpt>
      <trkpt lat="39.895525" lon="4.104136">
        <ele>60.796</ele>
        <time>2020-09-04T08:28:12Z</time>
      </trkpt>
      <trkpt lat="39.895629" lon="4.104368">
        <ele>60.238</ele>
        <time>2020-09-04T08:28:29Z</time>
      </trkpt>
      <trkpt lat="39.895723" lon="4.104579">
        <ele>60.761</ele>
        <time>2020-09-04T08:28:45Z</time>
      </trkpt>
      <trkpt lat="39.895821" lon="4.104802">
        <ele>60.738</ele>
        <time>2020-09-04T08:29:02Z</time>
      </trkpt>
      <trkpt lat="39.895859" lon="4.104875">
        <ele>60.716</ele>
        <time>2020-09-04T08:29:07Z</time>
      </trkpt>
      <trkpt lat="39.895886" lon="4.104915">
        <ele>60.743</ele>
        <time>2020-09-04T08:29:11Z</time>
      </trkpt>
      <trkpt lat="39.895990" lon="4.105133">
        <ele>60.774</ele>
        <time>2020-09-04T08:29:27Z</time>
      </trkpt>
      <trkpt lat="39.896086" lon="4.105345">
        <ele>61.158</ele>
        <time>2020-09-04T08:29:45Z</time>
      </trkpt>
      <trkpt lat="39.896103" lon="4.105377">
        <ele>61.156</ele>
        <time>2020-09-04T08:29:58Z</time>
      </trkpt>
      <trkpt lat="39.896135" lon="4.105438">
        <ele>61.159</ele>
        <time>2020-09-04T08:30:03Z</time>
      </trkpt>
      <trkpt lat="39.896236" lon="4.105604">
        <ele>62.114</ele>
        <time>2020-09-04T08:30:16Z</time>
      </trkpt>
      <trkpt lat="39.896325" lon="4.105846">
        <ele>61.608</ele>
        <time>2020-09-04T08:30:34Z</time>
      </trkpt>
      <trkpt lat="39.896367" lon="4.105890">
        <ele>61.640</ele>
        <time>2020-09-04T08:30:39Z</time>
      </trkpt>
      <trkpt lat="39.896522" lon="4.106132">
        <ele>62.172</ele>
        <time>2020-09-04T08:30:58Z</time>
      </trkpt>
      <trkpt lat="39.896630" lon="4.106216">
        <ele>62.645</ele>
        <time>2020-09-04T08:31:10Z</time>
      </trkpt>
      <trkpt lat="39.896782" lon="4.106282">
        <ele>62.632</ele>
        <time>2020-09-04T08:31:27Z</time>
      </trkpt>
      <trkpt lat="39.896824" lon="4.106287">
        <ele>62.680</ele>
        <time>2020-09-04T08:31:45Z</time>
      </trkpt>
      <trkpt lat="39.896830" lon="4.106394">
        <ele>62.157</ele>
        <time>2020-09-04T08:31:59Z</time>
      </trkpt>
      <trkpt lat="39.896825" lon="4.106481">
        <ele>61.188</ele>
        <time>2020-09-04T08:32:12Z</time>
      </trkpt>
      <trkpt lat="39.896802" lon="4.106582">
        <ele>58.752</ele>
        <time>2020-09-04T08:32:25Z</time>
      </trkpt>
      <trkpt lat="39.896801" lon="4.106639">
        <ele>58.721</ele>
        <time>2020-09-04T08:32:29Z</time>
      </trkpt>
      <trkpt lat="39.896730" lon="4.106867">
        <ele>56.841</ele>
        <time>2020-09-04T08:32:46Z</time>
      </trkpt>
      <trkpt lat="39.896731" lon="4.107006">
        <ele>56.305</ele>
        <time>2020-09-04T08:32:59Z</time>
      </trkpt>
      <trkpt lat="39.896668" lon="4.107178">
        <ele>59.208</ele>
        <time>2020-09-04T08:33:17Z</time>
      </trkpt>
      <trkpt lat="39.896585" lon="4.107392">
        <ele>59.287</ele>
        <time>2020-09-04T08:33:30Z</time>
      </trkpt>
      <trkpt lat="39.896580" lon="4.107419">
        <ele>59.259</ele>
        <time>2020-09-04T08:33:32Z</time>
      </trkpt>
      <trkpt lat="39.896565" lon="4.107511">
        <ele>59.752</ele>
        <time>2020-09-04T08:33:39Z</time>
      </trkpt>
      <trkpt lat="39.896569" lon="4.107633">
        <ele>60.289</ele>
        <time>2020-09-04T08:33:49Z</time>
      </trkpt>
      <trkpt lat="39.896558" lon="4.107894">
        <ele>60.737</ele>
        <time>2020-09-04T08:34:05Z</time>
      </trkpt>
      <trkpt lat="39.896570" lon="4.107980">
        <ele>62.664</ele>
        <time>2020-09-04T08:34:17Z</time>
      </trkpt>
      <trkpt lat="39.896567" lon="4.107993">
        <ele>62.675</ele>
        <time>2020-09-04T08:34:18Z</time>
      </trkpt>
      <trkpt lat="39.896507" lon="4.108192">
        <ele>62.189</ele>
        <time>2020-09-04T08:34:31Z</time>
      </trkpt>
      <trkpt lat="39.896474" lon="4.108407">
        <ele>63.136</ele>
        <time>2020-09-04T08:34:46Z</time>
      </trkpt>
      <trkpt lat="39.896407" lon="4.108592">
        <ele>63.117</ele>
        <time>2020-09-04T08:35:02Z</time>
      </trkpt>
      <trkpt lat="39.896387" lon="4.108616">
        <ele>64.018</ele>
        <time>2020-09-04T08:35:13Z</time>
      </trkpt>
      <trkpt lat="39.896358" lon="4.108594">
        <ele>63.508</ele>
        <time>2020-09-04T08:35:28Z</time>
      </trkpt>
      <trkpt lat="39.896373" lon="4.108605">
        <ele>63.518</ele>
        <time>2020-09-04T08:35:46Z</time>
      </trkpt>
      <trkpt lat="39.896388" lon="4.108607">
        <ele>64.090</ele>
        <time>2020-09-04T08:36:02Z</time>
      </trkpt>
      <trkpt lat="39.896386" lon="4.108601">
        <ele>64.083</ele>
        <time>2020-09-04T08:36:23Z</time>
      </trkpt>
      <trkpt lat="39.896345" lon="4.108570">
        <ele>63.520</ele>
        <time>2020-09-04T08:36:36Z</time>
      </trkpt>
      <trkpt lat="39.896264" lon="4.108513">
        <ele>64.068</ele>
        <time>2020-09-04T08:36:49Z</time>
      </trkpt>
      <trkpt lat="39.896064" lon="4.108389">
        <ele>63.575</ele>
        <time>2020-09-04T08:37:09Z</time>
      </trkpt>
      <trkpt lat="39.895998" lon="4.108339">
        <ele>63.596</ele>
        <time>2020-09-04T08:37:24Z</time>
      </trkpt>
      <trkpt lat="39.895991" lon="4.108338">
        <ele>63.140</ele>
        <time>2020-09-04T08:37:26Z</time>
      </trkpt>
      <trkpt lat="39.895974" lon="4.108323">
        <ele>63.191</ele>
        <time>2020-09-04T08:37:28Z</time>
      </trkpt>
      <trkpt lat="39.895900" lon="4.108261">
        <ele>63.181</ele>
        <time>2020-09-04T08:37:36Z</time>
      </trkpt>
      <trkpt lat="39.895707" lon="4.108057">
        <ele>63.119</ele>
        <time>2020-09-04T08:37:56Z</time>
      </trkpt>
      <trkpt lat="39.895684" lon="4.108025">
        <ele>63.108</ele>
        <time>2020-09-04T08:37:59Z</time>
      </trkpt>
      <trkpt lat="39.895513" lon="4.107859">
        <ele>63.174</ele>
        <time>2020-09-04T08:38:16Z</time>
      </trkpt>
      <trkpt lat="39.895353" lon="4.107703">
        <ele>63.586</ele>
        <time>2020-09-04T08:38:33Z</time>
      </trkpt>
      <trkpt lat="39.895208" lon="4.107589">
        <ele>63.529</ele>
        <time>2020-09-04T08:38:48Z</time>
      </trkpt>
      <trkpt lat="39.895050" lon="4.107462">
        <ele>63.526</ele>
        <time>2020-09-04T08:39:03Z</time>
      </trkpt>
      <trkpt lat="39.894895" lon="4.107340">
        <ele>64.594</ele>
        <time>2020-09-04T08:39:18Z</time>
      </trkpt>
      <trkpt lat="39.894730" lon="4.107227">
        <ele>64.071</ele>
        <time>2020-09-04T08:39:34Z</time>
      </trkpt>
      <trkpt lat="39.894536" lon="4.107087">
        <ele>63.552</ele>
        <time>2020-09-04T08:39:52Z</time>
      </trkpt>
      <trkpt lat="39.894432" lon="4.106995">
        <ele>63.546</ele>
        <time>2020-09-04T08:40:02Z</time>
      </trkpt>
      <trkpt lat="39.894252" lon="4.106869">
        <ele>64.022</ele>
        <time>2020-09-04T08:40:19Z</time>
      </trkpt>
      <trkpt lat="39.894070" lon="4.106743">
        <ele>64.062</ele>
        <time>2020-09-04T08:40:36Z</time>
      </trkpt>
      <trkpt lat="39.893909" lon="4.106642">
        <ele>63.508</ele>
        <time>2020-09-04T08:40:51Z</time>
      </trkpt>
      <trkpt lat="39.893800" lon="4.106562">
        <ele>63.108</ele>
        <time>2020-09-04T08:41:01Z</time>
      </trkpt>
      <trkpt lat="39.893746" lon="4.106576">
        <ele>63.127</ele>
        <time>2020-09-04T08:41:12Z</time>
      </trkpt>
      <trkpt lat="39.893740" lon="4.106585">
        <ele>62.619</ele>
        <time>2020-09-04T08:41:13Z</time>
      </trkpt>
      <trkpt lat="39.893611" lon="4.106743">
        <ele>63.112</ele>
        <time>2020-09-04T08:41:28Z</time>
      </trkpt>
      <trkpt lat="39.893500" lon="4.106945">
        <ele>63.139</ele>
        <time>2020-09-04T08:41:44Z</time>
      </trkpt>
      <trkpt lat="39.893424" lon="4.107176">
        <ele>63.127</ele>
        <time>2020-09-04T08:42:00Z</time>
      </trkpt>
      <trkpt lat="39.893345" lon="4.107441">
        <ele>63.544</ele>
        <time>2020-09-04T08:42:18Z</time>
      </trkpt>
      <trkpt lat="39.893270" lon="4.107657">
        <ele>64.075</ele>
        <time>2020-09-04T08:42:34Z</time>
      </trkpt>
      <trkpt lat="39.893187" lon="4.107875">
        <ele>64.529</ele>
        <time>2020-09-04T08:42:50Z</time>
      </trkpt>
      <trkpt lat="39.893098" lon="4.108130">
        <ele>65.062</ele>
        <time>2020-09-04T08:43:09Z</time>
      </trkpt>
      <trkpt lat="39.893044" lon="4.108375">
        <ele>64.583</ele>
        <time>2020-09-04T08:43:26Z</time>
      </trkpt>
      <trkpt lat="39.892991" lon="4.108656">
        <ele>64.011</ele>
        <time>2020-09-04T08:43:45Z</time>
      </trkpt>
      <trkpt lat="39.892975" lon="4.108880">
        <ele>64.008</ele>
        <time>2020-09-04T08:44:00Z</time>
      </trkpt>
      <trkpt lat="39.892942" lon="4.109122">
        <ele>63.571</ele>
        <time>2020-09-04T08:44:16Z</time>
      </trkpt>
      <trkpt lat="39.892886" lon="4.109415">
        <ele>63.123</ele>
        <time>2020-09-04T08:44:36Z</time>
      </trkpt>
      <trkpt lat="39.892838" lon="4.109674">
        <ele>63.146</ele>
        <time>2020-09-04T08:44:53Z</time>
      </trkpt>
      <trkpt lat="39.892801" lon="4.109936">
        <ele>62.173</ele>
        <time>2020-09-04T08:45:10Z</time>
      </trkpt>
      <trkpt lat="39.892741" lon="4.110191">
        <ele>61.681</ele>
        <time>2020-09-04T08:45:28Z</time>
      </trkpt>
      <trkpt lat="39.892726" lon="4.110412">
        <ele>60.728</ele>
        <time>2020-09-04T08:45:43Z</time>
      </trkpt>
      <trkpt lat="39.892707" lon="4.110625">
        <ele>59.269</ele>
        <time>2020-09-04T08:45:59Z</time>
      </trkpt>
      <trkpt lat="39.892673" lon="4.110830">
        <ele>57.863</ele>
        <time>2020-09-04T08:46:16Z</time>
      </trkpt>
      <trkpt lat="39.892672" lon="4.110860">
        <ele>57.875</ele>
        <time>2020-09-04T08:46:19Z</time>
      </trkpt>
      <trkpt lat="39.892671" lon="4.110889">
        <ele>57.328</ele>
        <time>2020-09-04T08:46:21Z</time>
      </trkpt>
      <trkpt lat="39.892649" lon="4.111092">
        <ele>56.320</ele>
        <time>2020-09-04T08:46:36Z</time>
      </trkpt>
      <trkpt lat="39.892632" lon="4.111186">
        <ele>56.308</ele>
        <time>2020-09-04T08:46:42Z</time>
      </trkpt>
      <trkpt lat="39.892624" lon="4.111257">
        <ele>56.352</ele>
        <time>2020-09-04T08:46:46Z</time>
      </trkpt>
      <trkpt lat="39.892602" lon="4.111483">
        <ele>55.484</ele>
        <time>2020-09-04T08:47:01Z</time>
      </trkpt>
      <trkpt lat="39.892593" lon="4.111596">
        <ele>54.997</ele>
        <time>2020-09-04T08:47:09Z</time>
      </trkpt>
      <trkpt lat="39.892576" lon="4.111699">
        <ele>54.934</ele>
        <time>2020-09-04T08:47:15Z</time>
      </trkpt>
      <trkpt lat="39.892539" lon="4.111980">
        <ele>53.982</ele>
        <time>2020-09-04T08:47:35Z</time>
      </trkpt>
      <trkpt lat="39.892514" lon="4.112214">
        <ele>53.469</ele>
        <time>2020-09-04T08:47:50Z</time>
      </trkpt>
      <trkpt lat="39.892434" lon="4.112448">
        <ele>52.570</ele>
        <time>2020-09-04T08:48:07Z</time>
      </trkpt>
      <trkpt lat="39.892395" lon="4.112590">
        <ele>51.574</ele>
        <time>2020-09-04T08:48:18Z</time>
      </trkpt>
      <trkpt lat="39.892393" lon="4.112624">
        <ele>51.027</ele>
        <time>2020-09-04T08:48:20Z</time>
      </trkpt>
      <trkpt lat="39.892394" lon="4.112870">
        <ele>50.668</ele>
        <time>2020-09-04T08:48:36Z</time>
      </trkpt>
      <trkpt lat="39.892395" lon="4.113082">
        <ele>49.114</ele>
        <time>2020-09-04T08:48:52Z</time>
      </trkpt>
      <trkpt lat="39.892401" lon="4.113180">
        <ele>49.108</ele>
        <time>2020-09-04T08:48:59Z</time>
      </trkpt>
      <trkpt lat="39.892399" lon="4.113407">
        <ele>48.287</ele>
        <time>2020-09-04T08:49:14Z</time>
      </trkpt>
      <trkpt lat="39.892397" lon="4.113573">
        <ele>47.789</ele>
        <time>2020-09-04T08:49:26Z</time>
      </trkpt>
      <trkpt lat="39.892392" lon="4.113770">
        <ele>46.742</ele>
        <time>2020-09-04T08:49:39Z</time>
      </trkpt>
      <trkpt lat="39.892399" lon="4.113838">
        <ele>46.799</ele>
        <time>2020-09-04T08:49:43Z</time>
      </trkpt>
      <trkpt lat="39.892363" lon="4.114040">
        <ele>44.347</ele>
        <time>2020-09-04T08:49:59Z</time>
      </trkpt>
      <trkpt lat="39.892311" lon="4.114202">
        <ele>42.934</ele>
        <time>2020-09-04T08:50:13Z</time>
      </trkpt>
      <trkpt lat="39.892290" lon="4.114259">
        <ele>41.935</ele>
        <time>2020-09-04T08:50:17Z</time>
      </trkpt>
      <trkpt lat="39.892172" lon="4.114427">
        <ele>40.579</ele>
        <time>2020-09-04T08:50:33Z</time>
      </trkpt>
      <trkpt lat="39.892152" lon="4.114443">
        <ele>40.584</ele>
        <time>2020-09-04T08:50:35Z</time>
      </trkpt>
      <trkpt lat="39.891980" lon="4.114592">
        <ele>39.007</ele>
        <time>2020-09-04T08:50:53Z</time>
      </trkpt>
      <trkpt lat="39.891845" lon="4.114717">
        <ele>38.517</ele>
        <time>2020-09-04T08:51:08Z</time>
      </trkpt>
      <trkpt lat="39.891712" lon="4.114809">
        <ele>38.108</ele>
        <time>2020-09-04T08:51:22Z</time>
      </trkpt>
      <trkpt lat="39.891526" lon="4.114971">
        <ele>37.153</ele>
        <time>2020-09-04T08:51:40Z</time>
      </trkpt>
      <trkpt lat="39.891349" lon="4.115110">
        <ele>36.125</ele>
        <time>2020-09-04T08:51:58Z</time>
      </trkpt>
      <trkpt lat="39.891203" lon="4.115262">
        <ele>35.728</ele>
        <time>2020-09-04T08:52:13Z</time>
      </trkpt>
      <trkpt lat="39.891037" lon="4.115415">
        <ele>34.775</ele>
        <time>2020-09-04T08:52:30Z</time>
      </trkpt>
      <trkpt lat="39.890961" lon="4.115508">
        <ele>34.223</ele>
        <time>2020-09-04T08:52:38Z</time>
      </trkpt>
      <trkpt lat="39.890805" lon="4.115678">
        <ele>34.220</ele>
        <time>2020-09-04T08:52:55Z</time>
      </trkpt>
      <trkpt lat="39.890661" lon="4.115848">
        <ele>33.751</ele>
        <time>2020-09-04T08:53:11Z</time>
      </trkpt>
      <trkpt lat="39.890570" lon="4.116045">
        <ele>33.775</ele>
        <time>2020-09-04T08:53:28Z</time>
      </trkpt>
      <trkpt lat="39.890474" lon="4.116253">
        <ele>33.732</ele>
        <time>2020-09-04T08:53:44Z</time>
      </trkpt>
      <trkpt lat="39.890447" lon="4.116289">
        <ele>33.792</ele>
        <time>2020-09-04T08:53:47Z</time>
      </trkpt>
      <trkpt lat="39.890316" lon="4.116497">
        <ele>32.311</ele>
        <time>2020-09-04T08:54:05Z</time>
      </trkpt>
      <trkpt lat="39.890244" lon="4.116707">
        <ele>31.308</ele>
        <time>2020-09-04T08:54:19Z</time>
      </trkpt>
      <trkpt lat="39.890238" lon="4.116805">
        <ele>31.368</ele>
        <time>2020-09-04T08:54:26Z</time>
      </trkpt>
      <trkpt lat="39.890230" lon="4.116952">
        <ele>31.380</ele>
        <time>2020-09-04T08:54:33Z</time>
      </trkpt>
      <trkpt lat="39.890255" lon="4.117124">
        <ele>31.343</ele>
        <time>2020-09-04T08:54:45Z</time>
      </trkpt>
      <trkpt lat="39.890248" lon="4.117288">
        <ele>30.490</ele>
        <time>2020-09-04T08:54:55Z</time>
      </trkpt>
      <trkpt lat="39.890183" lon="4.117539">
        <ele>28.558</ele>
        <time>2020-09-04T08:55:12Z</time>
      </trkpt>
      <trkpt lat="39.890148" lon="4.117620">
        <ele>27.565</ele>
        <time>2020-09-04T08:55:19Z</time>
      </trkpt>
      <trkpt lat="39.890017" lon="4.117729">
        <ele>26.576</ele>
        <time>2020-09-04T08:55:36Z</time>
      </trkpt>
      <trkpt lat="39.889851" lon="4.117842">
        <ele>26.530</ele>
        <time>2020-09-04T08:55:54Z</time>
      </trkpt>
      <trkpt lat="39.889736" lon="4.117909">
        <ele>25.626</ele>
        <time>2020-09-04T08:56:10Z</time>
      </trkpt>
      <trkpt lat="39.889708" lon="4.117925">
        <ele>25.647</ele>
        <time>2020-09-04T08:56:19Z</time>
      </trkpt>
      <trkpt lat="39.889537" lon="4.117995">
        <ele>23.611</ele>
        <time>2020-09-04T08:56:35Z</time>
      </trkpt>
      <trkpt lat="39.889344" lon="4.118054">
        <ele>22.708</ele>
        <time>2020-09-04T08:56:52Z</time>
      </trkpt>
      <trkpt lat="39.889322" lon="4.118063">
        <ele>22.757</ele>
        <time>2020-09-04T08:56:54Z</time>
      </trkpt>
      <trkpt lat="39.889236" lon="4.118098">
        <ele>22.239</ele>
        <time>2020-09-04T08:57:03Z</time>
      </trkpt>
      <trkpt lat="39.889124" lon="4.118171">
        <ele>22.212</ele>
        <time>2020-09-04T08:57:13Z</time>
      </trkpt>
      <trkpt lat="39.888975" lon="4.118338">
        <ele>21.789</ele>
        <time>2020-09-04T08:57:31Z</time>
      </trkpt>
      <trkpt lat="39.888940" lon="4.118392">
        <ele>21.217</ele>
        <time>2020-09-04T08:57:36Z</time>
      </trkpt>
      <trkpt lat="39.888858" lon="4.118571">
        <ele>20.884</ele>
        <time>2020-09-04T08:57:52Z</time>
      </trkpt>
      <trkpt lat="39.888709" lon="4.118715">
        <ele>19.875</ele>
        <time>2020-09-04T08:58:09Z</time>
      </trkpt>
      <trkpt lat="39.888541" lon="4.118826">
        <ele>18.889</ele>
        <time>2020-09-04T08:58:25Z</time>
      </trkpt>
      <trkpt lat="39.888445" lon="4.118865">
        <ele>17.493</ele>
        <time>2020-09-04T08:58:35Z</time>
      </trkpt>
      <trkpt lat="39.888422" lon="4.118888">
        <ele>17.465</ele>
        <time>2020-09-04T08:58:37Z</time>
      </trkpt>
      <trkpt lat="39.888243" lon="4.118921">
        <ele>16.921</ele>
        <time>2020-09-04T08:58:52Z</time>
      </trkpt>
      <trkpt lat="39.888059" lon="4.118939">
        <ele>16.008</ele>
        <time>2020-09-04T08:59:07Z</time>
      </trkpt>
      <trkpt lat="39.888026" lon="4.118956">
        <ele>16.084</ele>
        <time>2020-09-04T08:59:10Z</time>
      </trkpt>
      <trkpt lat="39.887869" lon="4.119000">
        <ele>14.556</ele>
        <time>2020-09-04T08:59:24Z</time>
      </trkpt>
      <trkpt lat="39.887735" lon="4.119099">
        <ele>13.619</ele>
        <time>2020-09-04T08:59:37Z</time>
      </trkpt>
      <trkpt lat="39.887698" lon="4.119124">
        <ele>13.126</ele>
        <time>2020-09-04T08:59:41Z</time>
      </trkpt>
      <trkpt lat="39.887533" lon="4.119219">
        <ele>11.674</ele>
        <time>2020-09-04T08:59:58Z</time>
      </trkpt>
      <trkpt lat="39.887395" lon="4.119289">
        <ele>10.271</ele>
        <time>2020-09-04T09:00:13Z</time>
      </trkpt>
      <trkpt lat="39.887221" lon="4.119409">
        <ele>8.762</ele>
        <time>2020-09-04T09:00:29Z</time>
      </trkpt>
      <trkpt lat="39.887113" lon="4.119579">
        <ele>7.356</ele>
        <time>2020-09-04T09:00:44Z</time>
      </trkpt>
      <trkpt lat="39.887004" lon="4.119747">
        <ele>5.961</ele>
        <time>2020-09-04T09:00:59Z</time>
      </trkpt>
      <trkpt lat="39.886903" lon="4.119893">
        <ele>5.421</ele>
        <time>2020-09-04T09:01:13Z</time>
      </trkpt>
      <trkpt lat="39.886790" lon="4.120018">
        <ele>4.413</ele>
        <time>2020-09-04T09:01:28Z</time>
      </trkpt>
      <trkpt lat="39.886645" lon="4.120148">
        <ele>3.508</ele>
        <time>2020-09-04T09:01:44Z</time>
      </trkpt>
      <trkpt lat="39.886505" lon="4.120303">
        <ele>3.071</ele>
        <time>2020-09-04T09:01:58Z</time>
      </trkpt>
      <trkpt lat="39.886467" lon="4.120390">
        <ele>3.053</ele>
        <time>2020-09-04T09:02:05Z</time>
      </trkpt>
      <trkpt lat="39.886420" lon="4.120522">
        <ele>2.516</ele>
        <time>2020-09-04T09:02:18Z</time>
      </trkpt>
      <trkpt lat="39.886379" lon="4.120578">
        <ele>3.533</ele>
        <time>2020-09-04T09:02:29Z</time>
      </trkpt>
      <trkpt lat="39.886249" lon="4.120706">
        <ele>3.021</ele>
        <time>2020-09-04T09:02:42Z</time>
      </trkpt>
      <trkpt lat="39.886219" lon="4.120912">
        <ele>1.538</ele>
        <time>2020-09-04T09:02:57Z</time>
      </trkpt>
      <trkpt lat="39.886221" lon="4.120925">
        <ele>2.059</ele>
        <time>2020-09-04T09:03:06Z</time>
      </trkpt>
      <trkpt lat="39.886230" lon="4.121000">
        <ele>1.523</ele>
        <time>2020-09-04T09:03:11Z</time>
      </trkpt>
      <trkpt lat="39.886256" lon="4.121082">
        <ele>1.578</ele>
        <time>2020-09-04T09:03:27Z</time>
      </trkpt>
      <trkpt lat="39.886258" lon="4.121117">
        <ele>1.533</ele>
        <time>2020-09-04T09:03:56Z</time>
      </trkpt>
      <trkpt lat="39.886260" lon="4.121157">
        <ele>1.526</ele>
        <time>2020-09-04T09:03:59Z</time>
      </trkpt>
      <trkpt lat="39.886295" lon="4.121294">
        <ele>2.008</ele>
        <time>2020-09-04T09:04:09Z</time>
      </trkpt>
      <trkpt lat="39.886345" lon="4.121456">
        <ele>3.072</ele>
        <time>2020-09-04T09:04:21Z</time>
      </trkpt>
      <trkpt lat="39.886393" lon="4.121621">
        <ele>3.054</ele>
        <time>2020-09-04T09:04:33Z</time>
      </trkpt>
      <trkpt lat="39.886402" lon="4.121648">
        <ele>3.087</ele>
        <time>2020-09-04T09:04:35Z</time>
      </trkpt>
      <trkpt lat="39.886447" lon="4.121864">
        <ele>3.564</ele>
        <time>2020-09-04T09:04:50Z</time>
      </trkpt>
      <trkpt lat="39.886491" lon="4.121934">
        <ele>3.522</ele>
        <time>2020-09-04T09:04:57Z</time>
      </trkpt>
      <trkpt lat="39.886499" lon="4.121972">
        <ele>3.569</ele>
        <time>2020-09-04T09:05:00Z</time>
      </trkpt>
      <trkpt lat="39.886500" lon="4.122063">
        <ele>3.550</ele>
        <time>2020-09-04T09:05:06Z</time>
      </trkpt>
      <trkpt lat="39.886537" lon="4.122226">
        <ele>2.034</ele>
        <time>2020-09-04T09:05:18Z</time>
      </trkpt>
      <trkpt lat="39.886420" lon="4.122451">
        <ele>1.113</ele>
        <time>2020-09-04T09:05:30Z</time>
      </trkpt>
      <trkpt lat="39.886251" lon="4.122439">
        <ele>0.643</ele>
        <time>2020-09-04T09:05:45Z</time>
      </trkpt>
      <trkpt lat="39.886039" lon="4.122432">
        <ele>0.607</ele>
        <time>2020-09-04T09:06:03Z</time>
      </trkpt>
      <trkpt lat="39.885942" lon="4.122437">
        <ele>0.608</ele>
        <time>2020-09-04T09:06:11Z</time>
      </trkpt>
      <trkpt lat="39.885850" lon="4.122428">
        <ele>0.676</ele>
        <time>2020-09-04T09:06:19Z</time>
      </trkpt>
      <trkpt lat="39.885760" lon="4.122389">
        <ele>1.558</ele>
        <time>2020-09-04T09:06:27Z</time>
      </trkpt>
      <trkpt lat="39.885714" lon="4.122397">
        <ele>2.051</ele>
        <time>2020-09-04T09:06:31Z</time>
      </trkpt>
      <trkpt lat="39.885555" lon="4.122381">
        <ele>3.978</ele>
        <time>2020-09-04T09:06:48Z</time>
      </trkpt>
      <trkpt lat="39.885484" lon="4.122296">
        <ele>3.986</ele>
        <time>2020-09-04T09:07:02Z</time>
      </trkpt>
      <trkpt lat="39.885480" lon="4.122280">
        <ele>3.913</ele>
        <time>2020-09-04T09:07:13Z</time>
      </trkpt>
      <trkpt lat="39.885397" lon="4.122161">
        <ele>3.554</ele>
        <time>2020-09-04T09:07:27Z</time>
      </trkpt>
      <trkpt lat="39.885395" lon="4.122148">
        <ele>3.568</ele>
        <time>2020-09-04T09:07:44Z</time>
      </trkpt>
      <trkpt lat="39.885391" lon="4.122137">
        <ele>3.554</ele>
        <time>2020-09-04T09:07:48Z</time>
      </trkpt>
      <trkpt lat="39.885229" lon="4.122022">
        <ele>3.056</ele>
        <time>2020-09-04T09:08:03Z</time>
      </trkpt>
      <trkpt lat="39.885048" lon="4.121942">
        <ele>2.511</ele>
        <time>2020-09-04T09:08:20Z</time>
      </trkpt>
      <trkpt lat="39.884876" lon="4.121909">
        <ele>2.508</ele>
        <time>2020-09-04T09:08:35Z</time>
      </trkpt>
      <trkpt lat="39.884689" lon="4.121890">
        <ele>2.050</ele>
        <time>2020-09-04T09:08:51Z</time>
      </trkpt>
      <trkpt lat="39.884536" lon="4.121905">
        <ele>2.052</ele>
        <time>2020-09-04T09:09:06Z</time>
      </trkpt>
      <trkpt lat="39.884419" lon="4.121927">
        <ele>2.065</ele>
        <time>2020-09-04T09:09:18Z</time>
      </trkpt>
      <trkpt lat="39.884367" lon="4.121910">
        <ele>2.552</ele>
        <time>2020-09-04T09:09:22Z</time>
      </trkpt>
      <trkpt lat="39.884200" lon="4.121908">
        <ele>2.060</ele>
        <time>2020-09-04T09:09:37Z</time>
      </trkpt>
      <trkpt lat="39.884124" lon="4.121925">
        <ele>2.517</ele>
        <time>2020-09-04T09:09:44Z</time>
      </trkpt>
      <trkpt lat="39.883971" lon="4.121948">
        <ele>2.088</ele>
        <time>2020-09-04T09:09:59Z</time>
      </trkpt>
      <trkpt lat="39.883823" lon="4.122039">
        <ele>1.562</ele>
        <time>2020-09-04T09:10:15Z</time>
      </trkpt>
      <trkpt lat="39.883653" lon="4.122141">
        <ele>1.126</ele>
        <time>2020-09-04T09:10:32Z</time>
      </trkpt>
      <trkpt lat="39.883552" lon="4.122180">
        <ele>1.147</ele>
        <time>2020-09-04T09:10:41Z</time>
      </trkpt>
      <trkpt lat="39.883294" lon="4.122182">
        <ele>1.511</ele>
        <time>2020-09-04T09:11:00Z</time>
      </trkpt>
      <trkpt lat="39.883130" lon="4.122237">
        <ele>1.508</ele>
        <time>2020-09-04T09:11:15Z</time>
      </trkpt>
      <trkpt lat="39.883025" lon="4.122333">
        <ele>1.167</ele>
        <time>2020-09-04T09:11:27Z</time>
      </trkpt>
      <trkpt lat="39.882860" lon="4.122431">
        <ele>0.189</ele>
        <time>2020-09-04T09:11:43Z</time>
      </trkpt>
      <trkpt lat="39.882693" lon="4.122513">
        <ele>0.112</ele>
        <time>2020-09-04T09:11:59Z</time>
      </trkpt>
      <trkpt lat="39.882487" lon="4.122520">
        <ele>-0.429</ele>
        <time>2020-09-04T09:12:16Z</time>
      </trkpt>
      <trkpt lat="39.882441" lon="4.122513">
        <ele>0.117</ele>
        <time>2020-09-04T09:12:19Z</time>
      </trkpt>
      <trkpt lat="39.882260" lon="4.122547">
        <ele>0.624</ele>
        <time>2020-09-04T09:12:35Z</time>
      </trkpt>
      <trkpt lat="39.882104" lon="4.122570">
        <ele>-0.925</ele>
        <time>2020-09-04T09:12:51Z</time>
      </trkpt>
      <trkpt lat="39.881969" lon="4.122625">
        <ele>-2.859</ele>
        <time>2020-09-04T09:13:08Z</time>
      </trkpt>
      <trkpt lat="39.881828" lon="4.122632">
        <ele>-3.825</ele>
        <time>2020-09-04T09:13:21Z</time>
      </trkpt>
      <trkpt lat="39.881668" lon="4.122641">
        <ele>-4.226</ele>
        <time>2020-09-04T09:13:36Z</time>
      </trkpt>
      <trkpt lat="39.881640" lon="4.122705">
        <ele>-4.708</ele>
        <time>2020-09-04T09:13:49Z</time>
      </trkpt>
      <trkpt lat="39.881673" lon="4.122780">
        <ele>-4.708</ele>
        <time>2020-09-04T09:14:12Z</time>
      </trkpt>
      <trkpt lat="39.881675" lon="4.122788">
        <ele>-4.797</ele>
        <time>2020-09-04T09:14:19Z</time>
      </trkpt>
      <trkpt lat="39.881623" lon="4.122795">
        <ele>-5.249</ele>
        <time>2020-09-04T09:14:33Z</time>
      </trkpt>
      <trkpt lat="39.881593" lon="4.122721">
        <ele>-5.282</ele>
        <time>2020-09-04T09:14:51Z</time>
      </trkpt>
      <trkpt lat="39.881534" lon="4.122730">
        <ele>-5.259</ele>
        <time>2020-09-04T09:15:09Z</time>
      </trkpt>
      <trkpt lat="39.881384" lon="4.122679">
        <ele>-4.247</ele>
        <time>2020-09-04T09:15:22Z</time>
      </trkpt>
      <trkpt lat="39.881266" lon="4.122681">
        <ele>-2.314</ele>
        <time>2020-09-04T09:15:37Z</time>
      </trkpt>
      <trkpt lat="39.881265" lon="4.122737">
        <ele>0.115</ele>
        <time>2020-09-04T09:15:49Z</time>
      </trkpt>
      <trkpt lat="39.881237" lon="4.122826">
        <ele>2.529</ele>
        <time>2020-09-04T09:16:04Z</time>
      </trkpt>
      <trkpt lat="39.881189" lon="4.122858">
        <ele>5.417</ele>
        <time>2020-09-04T09:16:20Z</time>
      </trkpt>
      <trkpt lat="39.881089" lon="4.122833">
        <ele>7.387</ele>
        <time>2020-09-04T09:16:32Z</time>
      </trkpt>
      <trkpt lat="39.880975" lon="4.122869">
        <ele>8.715</ele>
        <time>2020-09-04T09:16:47Z</time>
      </trkpt>
      <trkpt lat="39.880952" lon="4.122915">
        <ele>10.208</ele>
        <time>2020-09-04T09:16:58Z</time>
      </trkpt>
      <trkpt lat="39.880962" lon="4.122965">
        <ele>12.126</ele>
        <time>2020-09-04T09:17:11Z</time>
      </trkpt>
      <trkpt lat="39.880938" lon="4.122975">
        <ele>13.618</ele>
        <time>2020-09-04T09:17:22Z</time>
      </trkpt>
      <trkpt lat="39.880872" lon="4.122981">
        <ele>15.571</ele>
        <time>2020-09-04T09:17:36Z</time>
      </trkpt>
      <trkpt lat="39.880817" lon="4.123040">
        <ele>17.488</ele>
        <time>2020-09-04T09:17:47Z</time>
      </trkpt>
      <trkpt lat="39.880773" lon="4.123090">
        <ele>19.846</ele>
        <time>2020-09-04T09:18:01Z</time>
      </trkpt>
      <trkpt lat="39.880725" lon="4.123142">
        <ele>21.723</ele>
        <time>2020-09-04T09:18:15Z</time>
      </trkpt>
      <trkpt lat="39.880704" lon="4.123195">
        <ele>24.154</ele>
        <time>2020-09-04T09:18:31Z</time>
      </trkpt>
      <trkpt lat="39.880690" lon="4.123317">
        <ele>26.518</ele>
        <time>2020-09-04T09:18:45Z</time>
      </trkpt>
      <trkpt lat="39.880682" lon="4.123427">
        <ele>27.577</ele>
        <time>2020-09-04T09:18:59Z</time>
      </trkpt>
      <trkpt lat="39.880717" lon="4.123509">
        <ele>27.061</ele>
        <time>2020-09-04T09:19:11Z</time>
      </trkpt>
      <trkpt lat="39.880701" lon="4.123627">
        <ele>25.627</ele>
        <time>2020-09-04T09:19:24Z</time>
      </trkpt>
      <trkpt lat="39.880657" lon="4.123670">
        <ele>24.608</ele>
        <time>2020-09-04T09:19:30Z</time>
      </trkpt>
      <trkpt lat="39.880659" lon="4.123879">
        <ele>22.232</ele>
        <time>2020-09-04T09:19:46Z</time>
      </trkpt>
      <trkpt lat="39.880629" lon="4.124000">
        <ele>20.324</ele>
        <time>2020-09-04T09:20:00Z</time>
      </trkpt>
      <trkpt lat="39.880617" lon="4.124133">
        <ele>18.437</ele>
        <time>2020-09-04T09:20:12Z</time>
      </trkpt>
      <trkpt lat="39.880592" lon="4.124242">
        <ele>16.984</ele>
        <time>2020-09-04T09:20:21Z</time>
      </trkpt>
      <trkpt lat="39.880598" lon="4.124286">
        <ele>16.932</ele>
        <time>2020-09-04T09:20:24Z</time>
      </trkpt>
      <trkpt lat="39.880611" lon="4.124320">
        <ele>16.419</ele>
        <time>2020-09-04T09:20:27Z</time>
      </trkpt>
      <trkpt lat="39.880620" lon="4.124364">
        <ele>16.090</ele>
        <time>2020-09-04T09:20:30Z</time>
      </trkpt>
      <trkpt lat="39.880662" lon="4.124588">
        <ele>16.414</ele>
        <time>2020-09-04T09:20:46Z</time>
      </trkpt>
      <trkpt lat="39.880680" lon="4.124692">
        <ele>16.923</ele>
        <time>2020-09-04T09:20:55Z</time>
      </trkpt>
      <trkpt lat="39.880712" lon="4.124811">
        <ele>19.383</ele>
        <time>2020-09-04T09:21:11Z</time>
      </trkpt>
      <trkpt lat="39.880712" lon="4.124887">
        <ele>21.711</ele>
        <time>2020-09-04T09:21:24Z</time>
      </trkpt>
      <trkpt lat="39.880705" lon="4.124906">
        <ele>21.708</ele>
        <time>2020-09-04T09:21:27Z</time>
      </trkpt>
      <trkpt lat="39.880664" lon="4.124953">
        <ele>21.277</ele>
        <time>2020-09-04T09:21:33Z</time>
      </trkpt>
      <trkpt lat="39.880598" lon="4.125066">
        <ele>19.899</ele>
        <time>2020-09-04T09:21:45Z</time>
      </trkpt>
      <trkpt lat="39.880584" lon="4.125163">
        <ele>20.392</ele>
        <time>2020-09-04T09:22:00Z</time>
      </trkpt>
      <trkpt lat="39.880583" lon="4.125168">
        <ele>19.849</ele>
        <time>2020-09-04T09:22:29Z</time>
      </trkpt>
      <trkpt lat="39.880594" lon="4.125331">
        <ele>19.827</ele>
        <time>2020-09-04T09:22:45Z</time>
      </trkpt>
      <trkpt lat="39.880599" lon="4.125378">
        <ele>19.884</ele>
        <time>2020-09-04T09:22:48Z</time>
      </trkpt>
      <trkpt lat="39.880654" lon="4.125562">
        <ele>20.315</ele>
        <time>2020-09-04T09:23:04Z</time>
      </trkpt>
      <trkpt lat="39.880665" lon="4.125620">
        <ele>19.899</ele>
        <time>2020-09-04T09:23:18Z</time>
      </trkpt>
      <trkpt lat="39.880689" lon="4.125665">
        <ele>19.383</ele>
        <time>2020-09-04T09:23:40Z</time>
      </trkpt>
      <trkpt lat="39.880757" lon="4.125742">
        <ele>18.825</ele>
        <time>2020-09-04T09:23:48Z</time>
      </trkpt>
      <trkpt lat="39.880773" lon="4.125777">
        <ele>17.917</ele>
        <time>2020-09-04T09:23:51Z</time>
      </trkpt>
      <trkpt lat="39.880898" lon="4.125926">
        <ele>18.808</ele>
        <time>2020-09-04T09:24:07Z</time>
      </trkpt>
      <trkpt lat="39.880944" lon="4.126005">
        <ele>19.343</ele>
        <time>2020-09-04T09:24:13Z</time>
      </trkpt>
      <trkpt lat="39.881073" lon="4.126151">
        <ele>20.325</ele>
        <time>2020-09-04T09:24:30Z</time>
      </trkpt>
      <trkpt lat="39.881082" lon="4.126317">
        <ele>16.998</ele>
        <time>2020-09-04T09:24:46Z</time>
      </trkpt>
      <trkpt lat="39.881109" lon="4.126427">
        <ele>15.075</ele>
        <time>2020-09-04T09:24:59Z</time>
      </trkpt>
      <trkpt lat="39.881072" lon="4.126502">
        <ele>12.613</ele>
        <time>2020-09-04T09:25:14Z</time>
      </trkpt>
      <trkpt lat="39.881065" lon="4.126477">
        <ele>12.160</ele>
        <time>2020-09-04T09:25:16Z</time>
      </trkpt>
      <trkpt lat="39.881053" lon="4.126434">
        <ele>11.621</ele>
        <time>2020-09-04T09:25:19Z</time>
      </trkpt>
      <trkpt lat="39.881038" lon="4.126429">
        <ele>11.665</ele>
        <time>2020-09-04T09:25:21Z</time>
      </trkpt>
      <trkpt lat="39.881042" lon="4.126488">
        <ele>10.782</ele>
        <time>2020-09-04T09:25:26Z</time>
      </trkpt>
      <trkpt lat="39.881088" lon="4.126641">
        <ele>8.743</ele>
        <time>2020-09-04T09:25:38Z</time>
      </trkpt>
      <trkpt lat="39.881052" lon="4.126681">
        <ele>6.317</ele>
        <time>2020-09-04T09:25:52Z</time>
      </trkpt>
      <trkpt lat="39.880972" lon="4.126625">
        <ele>4.408</ele>
        <time>2020-09-04T09:26:05Z</time>
      </trkpt>
      <trkpt lat="39.880924" lon="4.126676">
        <ele>2.563</ele>
        <time>2020-09-04T09:26:17Z</time>
      </trkpt>
      <trkpt lat="39.880965" lon="4.126840">
        <ele>1.195</ele>
        <time>2020-09-04T09:26:28Z</time>
      </trkpt>
      <trkpt lat="39.880886" lon="4.127038">
        <ele>0.128</ele>
        <time>2020-09-04T09:26:43Z</time>
      </trkpt>
      <trkpt lat="39.880784" lon="4.127278">
        <ele>-0.915</ele>
        <time>2020-09-04T09:27:03Z</time>
      </trkpt>
      <trkpt lat="39.880766" lon="4.127286">
        <ele>-1.383</ele>
        <time>2020-09-04T09:27:05Z</time>
      </trkpt>
      <trkpt lat="39.880700" lon="4.127253">
        <ele>-1.320</ele>
        <time>2020-09-04T09:27:11Z</time>
      </trkpt>
      <trkpt lat="39.880567" lon="4.127069">
        <ele>-1.831</ele>
        <time>2020-09-04T09:27:29Z</time>
      </trkpt>
      <trkpt lat="39.880516" lon="4.127062">
        <ele>-1.855</ele>
        <time>2020-09-04T09:27:34Z</time>
      </trkpt>
      <trkpt lat="39.880431" lon="4.127080">
        <ele>-2.383</ele>
        <time>2020-09-04T09:27:42Z</time>
      </trkpt>
      <trkpt lat="39.880213" lon="4.127082">
        <ele>-2.825</ele>
        <time>2020-09-04T09:28:01Z</time>
      </trkpt>
      <trkpt lat="39.880040" lon="4.127164">
        <ele>-3.317</ele>
        <time>2020-09-04T09:28:17Z</time>
      </trkpt>
      <trkpt lat="39.879900" lon="4.127307">
        <ele>-3.308</ele>
        <time>2020-09-04T09:28:32Z</time>
      </trkpt>
      <trkpt lat="39.879817" lon="4.127378">
        <ele>-3.353</ele>
        <time>2020-09-04T09:28:41Z</time>
      </trkpt>
      <trkpt lat="39.879657" lon="4.127458">
        <ele>-3.365</ele>
        <time>2020-09-04T09:28:56Z</time>
      </trkpt>
      <trkpt lat="39.879606" lon="4.127473">
        <ele>-2.878</ele>
        <time>2020-09-04T09:29:01Z</time>
      </trkpt>
      <trkpt lat="39.879410" lon="4.127472">
        <ele>-3.365</ele>
        <time>2020-09-04T09:29:18Z</time>
      </trkpt>
      <trkpt lat="39.879201" lon="4.127443">
        <ele>-3.353</ele>
        <time>2020-09-04T09:29:34Z</time>
      </trkpt>
      <trkpt lat="39.879015" lon="4.127422">
        <ele>-4.210</ele>
        <time>2020-09-04T09:29:50Z</time>
      </trkpt>
      <trkpt lat="39.878955" lon="4.127423">
        <ele>-4.291</ele>
        <time>2020-09-04T09:29:56Z</time>
      </trkpt>
      <trkpt lat="39.878809" lon="4.127408">
        <ele>-5.265</ele>
        <time>2020-09-04T09:30:09Z</time>
      </trkpt>
      <trkpt lat="39.878623" lon="4.127390">
        <ele>-4.783</ele>
        <time>2020-09-04T09:30:25Z</time>
      </trkpt>
      <trkpt lat="39.878446" lon="4.127416">
        <ele>-4.225</ele>
        <time>2020-09-04T09:30:41Z</time>
      </trkpt>
      <trkpt lat="39.878385" lon="4.127421">
        <ele>-4.217</ele>
        <time>2020-09-04T09:30:47Z</time>
      </trkpt>
      <trkpt lat="39.878204" lon="4.127375">
        <ele>-5.208</ele>
        <time>2020-09-04T09:31:04Z</time>
      </trkpt>
      <trkpt lat="39.878106" lon="4.127356">
        <ele>-5.273</ele>
        <time>2020-09-04T09:31:14Z</time>
      </trkpt>
      <trkpt lat="39.878054" lon="4.127364">
        <ele>-5.275</ele>
        <time>2020-09-04T09:31:19Z</time>
      </trkpt>
      <trkpt lat="39.877966" lon="4.127383">
        <ele>-5.248</ele>
        <time>2020-09-04T09:31:28Z</time>
      </trkpt>
      <trkpt lat="39.877867" lon="4.127367">
        <ele>-5.255</ele>
        <time>2020-09-04T09:31:36Z</time>
      </trkpt>
      <trkpt lat="39.877773" lon="4.127363">
        <ele>-4.733</ele>
        <time>2020-09-04T09:31:44Z</time>
      </trkpt>
      <trkpt lat="39.877632" lon="4.127428">
        <ele>-3.820</ele>
        <time>2020-09-04T09:32:01Z</time>
      </trkpt>
      <trkpt lat="39.877483" lon="4.127449">
        <ele>-2.851</ele>
        <time>2020-09-04T09:32:15Z</time>
      </trkpt>
      <trkpt lat="39.877360" lon="4.127478">
        <ele>-0.995</ele>
        <time>2020-09-04T09:32:29Z</time>
      </trkpt>
      <trkpt lat="39.877310" lon="4.127465">
        <ele>-0.437</ele>
        <time>2020-09-04T09:32:35Z</time>
      </trkpt>
      <trkpt lat="39.877245" lon="4.127409">
        <ele>-1.349</ele>
        <time>2020-09-04T09:32:42Z</time>
      </trkpt>
      <trkpt lat="39.877071" lon="4.127330">
        <ele>-0.913</ele>
        <time>2020-09-04T09:32:59Z</time>
      </trkpt>
      <trkpt lat="39.877015" lon="4.127330">
        <ele>-0.908</ele>
        <time>2020-09-04T09:33:04Z</time>
      </trkpt>
      <trkpt lat="39.876886" lon="4.127277">
        <ele>-1.368</ele>
        <time>2020-09-04T09:33:17Z</time>
      </trkpt>
      <trkpt lat="39.876709" lon="4.127244">
        <ele>-2.330</ele>
        <time>2020-09-04T09:33:33Z</time>
      </trkpt>
      <trkpt lat="39.876538" lon="4.127296">
        <ele>-1.873</ele>
        <time>2020-09-04T09:33:50Z</time>
      </trkpt>
      <trkpt lat="39.876433" lon="4.127345">
        <ele>-0.950</ele>
        <time>2020-09-04T09:34:02Z</time>
      </trkpt>
      <trkpt lat="39.876357" lon="4.127414">
        <ele>-0.938</ele>
        <time>2020-09-04T09:34:10Z</time>
      </trkpt>
      <trkpt lat="39.876331" lon="4.127434">
        <ele>-0.425</ele>
        <time>2020-09-04T09:34:13Z</time>
      </trkpt>
      <trkpt lat="39.876190" lon="4.127584">
        <ele>2.036</ele>
        <time>2020-09-04T09:34:32Z</time>
      </trkpt>
      <trkpt lat="39.876017" lon="4.127740">
        <ele>1.510</ele>
        <time>2020-09-04T09:34:50Z</time>
      </trkpt>
      <trkpt lat="39.875837" lon="4.127841">
        <ele>0.664</ele>
        <time>2020-09-04T09:35:07Z</time>
      </trkpt>
      <trkpt lat="39.875710" lon="4.127911">
        <ele>-0.906</ele>
        <time>2020-09-04T09:35:22Z</time>
      </trkpt>
      <trkpt lat="39.875556" lon="4.127952">
        <ele>-3.316</ele>
        <time>2020-09-04T09:35:37Z</time>
      </trkpt>
      <trkpt lat="39.875456" lon="4.128047">
        <ele>-4.708</ele>
        <time>2020-09-04T09:35:49Z</time>
      </trkpt>
      <trkpt lat="39.875306" lon="4.128205">
        <ele>-5.771</ele>
        <time>2020-09-04T09:36:05Z</time>
      </trkpt>
      <trkpt lat="39.875205" lon="4.128379">
        <ele>-5.293</ele>
        <time>2020-09-04T09:36:21Z</time>
      </trkpt>
      <trkpt lat="39.875110" lon="4.128602">
        <ele>-5.766</ele>
        <time>2020-09-04T09:36:37Z</time>
      </trkpt>
      <trkpt lat="39.875006" lon="4.128795">
        <ele>-5.723</ele>
        <time>2020-09-04T09:36:53Z</time>
      </trkpt>
      <trkpt lat="39.874897" lon="4.129000">
        <ele>-5.271</ele>
        <time>2020-09-04T09:37:10Z</time>
      </trkpt>
      <trkpt lat="39.874788" lon="4.129221">
        <ele>-5.748</ele>
        <time>2020-09-04T09:37:28Z</time>
      </trkpt>
      <trkpt lat="39.874763" lon="4.129248">
        <ele>-5.229</ele>
        <time>2020-09-04T09:37:31Z</time>
      </trkpt>
      <trkpt lat="39.874748" lon="4.129273">
        <ele>-5.793</ele>
        <time>2020-09-04T09:37:33Z</time>
      </trkpt>
      <trkpt lat="39.874592" lon="4.129465">
        <ele>-5.247</ele>
        <time>2020-09-04T09:37:51Z</time>
      </trkpt>
      <trkpt lat="39.874427" lon="4.129591">
        <ele>-5.229</ele>
        <time>2020-09-04T09:38:08Z</time>
      </trkpt>
      <trkpt lat="39.874276" lon="4.129732">
        <ele>-5.221</ele>
        <time>2020-09-04T09:38:24Z</time>
      </trkpt>
      <trkpt lat="39.874130" lon="4.129893">
        <ele>-5.208</ele>
        <time>2020-09-04T09:38:40Z</time>
      </trkpt>
      <trkpt lat="39.874006" lon="4.130081">
        <ele>-5.269</ele>
        <time>2020-09-04T09:38:56Z</time>
      </trkpt>
      <trkpt lat="39.873893" lon="4.130247">
        <ele>-4.711</ele>
        <time>2020-09-04T09:39:10Z</time>
      </trkpt>
      <trkpt lat="39.873811" lon="4.130444">
        <ele>-4.214</ele>
        <time>2020-09-04T09:39:26Z</time>
      </trkpt>
      <trkpt lat="39.873810" lon="4.130536">
        <ele>-4.241</ele>
        <time>2020-09-04T09:39:34Z</time>
      </trkpt>
      <trkpt lat="39.873733" lon="4.130588">
        <ele>-3.859</ele>
        <time>2020-09-04T09:39:46Z</time>
      </trkpt>
      <trkpt lat="39.873717" lon="4.130628">
        <ele>-3.866</ele>
        <time>2020-09-04T09:39:49Z</time>
      </trkpt>
      <trkpt lat="39.873693" lon="4.130749">
        <ele>-3.827</ele>
        <time>2020-09-04T09:39:56Z</time>
      </trkpt>
      <trkpt lat="39.873693" lon="4.130791">
        <ele>-3.831</ele>
        <time>2020-09-04T09:39:59Z</time>
      </trkpt>
      <trkpt lat="39.873676" lon="4.131039">
        <ele>-4.286</ele>
        <time>2020-09-04T09:40:17Z</time>
      </trkpt>
      <trkpt lat="39.873681" lon="4.131062">
        <ele>-4.260</ele>
        <time>2020-09-04T09:40:19Z</time>
      </trkpt>
      <trkpt lat="39.873745" lon="4.131234">
        <ele>-2.826</ele>
        <time>2020-09-04T09:40:34Z</time>
      </trkpt>
      <trkpt lat="39.873797" lon="4.131250">
        <ele>-3.308</ele>
        <time>2020-09-04T09:40:41Z</time>
      </trkpt>
      <trkpt lat="39.873917" lon="4.131377">
        <ele>-2.393</ele>
        <time>2020-09-04T09:40:58Z</time>
      </trkpt>
      <trkpt lat="39.873985" lon="4.131483">
        <ele>-1.335</ele>
        <time>2020-09-04T09:41:11Z</time>
      </trkpt>
      <trkpt lat="39.874073" lon="4.131606">
        <ele>-0.418</ele>
        <time>2020-09-04T09:41:25Z</time>
      </trkpt>
      <trkpt lat="39.874134" lon="4.131782">
        <ele>1.165</ele>
        <time>2020-09-04T09:41:39Z</time>
      </trkpt>
      <trkpt lat="39.874144" lon="4.131945">
        <ele>2.093</ele>
        <time>2020-09-04T09:41:50Z</time>
      </trkpt>
      <trkpt lat="39.874149" lon="4.131994">
        <ele>2.580</ele>
        <time>2020-09-04T09:41:54Z</time>
      </trkpt>
      <trkpt lat="39.874168" lon="4.132036">
        <ele>3.061</ele>
        <time>2020-09-04T09:41:58Z</time>
      </trkpt>
      <trkpt lat="39.874178" lon="4.132059">
        <ele>3.015</ele>
        <time>2020-09-04T09:42:00Z</time>
      </trkpt>
      <trkpt lat="39.874217" lon="4.132131">
        <ele>3.976</ele>
        <time>2020-09-04T09:42:07Z</time>
      </trkpt>
      <trkpt lat="39.874296" lon="4.132229">
        <ele>5.490</ele>
        <time>2020-09-04T09:42:19Z</time>
      </trkpt>
      <trkpt lat="39.874304" lon="4.132232">
        <ele>5.419</ele>
        <time>2020-09-04T09:42:20Z</time>
      </trkpt>
      <trkpt lat="39.874365" lon="4.132348">
        <ele>7.308</ele>
        <time>2020-09-04T09:42:33Z</time>
      </trkpt>
      <trkpt lat="39.874386" lon="4.132410">
        <ele>7.852</ele>
        <time>2020-09-04T09:42:40Z</time>
      </trkpt>
      <trkpt lat="39.874352" lon="4.132549">
        <ele>9.274</ele>
        <time>2020-09-04T09:42:54Z</time>
      </trkpt>
      <trkpt lat="39.874348" lon="4.132557">
        <ele>9.777</ele>
        <time>2020-09-04T09:42:55Z</time>
      </trkpt>
      <trkpt lat="39.874308" lon="4.132690">
        <ele>11.664</ele>
        <time>2020-09-04T09:43:09Z</time>
      </trkpt>
      <trkpt lat="39.874289" lon="4.132816">
        <ele>13.122</ele>
        <time>2020-09-04T09:43:22Z</time>
      </trkpt>
      <trkpt lat="39.874244" lon="4.132972">
        <ele>15.079</ele>
        <time>2020-09-04T09:43:37Z</time>
      </trkpt>
      <trkpt lat="39.874261" lon="4.133164">
        <ele>16.910</ele>
        <time>2020-09-04T09:43:53Z</time>
      </trkpt>
      <trkpt lat="39.874263" lon="4.133324">
        <ele>19.394</ele>
        <time>2020-09-04T09:44:08Z</time>
      </trkpt>
      <trkpt lat="39.874266" lon="4.133355">
        <ele>19.348</ele>
        <time>2020-09-04T09:44:11Z</time>
      </trkpt>
      <trkpt lat="39.874285" lon="4.133510">
        <ele>21.261</ele>
        <time>2020-09-04T09:44:26Z</time>
      </trkpt>
      <trkpt lat="39.874283" lon="4.133586">
        <ele>22.217</ele>
        <time>2020-09-04T09:44:32Z</time>
      </trkpt>
      <trkpt lat="39.874283" lon="4.133647">
        <ele>23.208</ele>
        <time>2020-09-04T09:44:38Z</time>
      </trkpt>
      <trkpt lat="39.874279" lon="4.133681">
        <ele>23.229</ele>
        <time>2020-09-04T09:44:41Z</time>
      </trkpt>
      <trkpt lat="39.874284" lon="4.133729">
        <ele>24.131</ele>
        <time>2020-09-04T09:44:45Z</time>
      </trkpt>
      <trkpt lat="39.874282" lon="4.133763">
        <ele>24.154</ele>
        <time>2020-09-04T09:44:48Z</time>
      </trkpt>
      <trkpt lat="39.874265" lon="4.133918">
        <ele>25.651</ele>
        <time>2020-09-04T09:45:01Z</time>
      </trkpt>
      <trkpt lat="39.874242" lon="4.134094">
        <ele>28.099</ele>
        <time>2020-09-04T09:45:16Z</time>
      </trkpt>
      <trkpt lat="39.874235" lon="4.134172">
        <ele>28.526</ele>
        <time>2020-09-04T09:45:22Z</time>
      </trkpt>
      <trkpt lat="39.874220" lon="4.134278">
        <ele>29.447</ele>
        <time>2020-09-04T09:45:31Z</time>
      </trkpt>
      <trkpt lat="39.874209" lon="4.134295">
        <ele>29.471</ele>
        <time>2020-09-04T09:45:33Z</time>
      </trkpt>
      <trkpt lat="39.874163" lon="4.134418">
        <ele>30.942</ele>
        <time>2020-09-04T09:45:45Z</time>
      </trkpt>
      <trkpt lat="39.874149" lon="4.134560">
        <ele>32.322</ele>
        <time>2020-09-04T09:45:57Z</time>
      </trkpt>
      <trkpt lat="39.874140" lon="4.134770">
        <ele>34.214</ele>
        <time>2020-09-04T09:46:14Z</time>
      </trkpt>
      <trkpt lat="39.874149" lon="4.134908">
        <ele>35.208</ele>
        <time>2020-09-04T09:46:27Z</time>
      </trkpt>
      <trkpt lat="39.874139" lon="4.134982">
        <ele>36.119</ele>
        <time>2020-09-04T09:46:42Z</time>
      </trkpt>
      <trkpt lat="39.874147" lon="4.134846">
        <ele>35.221</ele>
        <time>2020-09-04T09:46:51Z</time>
      </trkpt>
      <trkpt lat="39.874165" lon="4.134660">
        <ele>33.774</ele>
        <time>2020-09-04T09:47:06Z</time>
      </trkpt>
      <trkpt lat="39.874134" lon="4.134630">
        <ele>34.221</ele>
        <time>2020-09-04T09:47:13Z</time>
      </trkpt>
      <trkpt lat="39.874045" lon="4.134612">
        <ele>34.739</ele>
        <time>2020-09-04T09:47:21Z</time>
      </trkpt>
      <trkpt lat="39.873889" lon="4.134438">
        <ele>35.286</ele>
        <time>2020-09-04T09:47:38Z</time>
      </trkpt>
      <trkpt lat="39.873838" lon="4.134422">
        <ele>35.747</ele>
        <time>2020-09-04T09:47:43Z</time>
      </trkpt>
      <trkpt lat="39.873734" lon="4.134368">
        <ele>37.111</ele>
        <time>2020-09-04T09:47:56Z</time>
      </trkpt>
      <trkpt lat="39.873636" lon="4.134277">
        <ele>38.153</ele>
        <time>2020-09-04T09:48:10Z</time>
      </trkpt>
      <trkpt lat="39.873541" lon="4.134213">
        <ele>39.004</ele>
        <time>2020-09-04T09:48:21Z</time>
      </trkpt>
      <trkpt lat="39.873513" lon="4.134185">
        <ele>39.514</ele>
        <time>2020-09-04T09:48:25Z</time>
      </trkpt>
      <trkpt lat="39.873474" lon="4.134150">
        <ele>40.508</ele>
        <time>2020-09-04T09:48:31Z</time>
      </trkpt>
      <trkpt lat="39.873347" lon="4.134056">
        <ele>41.950</ele>
        <time>2020-09-04T09:48:48Z</time>
      </trkpt>
      <trkpt lat="39.873121" lon="4.133962">
        <ele>43.852</ele>
        <time>2020-09-04T09:49:06Z</time>
      </trkpt>
      <trkpt lat="39.873051" lon="4.133950">
        <ele>40.555</ele>
        <time>2020-09-04T09:49:10Z</time>
      </trkpt>
      <trkpt lat="39.873040" lon="4.133945">
        <ele>46.262</ele>
        <time>2020-09-04T09:49:11Z</time>
      </trkpt>
      <trkpt lat="39.873018" lon="4.133938">
        <ele>41.450</ele>
        <time>2020-09-04T09:49:13Z</time>
      </trkpt>
      <trkpt lat="39.873007" lon="4.133935">
        <ele>45.367</ele>
        <time>2020-09-04T09:49:14Z</time>
      </trkpt>
      <trkpt lat="39.872888" lon="4.133982">
        <ele>43.838</ele>
        <time>2020-09-04T09:49:27Z</time>
      </trkpt>
      <trkpt lat="39.872827" lon="4.134024">
        <ele>43.852</ele>
        <time>2020-09-04T09:49:33Z</time>
      </trkpt>
      <trkpt lat="39.872693" lon="4.134108">
        <ele>42.938</ele>
        <time>2020-09-04T09:49:46Z</time>
      </trkpt>
      <trkpt lat="39.872552" lon="4.134318">
        <ele>42.970</ele>
        <time>2020-09-04T09:50:03Z</time>
      </trkpt>
      <trkpt lat="39.872503" lon="4.134359">
        <ele>42.417</ele>
        <time>2020-09-04T09:50:09Z</time>
      </trkpt>
      <trkpt lat="39.872341" lon="4.134414">
        <ele>39.508</ele>
        <time>2020-09-04T09:50:25Z</time>
      </trkpt>
      <trkpt lat="39.872179" lon="4.134346">
        <ele>37.638</ele>
        <time>2020-09-04T09:50:41Z</time>
      </trkpt>
      <trkpt lat="39.872032" lon="4.134317">
        <ele>36.660</ele>
        <time>2020-09-04T09:50:55Z</time>
      </trkpt>
      <trkpt lat="39.871900" lon="4.134255">
        <ele>37.123</ele>
        <time>2020-09-04T09:51:08Z</time>
      </trkpt>
      <trkpt lat="39.871750" lon="4.134138">
        <ele>36.620</ele>
        <time>2020-09-04T09:51:24Z</time>
      </trkpt>
      <trkpt lat="39.871629" lon="4.133997">
        <ele>37.198</ele>
        <time>2020-09-04T09:51:38Z</time>
      </trkpt>
      <trkpt lat="39.871608" lon="4.133961">
        <ele>37.625</ele>
        <time>2020-09-04T09:51:41Z</time>
      </trkpt>
      <trkpt lat="39.871524" lon="4.133829">
        <ele>37.626</ele>
        <time>2020-09-04T09:51:52Z</time>
      </trkpt>
      <trkpt lat="39.871433" lon="4.133626">
        <ele>39.050</ele>
        <time>2020-09-04T09:52:08Z</time>
      </trkpt>
      <trkpt lat="39.871347" lon="4.133472">
        <ele>39.565</ele>
        <time>2020-09-04T09:52:22Z</time>
      </trkpt>
      <trkpt lat="39.871270" lon="4.133266">
        <ele>40.568</ele>
        <time>2020-09-04T09:52:38Z</time>
      </trkpt>
      <trkpt lat="39.871244" lon="4.133260">
        <ele>40.914</ele>
        <time>2020-09-04T09:52:41Z</time>
      </trkpt>
      <trkpt lat="39.871123" lon="4.133300">
        <ele>40.508</ele>
        <time>2020-09-04T09:52:52Z</time>
      </trkpt>
      <trkpt lat="39.870992" lon="4.133289">
        <ele>40.921</ele>
        <time>2020-09-04T09:53:05Z</time>
      </trkpt>
      <trkpt lat="39.870904" lon="4.133320">
        <ele>40.983</ele>
        <time>2020-09-04T09:53:21Z</time>
      </trkpt>
      <trkpt lat="39.870909" lon="4.133314">
        <ele>40.986</ele>
        <time>2020-09-04T09:53:37Z</time>
      </trkpt>
      <trkpt lat="39.870905" lon="4.133316">
        <ele>40.993</ele>
        <time>2020-09-04T09:54:03Z</time>
      </trkpt>
      <trkpt lat="39.870886" lon="4.133340">
        <ele>40.971</ele>
        <time>2020-09-04T09:54:06Z</time>
      </trkpt>
      <trkpt lat="39.870702" lon="4.133487">
        <ele>39.538</ele>
        <time>2020-09-04T09:54:25Z</time>
      </trkpt>
      <trkpt lat="39.870677" lon="4.133508">
        <ele>39.079</ele>
        <time>2020-09-04T09:54:41Z</time>
      </trkpt>
      <trkpt lat="39.870671" lon="4.133517">
        <ele>39.083</ele>
        <time>2020-09-04T09:54:42Z</time>
      </trkpt>
      <trkpt lat="39.870652" lon="4.133530">
        <ele>39.058</ele>
        <time>2020-09-04T09:54:44Z</time>
      </trkpt>
      <trkpt lat="39.870496" lon="4.133564">
        <ele>39.052</ele>
        <time>2020-09-04T09:55:01Z</time>
      </trkpt>
      <trkpt lat="39.870493" lon="4.133568">
        <ele>39.017</ele>
        <time>2020-09-04T09:55:20Z</time>
      </trkpt>
      <trkpt lat="39.870472" lon="4.133582">
        <ele>39.008</ele>
        <time>2020-09-04T09:55:22Z</time>
      </trkpt>
      <trkpt lat="39.870287" lon="4.133619">
        <ele>40.040</ele>
        <time>2020-09-04T09:55:39Z</time>
      </trkpt>
      <trkpt lat="39.870136" lon="4.133655">
        <ele>40.082</ele>
        <time>2020-09-04T09:55:53Z</time>
      </trkpt>
      <trkpt lat="39.869952" lon="4.133695">
        <ele>38.145</ele>
        <time>2020-09-04T09:56:09Z</time>
      </trkpt>
      <trkpt lat="39.869905" lon="4.133699">
        <ele>37.692</ele>
        <time>2020-09-04T09:56:14Z</time>
      </trkpt>
      <trkpt lat="39.869707" lon="4.133675">
        <ele>36.130</ele>
        <time>2020-09-04T09:56:32Z</time>
      </trkpt>
      <trkpt lat="39.869556" lon="4.133634">
        <ele>35.227</ele>
        <time>2020-09-04T09:56:48Z</time>
      </trkpt>
      <trkpt lat="39.869550" lon="4.133627">
        <ele>34.728</ele>
        <time>2020-09-04T09:57:04Z</time>
      </trkpt>
      <trkpt lat="39.869541" lon="4.133688">
        <ele>34.762</ele>
        <time>2020-09-04T09:57:32Z</time>
      </trkpt>
      <trkpt lat="39.869538" lon="4.133702">
        <ele>34.745</ele>
        <time>2020-09-04T09:57:33Z</time>
      </trkpt>
      <trkpt lat="39.869524" lon="4.133909">
        <ele>36.647</ele>
        <time>2020-09-04T09:57:49Z</time>
      </trkpt>
      <trkpt lat="39.869564" lon="4.134037">
        <ele>38.511</ele>
        <time>2020-09-04T09:58:04Z</time>
      </trkpt>
      <trkpt lat="39.869597" lon="4.134163">
        <ele>40.908</ele>
        <time>2020-09-04T09:58:17Z</time>
      </trkpt>
      <trkpt lat="39.869610" lon="4.134349">
        <ele>43.479</ele>
        <time>2020-09-04T09:58:33Z</time>
      </trkpt>
      <trkpt lat="39.869650" lon="4.134496">
        <ele>45.341</ele>
        <time>2020-09-04T09:58:47Z</time>
      </trkpt>
      <trkpt lat="39.869685" lon="4.134569">
        <ele>46.244</ele>
        <time>2020-09-04T09:58:54Z</time>
      </trkpt>
      <trkpt lat="39.869701" lon="4.134629">
        <ele>46.771</ele>
        <time>2020-09-04T09:58:59Z</time>
      </trkpt>
      <trkpt lat="39.869694" lon="4.134731">
        <ele>47.729</ele>
        <time>2020-09-04T09:59:07Z</time>
      </trkpt>
      <trkpt lat="39.869688" lon="4.134811">
        <ele>48.236</ele>
        <time>2020-09-04T09:59:13Z</time>
      </trkpt>
      <trkpt lat="39.869690" lon="4.134949">
        <ele>48.697</ele>
        <time>2020-09-04T09:59:22Z</time>
      </trkpt>
      <trkpt lat="39.869694" lon="4.135022">
        <ele>48.681</ele>
        <time>2020-09-04T09:59:27Z</time>
      </trkpt>
      <trkpt lat="39.869699" lon="4.135242">
        <ele>49.634</ele>
        <time>2020-09-04T09:59:43Z</time>
      </trkpt>
      <trkpt lat="39.869701" lon="4.135295">
        <ele>50.155</ele>
        <time>2020-09-04T09:59:47Z</time>
      </trkpt>
      <trkpt lat="39.869702" lon="4.135481">
        <ele>51.010</ele>
        <time>2020-09-04T10:00:00Z</time>
      </trkpt>
      <trkpt lat="39.869704" lon="4.135655">
        <ele>51.008</ele>
        <time>2020-09-04T10:00:12Z</time>
      </trkpt>
      <trkpt lat="39.869699" lon="4.135867">
        <ele>51.518</ele>
        <time>2020-09-04T10:00:26Z</time>
      </trkpt>
      <trkpt lat="39.869699" lon="4.136086">
        <ele>51.530</ele>
        <time>2020-09-04T10:00:41Z</time>
      </trkpt>
      <trkpt lat="39.869702" lon="4.136114">
        <ele>52.083</ele>
        <time>2020-09-04T10:00:43Z</time>
      </trkpt>
      <trkpt lat="39.869703" lon="4.136318">
        <ele>52.010</ele>
        <time>2020-09-04T10:00:57Z</time>
      </trkpt>
      <trkpt lat="39.869707" lon="4.136395">
        <ele>52.038</ele>
        <time>2020-09-04T10:01:02Z</time>
      </trkpt>
      <trkpt lat="39.869707" lon="4.136629">
        <ele>51.545</ele>
        <time>2020-09-04T10:01:18Z</time>
      </trkpt>
      <trkpt lat="39.869708" lon="4.136661">
        <ele>51.536</ele>
        <time>2020-09-04T10:01:20Z</time>
      </trkpt>
      <trkpt lat="39.869703" lon="4.136869">
        <ele>51.010</ele>
        <time>2020-09-04T10:01:34Z</time>
      </trkpt>
      <trkpt lat="39.869702" lon="4.136885">
        <ele>51.042</ele>
        <time>2020-09-04T10:01:35Z</time>
      </trkpt>
      <trkpt lat="39.869696" lon="4.136915">
        <ele>51.022</ele>
        <time>2020-09-04T10:01:37Z</time>
      </trkpt>
      <trkpt lat="39.869697" lon="4.137114">
        <ele>50.614</ele>
        <time>2020-09-04T10:01:51Z</time>
      </trkpt>
      <trkpt lat="39.869704" lon="4.137323">
        <ele>50.108</ele>
        <time>2020-09-04T10:02:05Z</time>
      </trkpt>
      <trkpt lat="39.869719" lon="4.137456">
        <ele>49.189</ele>
        <time>2020-09-04T10:02:13Z</time>
      </trkpt>
      <trkpt lat="39.869714" lon="4.137674">
        <ele>48.251</ele>
        <time>2020-09-04T10:02:27Z</time>
      </trkpt>
      <trkpt lat="39.869726" lon="4.137923">
        <ele>47.254</ele>
        <time>2020-09-04T10:02:43Z</time>
      </trkpt>
      <trkpt lat="39.869734" lon="4.137968">
        <ele>46.711</ele>
        <time>2020-09-04T10:02:47Z</time>
      </trkpt>
      <trkpt lat="39.869797" lon="4.138033">
        <ele>46.259</ele>
        <time>2020-09-04T10:02:55Z</time>
      </trkpt>
      <trkpt lat="39.870002" lon="4.138038">
        <ele>44.826</ele>
        <time>2020-09-04T10:03:14Z</time>
      </trkpt>
      <trkpt lat="39.870171" lon="4.138037">
        <ele>44.857</ele>
        <time>2020-09-04T10:03:31Z</time>
      </trkpt>
      <trkpt lat="39.870361" lon="4.138048">
        <ele>42.961</ele>
        <time>2020-09-04T10:03:48Z</time>
      </trkpt>
      <trkpt lat="39.870394" lon="4.138050">
        <ele>43.421</ele>
        <time>2020-09-04T10:03:51Z</time>
      </trkpt>
      <trkpt lat="39.870551" lon="4.138011">
        <ele>42.941</ele>
        <time>2020-09-04T10:04:06Z</time>
      </trkpt>
      <trkpt lat="39.870561" lon="4.138007">
        <ele>42.905</ele>
        <time>2020-09-04T10:04:07Z</time>
      </trkpt>
      <trkpt lat="39.870628" lon="4.137988">
        <ele>42.908</ele>
        <time>2020-09-04T10:04:11Z</time>
      </trkpt>
      <trkpt lat="39.870836" lon="4.137983">
        <ele>41.487</ele>
        <time>2020-09-04T10:04:29Z</time>
      </trkpt>
      <trkpt lat="39.870999" lon="4.137986">
        <ele>40.599</ele>
        <time>2020-09-04T10:04:44Z</time>
      </trkpt>
      <trkpt lat="39.871182" lon="4.137988">
        <ele>40.532</ele>
        <time>2020-09-04T10:05:00Z</time>
      </trkpt>
      <trkpt lat="39.871258" lon="4.138165">
        <ele>40.049</ele>
        <time>2020-09-04T10:05:18Z</time>
      </trkpt>
      <trkpt lat="39.871236" lon="4.138227">
        <ele>38.557</ele>
        <time>2020-09-04T10:05:30Z</time>
      </trkpt>
      <trkpt lat="39.871248" lon="4.138314">
        <ele>38.124</ele>
        <time>2020-09-04T10:05:41Z</time>
      </trkpt>
      <trkpt lat="39.871268" lon="4.138351">
        <ele>38.115</ele>
        <time>2020-09-04T10:05:45Z</time>
      </trkpt>
      <trkpt lat="39.871288" lon="4.138385">
        <ele>37.679</ele>
        <time>2020-09-04T10:05:48Z</time>
      </trkpt>
      <trkpt lat="39.871337" lon="4.138523">
        <ele>36.655</ele>
        <time>2020-09-04T10:05:59Z</time>
      </trkpt>
      <trkpt lat="39.871361" lon="4.138634">
        <ele>35.207</ele>
        <time>2020-09-04T10:06:11Z</time>
      </trkpt>
      <trkpt lat="39.871376" lon="4.138733">
        <ele>33.317</ele>
        <time>2020-09-04T10:06:23Z</time>
      </trkpt>
      <trkpt lat="39.871353" lon="4.138770">
        <ele>32.808</ele>
        <time>2020-09-04T10:06:27Z</time>
      </trkpt>
      <trkpt lat="39.871325" lon="4.138792">
        <ele>32.350</ele>
        <time>2020-09-04T10:06:30Z</time>
      </trkpt>
      <trkpt lat="39.871249" lon="4.138763">
        <ele>31.382</ele>
        <time>2020-09-04T10:06:45Z</time>
      </trkpt>
      <trkpt lat="39.871184" lon="4.138828">
        <ele>29.985</ele>
        <time>2020-09-04T10:06:56Z</time>
      </trkpt>
      <trkpt lat="39.871094" lon="4.138853">
        <ele>27.552</ele>
        <time>2020-09-04T10:07:09Z</time>
      </trkpt>
      <trkpt lat="39.871122" lon="4.138993">
        <ele>26.590</ele>
        <time>2020-09-04T10:07:21Z</time>
      </trkpt>
      <trkpt lat="39.871190" lon="4.139229">
        <ele>25.147</ele>
        <time>2020-09-04T10:07:37Z</time>
      </trkpt>
      <trkpt lat="39.871189" lon="4.139338">
        <ele>24.678</ele>
        <time>2020-09-04T10:07:46Z</time>
      </trkpt>
      <trkpt lat="39.871041" lon="4.139457">
        <ele>25.122</ele>
        <time>2020-09-04T10:08:01Z</time>
      </trkpt>
      <trkpt lat="39.870957" lon="4.139474">
        <ele>27.096</ele>
        <time>2020-09-04T10:08:14Z</time>
      </trkpt>
      <trkpt lat="39.870958" lon="4.139564">
        <ele>28.931</ele>
        <time>2020-09-04T10:08:26Z</time>
      </trkpt>
      <trkpt lat="39.870915" lon="4.139637">
        <ele>30.424</ele>
        <time>2020-09-04T10:08:36Z</time>
      </trkpt>
      <trkpt lat="39.870906" lon="4.139688">
        <ele>30.908</ele>
        <time>2020-09-04T10:08:41Z</time>
      </trkpt>
      <trkpt lat="39.870905" lon="4.139783">
        <ele>32.334</ele>
        <time>2020-09-04T10:08:53Z</time>
      </trkpt>
      <trkpt lat="39.870890" lon="4.139858">
        <ele>34.236</ele>
        <time>2020-09-04T10:09:05Z</time>
      </trkpt>
      <trkpt lat="39.870877" lon="4.139965">
        <ele>35.219</ele>
        <time>2020-09-04T10:09:17Z</time>
      </trkpt>
      <trkpt lat="39.870795" lon="4.140010">
        <ele>36.626</ele>
        <time>2020-09-04T10:09:29Z</time>
      </trkpt>
      <trkpt lat="39.870788" lon="4.140009">
        <ele>36.144</ele>
        <time>2020-09-04T10:09:30Z</time>
      </trkpt>
      <trkpt lat="39.870771" lon="4.140002">
        <ele>36.171</ele>
        <time>2020-09-04T10:09:32Z</time>
      </trkpt>
      <trkpt lat="39.870738" lon="4.139978">
        <ele>36.132</ele>
        <time>2020-09-04T10:09:36Z</time>
      </trkpt>
      <trkpt lat="39.870681" lon="4.139948">
        <ele>35.286</ele>
        <time>2020-09-04T10:09:43Z</time>
      </trkpt>
      <trkpt lat="39.870609" lon="4.139987">
        <ele>34.288</ele>
        <time>2020-09-04T10:09:50Z</time>
      </trkpt>
      <trkpt lat="39.870513" lon="4.140097">
        <ele>34.724</ele>
        <time>2020-09-04T10:10:04Z</time>
      </trkpt>
      <trkpt lat="39.870492" lon="4.140130">
        <ele>35.226</ele>
        <time>2020-09-04T10:10:08Z</time>
      </trkpt>
      <trkpt lat="39.870463" lon="4.140141">
        <ele>35.208</ele>
        <time>2020-09-04T10:10:11Z</time>
      </trkpt>
      <trkpt lat="39.870408" lon="4.140191">
        <ele>35.773</ele>
        <time>2020-09-04T10:10:17Z</time>
      </trkpt>
      <trkpt lat="39.870358" lon="4.140242">
        <ele>36.135</ele>
        <time>2020-09-04T10:10:23Z</time>
      </trkpt>
      <trkpt lat="39.870221" lon="4.140355">
        <ele>36.638</ele>
        <time>2020-09-04T10:10:37Z</time>
      </trkpt>
      <trkpt lat="39.870149" lon="4.140435">
        <ele>37.155</ele>
        <time>2020-09-04T10:10:46Z</time>
      </trkpt>
      <trkpt lat="39.870147" lon="4.140464">
        <ele>36.683</ele>
        <time>2020-09-04T10:10:48Z</time>
      </trkpt>
      <trkpt lat="39.870062" lon="4.140687">
        <ele>36.130</ele>
        <time>2020-09-04T10:11:04Z</time>
      </trkpt>
      <trkpt lat="39.869966" lon="4.140891">
        <ele>35.741</ele>
        <time>2020-09-04T10:11:20Z</time>
      </trkpt>
      <trkpt lat="39.869848" lon="4.141035">
        <ele>35.285</ele>
        <time>2020-09-04T10:11:34Z</time>
      </trkpt>
      <trkpt lat="39.869750" lon="4.141193">
        <ele>35.294</ele>
        <time>2020-09-04T10:11:48Z</time>
      </trkpt>
      <trkpt lat="39.869690" lon="4.141340">
        <ele>36.157</ele>
        <time>2020-09-04T10:12:00Z</time>
      </trkpt>
      <trkpt lat="39.869648" lon="4.141443">
        <ele>37.122</ele>
        <time>2020-09-04T10:12:10Z</time>
      </trkpt>
      <trkpt lat="39.869531" lon="4.141559">
        <ele>38.108</ele>
        <time>2020-09-04T10:12:24Z</time>
      </trkpt>
      <trkpt lat="39.869421" lon="4.141560">
        <ele>38.144</ele>
        <time>2020-09-04T10:12:39Z</time>
      </trkpt>
      <trkpt lat="39.869415" lon="4.141563">
        <ele>38.186</ele>
        <time>2020-09-04T10:12:42Z</time>
      </trkpt>
      <trkpt lat="39.869360" lon="4.141565">
        <ele>37.639</ele>
        <time>2020-09-04T10:12:47Z</time>
      </trkpt>
      <trkpt lat="39.869194" lon="4.141622">
        <ele>35.766</ele>
        <time>2020-09-04T10:13:02Z</time>
      </trkpt>
      <trkpt lat="39.869108" lon="4.141648">
        <ele>34.714</ele>
        <time>2020-09-04T10:13:15Z</time>
      </trkpt>
      <trkpt lat="39.869108" lon="4.141646">
        <ele>34.761</ele>
        <time>2020-09-04T10:13:31Z</time>
      </trkpt>
      <trkpt lat="39.869103" lon="4.141660">
        <ele>34.242</ele>
        <time>2020-09-04T10:14:01Z</time>
      </trkpt>
      <trkpt lat="39.869098" lon="4.141659">
        <ele>34.756</ele>
        <time>2020-09-04T10:14:18Z</time>
      </trkpt>
      <trkpt lat="39.869098" lon="4.141660">
        <ele>34.772</ele>
        <time>2020-09-04T10:14:41Z</time>
      </trkpt>
      <trkpt lat="39.869101" lon="4.141667">
        <ele>34.713</ele>
        <time>2020-09-04T10:15:02Z</time>
      </trkpt>
      <trkpt lat="39.869016" lon="4.141763">
        <ele>34.214</ele>
        <time>2020-09-04T10:15:19Z</time>
      </trkpt>
      <trkpt lat="39.868890" lon="4.141858">
        <ele>33.308</ele>
        <time>2020-09-04T10:15:34Z</time>
      </trkpt>
      <trkpt lat="39.868755" lon="4.141930">
        <ele>32.352</ele>
        <time>2020-09-04T10:15:48Z</time>
      </trkpt>
      <trkpt lat="39.868620" lon="4.142032">
        <ele>32.394</ele>
        <time>2020-09-04T10:16:02Z</time>
      </trkpt>
      <trkpt lat="39.868496" lon="4.142162">
        <ele>32.827</ele>
        <time>2020-09-04T10:16:16Z</time>
      </trkpt>
      <trkpt lat="39.868430" lon="4.142218">
        <ele>33.784</ele>
        <time>2020-09-04T10:16:25Z</time>
      </trkpt>
      <trkpt lat="39.868373" lon="4.142302">
        <ele>35.222</ele>
        <time>2020-09-04T10:16:37Z</time>
      </trkpt>
      <trkpt lat="39.868244" lon="4.142375">
        <ele>35.259</ele>
        <time>2020-09-04T10:16:54Z</time>
      </trkpt>
      <trkpt lat="39.868247" lon="4.142384">
        <ele>35.260</ele>
        <time>2020-09-04T10:16:59Z</time>
      </trkpt>
      <trkpt lat="39.868209" lon="4.142424">
        <ele>35.234</ele>
        <time>2020-09-04T10:17:03Z</time>
      </trkpt>
      <trkpt lat="39.868085" lon="4.142546">
        <ele>35.279</ele>
        <time>2020-09-04T10:17:17Z</time>
      </trkpt>
      <trkpt lat="39.867977" lon="4.142753">
        <ele>35.205</ele>
        <time>2020-09-04T10:17:34Z</time>
      </trkpt>
      <trkpt lat="39.867926" lon="4.142912">
        <ele>36.125</ele>
        <time>2020-09-04T10:17:47Z</time>
      </trkpt>
      <trkpt lat="39.867926" lon="4.143055">
        <ele>37.608</ele>
        <time>2020-09-04T10:18:01Z</time>
      </trkpt>
      <trkpt lat="39.867956" lon="4.143138">
        <ele>38.152</ele>
        <time>2020-09-04T10:18:09Z</time>
      </trkpt>
      <trkpt lat="39.867967" lon="4.143158">
        <ele>38.514</ele>
        <time>2020-09-04T10:18:11Z</time>
      </trkpt>
      <trkpt lat="39.867997" lon="4.143279">
        <ele>39.557</ele>
        <time>2020-09-04T10:18:23Z</time>
      </trkpt>
      <trkpt lat="39.867993" lon="4.143346">
        <ele>40.044</ele>
        <time>2020-09-04T10:18:29Z</time>
      </trkpt>
      <trkpt lat="39.867857" lon="4.143461">
        <ele>40.592</ele>
        <time>2020-09-04T10:18:45Z</time>
      </trkpt>
      <trkpt lat="39.867747" lon="4.143544">
        <ele>40.999</ele>
        <time>2020-09-04T10:18:58Z</time>
      </trkpt>
      <trkpt lat="39.867635" lon="4.143627">
        <ele>41.910</ele>
        <time>2020-09-04T10:19:11Z</time>
      </trkpt>
      <trkpt lat="39.867529" lon="4.143753">
        <ele>43.494</ele>
        <time>2020-09-04T10:19:25Z</time>
      </trkpt>
      <trkpt lat="39.867397" lon="4.143889">
        <ele>44.832</ele>
        <time>2020-09-04T10:19:42Z</time>
      </trkpt>
      <trkpt lat="39.867263" lon="4.143963">
        <ele>45.392</ele>
        <time>2020-09-04T10:19:56Z</time>
      </trkpt>
      <trkpt lat="39.867099" lon="4.144041">
        <ele>45.811</ele>
        <time>2020-09-04T10:20:14Z</time>
      </trkpt>
      <trkpt lat="39.867060" lon="4.144035">
        <ele>45.308</ele>
        <time>2020-09-04T10:20:18Z</time>
      </trkpt>
      <trkpt lat="39.866956" lon="4.144057">
        <ele>44.378</ele>
        <time>2020-09-04T10:20:28Z</time>
      </trkpt>
      <trkpt lat="39.866824" lon="4.144026">
        <ele>42.930</ele>
        <time>2020-09-04T10:20:43Z</time>
      </trkpt>
      <trkpt lat="39.866770" lon="4.144004">
        <ele>41.933</ele>
        <time>2020-09-04T10:20:48Z</time>
      </trkpt>
      <trkpt lat="39.866575" lon="4.144085">
        <ele>40.530</ele>
        <time>2020-09-04T10:21:06Z</time>
      </trkpt>
      <trkpt lat="39.866526" lon="4.144087">
        <ele>40.078</ele>
        <time>2020-09-04T10:21:10Z</time>
      </trkpt>
      <trkpt lat="39.866438" lon="4.144088">
        <ele>39.545</ele>
        <time>2020-09-04T10:21:20Z</time>
      </trkpt>
      <trkpt lat="39.866306" lon="4.144158">
        <ele>38.196</ele>
        <time>2020-09-04T10:21:38Z</time>
      </trkpt>
      <trkpt lat="39.866330" lon="4.144203">
        <ele>39.030</ele>
        <time>2020-09-04T10:21:51Z</time>
      </trkpt>
      <trkpt lat="39.866342" lon="4.144442">
        <ele>40.023</ele>
        <time>2020-09-04T10:22:06Z</time>
      </trkpt>
      <trkpt lat="39.866350" lon="4.144567">
        <ele>40.983</ele>
        <time>2020-09-04T10:22:20Z</time>
      </trkpt>
      <trkpt lat="39.866368" lon="4.144733">
        <ele>42.411</ele>
        <time>2020-09-04T10:22:33Z</time>
      </trkpt>
      <trkpt lat="39.866401" lon="4.144864">
        <ele>43.808</ele>
        <time>2020-09-04T10:22:50Z</time>
      </trkpt>
      <trkpt lat="39.866424" lon="4.145036">
        <ele>44.897</ele>
        <time>2020-09-04T10:23:06Z</time>
      </trkpt>
      <trkpt lat="39.866459" lon="4.145202">
        <ele>44.879</ele>
        <time>2020-09-04T10:23:20Z</time>
      </trkpt>
      <trkpt lat="39.866464" lon="4.145229">
        <ele>45.322</ele>
        <time>2020-09-04T10:23:22Z</time>
      </trkpt>
      <trkpt lat="39.866500" lon="4.145412">
        <ele>44.879</ele>
        <time>2020-09-04T10:23:37Z</time>
      </trkpt>
      <trkpt lat="39.866494" lon="4.145585">
        <ele>44.867</ele>
        <time>2020-09-04T10:23:50Z</time>
      </trkpt>
      <trkpt lat="39.866476" lon="4.145708">
        <ele>44.374</ele>
        <time>2020-09-04T10:24:00Z</time>
      </trkpt>
      <trkpt lat="39.866451" lon="4.145892">
        <ele>43.465</ele>
        <time>2020-09-04T10:24:14Z</time>
      </trkpt>
      <trkpt lat="39.866426" lon="4.146025">
        <ele>42.969</ele>
        <time>2020-09-04T10:24:24Z</time>
      </trkpt>
      <trkpt lat="39.866464" lon="4.146195">
        <ele>41.951</ele>
        <time>2020-09-04T10:24:40Z</time>
      </trkpt>
      <trkpt lat="39.866507" lon="4.146348">
        <ele>40.001</ele>
        <time>2020-09-04T10:24:54Z</time>
      </trkpt>
      <trkpt lat="39.866542" lon="4.146473">
        <ele>39.011</ele>
        <time>2020-09-04T10:25:03Z</time>
      </trkpt>
      <trkpt lat="39.866593" lon="4.146564">
        <ele>37.608</ele>
        <time>2020-09-04T10:25:14Z</time>
      </trkpt>
      <trkpt lat="39.866622" lon="4.146650">
        <ele>35.710</ele>
        <time>2020-09-04T10:25:25Z</time>
      </trkpt>
      <trkpt lat="39.866652" lon="4.146727">
        <ele>33.712</ele>
        <time>2020-09-04T10:25:37Z</time>
      </trkpt>
      <trkpt lat="39.866665" lon="4.146811">
        <ele>31.895</ele>
        <time>2020-09-04T10:25:47Z</time>
      </trkpt>
      <trkpt lat="39.866681" lon="4.146914">
        <ele>29.482</ele>
        <time>2020-09-04T10:25:59Z</time>
      </trkpt>
      <trkpt lat="39.866685" lon="4.146939">
        <ele>29.460</ele>
        <time>2020-09-04T10:26:01Z</time>
      </trkpt>
      <trkpt lat="39.866658" lon="4.147095">
        <ele>28.017</ele>
        <time>2020-09-04T10:26:16Z</time>
      </trkpt>
      <trkpt lat="39.866578" lon="4.147109">
        <ele>25.688</ele>
        <time>2020-09-04T10:26:29Z</time>
      </trkpt>
      <trkpt lat="39.866502" lon="4.147173">
        <ele>23.282</ele>
        <time>2020-09-04T10:26:43Z</time>
      </trkpt>
      <trkpt lat="39.866456" lon="4.147252">
        <ele>21.294</ele>
        <time>2020-09-04T10:26:55Z</time>
      </trkpt>
      <trkpt lat="39.866436" lon="4.147277">
        <ele>21.257</ele>
        <time>2020-09-04T10:26:58Z</time>
      </trkpt>
      <trkpt lat="39.866394" lon="4.147444">
        <ele>18.822</ele>
        <time>2020-09-04T10:27:14Z</time>
      </trkpt>
      <trkpt lat="39.866352" lon="4.147541">
        <ele>16.408</ele>
        <time>2020-09-04T10:27:28Z</time>
      </trkpt>
      <trkpt lat="39.866296" lon="4.147660">
        <ele>14.534</ele>
        <time>2020-09-04T10:27:43Z</time>
      </trkpt>
      <trkpt lat="39.866258" lon="4.147721">
        <ele>12.696</ele>
        <time>2020-09-04T10:27:56Z</time>
      </trkpt>
      <trkpt lat="39.866257" lon="4.147740">
        <ele>11.619</ele>
        <time>2020-09-04T10:28:11Z</time>
      </trkpt>
      <trkpt lat="39.866199" lon="4.147803">
        <ele>9.726</ele>
        <time>2020-09-04T10:28:25Z</time>
      </trkpt>
      <trkpt lat="39.866121" lon="4.147898">
        <ele>7.844</ele>
        <time>2020-09-04T10:28:40Z</time>
      </trkpt>
      <trkpt lat="39.866064" lon="4.148026">
        <ele>5.961</ele>
        <time>2020-09-04T10:28:57Z</time>
      </trkpt>
      <trkpt lat="39.866046" lon="4.148045">
        <ele>3.592</ele>
        <time>2020-09-04T10:29:10Z</time>
      </trkpt>
      <trkpt lat="39.866044" lon="4.148048">
        <ele>3.976</ele>
        <time>2020-09-04T10:29:17Z</time>
      </trkpt>
      <trkpt lat="39.865956" lon="4.148115">
        <ele>2.014</ele>
        <time>2020-09-04T10:29:31Z</time>
      </trkpt>
      <trkpt lat="39.865939" lon="4.148180">
        <ele>2.054</ele>
        <time>2020-09-04T10:29:53Z</time>
      </trkpt>
      <trkpt lat="39.865956" lon="4.148241">
        <ele>2.009</ele>
        <time>2020-09-04T10:29:58Z</time>
      </trkpt>
      <trkpt lat="39.866079" lon="4.148378">
        <ele>2.008</ele>
        <time>2020-09-04T10:30:13Z</time>
      </trkpt>
      <trkpt lat="39.866200" lon="4.148492">
        <ele>2.546</ele>
        <time>2020-09-04T10:30:28Z</time>
      </trkpt>
      <trkpt lat="39.866221" lon="4.148541">
        <ele>2.068</ele>
        <time>2020-09-04T10:30:32Z</time>
      </trkpt>
      <trkpt lat="39.866286" lon="4.148719">
        <ele>2.011</ele>
        <time>2020-09-04T10:30:48Z</time>
      </trkpt>
      <trkpt lat="39.866324" lon="4.148915">
        <ele>3.078</ele>
        <time>2020-09-04T10:31:05Z</time>
      </trkpt>
      <trkpt lat="39.866320" lon="4.148971">
        <ele>3.016</ele>
        <time>2020-09-04T10:31:10Z</time>
      </trkpt>
      <trkpt lat="39.866385" lon="4.149079">
        <ele>3.513</ele>
        <time>2020-09-04T10:31:23Z</time>
      </trkpt>
      <trkpt lat="39.866376" lon="4.149128">
        <ele>3.924</ele>
        <time>2020-09-04T10:31:36Z</time>
      </trkpt>
      <trkpt lat="39.866340" lon="4.149182">
        <ele>3.928</ele>
        <time>2020-09-04T10:31:39Z</time>
      </trkpt>
      <trkpt lat="39.866407" lon="4.149822">
        <ele>5.989</ele>
        <time>2020-09-04T10:32:10Z</time>
      </trkpt>
      <trkpt lat="39.866428" lon="4.149843">
        <ele>5.406</ele>
        <time>2020-09-04T10:32:12Z</time>
      </trkpt>
      <trkpt lat="39.866421" lon="4.149986">
        <ele>6.826</ele>
        <time>2020-09-04T10:32:27Z</time>
      </trkpt>
      <trkpt lat="39.866385" lon="4.150069">
        <ele>8.708</ele>
        <time>2020-09-04T10:32:40Z</time>
      </trkpt>
      <trkpt lat="39.866359" lon="4.150159">
        <ele>10.233</ele>
        <time>2020-09-04T10:32:53Z</time>
      </trkpt>
      <trkpt lat="39.866369" lon="4.150239">
        <ele>12.175</ele>
        <time>2020-09-04T10:33:05Z</time>
      </trkpt>
      <trkpt lat="39.866359" lon="4.150367">
        <ele>13.148</ele>
        <time>2020-09-04T10:33:18Z</time>
      </trkpt>
      <trkpt lat="39.866362" lon="4.150482">
        <ele>14.055</ele>
        <time>2020-09-04T10:33:30Z</time>
      </trkpt>
      <trkpt lat="39.866329" lon="4.150541">
        <ele>15.543</ele>
        <time>2020-09-04T10:33:41Z</time>
      </trkpt>
      <trkpt lat="39.866301" lon="4.150592">
        <ele>17.990</ele>
        <time>2020-09-04T10:33:53Z</time>
      </trkpt>
      <trkpt lat="39.866290" lon="4.150721">
        <ele>18.471</ele>
        <time>2020-09-04T10:34:06Z</time>
      </trkpt>
      <trkpt lat="39.866266" lon="4.150807">
        <ele>19.835</ele>
        <time>2020-09-04T10:34:16Z</time>
      </trkpt>
      <trkpt lat="39.866268" lon="4.150911">
        <ele>20.898</ele>
        <time>2020-09-04T10:34:27Z</time>
      </trkpt>
      <trkpt lat="39.866269" lon="4.150940">
        <ele>21.215</ele>
        <time>2020-09-04T10:34:30Z</time>
      </trkpt>
      <trkpt lat="39.866278" lon="4.151073">
        <ele>22.226</ele>
        <time>2020-09-04T10:34:41Z</time>
      </trkpt>
      <trkpt lat="39.866274" lon="4.151098">
        <ele>22.708</ele>
        <time>2020-09-04T10:34:43Z</time>
      </trkpt>
      <trkpt lat="39.866263" lon="4.151211">
        <ele>24.164</ele>
        <time>2020-09-04T10:34:56Z</time>
      </trkpt>
      <trkpt lat="39.866254" lon="4.151281">
        <ele>25.696</ele>
        <time>2020-09-04T10:35:08Z</time>
      </trkpt>
      <trkpt lat="39.866238" lon="4.151253">
        <ele>26.589</ele>
        <time>2020-09-04T10:35:21Z</time>
      </trkpt>
      <trkpt lat="39.866244" lon="4.151259">
        <ele>26.026</ele>
        <time>2020-09-04T10:35:56Z</time>
      </trkpt>
      <trkpt lat="39.866247" lon="4.151253">
        <ele>26.574</ele>
        <time>2020-09-04T10:36:26Z</time>
      </trkpt>
      <trkpt lat="39.866208" lon="4.151160">
        <ele>27.521</ele>
        <time>2020-09-04T10:36:39Z</time>
      </trkpt>
      <trkpt lat="39.866176" lon="4.151141">
        <ele>28.042</ele>
        <time>2020-09-04T10:36:57Z</time>
      </trkpt>
      <trkpt lat="39.866089" lon="4.151240">
        <ele>29.916</ele>
        <time>2020-09-04T10:37:12Z</time>
      </trkpt>
      <trkpt lat="39.866095" lon="4.151283">
        <ele>31.361</ele>
        <time>2020-09-04T10:37:26Z</time>
      </trkpt>
      <trkpt lat="39.866061" lon="4.151351">
        <ele>32.821</ele>
        <time>2020-09-04T10:37:37Z</time>
      </trkpt>
      <trkpt lat="39.866013" lon="4.151369">
        <ele>34.713</ele>
        <time>2020-09-04T10:37:49Z</time>
      </trkpt>
      <trkpt lat="39.865963" lon="4.151420">
        <ele>36.108</ele>
        <time>2020-09-04T10:38:01Z</time>
      </trkpt>
      <trkpt lat="39.865930" lon="4.151515">
        <ele>37.191</ele>
        <time>2020-09-04T10:38:11Z</time>
      </trkpt>
      <trkpt lat="39.865882" lon="4.151714">
        <ele>38.143</ele>
        <time>2020-09-04T10:38:27Z</time>
      </trkpt>
      <trkpt lat="39.865848" lon="4.151855">
        <ele>38.556</ele>
        <time>2020-09-04T10:38:39Z</time>
      </trkpt>
      <trkpt lat="39.865831" lon="4.151923">
        <ele>39.093</ele>
        <time>2020-09-04T10:38:45Z</time>
      </trkpt>
      <trkpt lat="39.865829" lon="4.151974">
        <ele>39.591</ele>
        <time>2020-09-04T10:38:49Z</time>
      </trkpt>
      <trkpt lat="39.865794" lon="4.152072">
        <ele>39.568</ele>
        <time>2020-09-04T10:38:57Z</time>
      </trkpt>
      <trkpt lat="39.865765" lon="4.152134">
        <ele>39.529</ele>
        <time>2020-09-04T10:39:03Z</time>
      </trkpt>
      <trkpt lat="39.865749" lon="4.152172">
        <ele>39.053</ele>
        <time>2020-09-04T10:39:06Z</time>
      </trkpt>
      <trkpt lat="39.865682" lon="4.152235">
        <ele>39.087</ele>
        <time>2020-09-04T10:39:14Z</time>
      </trkpt>
      <trkpt lat="39.865567" lon="4.152357">
        <ele>39.042</ele>
        <time>2020-09-04T10:39:29Z</time>
      </trkpt>
      <trkpt lat="39.865517" lon="4.152455">
        <ele>39.026</ele>
        <time>2020-09-04T10:39:42Z</time>
      </trkpt>
      <trkpt lat="39.865535" lon="4.152498">
        <ele>38.508</ele>
        <time>2020-09-04T10:39:46Z</time>
      </trkpt>
      <trkpt lat="39.865580" lon="4.152521">
        <ele>38.523</ele>
        <time>2020-09-04T10:39:51Z</time>
      </trkpt>
      <trkpt lat="39.865567" lon="4.152574">
        <ele>38.545</ele>
        <time>2020-09-04T10:39:54Z</time>
      </trkpt>
      <trkpt lat="39.865444" lon="4.152773">
        <ele>38.548</ele>
        <time>2020-09-04T10:40:11Z</time>
      </trkpt>
      <trkpt lat="39.865394" lon="4.153012">
        <ele>39.055</ele>
        <time>2020-09-04T10:40:28Z</time>
      </trkpt>
      <trkpt lat="39.865371" lon="4.153079">
        <ele>39.043</ele>
        <time>2020-09-04T10:40:33Z</time>
      </trkpt>
      <trkpt lat="39.865230" lon="4.153181">
        <ele>39.530</ele>
        <time>2020-09-04T10:40:48Z</time>
      </trkpt>
      <trkpt lat="39.865181" lon="4.153220">
        <ele>40.051</ele>
        <time>2020-09-04T10:40:53Z</time>
      </trkpt>
      <trkpt lat="39.865049" lon="4.153395">
        <ele>40.535</ele>
        <time>2020-09-04T10:41:11Z</time>
      </trkpt>
      <trkpt lat="39.864956" lon="4.153532">
        <ele>41.465</ele>
        <time>2020-09-04T10:41:24Z</time>
      </trkpt>
      <trkpt lat="39.864847" lon="4.153665">
        <ele>42.468</ele>
        <time>2020-09-04T10:41:39Z</time>
      </trkpt>
      <trkpt lat="39.864768" lon="4.153769">
        <ele>43.414</ele>
        <time>2020-09-04T10:41:52Z</time>
      </trkpt>
      <trkpt lat="39.864750" lon="4.153778">
        <ele>43.808</ele>
        <time>2020-09-04T10:41:54Z</time>
      </trkpt>
      <trkpt lat="39.864729" lon="4.153797">
        <ele>44.371</ele>
        <time>2020-09-04T10:41:59Z</time>
      </trkpt>
      <trkpt lat="39.864710" lon="4.153899">
        <ele>45.323</ele>
        <time>2020-09-04T10:42:09Z</time>
      </trkpt>
      <trkpt lat="39.864627" lon="4.153913">
        <ele>46.256</ele>
        <time>2020-09-04T10:42:22Z</time>
      </trkpt>
      <trkpt lat="39.864606" lon="4.153923">
        <ele>46.753</ele>
        <time>2020-09-04T10:42:26Z</time>
      </trkpt>
      <trkpt lat="39.864583" lon="4.153944">
        <ele>46.761</ele>
        <time>2020-09-04T10:42:29Z</time>
      </trkpt>
      <trkpt lat="39.864504" lon="4.154144">
        <ele>46.748</ele>
        <time>2020-09-04T10:42:46Z</time>
      </trkpt>
      <trkpt lat="39.864401" lon="4.154309">
        <ele>47.759</ele>
        <time>2020-09-04T10:43:02Z</time>
      </trkpt>
      <trkpt lat="39.864355" lon="4.154375">
        <ele>48.233</ele>
        <time>2020-09-04T10:43:09Z</time>
      </trkpt>
      <trkpt lat="39.864340" lon="4.154403">
        <ele>48.294</ele>
        <time>2020-09-04T10:43:12Z</time>
      </trkpt>
      <trkpt lat="39.864255" lon="4.154512">
        <ele>48.657</ele>
        <time>2020-09-04T10:43:24Z</time>
      </trkpt>
      <trkpt lat="39.864201" lon="4.154605">
        <ele>49.122</ele>
        <time>2020-09-04T10:43:34Z</time>
      </trkpt>
      <trkpt lat="39.864149" lon="4.154847">
        <ele>49.108</ele>
        <time>2020-09-04T10:43:52Z</time>
      </trkpt>
      <trkpt lat="39.864096" lon="4.155066">
        <ele>48.644</ele>
        <time>2020-09-04T10:44:08Z</time>
      </trkpt>
      <trkpt lat="39.864045" lon="4.155291">
        <ele>48.266</ele>
        <time>2020-09-04T10:44:25Z</time>
      </trkpt>
      <trkpt lat="39.864041" lon="4.155344">
        <ele>48.239</ele>
        <time>2020-09-04T10:44:29Z</time>
      </trkpt>
      <trkpt lat="39.863990" lon="4.155525">
        <ele>47.716</ele>
        <time>2020-09-04T10:44:44Z</time>
      </trkpt>
      <trkpt lat="39.863919" lon="4.155619">
        <ele>48.694</ele>
        <time>2020-09-04T10:44:57Z</time>
      </trkpt>
      <trkpt lat="39.863917" lon="4.155685">
        <ele>49.141</ele>
        <time>2020-09-04T10:45:08Z</time>
      </trkpt>
      <trkpt lat="39.863922" lon="4.155695">
        <ele>48.622</ele>
        <time>2020-09-04T10:45:09Z</time>
      </trkpt>
      <trkpt lat="39.863950" lon="4.155936">
        <ele>48.616</ele>
        <time>2020-09-04T10:45:26Z</time>
      </trkpt>
      <trkpt lat="39.863949" lon="4.155951">
        <ele>48.682</ele>
        <time>2020-09-04T10:45:27Z</time>
      </trkpt>
      <trkpt lat="39.863951" lon="4.155982">
        <ele>48.643</ele>
        <time>2020-09-04T10:45:29Z</time>
      </trkpt>
      <trkpt lat="39.863917" lon="4.156227">
        <ele>48.217</ele>
        <time>2020-09-04T10:45:46Z</time>
      </trkpt>
      <trkpt lat="39.863854" lon="4.156438">
        <ele>47.708</ele>
        <time>2020-09-04T10:46:02Z</time>
      </trkpt>
      <trkpt lat="39.863777" lon="4.156689">
        <ele>47.263</ele>
        <time>2020-09-04T10:46:20Z</time>
      </trkpt>
      <trkpt lat="39.863715" lon="4.156889">
        <ele>47.235</ele>
        <time>2020-09-04T10:46:35Z</time>
      </trkpt>
      <trkpt lat="39.863655" lon="4.157061">
        <ele>47.228</ele>
        <time>2020-09-04T10:46:49Z</time>
      </trkpt>
      <trkpt lat="39.863630" lon="4.157097">
        <ele>47.265</ele>
        <time>2020-09-04T10:46:53Z</time>
      </trkpt>
      <trkpt lat="39.863580" lon="4.157199">
        <ele>47.263</ele>
        <time>2020-09-04T10:47:07Z</time>
      </trkpt>
      <trkpt lat="39.863579" lon="4.157206">
        <ele>47.240</ele>
        <time>2020-09-04T10:47:08Z</time>
      </trkpt>
      <trkpt lat="39.863544" lon="4.157239">
        <ele>47.721</ele>
        <time>2020-09-04T10:47:12Z</time>
      </trkpt>
      <trkpt lat="39.863441" lon="4.157394">
        <ele>48.275</ele>
        <time>2020-09-04T10:47:28Z</time>
      </trkpt>
      <trkpt lat="39.863364" lon="4.157628">
        <ele>47.788</ele>
        <time>2020-09-04T10:47:45Z</time>
      </trkpt>
      <trkpt lat="39.863270" lon="4.157885">
        <ele>47.724</ele>
        <time>2020-09-04T10:48:04Z</time>
      </trkpt>
      <trkpt lat="39.863163" lon="4.158024">
        <ele>48.226</ele>
        <time>2020-09-04T10:48:19Z</time>
      </trkpt>
      <trkpt lat="39.863112" lon="4.158159">
        <ele>49.608</ele>
        <time>2020-09-04T10:48:33Z</time>
      </trkpt>
      <trkpt lat="39.863105" lon="4.158182">
        <ele>50.183</ele>
        <time>2020-09-04T10:48:37Z</time>
      </trkpt>
      <trkpt lat="39.863086" lon="4.158224">
        <ele>50.195</ele>
        <time>2020-09-04T10:48:41Z</time>
      </trkpt>
      <trkpt lat="39.863064" lon="4.158289">
        <ele>49.658</ele>
        <time>2020-09-04T10:48:47Z</time>
      </trkpt>
      <trkpt lat="39.862993" lon="4.158491">
        <ele>50.125</ele>
        <time>2020-09-04T10:49:03Z</time>
      </trkpt>
      <trkpt lat="39.862918" lon="4.158689">
        <ele>50.113</ele>
        <time>2020-09-04T10:49:18Z</time>
      </trkpt>
      <trkpt lat="39.862843" lon="4.158886">
        <ele>50.660</ele>
        <time>2020-09-04T10:49:33Z</time>
      </trkpt>
      <trkpt lat="39.862739" lon="4.159090">
        <ele>50.611</ele>
        <time>2020-09-04T10:49:50Z</time>
      </trkpt>
      <trkpt lat="39.862640" lon="4.159259">
        <ele>51.025</ele>
        <time>2020-09-04T10:50:05Z</time>
      </trkpt>
      <trkpt lat="39.862596" lon="4.159366">
        <ele>51.017</ele>
        <time>2020-09-04T10:50:14Z</time>
      </trkpt>
      <trkpt lat="39.862548" lon="4.159441">
        <ele>51.087</ele>
        <time>2020-09-04T10:50:21Z</time>
      </trkpt>
      <trkpt lat="39.862531" lon="4.159517">
        <ele>51.515</ele>
        <time>2020-09-04T10:50:26Z</time>
      </trkpt>
      <trkpt lat="39.862462" lon="4.159652">
        <ele>51.508</ele>
        <time>2020-09-04T10:50:38Z</time>
      </trkpt>
      <trkpt lat="39.862365" lon="4.159840">
        <ele>51.566</ele>
        <time>2020-09-04T10:50:54Z</time>
      </trkpt>
      <trkpt lat="39.862251" lon="4.160031">
        <ele>51.088</ele>
        <time>2020-09-04T10:51:10Z</time>
      </trkpt>
      <trkpt lat="39.862134" lon="4.160237">
        <ele>51.561</ele>
        <time>2020-09-04T10:51:27Z</time>
      </trkpt>
      <trkpt lat="39.862038" lon="4.160350">
        <ele>52.568</ele>
        <time>2020-09-04T10:51:41Z</time>
      </trkpt>
      <trkpt lat="39.861972" lon="4.160420">
        <ele>53.926</ele>
        <time>2020-09-04T10:51:54Z</time>
      </trkpt>
      <trkpt lat="39.861883" lon="4.160582">
        <ele>54.473</ele>
        <time>2020-09-04T10:52:09Z</time>
      </trkpt>
      <trkpt lat="39.861751" lon="4.160713">
        <ele>54.914</ele>
        <time>2020-09-04T10:52:24Z</time>
      </trkpt>
      <trkpt lat="39.861647" lon="4.160863">
        <ele>55.478</ele>
        <time>2020-09-04T10:52:39Z</time>
      </trkpt>
      <trkpt lat="39.861603" lon="4.160910">
        <ele>55.412</ele>
        <time>2020-09-04T10:52:46Z</time>
      </trkpt>
      <trkpt lat="39.861519" lon="4.161006">
        <ele>55.832</ele>
        <time>2020-09-04T10:53:00Z</time>
      </trkpt>
      <trkpt lat="39.861446" lon="4.161090">
        <ele>55.805</ele>
        <time>2020-09-04T10:53:14Z</time>
      </trkpt>
      <trkpt lat="39.861347" lon="4.161211">
        <ele>55.808</ele>
        <time>2020-09-04T10:53:29Z</time>
      </trkpt>
      <trkpt lat="39.861267" lon="4.161294">
        <ele>55.866</ele>
        <time>2020-09-04T10:53:42Z</time>
      </trkpt>
      <trkpt lat="39.861249" lon="4.161308">
        <ele>56.318</ele>
        <time>2020-09-04T10:53:44Z</time>
      </trkpt>
      <trkpt lat="39.861167" lon="4.161431">
        <ele>55.441</ele>
        <time>2020-09-04T10:53:56Z</time>
      </trkpt>
      <trkpt lat="39.861087" lon="4.161538">
        <ele>55.498</ele>
        <time>2020-09-04T10:54:12Z</time>
      </trkpt>
      <trkpt lat="39.861058" lon="4.161550">
        <ele>55.496</ele>
        <time>2020-09-04T10:54:16Z</time>
      </trkpt>
      <trkpt lat="39.860925" lon="4.161551">
        <ele>55.423</ele>
        <time>2020-09-04T10:54:31Z</time>
      </trkpt>
      <trkpt lat="39.860883" lon="4.161551">
        <ele>55.864</ele>
        <time>2020-09-04T10:54:34Z</time>
      </trkpt>
      <trkpt lat="39.860800" lon="4.161535">
        <ele>55.838</ele>
        <time>2020-09-04T10:54:41Z</time>
      </trkpt>
      <trkpt lat="39.860780" lon="4.161524">
        <ele>56.351</ele>
        <time>2020-09-04T10:54:43Z</time>
      </trkpt>
      <trkpt lat="39.860707" lon="4.161480">
        <ele>56.801</ele>
        <time>2020-09-04T10:54:51Z</time>
      </trkpt>
      <trkpt lat="39.860656" lon="4.161481">
        <ele>57.311</ele>
        <time>2020-09-04T10:54:57Z</time>
      </trkpt>
      <trkpt lat="39.860613" lon="4.161474">
        <ele>57.808</ele>
        <time>2020-09-04T10:55:01Z</time>
      </trkpt>
      <trkpt lat="39.860530" lon="4.161510">
        <ele>57.870</ele>
        <time>2020-09-04T10:55:09Z</time>
      </trkpt>
      <trkpt lat="39.860490" lon="4.161508">
        <ele>58.312</ele>
        <time>2020-09-04T10:55:13Z</time>
      </trkpt>
      <trkpt lat="39.860384" lon="4.161552">
        <ele>58.395</ele>
        <time>2020-09-04T10:55:23Z</time>
      </trkpt>
      <trkpt lat="39.860307" lon="4.161762">
        <ele>57.842</ele>
        <time>2020-09-04T10:55:41Z</time>
      </trkpt>
      <trkpt lat="39.860308" lon="4.161818">
        <ele>57.890</ele>
        <time>2020-09-04T10:55:45Z</time>
      </trkpt>
      <trkpt lat="39.860261" lon="4.162035">
        <ele>57.377</ele>
        <time>2020-09-04T10:56:00Z</time>
      </trkpt>
      <trkpt lat="39.860199" lon="4.162293">
        <ele>57.378</ele>
        <time>2020-09-04T10:56:17Z</time>
      </trkpt>
      <trkpt lat="39.860138" lon="4.162565">
        <ele>56.872</ele>
        <time>2020-09-04T10:56:36Z</time>
      </trkpt>
      <trkpt lat="39.860129" lon="4.162596">
        <ele>56.882</ele>
        <time>2020-09-04T10:56:38Z</time>
      </trkpt>
      <trkpt lat="39.860097" lon="4.162838">
        <ele>57.343</ele>
        <time>2020-09-04T10:56:54Z</time>
      </trkpt>
      <trkpt lat="39.860052" lon="4.163105">
        <ele>56.817</ele>
        <time>2020-09-04T10:57:12Z</time>
      </trkpt>
      <trkpt lat="39.860059" lon="4.163118">
        <ele>56.808</ele>
        <time>2020-09-04T10:57:13Z</time>
      </trkpt>
      <trkpt lat="39.860085" lon="4.163146">
        <ele>56.823</ele>
        <time>2020-09-04T10:57:16Z</time>
      </trkpt>
      <trkpt lat="39.860113" lon="4.163277">
        <ele>55.835</ele>
        <time>2020-09-04T10:57:26Z</time>
      </trkpt>
      <trkpt lat="39.859999" lon="4.163459">
        <ele>56.388</ele>
        <time>2020-09-04T10:57:42Z</time>
      </trkpt>
      <trkpt lat="39.859922" lon="4.163641">
        <ele>55.895</ele>
        <time>2020-09-04T10:57:57Z</time>
      </trkpt>
      <trkpt lat="39.859881" lon="4.163694">
        <ele>55.873</ele>
        <time>2020-09-04T10:58:02Z</time>
      </trkpt>
      <trkpt lat="39.859846" lon="4.163784">
        <ele>55.890</ele>
        <time>2020-09-04T10:58:16Z</time>
      </trkpt>
      <trkpt lat="39.859830" lon="4.163816">
        <ele>55.881</ele>
        <time>2020-09-04T10:58:28Z</time>
      </trkpt>
      <trkpt lat="39.859828" lon="4.163828">
        <ele>55.815</ele>
        <time>2020-09-04T10:58:29Z</time>
      </trkpt>
      <trkpt lat="39.859813" lon="4.164061">
        <ele>55.459</ele>
        <time>2020-09-04T10:58:44Z</time>
      </trkpt>
      <trkpt lat="39.859834" lon="4.164241">
        <ele>55.403</ele>
        <time>2020-09-04T10:58:56Z</time>
      </trkpt>
      <trkpt lat="39.859807" lon="4.164447">
        <ele>54.923</ele>
        <time>2020-09-04T10:59:10Z</time>
      </trkpt>
      <trkpt lat="39.859835" lon="4.164614">
        <ele>54.908</ele>
        <time>2020-09-04T10:59:22Z</time>
      </trkpt>
      <trkpt lat="39.859797" lon="4.164725">
        <ele>54.430</ele>
        <time>2020-09-04T10:59:30Z</time>
      </trkpt>
      <trkpt lat="39.859800" lon="4.164925">
        <ele>53.912</ele>
        <time>2020-09-04T10:59:44Z</time>
      </trkpt>
      <trkpt lat="39.859802" lon="4.164966">
        <ele>54.465</ele>
        <time>2020-09-04T10:59:47Z</time>
      </trkpt>
      <trkpt lat="39.859747" lon="4.165055">
        <ele>53.972</ele>
        <time>2020-09-04T11:00:01Z</time>
      </trkpt>
      <trkpt lat="39.859710" lon="4.165050">
        <ele>54.460</ele>
        <time>2020-09-04T11:00:05Z</time>
      </trkpt>
      <trkpt lat="39.859542" lon="4.165034">
        <ele>54.947</ele>
        <time>2020-09-04T11:00:21Z</time>
      </trkpt>
      <trkpt lat="39.859380" lon="4.165001">
        <ele>55.458</ele>
        <time>2020-09-04T11:00:35Z</time>
      </trkpt>
      <trkpt lat="39.859248" lon="4.164963">
        <ele>55.812</ele>
        <time>2020-09-04T11:00:48Z</time>
      </trkpt>
      <trkpt lat="39.859216" lon="4.164959">
        <ele>56.358</ele>
        <time>2020-09-04T11:00:51Z</time>
      </trkpt>
      <trkpt lat="39.859171" lon="4.164962">
        <ele>56.352</ele>
        <time>2020-09-04T11:00:55Z</time>
      </trkpt>
      <trkpt lat="39.859059" lon="4.164936">
        <ele>56.817</ele>
        <time>2020-09-04T11:01:06Z</time>
      </trkpt>
      <trkpt lat="39.858999" lon="4.164939">
        <ele>56.808</ele>
        <time>2020-09-04T11:01:12Z</time>
      </trkpt>
      <trkpt lat="39.858963" lon="4.164936">
        <ele>56.820</ele>
        <time>2020-09-04T11:01:15Z</time>
      </trkpt>
      <trkpt lat="39.858788" lon="4.164876">
        <ele>57.382</ele>
        <time>2020-09-04T11:01:31Z</time>
      </trkpt>
      <trkpt lat="39.858744" lon="4.164861">
        <ele>57.385</ele>
        <time>2020-09-04T11:01:35Z</time>
      </trkpt>
      <trkpt lat="39.858656" lon="4.164938">
        <ele>57.862</ele>
        <time>2020-09-04T11:01:49Z</time>
      </trkpt>
      <trkpt lat="39.858582" lon="4.164914">
        <ele>58.350</ele>
        <time>2020-09-04T11:02:02Z</time>
      </trkpt>
      <trkpt lat="39.858512" lon="4.164894">
        <ele>58.387</ele>
        <time>2020-09-04T11:02:17Z</time>
      </trkpt>
      <trkpt lat="39.858460" lon="4.164875">
        <ele>58.368</ele>
        <time>2020-09-04T11:02:21Z</time>
      </trkpt>
      <trkpt lat="39.858423" lon="4.164868">
        <ele>58.392</ele>
        <time>2020-09-04T11:02:24Z</time>
      </trkpt>
      <trkpt lat="39.858267" lon="4.164859">
        <ele>57.394</ele>
        <time>2020-09-04T11:02:38Z</time>
      </trkpt>
      <trkpt lat="39.858101" lon="4.164877">
        <ele>57.857</ele>
        <time>2020-09-04T11:02:53Z</time>
      </trkpt>
      <trkpt lat="39.858028" lon="4.164888">
        <ele>56.822</ele>
        <time>2020-09-04T11:03:00Z</time>
      </trkpt>
      <trkpt lat="39.857852" lon="4.164940">
        <ele>56.308</ele>
        <time>2020-09-04T11:03:16Z</time>
      </trkpt>
      <trkpt lat="39.857713" lon="4.164959">
        <ele>55.894</ele>
        <time>2020-09-04T11:03:29Z</time>
      </trkpt>
      <trkpt lat="39.857554" lon="4.164983">
        <ele>54.976</ele>
        <time>2020-09-04T11:03:43Z</time>
      </trkpt>
      <trkpt lat="39.857404" lon="4.165034">
        <ele>53.999</ele>
        <time>2020-09-04T11:03:58Z</time>
      </trkpt>
      <trkpt lat="39.857278" lon="4.165057">
        <ele>53.086</ele>
        <time>2020-09-04T11:04:11Z</time>
      </trkpt>
      <trkpt lat="39.857155" lon="4.165080">
        <ele>52.064</ele>
        <time>2020-09-04T11:04:23Z</time>
      </trkpt>
      <trkpt lat="39.857017" lon="4.165129">
        <ele>51.041</ele>
        <time>2020-09-04T11:04:36Z</time>
      </trkpt>
      <trkpt lat="39.856923" lon="4.165155">
        <ele>50.672</ele>
        <time>2020-09-04T11:04:46Z</time>
      </trkpt>
      <trkpt lat="39.856890" lon="4.165185">
        <ele>50.186</ele>
        <time>2020-09-04T11:04:49Z</time>
      </trkpt>
      <trkpt lat="39.856817" lon="4.165200">
        <ele>49.636</ele>
        <time>2020-09-04T11:05:02Z</time>
      </trkpt>
      <trkpt lat="39.856794" lon="4.165221">
        <ele>49.617</ele>
        <time>2020-09-04T11:05:05Z</time>
      </trkpt>
      <trkpt lat="39.856665" lon="4.165385">
        <ele>47.718</ele>
        <time>2020-09-04T11:05:21Z</time>
      </trkpt>
      <trkpt lat="39.856620" lon="4.165427">
        <ele>47.708</ele>
        <time>2020-09-04T11:05:27Z</time>
      </trkpt>
      <trkpt lat="39.856488" lon="4.165513">
        <ele>46.268</ele>
        <time>2020-09-04T11:05:41Z</time>
      </trkpt>
      <trkpt lat="39.856429" lon="4.165567">
        <ele>45.830</ele>
        <time>2020-09-04T11:05:48Z</time>
      </trkpt>
      <trkpt lat="39.856321" lon="4.165671">
        <ele>44.883</ele>
        <time>2020-09-04T11:06:00Z</time>
      </trkpt>
      <trkpt lat="39.856220" lon="4.165699">
        <ele>43.850</ele>
        <time>2020-09-04T11:06:09Z</time>
      </trkpt>
      <trkpt lat="39.856143" lon="4.165721">
        <ele>43.448</ele>
        <time>2020-09-04T11:06:17Z</time>
      </trkpt>
      <trkpt lat="39.855995" lon="4.165821">
        <ele>41.415</ele>
        <time>2020-09-04T11:06:34Z</time>
      </trkpt>
      <trkpt lat="39.855967" lon="4.165836">
        <ele>41.436</ele>
        <time>2020-09-04T11:06:37Z</time>
      </trkpt>
      <trkpt lat="39.855844" lon="4.166003">
        <ele>40.070</ele>
        <time>2020-09-04T11:06:52Z</time>
      </trkpt>
      <trkpt lat="39.855825" lon="4.166211">
        <ele>38.538</ele>
        <time>2020-09-04T11:07:05Z</time>
      </trkpt>
      <trkpt lat="39.855828" lon="4.166279">
        <ele>38.170</ele>
        <time>2020-09-04T11:07:10Z</time>
      </trkpt>
      <trkpt lat="39.855816" lon="4.166315">
        <ele>38.117</ele>
        <time>2020-09-04T11:07:13Z</time>
      </trkpt>
      <trkpt lat="39.855819" lon="4.166417">
        <ele>37.608</ele>
        <time>2020-09-04T11:07:20Z</time>
      </trkpt>
      <trkpt lat="39.855811" lon="4.166650">
        <ele>37.638</ele>
        <time>2020-09-04T11:07:37Z</time>
      </trkpt>
      <trkpt lat="39.855727" lon="4.166843">
        <ele>37.160</ele>
        <time>2020-09-04T11:07:51Z</time>
      </trkpt>
      <trkpt lat="39.855658" lon="4.167081">
        <ele>37.133</ele>
        <time>2020-09-04T11:08:08Z</time>
      </trkpt>
      <trkpt lat="39.855640" lon="4.167126">
        <ele>36.640</ele>
        <time>2020-09-04T11:08:12Z</time>
      </trkpt>
      <trkpt lat="39.855602" lon="4.167149">
        <ele>36.658</ele>
        <time>2020-09-04T11:08:16Z</time>
      </trkpt>
      <trkpt lat="39.855500" lon="4.167190">
        <ele>35.725</ele>
        <time>2020-09-04T11:08:27Z</time>
      </trkpt>
      <trkpt lat="39.855428" lon="4.167221">
        <ele>34.216</ele>
        <time>2020-09-04T11:08:35Z</time>
      </trkpt>
      <trkpt lat="39.855386" lon="4.167259">
        <ele>33.760</ele>
        <time>2020-09-04T11:08:40Z</time>
      </trkpt>
      <trkpt lat="39.855301" lon="4.167413">
        <ele>31.833</ele>
        <time>2020-09-04T11:08:53Z</time>
      </trkpt>
      <trkpt lat="39.855147" lon="4.167534">
        <ele>29.423</ele>
        <time>2020-09-04T11:09:09Z</time>
      </trkpt>
      <trkpt lat="39.855032" lon="4.167682">
        <ele>28.515</ele>
        <time>2020-09-04T11:09:22Z</time>
      </trkpt>
      <trkpt lat="39.855002" lon="4.167746">
        <ele>27.508</ele>
        <time>2020-09-04T11:09:27Z</time>
      </trkpt>
      <trkpt lat="39.854994" lon="4.167771">
        <ele>27.518</ele>
        <time>2020-09-04T11:09:29Z</time>
      </trkpt>
      <trkpt lat="39.854994" lon="4.167927">
        <ele>26.530</ele>
        <time>2020-09-04T11:09:40Z</time>
      </trkpt>
      <trkpt lat="39.854871" lon="4.168098">
        <ele>24.643</ele>
        <time>2020-09-04T11:09:57Z</time>
      </trkpt>
      <trkpt lat="39.854764" lon="4.168191">
        <ele>23.240</ele>
        <time>2020-09-04T11:10:10Z</time>
      </trkpt>
      <trkpt lat="39.854748" lon="4.168297">
        <ele>21.778</ele>
        <time>2020-09-04T11:10:18Z</time>
      </trkpt>
      <trkpt lat="39.854850" lon="4.168478">
        <ele>20.365</ele>
        <time>2020-09-04T11:10:35Z</time>
      </trkpt>
      <trkpt lat="39.854864" lon="4.168518">
        <ele>19.876</ele>
        <time>2020-09-04T11:10:38Z</time>
      </trkpt>
      <trkpt lat="39.854935" lon="4.168541">
        <ele>18.490</ele>
        <time>2020-09-04T11:10:45Z</time>
      </trkpt>
      <trkpt lat="39.855018" lon="4.168556">
        <ele>17.473</ele>
        <time>2020-09-04T11:10:54Z</time>
      </trkpt>
      <trkpt lat="39.855117" lon="4.168555">
        <ele>16.485</ele>
        <time>2020-09-04T11:11:02Z</time>
      </trkpt>
      <trkpt lat="39.855218" lon="4.168622">
        <ele>15.013</ele>
        <time>2020-09-04T11:11:12Z</time>
      </trkpt>
      <trkpt lat="39.855233" lon="4.168693">
        <ele>14.008</ele>
        <time>2020-09-04T11:11:18Z</time>
      </trkpt>
      <trkpt lat="39.855115" lon="4.168833">
        <ele>12.672</ele>
        <time>2020-09-04T11:11:32Z</time>
      </trkpt>
      <trkpt lat="39.854994" lon="4.168899">
        <ele>11.184</ele>
        <time>2020-09-04T11:11:44Z</time>
      </trkpt>
      <trkpt lat="39.854837" lon="4.168903">
        <ele>9.277</ele>
        <time>2020-09-04T11:12:00Z</time>
      </trkpt>
      <trkpt lat="39.854803" lon="4.168914">
        <ele>8.764</ele>
        <time>2020-09-04T11:12:04Z</time>
      </trkpt>
      <trkpt lat="39.854729" lon="4.168939">
        <ele>7.832</ele>
        <time>2020-09-04T11:12:17Z</time>
      </trkpt>
      <trkpt lat="39.854606" lon="4.168942">
        <ele>5.989</ele>
        <time>2020-09-04T11:12:29Z</time>
      </trkpt>
      <trkpt lat="39.854577" lon="4.168940">
        <ele>5.410</ele>
        <time>2020-09-04T11:12:32Z</time>
      </trkpt>
      <trkpt lat="39.854562" lon="4.168960">
        <ele>4.994</ele>
        <time>2020-09-04T11:12:34Z</time>
      </trkpt>
      <trkpt lat="39.854435" lon="4.169006">
        <ele>3.942</ele>
        <time>2020-09-04T11:12:46Z</time>
      </trkpt>
      <trkpt lat="39.854296" lon="4.168989">
        <ele>3.022</ele>
        <time>2020-09-04T11:13:00Z</time>
      </trkpt>
      <trkpt lat="39.854123" lon="4.168950">
        <ele>2.514</ele>
        <time>2020-09-04T11:13:15Z</time>
      </trkpt>
      <trkpt lat="39.853975" lon="4.169044">
        <ele>1.508</ele>
        <time>2020-09-04T11:13:31Z</time>
      </trkpt>
      <trkpt lat="39.853936" lon="4.169281">
        <ele>0.159</ele>
        <time>2020-09-04T11:13:50Z</time>
      </trkpt>
      <trkpt lat="39.853940" lon="4.169327">
        <ele>0.681</ele>
        <time>2020-09-04T11:14:09Z</time>
      </trkpt>
      <trkpt lat="39.853943" lon="4.169325">
        <ele>0.144</ele>
        <time>2020-09-04T11:14:25Z</time>
      </trkpt>
      <trkpt lat="39.854034" lon="4.169403">
        <ele>0.691</ele>
        <time>2020-09-04T11:14:40Z</time>
      </trkpt>
      <trkpt lat="39.854199" lon="4.169511">
        <ele>1.519</ele>
        <time>2020-09-04T11:14:57Z</time>
      </trkpt>
      <trkpt lat="39.854291" lon="4.169541">
        <ele>2.516</ele>
        <time>2020-09-04T11:15:12Z</time>
      </trkpt>
      <trkpt lat="39.854313" lon="4.169551">
        <ele>3.087</ele>
        <time>2020-09-04T11:15:37Z</time>
      </trkpt>
      <trkpt lat="39.854337" lon="4.169549">
        <ele>2.521</ele>
        <time>2020-09-04T11:15:56Z</time>
      </trkpt>
      <trkpt lat="39.854364" lon="4.169556">
        <ele>2.526</ele>
        <time>2020-09-04T11:16:26Z</time>
      </trkpt>
      <trkpt lat="39.854361" lon="4.169555">
        <ele>2.547</ele>
        <time>2020-09-04T11:16:57Z</time>
      </trkpt>
      <trkpt lat="39.854377" lon="4.169590">
        <ele>3.011</ele>
        <time>2020-09-04T11:17:18Z</time>
      </trkpt>
      <trkpt lat="39.854316" lon="4.169711">
        <ele>5.908</ele>
        <time>2020-09-04T11:17:37Z</time>
      </trkpt>
      <trkpt lat="39.854227" lon="4.169727">
        <ele>7.857</ele>
        <time>2020-09-04T11:17:51Z</time>
      </trkpt>
      <trkpt lat="39.854129" lon="4.169730">
        <ele>8.379</ele>
        <time>2020-09-04T11:18:04Z</time>
      </trkpt>
      <trkpt lat="39.853993" lon="4.169725">
        <ele>8.772</ele>
        <time>2020-09-04T11:18:17Z</time>
      </trkpt>
      <trkpt lat="39.853861" lon="4.169771">
        <ele>9.219</ele>
        <time>2020-09-04T11:18:30Z</time>
      </trkpt>
      <trkpt lat="39.853742" lon="4.169821">
        <ele>9.787</ele>
        <time>2020-09-04T11:18:42Z</time>
      </trkpt>
      <trkpt lat="39.853600" lon="4.169873">
        <ele>10.294</ele>
        <time>2020-09-04T11:18:56Z</time>
      </trkpt>
      <trkpt lat="39.853485" lon="4.169854">
        <ele>11.115</ele>
        <time>2020-09-04T11:19:09Z</time>
      </trkpt>
      <trkpt lat="39.853362" lon="4.169824">
        <ele>11.679</ele>
        <time>2020-09-04T11:19:23Z</time>
      </trkpt>
      <trkpt lat="39.853253" lon="4.169744">
        <ele>13.667</ele>
        <time>2020-09-04T11:19:37Z</time>
      </trkpt>
      <trkpt lat="39.853184" lon="4.169649">
        <ele>15.081</ele>
        <time>2020-09-04T11:19:49Z</time>
      </trkpt>
      <trkpt lat="39.853106" lon="4.169592">
        <ele>16.019</ele>
        <time>2020-09-04T11:20:02Z</time>
      </trkpt>
      <trkpt lat="39.853066" lon="4.169577">
        <ele>16.408</ele>
        <time>2020-09-04T11:20:06Z</time>
      </trkpt>
      <trkpt lat="39.853038" lon="4.169554">
        <ele>16.461</ele>
        <time>2020-09-04T11:20:09Z</time>
      </trkpt>
      <trkpt lat="39.852891" lon="4.169491">
        <ele>16.913</ele>
        <time>2020-09-04T11:20:23Z</time>
      </trkpt>
      <trkpt lat="39.852753" lon="4.169531">
        <ele>17.446</ele>
        <time>2020-09-04T11:20:38Z</time>
      </trkpt>
      <trkpt lat="39.852727" lon="4.169562">
        <ele>17.413</ele>
        <time>2020-09-04T11:21:03Z</time>
      </trkpt>
      <trkpt lat="39.852710" lon="4.169585">
        <ele>17.471</ele>
        <time>2020-09-04T11:21:22Z</time>
      </trkpt>
      <trkpt lat="39.852684" lon="4.169561">
        <ele>17.498</ele>
        <time>2020-09-04T11:21:28Z</time>
      </trkpt>
      <trkpt lat="39.852611" lon="4.169550">
        <ele>17.479</ele>
        <time>2020-09-04T11:21:35Z</time>
      </trkpt>
      <trkpt lat="39.852514" lon="4.169570">
        <ele>16.983</ele>
        <time>2020-09-04T11:21:43Z</time>
      </trkpt>
      <trkpt lat="39.852342" lon="4.169553">
        <ele>15.528</ele>
        <time>2020-09-04T11:21:57Z</time>
      </trkpt>
      <trkpt lat="39.852321" lon="4.169558">
        <ele>15.589</ele>
        <time>2020-09-04T11:21:59Z</time>
      </trkpt>
      <trkpt lat="39.852176" lon="4.169575">
        <ele>14.517</ele>
        <time>2020-09-04T11:22:12Z</time>
      </trkpt>
      <trkpt lat="39.852057" lon="4.169596">
        <ele>12.608</ele>
        <time>2020-09-04T11:22:23Z</time>
      </trkpt>
      <trkpt lat="39.852036" lon="4.169622">
        <ele>12.627</ele>
        <time>2020-09-04T11:22:26Z</time>
      </trkpt>
      <trkpt lat="39.852022" lon="4.169669">
        <ele>12.119</ele>
        <time>2020-09-04T11:22:30Z</time>
      </trkpt>
      <trkpt lat="39.852023" lon="4.169835">
        <ele>13.632</ele>
        <time>2020-09-04T11:22:44Z</time>
      </trkpt>
      <trkpt lat="39.852036" lon="4.169982">
        <ele>15.049</ele>
        <time>2020-09-04T11:22:56Z</time>
      </trkpt>
      <trkpt lat="39.852037" lon="4.170029">
        <ele>15.077</ele>
        <time>2020-09-04T11:23:01Z</time>
      </trkpt>
      <trkpt lat="39.852026" lon="4.170053">
        <ele>15.534</ele>
        <time>2020-09-04T11:23:03Z</time>
      </trkpt>
      <trkpt lat="39.852001" lon="4.170114">
        <ele>16.465</ele>
        <time>2020-09-04T11:23:08Z</time>
      </trkpt>
      <trkpt lat="39.851991" lon="4.170148">
        <ele>16.489</ele>
        <time>2020-09-04T11:23:11Z</time>
      </trkpt>
      <trkpt lat="39.851988" lon="4.170190">
        <ele>16.966</ele>
        <time>2020-09-04T11:23:14Z</time>
      </trkpt>
      <trkpt lat="39.852003" lon="4.170380">
        <ele>17.929</ele>
        <time>2020-09-04T11:23:27Z</time>
      </trkpt>
      <trkpt lat="39.852020" lon="4.170536">
        <ele>19.321</ele>
        <time>2020-09-04T11:23:41Z</time>
      </trkpt>
      <trkpt lat="39.852015" lon="4.170742">
        <ele>21.208</ele>
        <time>2020-09-04T11:23:56Z</time>
      </trkpt>
      <trkpt lat="39.852017" lon="4.170875">
        <ele>21.791</ele>
        <time>2020-09-04T11:24:06Z</time>
      </trkpt>
      <trkpt lat="39.852015" lon="4.170962">
        <ele>22.793</ele>
        <time>2020-09-04T11:24:14Z</time>
      </trkpt>
      <trkpt lat="39.852014" lon="4.171014">
        <ele>23.276</ele>
        <time>2020-09-04T11:24:18Z</time>
      </trkpt>
      <trkpt lat="39.852021" lon="4.171202">
        <ele>25.193</ele>
        <time>2020-09-04T11:24:34Z</time>
      </trkpt>
      <trkpt lat="39.852023" lon="4.171343">
        <ele>25.641</ele>
        <time>2020-09-04T11:24:45Z</time>
      </trkpt>
      <trkpt lat="39.852001" lon="4.171458">
        <ele>26.548</ele>
        <time>2020-09-04T11:24:53Z</time>
      </trkpt>
      <trkpt lat="39.852017" lon="4.171554">
        <ele>28.069</ele>
        <time>2020-09-04T11:25:01Z</time>
      </trkpt>
      <trkpt lat="39.852004" lon="4.171713">
        <ele>28.993</ele>
        <time>2020-09-04T11:25:14Z</time>
      </trkpt>
      <trkpt lat="39.851995" lon="4.171805">
        <ele>29.495</ele>
        <time>2020-09-04T11:25:21Z</time>
      </trkpt>
      <trkpt lat="39.851976" lon="4.171938">
        <ele>29.949</ele>
        <time>2020-09-04T11:25:33Z</time>
      </trkpt>
      <trkpt lat="39.852003" lon="4.172146">
        <ele>30.923</ele>
        <time>2020-09-04T11:25:46Z</time>
      </trkpt>
      <trkpt lat="39.851988" lon="4.172225">
        <ele>31.308</ele>
        <time>2020-09-04T11:25:51Z</time>
      </trkpt>
      <trkpt lat="39.851976" lon="4.172290">
        <ele>31.844</ele>
        <time>2020-09-04T11:25:56Z</time>
      </trkpt>
      <trkpt lat="39.851974" lon="4.172316">
        <ele>31.816</ele>
        <time>2020-09-04T11:25:58Z</time>
      </trkpt>
      <trkpt lat="39.851934" lon="4.172523">
        <ele>32.889</ele>
        <time>2020-09-04T11:26:13Z</time>
      </trkpt>
      <trkpt lat="39.851912" lon="4.172661">
        <ele>33.346</ele>
        <time>2020-09-04T11:26:22Z</time>
      </trkpt>
      <trkpt lat="39.851881" lon="4.172834">
        <ele>34.254</ele>
        <time>2020-09-04T11:26:36Z</time>
      </trkpt>
      <trkpt lat="39.851858" lon="4.173024">
        <ele>35.251</ele>
        <time>2020-09-04T11:26:51Z</time>
      </trkpt>
      <trkpt lat="39.851820" lon="4.173231">
        <ele>36.142</ele>
        <time>2020-09-04T11:27:04Z</time>
      </trkpt>
      <trkpt lat="39.851772" lon="4.173443">
        <ele>36.696</ele>
        <time>2020-09-04T11:27:18Z</time>
      </trkpt>
      <trkpt lat="39.851724" lon="4.173631">
        <ele>37.183</ele>
        <time>2020-09-04T11:27:31Z</time>
      </trkpt>
      <trkpt lat="39.851684" lon="4.173778">
        <ele>37.125</ele>
        <time>2020-09-04T11:27:44Z</time>
      </trkpt>
      <trkpt lat="39.851625" lon="4.173989">
        <ele>37.117</ele>
        <time>2020-09-04T11:27:59Z</time>
      </trkpt>
      <trkpt lat="39.851661" lon="4.174182">
        <ele>37.108</ele>
        <time>2020-09-04T11:28:12Z</time>
      </trkpt>
      <trkpt lat="39.851623" lon="4.174247">
        <ele>37.123</ele>
        <time>2020-09-04T11:28:18Z</time>
      </trkpt>
      <trkpt lat="39.851592" lon="4.174326">
        <ele>37.185</ele>
        <time>2020-09-04T11:28:26Z</time>
      </trkpt>
      <trkpt lat="39.851543" lon="4.174467">
        <ele>37.198</ele>
        <time>2020-09-04T11:28:36Z</time>
      </trkpt>
      <trkpt lat="39.851446" lon="4.174749">
        <ele>36.645</ele>
        <time>2020-09-04T11:28:56Z</time>
      </trkpt>
      <trkpt lat="39.851339" lon="4.174937">
        <ele>36.653</ele>
        <time>2020-09-04T11:29:12Z</time>
      </trkpt>
      <trkpt lat="39.851246" lon="4.175123">
        <ele>37.110</ele>
        <time>2020-09-04T11:29:27Z</time>
      </trkpt>
      <trkpt lat="39.851134" lon="4.175330">
        <ele>36.631</ele>
        <time>2020-09-04T11:29:45Z</time>
      </trkpt>
      <trkpt lat="39.851005" lon="4.175548">
        <ele>36.685</ele>
        <time>2020-09-04T11:30:03Z</time>
      </trkpt>
      <trkpt lat="39.850881" lon="4.175762">
        <ele>36.624</ele>
        <time>2020-09-04T11:30:22Z</time>
      </trkpt>
      <trkpt lat="39.850757" lon="4.175984">
        <ele>36.604</ele>
        <time>2020-09-04T11:30:42Z</time>
      </trkpt>
      <trkpt lat="39.850592" lon="4.176252">
        <ele>36.114</ele>
        <time>2020-09-04T11:31:03Z</time>
      </trkpt>
      <trkpt lat="39.850472" lon="4.176459">
        <ele>35.708</ele>
        <time>2020-09-04T11:31:19Z</time>
      </trkpt>
      <trkpt lat="39.850348" lon="4.176669">
        <ele>35.237</ele>
        <time>2020-09-04T11:31:36Z</time>
      </trkpt>
      <trkpt lat="39.850214" lon="4.176898">
        <ele>35.249</ele>
        <time>2020-09-04T11:31:54Z</time>
      </trkpt>
      <trkpt lat="39.850080" lon="4.177119">
        <ele>35.272</ele>
        <time>2020-09-04T11:32:13Z</time>
      </trkpt>
      <trkpt lat="39.849941" lon="4.177342">
        <ele>35.739</ele>
        <time>2020-09-04T11:32:32Z</time>
      </trkpt>
      <trkpt lat="39.849817" lon="4.177550">
        <ele>35.747</ele>
        <time>2020-09-04T11:32:49Z</time>
      </trkpt>
      <trkpt lat="39.849672" lon="4.177777">
        <ele>35.774</ele>
        <time>2020-09-04T11:33:08Z</time>
      </trkpt>
      <trkpt lat="39.849541" lon="4.178010">
        <ele>35.745</ele>
        <time>2020-09-04T11:33:28Z</time>
      </trkpt>
      <trkpt lat="39.849388" lon="4.178252">
        <ele>35.789</ele>
        <time>2020-09-04T11:33:48Z</time>
      </trkpt>
      <trkpt lat="39.849264" lon="4.178478">
        <ele>35.758</ele>
        <time>2020-09-04T11:34:07Z</time>
      </trkpt>
      <trkpt lat="39.849126" lon="4.178718">
        <ele>35.752</ele>
        <time>2020-09-04T11:34:27Z</time>
      </trkpt>
      <trkpt lat="39.849006" lon="4.178905">
        <ele>36.117</ele>
        <time>2020-09-04T11:34:43Z</time>
      </trkpt>
      <trkpt lat="39.848956" lon="4.178947">
        <ele>36.108</ele>
        <time>2020-09-04T11:34:50Z</time>
      </trkpt>
      <trkpt lat="39.848826" lon="4.179098">
        <ele>36.610</ele>
        <time>2020-09-04T11:35:06Z</time>
      </trkpt>
      <trkpt lat="39.848694" lon="4.179313">
        <ele>36.692</ele>
        <time>2020-09-04T11:35:24Z</time>
      </trkpt>
      <trkpt lat="39.848565" lon="4.179528">
        <ele>37.665</ele>
        <time>2020-09-04T11:35:42Z</time>
      </trkpt>
      <trkpt lat="39.848439" lon="4.179735">
        <ele>38.162</ele>
        <time>2020-09-04T11:35:59Z</time>
      </trkpt>
      <trkpt lat="39.848318" lon="4.179953">
        <ele>38.170</ele>
        <time>2020-09-04T11:36:15Z</time>
      </trkpt>
      <trkpt lat="39.848263" lon="4.180059">
        <ele>38.517</ele>
        <time>2020-09-04T11:36:24Z</time>
      </trkpt>
      <trkpt lat="39.848197" lon="4.180321">
        <ele>38.548</ele>
        <time>2020-09-04T11:36:41Z</time>
      </trkpt>
      <trkpt lat="39.848174" lon="4.180546">
        <ele>39.062</ele>
        <time>2020-09-04T11:36:56Z</time>
      </trkpt>
      <trkpt lat="39.848169" lon="4.180779">
        <ele>38.594</ele>
        <time>2020-09-04T11:37:12Z</time>
      </trkpt>
      <trkpt lat="39.848167" lon="4.180814">
        <ele>38.557</ele>
        <time>2020-09-04T11:37:15Z</time>
      </trkpt>
      <trkpt lat="39.848164" lon="4.180859">
        <ele>38.122</ele>
        <time>2020-09-04T11:37:18Z</time>
      </trkpt>
      <trkpt lat="39.848166" lon="4.180934">
        <ele>38.108</ele>
        <time>2020-09-04T11:37:22Z</time>
      </trkpt>
      <trkpt lat="39.848243" lon="4.181231">
        <ele>37.164</ele>
        <time>2020-09-04T11:37:42Z</time>
      </trkpt>
      <trkpt lat="39.848334" lon="4.181450">
        <ele>35.776</ele>
        <time>2020-09-04T11:37:59Z</time>
      </trkpt>
      <trkpt lat="39.848426" lon="4.181672">
        <ele>34.779</ele>
        <time>2020-09-04T11:38:16Z</time>
      </trkpt>
      <trkpt lat="39.848459" lon="4.181738">
        <ele>34.736</ele>
        <time>2020-09-04T11:38:21Z</time>
      </trkpt>
      <trkpt lat="39.848548" lon="4.181956">
        <ele>33.384</ele>
        <time>2020-09-04T11:38:37Z</time>
      </trkpt>
      <trkpt lat="39.848645" lon="4.182166">
        <ele>33.331</ele>
        <time>2020-09-04T11:38:53Z</time>
      </trkpt>
      <trkpt lat="39.848716" lon="4.182347">
        <ele>33.372</ele>
        <time>2020-09-04T11:39:06Z</time>
      </trkpt>
      <trkpt lat="39.848787" lon="4.182599">
        <ele>33.776</ele>
        <time>2020-09-04T11:39:23Z</time>
      </trkpt>
      <trkpt lat="39.848815" lon="4.182875">
        <ele>34.241</ele>
        <time>2020-09-04T11:39:41Z</time>
      </trkpt>
      <trkpt lat="39.848819" lon="4.183178">
        <ele>34.781</ele>
        <time>2020-09-04T11:40:00Z</time>
      </trkpt>
      <trkpt lat="39.848836" lon="4.183463">
        <ele>35.709</ele>
        <time>2020-09-04T11:40:19Z</time>
      </trkpt>
      <trkpt lat="39.848842" lon="4.183724">
        <ele>36.108</ele>
        <time>2020-09-04T11:40:36Z</time>
      </trkpt>
      <trkpt lat="39.848854" lon="4.183973">
        <ele>36.639</ele>
        <time>2020-09-04T11:40:52Z</time>
      </trkpt>
      <trkpt lat="39.848921" lon="4.184255">
        <ele>35.781</ele>
        <time>2020-09-04T11:41:11Z</time>
      </trkpt>
      <trkpt lat="39.848990" lon="4.184520">
        <ele>35.774</ele>
        <time>2020-09-04T11:41:29Z</time>
      </trkpt>
      <trkpt lat="39.849060" lon="4.184753">
        <ele>35.741</ele>
        <time>2020-09-04T11:41:45Z</time>
      </trkpt>
      <trkpt lat="39.849107" lon="4.184992">
        <ele>35.229</ele>
        <time>2020-09-04T11:42:00Z</time>
      </trkpt>
      <trkpt lat="39.849118" lon="4.185031">
        <ele>35.236</ele>
        <time>2020-09-04T11:42:03Z</time>
      </trkpt>
      <trkpt lat="39.849143" lon="4.185292">
        <ele>34.757</ele>
        <time>2020-09-04T11:42:20Z</time>
      </trkpt>
      <trkpt lat="39.849112" lon="4.185558">
        <ele>35.751</ele>
        <time>2020-09-04T11:42:38Z</time>
      </trkpt>
      <trkpt lat="39.849108" lon="4.185575">
        <ele>32.842</ele>
        <time>2020-09-04T11:42:39Z</time>
      </trkpt>
      <trkpt lat="39.849093" lon="4.185633">
        <ele>33.322</ele>
        <time>2020-09-04T11:42:43Z</time>
      </trkpt>
      <trkpt lat="39.849085" lon="4.185662">
        <ele>34.214</ele>
        <time>2020-09-04T11:42:45Z</time>
      </trkpt>
      <trkpt lat="39.849010" lon="4.185954">
        <ele>34.708</ele>
        <time>2020-09-04T11:43:05Z</time>
      </trkpt>
      <trkpt lat="39.848935" lon="4.186173">
        <ele>35.219</ele>
        <time>2020-09-04T11:43:22Z</time>
      </trkpt>
      <trkpt lat="39.848911" lon="4.186401">
        <ele>35.721</ele>
        <time>2020-09-04T11:43:37Z</time>
      </trkpt>
      <trkpt lat="39.848919" lon="4.186629">
        <ele>35.774</ele>
        <time>2020-09-04T11:43:51Z</time>
      </trkpt>
      <trkpt lat="39.848941" lon="4.186856">
        <ele>35.761</ele>
        <time>2020-09-04T11:44:06Z</time>
      </trkpt>
      <trkpt lat="39.848955" lon="4.187068">
        <ele>35.749</ele>
        <time>2020-09-04T11:44:20Z</time>
      </trkpt>
      <trkpt lat="39.848972" lon="4.187255">
        <ele>35.736</ele>
        <time>2020-09-04T11:44:32Z</time>
      </trkpt>
      <trkpt lat="39.848969" lon="4.187281">
        <ele>35.797</ele>
        <time>2020-09-04T11:44:34Z</time>
      </trkpt>
      <trkpt lat="39.848978" lon="4.187499">
        <ele>36.141</ele>
        <time>2020-09-04T11:44:48Z</time>
      </trkpt>
      <trkpt lat="39.848987" lon="4.187748">
        <ele>36.169</ele>
        <time>2020-09-04T11:45:03Z</time>
      </trkpt>
      <trkpt lat="39.848999" lon="4.187997">
        <ele>36.104</ele>
        <time>2020-09-04T11:45:19Z</time>
      </trkpt>
      <trkpt lat="39.848996" lon="4.188227">
        <ele>36.124</ele>
        <time>2020-09-04T11:45:34Z</time>
      </trkpt>
      <trkpt lat="39.849004" lon="4.188434">
        <ele>36.108</ele>
        <time>2020-09-04T11:45:47Z</time>
      </trkpt>
      <trkpt lat="39.849006" lon="4.188673">
        <ele>36.631</ele>
        <time>2020-09-04T11:46:03Z</time>
      </trkpt>
      <trkpt lat="39.849002" lon="4.188904">
        <ele>37.153</ele>
        <time>2020-09-04T11:46:18Z</time>
      </trkpt>
      <trkpt lat="39.849008" lon="4.189158">
        <ele>37.676</ele>
        <time>2020-09-04T11:46:34Z</time>
      </trkpt>
      <trkpt lat="39.849057" lon="4.189456">
        <ele>38.543</ele>
        <time>2020-09-04T11:46:53Z</time>
      </trkpt>
      <trkpt lat="39.849166" lon="4.189765">
        <ele>38.191</ele>
        <time>2020-09-04T11:47:14Z</time>
      </trkpt>
      <trkpt lat="39.849296" lon="4.190044">
        <ele>38.188</ele>
        <time>2020-09-04T11:47:36Z</time>
      </trkpt>
      <trkpt lat="39.849401" lon="4.190279">
        <ele>38.549</ele>
        <time>2020-09-04T11:47:53Z</time>
      </trkpt>
      <trkpt lat="39.849458" lon="4.190397">
        <ele>38.533</ele>
        <time>2020-09-04T11:48:02Z</time>
      </trkpt>
      <trkpt lat="39.849552" lon="4.190599">
        <ele>39.065</ele>
        <time>2020-09-04T11:48:18Z</time>
      </trkpt>
      <trkpt lat="39.849627" lon="4.190816">
        <ele>39.568</ele>
        <time>2020-09-04T11:48:33Z</time>
      </trkpt>
      <trkpt lat="39.849661" lon="4.191061">
        <ele>40.014</ele>
        <time>2020-09-04T11:48:49Z</time>
      </trkpt>
      <trkpt lat="39.849665" lon="4.191155">
        <ele>40.508</ele>
        <time>2020-09-04T11:48:55Z</time>
      </trkpt>
      <trkpt lat="39.849657" lon="4.191452">
        <ele>40.991</ele>
        <time>2020-09-04T11:49:13Z</time>
      </trkpt>
      <trkpt lat="39.849633" lon="4.191753">
        <ele>41.473</ele>
        <time>2020-09-04T11:49:32Z</time>
      </trkpt>
      <trkpt lat="39.849594" lon="4.192015">
        <ele>42.476</ele>
        <time>2020-09-04T11:49:49Z</time>
      </trkpt>
      <trkpt lat="39.849558" lon="4.192265">
        <ele>42.953</ele>
        <time>2020-09-04T11:50:06Z</time>
      </trkpt>
      <trkpt lat="39.849553" lon="4.192529">
        <ele>43.881</ele>
        <time>2020-09-04T11:50:23Z</time>
      </trkpt>
      <trkpt lat="39.849600" lon="4.192792">
        <ele>44.388</ele>
        <time>2020-09-04T11:50:41Z</time>
      </trkpt>
      <trkpt lat="39.849636" lon="4.192932">
        <ele>44.849</ele>
        <time>2020-09-04T11:50:56Z</time>
      </trkpt>
      <trkpt lat="39.849636" lon="4.192982">
        <ele>44.393</ele>
        <time>2020-09-04T11:51:14Z</time>
      </trkpt>
      <trkpt lat="39.849642" lon="4.193057">
        <ele>43.496</ele>
        <time>2020-09-04T11:51:30Z</time>
      </trkpt>
      <trkpt lat="39.849587" lon="4.193143">
        <ele>43.431</ele>
        <time>2020-09-04T11:51:37Z</time>
      </trkpt>
      <trkpt lat="39.849553" lon="4.193210">
        <ele>42.924</ele>
        <time>2020-09-04T11:51:42Z</time>
      </trkpt>
      <trkpt lat="39.849541" lon="4.193285">
        <ele>43.408</ele>
        <time>2020-09-04T11:51:48Z</time>
      </trkpt>
      <trkpt lat="39.849539" lon="4.193365">
        <ele>43.874</ele>
        <time>2020-09-04T11:51:55Z</time>
      </trkpt>
      <trkpt lat="39.849463" lon="4.193612">
        <ele>43.856</ele>
        <time>2020-09-04T11:52:13Z</time>
      </trkpt>
      <trkpt lat="39.849399" lon="4.193799">
        <ele>43.859</ele>
        <time>2020-09-04T11:52:26Z</time>
      </trkpt>
      <trkpt lat="39.849380" lon="4.193905">
        <ele>43.896</ele>
        <time>2020-09-04T11:52:33Z</time>
      </trkpt>
      <trkpt lat="39.849280" lon="4.194160">
        <ele>43.864</ele>
        <time>2020-09-04T11:52:51Z</time>
      </trkpt>
      <trkpt lat="39.849200" lon="4.194434">
        <ele>43.421</ele>
        <time>2020-09-04T11:53:10Z</time>
      </trkpt>
      <trkpt lat="39.849117" lon="4.194676">
        <ele>43.422</ele>
        <time>2020-09-04T11:53:28Z</time>
      </trkpt>
      <trkpt lat="39.849050" lon="4.194835">
        <ele>43.416</ele>
        <time>2020-09-04T11:53:43Z</time>
      </trkpt>
      <trkpt lat="39.849034" lon="4.194836">
        <ele>42.982</ele>
        <time>2020-09-04T11:53:46Z</time>
      </trkpt>
      <trkpt lat="39.848930" lon="4.194808">
        <ele>43.443</ele>
        <time>2020-09-04T11:53:56Z</time>
      </trkpt>
      <trkpt lat="39.848910" lon="4.194807">
        <ele>42.917</ele>
        <time>2020-09-04T11:53:58Z</time>
      </trkpt>
      <trkpt lat="39.848682" lon="4.194817">
        <ele>42.408</ele>
        <time>2020-09-04T11:54:16Z</time>
      </trkpt>
      <trkpt lat="39.848515" lon="4.194800">
        <ele>43.413</ele>
        <time>2020-09-04T11:54:32Z</time>
      </trkpt>
      <trkpt lat="39.848373" lon="4.194768">
        <ele>44.315</ele>
        <time>2020-09-04T11:54:46Z</time>
      </trkpt>
      <trkpt lat="39.848249" lon="4.194723">
        <ele>44.348</ele>
        <time>2020-09-04T11:55:01Z</time>
      </trkpt>
      <trkpt lat="39.848244" lon="4.194713">
        <ele>44.355</ele>
        <time>2020-09-04T11:55:02Z</time>
      </trkpt>
      <trkpt lat="39.848103" lon="4.194681">
        <ele>43.873</ele>
        <time>2020-09-04T11:55:16Z</time>
      </trkpt>
      <trkpt lat="39.848067" lon="4.194659">
        <ele>43.820</ele>
        <time>2020-09-04T11:55:20Z</time>
      </trkpt>
      <trkpt lat="39.847893" lon="4.194640">
        <ele>44.371</ele>
        <time>2020-09-04T11:55:35Z</time>
      </trkpt>
      <trkpt lat="39.847707" lon="4.194585">
        <ele>44.895</ele>
        <time>2020-09-04T11:55:51Z</time>
      </trkpt>
      <trkpt lat="39.847630" lon="4.194515">
        <ele>44.816</ele>
        <time>2020-09-04T11:55:59Z</time>
      </trkpt>
      <trkpt lat="39.847608" lon="4.194511">
        <ele>44.876</ele>
        <time>2020-09-04T11:56:01Z</time>
      </trkpt>
      <trkpt lat="39.847545" lon="4.194489">
        <ele>45.313</ele>
        <time>2020-09-04T11:56:08Z</time>
      </trkpt>
      <trkpt lat="39.847522" lon="4.194469">
        <ele>45.308</ele>
        <time>2020-09-04T11:56:10Z</time>
      </trkpt>
      <trkpt lat="39.847350" lon="4.194384">
        <ele>45.876</ele>
        <time>2020-09-04T11:56:25Z</time>
      </trkpt>
      <trkpt lat="39.847220" lon="4.194364">
        <ele>46.728</ele>
        <time>2020-09-04T11:56:38Z</time>
      </trkpt>
      <trkpt lat="39.847145" lon="4.194321">
        <ele>46.791</ele>
        <time>2020-09-04T11:56:45Z</time>
      </trkpt>
      <trkpt lat="39.846961" lon="4.194263">
        <ele>48.288</ele>
        <time>2020-09-04T11:57:02Z</time>
      </trkpt>
      <trkpt lat="39.846893" lon="4.194241">
        <ele>48.286</ele>
        <time>2020-09-04T11:57:18Z</time>
      </trkpt>
      <trkpt lat="39.846877" lon="4.194230">
        <ele>48.263</ele>
        <time>2020-09-04T11:57:40Z</time>
      </trkpt>
      <trkpt lat="39.846874" lon="4.194235">
        <ele>47.744</ele>
        <time>2020-09-04T11:58:04Z</time>
      </trkpt>
      <trkpt lat="39.846872" lon="4.194235">
        <ele>48.228</ele>
        <time>2020-09-04T11:58:33Z</time>
      </trkpt>
      <trkpt lat="39.846875" lon="4.194237">
        <ele>48.239</ele>
        <time>2020-09-04T11:59:17Z</time>
      </trkpt>
      <trkpt lat="39.846875" lon="4.194238">
        <ele>48.201</ele>
        <time>2020-09-04T11:59:55Z</time>
      </trkpt>
      <trkpt lat="39.846875" lon="4.194234">
        <ele>47.721</ele>
        <time>2020-09-04T12:00:39Z</time>
      </trkpt>
      <trkpt lat="39.846871" lon="4.194234">
        <ele>48.208</ele>
        <time>2020-09-04T12:01:22Z</time>
      </trkpt>
      <trkpt lat="39.846870" lon="4.194238">
        <ele>47.718</ele>
        <time>2020-09-04T12:02:07Z</time>
      </trkpt>
      <trkpt lat="39.846872" lon="4.194236">
        <ele>47.760</ele>
        <time>2020-09-04T12:02:53Z</time>
      </trkpt>
      <trkpt lat="39.846870" lon="4.194234">
        <ele>47.783</ele>
        <time>2020-09-04T12:03:32Z</time>
      </trkpt>
      <trkpt lat="39.846874" lon="4.194237">
        <ele>48.280</ele>
        <time>2020-09-04T12:04:06Z</time>
      </trkpt>
      <trkpt lat="39.846872" lon="4.194236">
        <ele>48.298</ele>
        <time>2020-09-04T12:04:44Z</time>
      </trkpt>
      <trkpt lat="39.846870" lon="4.194230">
        <ele>48.245</ele>
        <time>2020-09-04T12:05:18Z</time>
      </trkpt>
      <trkpt lat="39.846866" lon="4.194222">
        <ele>48.286</ele>
        <time>2020-09-04T12:05:53Z</time>
      </trkpt>
      <trkpt lat="39.846862" lon="4.194222">
        <ele>48.640</ele>
        <time>2020-09-04T12:06:26Z</time>
      </trkpt>
      <trkpt lat="39.846863" lon="4.194218">
        <ele>48.251</ele>
        <time>2020-09-04T12:07:06Z</time>
      </trkpt>
      <trkpt lat="39.846867" lon="4.194218">
        <ele>48.601</ele>
        <time>2020-09-04T12:07:50Z</time>
      </trkpt>
      <trkpt lat="39.846869" lon="4.194211">
        <ele>48.611</ele>
        <time>2020-09-04T12:08:27Z</time>
      </trkpt>
      <trkpt lat="39.846872" lon="4.194210">
        <ele>48.608</ele>
        <time>2020-09-04T12:09:01Z</time>
      </trkpt>
      <trkpt lat="39.846873" lon="4.194206">
        <ele>48.630</ele>
        <time>2020-09-04T12:09:35Z</time>
      </trkpt>
      <trkpt lat="39.846872" lon="4.194208">
        <ele>48.252</ele>
        <time>2020-09-04T12:10:07Z</time>
      </trkpt>
      <trkpt lat="39.846869" lon="4.194218">
        <ele>49.195</ele>
        <time>2020-09-04T12:10:30Z</time>
      </trkpt>
      <trkpt lat="39.846866" lon="4.194224">
        <ele>49.162</ele>
        <time>2020-09-04T12:10:50Z</time>
      </trkpt>
      <trkpt lat="39.846864" lon="4.194231">
        <ele>49.120</ele>
        <time>2020-09-04T12:11:07Z</time>
      </trkpt>
      <trkpt lat="39.846865" lon="4.194282">
        <ele>49.177</ele>
        <time>2020-09-04T12:11:23Z</time>
      </trkpt>
      <trkpt lat="39.846862" lon="4.194304">
        <ele>48.678</ele>
        <time>2020-09-04T12:11:25Z</time>
      </trkpt>
      <trkpt lat="39.846753" lon="4.194508">
        <ele>49.192</ele>
        <time>2020-09-04T12:11:43Z</time>
      </trkpt>
      <trkpt lat="39.846697" lon="4.194658">
        <ele>49.697</ele>
        <time>2020-09-04T12:11:57Z</time>
      </trkpt>
      <trkpt lat="39.846672" lon="4.194682">
        <ele>49.623</ele>
        <time>2020-09-04T12:12:03Z</time>
      </trkpt>
      <trkpt lat="39.846660" lon="4.194724">
        <ele>49.625</ele>
        <time>2020-09-04T12:12:06Z</time>
      </trkpt>
      <trkpt lat="39.846644" lon="4.194788">
        <ele>49.608</ele>
        <time>2020-09-04T12:12:10Z</time>
      </trkpt>
      <trkpt lat="39.846615" lon="4.195067">
        <ele>49.644</ele>
        <time>2020-09-04T12:12:29Z</time>
      </trkpt>
      <trkpt lat="39.846589" lon="4.195330">
        <ele>49.126</ele>
        <time>2020-09-04T12:12:46Z</time>
      </trkpt>
      <trkpt lat="39.846558" lon="4.195571">
        <ele>48.649</ele>
        <time>2020-09-04T12:13:02Z</time>
      </trkpt>
      <trkpt lat="39.846533" lon="4.195786">
        <ele>48.616</ele>
        <time>2020-09-04T12:13:17Z</time>
      </trkpt>
      <trkpt lat="39.846510" lon="4.196003">
        <ele>49.194</ele>
        <time>2020-09-04T12:13:32Z</time>
      </trkpt>
      <trkpt lat="39.846486" lon="4.196220">
        <ele>49.171</ele>
        <time>2020-09-04T12:13:47Z</time>
      </trkpt>
      <trkpt lat="39.846465" lon="4.196500">
        <ele>48.612</ele>
        <time>2020-09-04T12:14:05Z</time>
      </trkpt>
      <trkpt lat="39.846463" lon="4.196559">
        <ele>48.616</ele>
        <time>2020-09-04T12:14:09Z</time>
      </trkpt>
      <trkpt lat="39.846479" lon="4.196627">
        <ele>48.636</ele>
        <time>2020-09-04T12:14:22Z</time>
      </trkpt>
      <trkpt lat="39.846467" lon="4.196578">
        <ele>48.617</ele>
        <time>2020-09-04T12:14:32Z</time>
      </trkpt>
      <trkpt lat="39.846453" lon="4.196560">
        <ele>48.618</ele>
        <time>2020-09-04T12:14:49Z</time>
      </trkpt>
      <trkpt lat="39.846481" lon="4.196640">
        <ele>48.608</ele>
        <time>2020-09-04T12:15:02Z</time>
      </trkpt>
      <trkpt lat="39.846460" lon="4.196656">
        <ele>48.698</ele>
        <time>2020-09-04T12:15:09Z</time>
      </trkpt>
      <trkpt lat="39.846410" lon="4.196721">
        <ele>48.670</ele>
        <time>2020-09-04T12:15:17Z</time>
      </trkpt>
      <trkpt lat="39.846378" lon="4.196734">
        <ele>48.283</ele>
        <time>2020-09-04T12:15:28Z</time>
      </trkpt>
      <trkpt lat="39.846172" lon="4.196719">
        <ele>48.610</ele>
        <time>2020-09-04T12:15:45Z</time>
      </trkpt>
      <trkpt lat="39.845992" lon="4.196721">
        <ele>48.688</ele>
        <time>2020-09-04T12:16:01Z</time>
      </trkpt>
      <trkpt lat="39.845931" lon="4.196717">
        <ele>49.165</ele>
        <time>2020-09-04T12:16:06Z</time>
      </trkpt>
      <trkpt lat="39.845777" lon="4.196914">
        <ele>48.626</ele>
        <time>2020-09-04T12:16:26Z</time>
      </trkpt>
      <trkpt lat="39.845698" lon="4.197116">
        <ele>47.780</ele>
        <time>2020-09-04T12:16:41Z</time>
      </trkpt>
      <trkpt lat="39.845597" lon="4.197368">
        <ele>47.275</ele>
        <time>2020-09-04T12:16:59Z</time>
      </trkpt>
      <trkpt lat="39.845506" lon="4.197595">
        <ele>47.228</ele>
        <time>2020-09-04T12:17:15Z</time>
      </trkpt>
      <trkpt lat="39.845434" lon="4.197813">
        <ele>47.220</ele>
        <time>2020-09-04T12:17:32Z</time>
      </trkpt>
      <trkpt lat="39.845431" lon="4.197911">
        <ele>47.208</ele>
        <time>2020-09-04T12:17:38Z</time>
      </trkpt>
      <trkpt lat="39.845428" lon="4.197953">
        <ele>47.242</ele>
        <time>2020-09-04T12:17:41Z</time>
      </trkpt>
      <trkpt lat="39.845465" lon="4.198130">
        <ele>48.294</ele>
        <time>2020-09-04T12:17:56Z</time>
      </trkpt>
      <trkpt lat="39.845588" lon="4.198292">
        <ele>49.147</ele>
        <time>2020-09-04T12:18:12Z</time>
      </trkpt>
      <trkpt lat="39.845637" lon="4.198335">
        <ele>49.164</ele>
        <time>2020-09-04T12:18:17Z</time>
      </trkpt>
      <trkpt lat="39.845787" lon="4.198567">
        <ele>49.182</ele>
        <time>2020-09-04T12:18:35Z</time>
      </trkpt>
      <trkpt lat="39.845881" lon="4.198776">
        <ele>48.669</ele>
        <time>2020-09-04T12:18:52Z</time>
      </trkpt>
      <trkpt lat="39.845884" lon="4.198802">
        <ele>48.690</ele>
        <time>2020-09-04T12:18:54Z</time>
      </trkpt>
      <trkpt lat="39.845882" lon="4.199098">
        <ele>48.644</ele>
        <time>2020-09-04T12:19:13Z</time>
      </trkpt>
      <trkpt lat="39.845847" lon="4.199325">
        <ele>48.624</ele>
        <time>2020-09-04T12:19:28Z</time>
      </trkpt>
      <trkpt lat="39.845780" lon="4.199572">
        <ele>48.604</ele>
        <time>2020-09-04T12:19:44Z</time>
      </trkpt>
      <trkpt lat="39.845773" lon="4.199625">
        <ele>48.614</ele>
        <time>2020-09-04T12:19:48Z</time>
      </trkpt>
      <trkpt lat="39.845823" lon="4.199683">
        <ele>48.608</ele>
        <time>2020-09-04T12:19:55Z</time>
      </trkpt>
      <trkpt lat="39.845942" lon="4.199723">
        <ele>48.287</ele>
        <time>2020-09-04T12:20:10Z</time>
      </trkpt>
      <trkpt lat="39.845978" lon="4.199737">
        <ele>48.289</ele>
        <time>2020-09-04T12:20:27Z</time>
      </trkpt>
      <trkpt lat="39.845989" lon="4.199742">
        <ele>47.752</ele>
        <time>2020-09-04T12:20:28Z</time>
      </trkpt>
      <trkpt lat="39.845997" lon="4.199944">
        <ele>48.269</ele>
        <time>2020-09-04T12:20:47Z</time>
      </trkpt>
      <trkpt lat="39.845958" lon="4.200017">
        <ele>48.247</ele>
        <time>2020-09-04T12:20:53Z</time>
      </trkpt>
      <trkpt lat="39.845906" lon="4.200166">
        <ele>48.274</ele>
        <time>2020-09-04T12:21:04Z</time>
      </trkpt>
      <trkpt lat="39.845820" lon="4.200335">
        <ele>48.275</ele>
        <time>2020-09-04T12:21:18Z</time>
      </trkpt>
      <trkpt lat="39.845774" lon="4.200359">
        <ele>48.229</ele>
        <time>2020-09-04T12:21:22Z</time>
      </trkpt>
      <trkpt lat="39.845734" lon="4.200340">
        <ele>48.275</ele>
        <time>2020-09-04T12:21:26Z</time>
      </trkpt>
      <trkpt lat="39.845590" lon="4.200187">
        <ele>48.628</ele>
        <time>2020-09-04T12:21:43Z</time>
      </trkpt>
      <trkpt lat="39.845512" lon="4.200110">
        <ele>48.620</ele>
        <time>2020-09-04T12:21:52Z</time>
      </trkpt>
      <trkpt lat="39.845345" lon="4.199949">
        <ele>49.108</ele>
        <time>2020-09-04T12:22:10Z</time>
      </trkpt>
      <trkpt lat="39.845195" lon="4.199819">
        <ele>49.142</ele>
        <time>2020-09-04T12:22:26Z</time>
      </trkpt>
      <trkpt lat="39.845084" lon="4.199751">
        <ele>48.674</ele>
        <time>2020-09-04T12:22:37Z</time>
      </trkpt>
      <trkpt lat="39.844950" lon="4.199722">
        <ele>47.257</ele>
        <time>2020-09-04T12:22:50Z</time>
      </trkpt>
      <trkpt lat="39.844896" lon="4.199794">
        <ele>46.714</ele>
        <time>2020-09-04T12:22:58Z</time>
      </trkpt>
      <trkpt lat="39.844819" lon="4.199963">
        <ele>45.852</ele>
        <time>2020-09-04T12:23:11Z</time>
      </trkpt>
      <trkpt lat="39.844767" lon="4.199991">
        <ele>45.369</ele>
        <time>2020-09-04T12:23:16Z</time>
      </trkpt>
      <trkpt lat="39.844637" lon="4.199988">
        <ele>44.890</ele>
        <time>2020-09-04T12:23:28Z</time>
      </trkpt>
      <trkpt lat="39.844464" lon="4.200057">
        <ele>44.344</ele>
        <time>2020-09-04T12:23:45Z</time>
      </trkpt>
      <trkpt lat="39.844456" lon="4.200064">
        <ele>44.383</ele>
        <time>2020-09-04T12:23:46Z</time>
      </trkpt>
      <trkpt lat="39.844384" lon="4.200153">
        <ele>44.825</ele>
        <time>2020-09-04T12:23:54Z</time>
      </trkpt>
      <trkpt lat="39.844210" lon="4.200282">
        <ele>43.817</ele>
        <time>2020-09-04T12:24:11Z</time>
      </trkpt>
      <trkpt lat="39.844133" lon="4.200325">
        <ele>43.808</ele>
        <time>2020-09-04T12:24:18Z</time>
      </trkpt>
      <trkpt lat="39.843996" lon="4.200295">
        <ele>43.483</ele>
        <time>2020-09-04T12:24:32Z</time>
      </trkpt>
      <trkpt lat="39.843817" lon="4.200267">
        <ele>42.915</ele>
        <time>2020-09-04T12:24:48Z</time>
      </trkpt>
      <trkpt lat="39.843751" lon="4.200298">
        <ele>42.938</ele>
        <time>2020-09-04T12:24:55Z</time>
      </trkpt>
      <trkpt lat="39.843668" lon="4.200523">
        <ele>42.415</ele>
        <time>2020-09-04T12:25:12Z</time>
      </trkpt>
      <trkpt lat="39.843555" lon="4.200799">
        <ele>42.933</ele>
        <time>2020-09-04T12:25:30Z</time>
      </trkpt>
      <trkpt lat="39.843507" lon="4.200830">
        <ele>42.960</ele>
        <time>2020-09-04T12:25:36Z</time>
      </trkpt>
      <trkpt lat="39.843471" lon="4.200909">
        <ele>43.471</ele>
        <time>2020-09-04T12:25:44Z</time>
      </trkpt>
      <trkpt lat="39.843440" lon="4.201052">
        <ele>43.855</ele>
        <time>2020-09-04T12:25:54Z</time>
      </trkpt>
      <trkpt lat="39.843378" lon="4.201102">
        <ele>43.812</ele>
        <time>2020-09-04T12:26:01Z</time>
      </trkpt>
      <trkpt lat="39.843226" lon="4.201098">
        <ele>43.832</ele>
        <time>2020-09-04T12:26:15Z</time>
      </trkpt>
      <trkpt lat="39.843213" lon="4.201096">
        <ele>43.805</ele>
        <time>2020-09-04T12:26:16Z</time>
      </trkpt>
      <trkpt lat="39.843037" lon="4.201085">
        <ele>43.808</ele>
        <time>2020-09-04T12:26:31Z</time>
      </trkpt>
      <trkpt lat="39.843001" lon="4.201086">
        <ele>43.426</ele>
        <time>2020-09-04T12:26:34Z</time>
      </trkpt>
      <trkpt lat="39.842799" lon="4.201065">
        <ele>43.488</ele>
        <time>2020-09-04T12:26:51Z</time>
      </trkpt>
      <trkpt lat="39.842626" lon="4.201080">
        <ele>42.931</ele>
        <time>2020-09-04T12:27:05Z</time>
      </trkpt>
      <trkpt lat="39.842528" lon="4.201083">
        <ele>42.448</ele>
        <time>2020-09-04T12:27:14Z</time>
      </trkpt>
      <trkpt lat="39.842407" lon="4.201154">
        <ele>42.466</ele>
        <time>2020-09-04T12:27:29Z</time>
      </trkpt>
      <trkpt lat="39.842410" lon="4.201159">
        <ele>42.463</ele>
        <time>2020-09-04T12:27:32Z</time>
      </trkpt>
      <trkpt lat="39.842406" lon="4.201216">
        <ele>42.494</ele>
        <time>2020-09-04T12:27:36Z</time>
      </trkpt>
      <trkpt lat="39.842390" lon="4.201452">
        <ele>41.948</ele>
        <time>2020-09-04T12:27:52Z</time>
      </trkpt>
      <trkpt lat="39.842370" lon="4.201597">
        <ele>41.913</ele>
        <time>2020-09-04T12:28:02Z</time>
      </trkpt>
      <trkpt lat="39.842371" lon="4.201655">
        <ele>41.443</ele>
        <time>2020-09-04T12:28:06Z</time>
      </trkpt>
      <trkpt lat="39.842360" lon="4.201721">
        <ele>41.907</ele>
        <time>2020-09-04T12:28:10Z</time>
      </trkpt>
      <trkpt lat="39.842344" lon="4.201941">
        <ele>41.408</ele>
        <time>2020-09-04T12:28:26Z</time>
      </trkpt>
      <trkpt lat="39.842312" lon="4.202191">
        <ele>41.436</ele>
        <time>2020-09-04T12:28:42Z</time>
      </trkpt>
      <trkpt lat="39.842304" lon="4.202312">
        <ele>40.918</ele>
        <time>2020-09-04T12:28:51Z</time>
      </trkpt>
      <trkpt lat="39.842310" lon="4.202346">
        <ele>40.991</ele>
        <time>2020-09-04T12:28:54Z</time>
      </trkpt>
      <trkpt lat="39.842270" lon="4.202509">
        <ele>39.558</ele>
        <time>2020-09-04T12:29:08Z</time>
      </trkpt>
      <trkpt lat="39.842247" lon="4.202523">
        <ele>39.576</ele>
        <time>2020-09-04T12:29:10Z</time>
      </trkpt>
      <trkpt lat="39.842178" lon="4.202492">
        <ele>39.573</ele>
        <time>2020-09-04T12:29:17Z</time>
      </trkpt>
      <trkpt lat="39.842152" lon="4.202474">
        <ele>40.014</ele>
        <time>2020-09-04T12:29:20Z</time>
      </trkpt>
      <trkpt lat="39.841994" lon="4.202394">
        <ele>39.538</ele>
        <time>2020-09-04T12:29:35Z</time>
      </trkpt>
      <trkpt lat="39.841916" lon="4.202409">
        <ele>39.549</ele>
        <time>2020-09-04T12:29:42Z</time>
      </trkpt>
      <trkpt lat="39.841761" lon="4.202415">
        <ele>40.002</ele>
        <time>2020-09-04T12:29:56Z</time>
      </trkpt>
      <trkpt lat="39.841631" lon="4.202430">
        <ele>40.022</ele>
        <time>2020-09-04T12:30:07Z</time>
      </trkpt>
      <trkpt lat="39.841446" lon="4.202439">
        <ele>40.008</ele>
        <time>2020-09-04T12:30:23Z</time>
      </trkpt>
      <trkpt lat="39.841267" lon="4.202423">
        <ele>39.539</ele>
        <time>2020-09-04T12:30:37Z</time>
      </trkpt>
      <trkpt lat="39.841080" lon="4.202364">
        <ele>39.071</ele>
        <time>2020-09-04T12:30:53Z</time>
      </trkpt>
      <trkpt lat="39.840948" lon="4.202280">
        <ele>39.554</ele>
        <time>2020-09-04T12:31:07Z</time>
      </trkpt>
      <trkpt lat="39.840924" lon="4.202269">
        <ele>39.541</ele>
        <time>2020-09-04T12:31:23Z</time>
      </trkpt>
      <trkpt lat="39.840898" lon="4.202253">
        <ele>39.599</ele>
        <time>2020-09-04T12:31:50Z</time>
      </trkpt>
      <trkpt lat="39.840842" lon="4.202185">
        <ele>39.526</ele>
        <time>2020-09-04T12:32:03Z</time>
      </trkpt>
      <trkpt lat="39.840798" lon="4.202178">
        <ele>39.547</ele>
        <time>2020-09-04T12:32:23Z</time>
      </trkpt>
      <trkpt lat="39.840770" lon="4.202195">
        <ele>39.541</ele>
        <time>2020-09-04T12:32:25Z</time>
      </trkpt>
      <trkpt lat="39.840723" lon="4.202308">
        <ele>39.072</ele>
        <time>2020-09-04T12:32:34Z</time>
      </trkpt>
      <trkpt lat="39.840481" lon="4.202375">
        <ele>37.613</ele>
        <time>2020-09-04T12:32:56Z</time>
      </trkpt>
      <trkpt lat="39.840358" lon="4.202430">
        <ele>37.114</ele>
        <time>2020-09-04T12:33:07Z</time>
      </trkpt>
      <trkpt lat="39.840197" lon="4.202559">
        <ele>36.108</ele>
        <time>2020-09-04T12:33:23Z</time>
      </trkpt>
      <trkpt lat="39.839986" lon="4.202677">
        <ele>35.222</ele>
        <time>2020-09-04T12:33:45Z</time>
      </trkpt>
      <trkpt lat="39.839815" lon="4.202868">
        <ele>33.724</ele>
        <time>2020-09-04T12:34:07Z</time>
      </trkpt>
      <trkpt lat="39.839670" lon="4.202985">
        <ele>34.257</ele>
        <time>2020-09-04T12:34:25Z</time>
      </trkpt>
      <trkpt lat="39.839506" lon="4.203226">
        <ele>34.294</ele>
        <time>2020-09-04T12:34:46Z</time>
      </trkpt>
      <trkpt lat="39.839479" lon="4.203264">
        <ele>34.212</ele>
        <time>2020-09-04T12:34:50Z</time>
      </trkpt>
      <trkpt lat="39.839626" lon="4.203311">
        <ele>32.819</ele>
        <time>2020-09-04T12:35:04Z</time>
      </trkpt>
      <trkpt lat="39.839699" lon="4.203286">
        <ele>32.360</ele>
        <time>2020-09-04T12:35:11Z</time>
      </trkpt>
      <trkpt lat="39.839747" lon="4.203323">
        <ele>31.814</ele>
        <time>2020-09-04T12:35:16Z</time>
      </trkpt>
      <trkpt lat="39.839733" lon="4.203540">
        <ele>30.461</ele>
        <time>2020-09-04T12:35:32Z</time>
      </trkpt>
      <trkpt lat="39.839715" lon="4.203642">
        <ele>29.421</ele>
        <time>2020-09-04T12:35:40Z</time>
      </trkpt>
      <trkpt lat="39.839717" lon="4.203671">
        <ele>29.413</ele>
        <time>2020-09-04T12:35:42Z</time>
      </trkpt>
      <trkpt lat="39.839643" lon="4.203743">
        <ele>27.508</ele>
        <time>2020-09-04T12:35:53Z</time>
      </trkpt>
      <trkpt lat="39.839618" lon="4.203764">
        <ele>27.041</ele>
        <time>2020-09-04T12:35:56Z</time>
      </trkpt>
      <trkpt lat="39.839499" lon="4.203809">
        <ele>25.683</ele>
        <time>2020-09-04T12:36:10Z</time>
      </trkpt>
      <trkpt lat="39.839392" lon="4.203799">
        <ele>23.616</ele>
        <time>2020-09-04T12:36:23Z</time>
      </trkpt>
      <trkpt lat="39.839287" lon="4.203834">
        <ele>21.223</ele>
        <time>2020-09-04T12:36:37Z</time>
      </trkpt>
      <trkpt lat="39.839190" lon="4.203946">
        <ele>18.831</ele>
        <time>2020-09-04T12:36:52Z</time>
      </trkpt>
      <trkpt lat="39.839107" lon="4.204102">
        <ele>16.978</ele>
        <time>2020-09-04T12:37:09Z</time>
      </trkpt>
      <trkpt lat="39.839074" lon="4.204315">
        <ele>16.989</ele>
        <time>2020-09-04T12:37:25Z</time>
      </trkpt>
      <trkpt lat="39.839038" lon="4.204433">
        <ele>15.543</ele>
        <time>2020-09-04T12:37:36Z</time>
      </trkpt>
      <trkpt lat="39.839090" lon="4.204603">
        <ele>15.593</ele>
        <time>2020-09-04T12:37:49Z</time>
      </trkpt>
      <trkpt lat="39.839179" lon="4.204760">
        <ele>16.065</ele>
        <time>2020-09-04T12:38:04Z</time>
      </trkpt>
      <trkpt lat="39.839235" lon="4.204941">
        <ele>16.421</ele>
        <time>2020-09-04T12:38:19Z</time>
      </trkpt>
      <trkpt lat="39.839240" lon="4.205133">
        <ele>16.908</ele>
        <time>2020-09-04T12:38:32Z</time>
      </trkpt>
      <trkpt lat="39.839204" lon="4.205289">
        <ele>17.964</ele>
        <time>2020-09-04T12:38:47Z</time>
      </trkpt>
      <trkpt lat="39.839210" lon="4.205362">
        <ele>18.846</ele>
        <time>2020-09-04T12:38:53Z</time>
      </trkpt>
      <trkpt lat="39.839219" lon="4.205456">
        <ele>18.849</ele>
        <time>2020-09-04T12:39:00Z</time>
      </trkpt>
      <trkpt lat="39.839243" lon="4.205632">
        <ele>19.326</ele>
        <time>2020-09-04T12:39:14Z</time>
      </trkpt>
      <trkpt lat="39.839241" lon="4.205640">
        <ele>19.394</ele>
        <time>2020-09-04T12:39:15Z</time>
      </trkpt>
      <trkpt lat="39.839217" lon="4.205709">
        <ele>19.331</ele>
        <time>2020-09-04T12:39:22Z</time>
      </trkpt>
      <trkpt lat="39.839297" lon="4.205820">
        <ele>19.312</ele>
        <time>2020-09-04T12:39:36Z</time>
      </trkpt>
      <trkpt lat="39.839384" lon="4.205942">
        <ele>20.316</ele>
        <time>2020-09-04T12:39:51Z</time>
      </trkpt>
      <trkpt lat="39.839349" lon="4.206084">
        <ele>22.278</ele>
        <time>2020-09-04T12:40:07Z</time>
      </trkpt>
      <trkpt lat="39.839304" lon="4.206262">
        <ele>23.233</ele>
        <time>2020-09-04T12:40:24Z</time>
      </trkpt>
      <trkpt lat="39.839224" lon="4.206422">
        <ele>24.126</ele>
        <time>2020-09-04T12:40:42Z</time>
      </trkpt>
      <trkpt lat="39.839177" lon="4.206535">
        <ele>26.008</ele>
        <time>2020-09-04T12:40:57Z</time>
      </trkpt>
      <trkpt lat="39.839148" lon="4.206650">
        <ele>27.012</ele>
        <time>2020-09-04T12:41:09Z</time>
      </trkpt>
      <trkpt lat="39.839088" lon="4.206892">
        <ele>27.044</ele>
        <time>2020-09-04T12:41:25Z</time>
      </trkpt>
      <trkpt lat="39.839019" lon="4.207056">
        <ele>27.587</ele>
        <time>2020-09-04T12:41:41Z</time>
      </trkpt>
      <trkpt lat="39.838921" lon="4.207020">
        <ele>29.424</ele>
        <time>2020-09-04T12:41:54Z</time>
      </trkpt>
      <trkpt lat="39.838816" lon="4.206950">
        <ele>31.362</ele>
        <time>2020-09-04T12:42:09Z</time>
      </trkpt>
      <trkpt lat="39.838680" lon="4.206897">
        <ele>33.339</ele>
        <time>2020-09-04T12:42:28Z</time>
      </trkpt>
      <trkpt lat="39.838583" lon="4.207036">
        <ele>33.390</ele>
        <time>2020-09-04T12:42:42Z</time>
      </trkpt>
      <trkpt lat="39.838524" lon="4.207234">
        <ele>34.284</ele>
        <time>2020-09-04T12:42:58Z</time>
      </trkpt>
      <trkpt lat="39.838463" lon="4.207412">
        <ele>34.711</ele>
        <time>2020-09-04T12:43:12Z</time>
      </trkpt>
      <trkpt lat="39.838408" lon="4.207607">
        <ele>35.721</ele>
        <time>2020-09-04T12:43:29Z</time>
      </trkpt>
      <trkpt lat="39.838388" lon="4.207678">
        <ele>36.603</ele>
        <time>2020-09-04T12:43:36Z</time>
      </trkpt>
      <trkpt lat="39.838390" lon="4.207927">
        <ele>36.608</ele>
        <time>2020-09-04T12:43:53Z</time>
      </trkpt>
      <trkpt lat="39.838381" lon="4.208148">
        <ele>37.146</ele>
        <time>2020-09-04T12:44:08Z</time>
      </trkpt>
      <trkpt lat="39.838382" lon="4.208179">
        <ele>37.138</ele>
        <time>2020-09-04T12:44:10Z</time>
      </trkpt>
      <trkpt lat="39.838369" lon="4.208278">
        <ele>37.621</ele>
        <time>2020-09-04T12:44:18Z</time>
      </trkpt>
      <trkpt lat="39.838363" lon="4.208386">
        <ele>37.668</ele>
        <time>2020-09-04T12:44:26Z</time>
      </trkpt>
      <trkpt lat="39.838357" lon="4.208562">
        <ele>37.696</ele>
        <time>2020-09-04T12:44:38Z</time>
      </trkpt>
      <trkpt lat="39.838361" lon="4.208590">
        <ele>37.683</ele>
        <time>2020-09-04T12:44:40Z</time>
      </trkpt>
      <trkpt lat="39.838343" lon="4.208828">
        <ele>38.594</ele>
        <time>2020-09-04T12:44:56Z</time>
      </trkpt>
      <trkpt lat="39.838341" lon="4.208941">
        <ele>39.588</ele>
        <time>2020-09-04T12:45:04Z</time>
      </trkpt>
      <trkpt lat="39.838373" lon="4.209056">
        <ele>38.597</ele>
        <time>2020-09-04T12:45:18Z</time>
      </trkpt>
      <trkpt lat="39.838355" lon="4.209093">
        <ele>38.523</ele>
        <time>2020-09-04T12:45:22Z</time>
      </trkpt>
      <trkpt lat="39.838145" lon="4.209109">
        <ele>38.525</ele>
        <time>2020-09-04T12:45:42Z</time>
      </trkpt>
      <trkpt lat="39.837954" lon="4.209118">
        <ele>39.008</ele>
        <time>2020-09-04T12:45:58Z</time>
      </trkpt>
      <trkpt lat="39.837731" lon="4.209191">
        <ele>38.194</ele>
        <time>2020-09-04T12:46:17Z</time>
      </trkpt>
      <trkpt lat="39.837541" lon="4.209342">
        <ele>37.636</ele>
        <time>2020-09-04T12:46:36Z</time>
      </trkpt>
      <trkpt lat="39.837496" lon="4.209354">
        <ele>37.129</ele>
        <time>2020-09-04T12:46:47Z</time>
      </trkpt>
      <trkpt lat="39.837277" lon="4.209322">
        <ele>37.116</ele>
        <time>2020-09-04T12:47:06Z</time>
      </trkpt>
      <trkpt lat="39.837246" lon="4.209315">
        <ele>37.164</ele>
        <time>2020-09-04T12:47:09Z</time>
      </trkpt>
      <trkpt lat="39.837044" lon="4.209314">
        <ele>37.191</ele>
        <time>2020-09-04T12:47:27Z</time>
      </trkpt>
      <trkpt lat="39.836959" lon="4.209320">
        <ele>37.172</ele>
        <time>2020-09-04T12:47:35Z</time>
      </trkpt>
      <trkpt lat="39.836731" lon="4.209322">
        <ele>37.126</ele>
        <time>2020-09-04T12:47:55Z</time>
      </trkpt>
      <trkpt lat="39.836534" lon="4.209350">
        <ele>36.678</ele>
        <time>2020-09-04T12:48:13Z</time>
      </trkpt>
      <trkpt lat="39.836504" lon="4.209349">
        <ele>36.633</ele>
        <time>2020-09-04T12:48:16Z</time>
      </trkpt>
      <trkpt lat="39.836473" lon="4.209405">
        <ele>36.126</ele>
        <time>2020-09-04T12:48:21Z</time>
      </trkpt>
      <trkpt lat="39.836418" lon="4.209621">
        <ele>34.708</ele>
        <time>2020-09-04T12:48:37Z</time>
      </trkpt>
      <trkpt lat="39.836356" lon="4.209821">
        <ele>35.242</ele>
        <time>2020-09-04T12:48:52Z</time>
      </trkpt>
      <trkpt lat="39.836330" lon="4.209896">
        <ele>36.124</ele>
        <time>2020-09-04T12:49:01Z</time>
      </trkpt>
      <trkpt lat="39.836308" lon="4.209908">
        <ele>36.127</ele>
        <time>2020-09-04T12:49:03Z</time>
      </trkpt>
      <trkpt lat="39.836205" lon="4.209883">
        <ele>35.294</ele>
        <time>2020-09-04T12:49:13Z</time>
      </trkpt>
      <trkpt lat="39.836098" lon="4.209861">
        <ele>35.252</ele>
        <time>2020-09-04T12:49:23Z</time>
      </trkpt>
      <trkpt lat="39.836046" lon="4.209862">
        <ele>34.749</ele>
        <time>2020-09-04T12:49:28Z</time>
      </trkpt>
      <trkpt lat="39.835995" lon="4.209863">
        <ele>35.230</ele>
        <time>2020-09-04T12:49:33Z</time>
      </trkpt>
      <trkpt lat="39.835939" lon="4.209865">
        <ele>35.234</ele>
        <time>2020-09-04T12:49:38Z</time>
      </trkpt>
      <trkpt lat="39.835807" lon="4.209825">
        <ele>34.266</ele>
        <time>2020-09-04T12:49:50Z</time>
      </trkpt>
      <trkpt lat="39.835642" lon="4.209919">
        <ele>34.729</ele>
        <time>2020-09-04T12:50:07Z</time>
      </trkpt>
      <trkpt lat="39.835584" lon="4.209951">
        <ele>34.721</ele>
        <time>2020-09-04T12:50:14Z</time>
      </trkpt>
      <trkpt lat="39.835516" lon="4.209950">
        <ele>34.208</ele>
        <time>2020-09-04T12:50:20Z</time>
      </trkpt>
      <trkpt lat="39.835474" lon="4.210003">
        <ele>34.211</ele>
        <time>2020-09-04T12:50:27Z</time>
      </trkpt>
      <trkpt lat="39.835416" lon="4.210056">
        <ele>34.733</ele>
        <time>2020-09-04T12:50:34Z</time>
      </trkpt>
      <trkpt lat="39.835344" lon="4.210101">
        <ele>34.256</ele>
        <time>2020-09-04T12:50:41Z</time>
      </trkpt>
      <trkpt lat="39.835276" lon="4.210247">
        <ele>34.773</ele>
        <time>2020-09-04T12:50:53Z</time>
      </trkpt>
      <trkpt lat="39.835137" lon="4.210419">
        <ele>34.281</ele>
        <time>2020-09-04T12:51:11Z</time>
      </trkpt>
      <trkpt lat="39.835021" lon="4.210400">
        <ele>34.218</ele>
        <time>2020-09-04T12:51:22Z</time>
      </trkpt>
      <trkpt lat="39.834936" lon="4.210421">
        <ele>33.729</ele>
        <time>2020-09-04T12:51:31Z</time>
      </trkpt>
      <trkpt lat="39.834875" lon="4.210496">
        <ele>33.753</ele>
        <time>2020-09-04T12:51:38Z</time>
      </trkpt>
      <trkpt lat="39.834817" lon="4.210747">
        <ele>33.711</ele>
        <time>2020-09-04T12:51:56Z</time>
      </trkpt>
      <trkpt lat="39.834847" lon="4.210984">
        <ele>34.221</ele>
        <time>2020-09-04T12:52:13Z</time>
      </trkpt>
      <trkpt lat="39.834851" lon="4.211093">
        <ele>34.703</ele>
        <time>2020-09-04T12:52:22Z</time>
      </trkpt>
      <trkpt lat="39.834720" lon="4.211268">
        <ele>34.708</ele>
        <time>2020-09-04T12:52:40Z</time>
      </trkpt>
      <trkpt lat="39.834595" lon="4.211339">
        <ele>34.766</ele>
        <time>2020-09-04T12:52:52Z</time>
      </trkpt>
      <trkpt lat="39.834371" lon="4.211406">
        <ele>34.798</ele>
        <time>2020-09-04T12:53:13Z</time>
      </trkpt>
      <trkpt lat="39.834175" lon="4.211406">
        <ele>34.241</ele>
        <time>2020-09-04T12:53:29Z</time>
      </trkpt>
      <trkpt lat="39.834018" lon="4.211368">
        <ele>33.758</ele>
        <time>2020-09-04T12:53:43Z</time>
      </trkpt>
      <trkpt lat="39.833859" lon="4.211274">
        <ele>33.766</ele>
        <time>2020-09-04T12:53:59Z</time>
      </trkpt>
      <trkpt lat="39.833761" lon="4.211282">
        <ele>33.763</ele>
        <time>2020-09-04T12:54:12Z</time>
      </trkpt>
      <trkpt lat="39.833704" lon="4.211347">
        <ele>33.394</ele>
        <time>2020-09-04T12:54:19Z</time>
      </trkpt>
      <trkpt lat="39.833681" lon="4.211398">
        <ele>33.748</ele>
        <time>2020-09-04T12:54:23Z</time>
      </trkpt>
      <trkpt lat="39.833601" lon="4.211580">
        <ele>33.796</ele>
        <time>2020-09-04T12:54:38Z</time>
      </trkpt>
      <trkpt lat="39.833605" lon="4.211618">
        <ele>33.731</ele>
        <time>2020-09-04T12:54:41Z</time>
      </trkpt>
      <trkpt lat="39.833664" lon="4.211740">
        <ele>34.224</ele>
        <time>2020-09-04T12:54:52Z</time>
      </trkpt>
      <trkpt lat="39.833652" lon="4.211814">
        <ele>34.708</ele>
        <time>2020-09-04T12:54:58Z</time>
      </trkpt>
      <trkpt lat="39.833597" lon="4.211878">
        <ele>34.784</ele>
        <time>2020-09-04T12:55:05Z</time>
      </trkpt>
      <trkpt lat="39.833537" lon="4.212126">
        <ele>35.236</ele>
        <time>2020-09-04T12:55:23Z</time>
      </trkpt>
      <trkpt lat="39.833476" lon="4.212385">
        <ele>35.279</ele>
        <time>2020-09-04T12:55:40Z</time>
      </trkpt>
      <trkpt lat="39.833440" lon="4.212648">
        <ele>35.796</ele>
        <time>2020-09-04T12:55:58Z</time>
      </trkpt>
      <trkpt lat="39.833402" lon="4.212735">
        <ele>35.264</ele>
        <time>2020-09-04T12:56:05Z</time>
      </trkpt>
      <trkpt lat="39.833192" lon="4.212766">
        <ele>35.251</ele>
        <time>2020-09-04T12:56:24Z</time>
      </trkpt>
      <trkpt lat="39.832973" lon="4.212769">
        <ele>35.292</ele>
        <time>2020-09-04T12:56:43Z</time>
      </trkpt>
      <trkpt lat="39.832769" lon="4.212765">
        <ele>35.276</ele>
        <time>2020-09-04T12:57:00Z</time>
      </trkpt>
      <trkpt lat="39.832591" lon="4.212773">
        <ele>34.753</ele>
        <time>2020-09-04T12:57:16Z</time>
      </trkpt>
      <trkpt lat="39.832402" lon="4.212771">
        <ele>33.704</ele>
        <time>2020-09-04T12:57:32Z</time>
      </trkpt>
      <trkpt lat="39.832191" lon="4.212735">
        <ele>32.814</ele>
        <time>2020-09-04T12:57:49Z</time>
      </trkpt>
      <trkpt lat="39.832005" lon="4.212612">
        <ele>31.308</ele>
        <time>2020-09-04T12:58:07Z</time>
      </trkpt>
      <trkpt lat="39.831847" lon="4.212654">
        <ele>29.940</ele>
        <time>2020-09-04T12:58:22Z</time>
      </trkpt>
      <trkpt lat="39.831814" lon="4.212668">
        <ele>29.422</ele>
        <time>2020-09-04T12:58:26Z</time>
      </trkpt>
      <trkpt lat="39.831768" lon="4.212664">
        <ele>28.965</ele>
        <time>2020-09-04T12:58:30Z</time>
      </trkpt>
      <trkpt lat="39.831598" lon="4.212686">
        <ele>26.512</ele>
        <time>2020-09-04T12:58:46Z</time>
      </trkpt>
      <trkpt lat="39.831476" lon="4.212626">
        <ele>25.110</ele>
        <time>2020-09-04T12:59:02Z</time>
      </trkpt>
      <trkpt lat="39.831333" lon="4.212573">
        <ele>22.797</ele>
        <time>2020-09-04T12:59:18Z</time>
      </trkpt>
      <trkpt lat="39.831234" lon="4.212556">
        <ele>20.818</ele>
        <time>2020-09-04T12:59:31Z</time>
      </trkpt>
      <trkpt lat="39.831119" lon="4.212532">
        <ele>19.372</ele>
        <time>2020-09-04T12:59:44Z</time>
      </trkpt>
      <trkpt lat="39.830959" lon="4.212478">
        <ele>18.439</ele>
        <time>2020-09-04T13:00:00Z</time>
      </trkpt>
      <trkpt lat="39.830829" lon="4.212431">
        <ele>16.901</ele>
        <time>2020-09-04T13:00:15Z</time>
      </trkpt>
      <trkpt lat="39.830685" lon="4.212415">
        <ele>16.021</ele>
        <time>2020-09-04T13:00:31Z</time>
      </trkpt>
      <trkpt lat="39.830579" lon="4.212368">
        <ele>14.508</ele>
        <time>2020-09-04T13:00:44Z</time>
      </trkpt>
      <trkpt lat="39.830423" lon="4.212285">
        <ele>13.698</ele>
        <time>2020-09-04T13:00:58Z</time>
      </trkpt>
      <trkpt lat="39.830331" lon="4.212241">
        <ele>12.670</ele>
        <time>2020-09-04T13:01:06Z</time>
      </trkpt>
      <trkpt lat="39.830190" lon="4.212208">
        <ele>11.623</ele>
        <time>2020-09-04T13:01:21Z</time>
      </trkpt>
      <trkpt lat="39.830016" lon="4.212155">
        <ele>10.710</ele>
        <time>2020-09-04T13:01:36Z</time>
      </trkpt>
      <trkpt lat="39.830006" lon="4.212155">
        <ele>10.798</ele>
        <time>2020-09-04T13:01:37Z</time>
      </trkpt>
      <trkpt lat="39.829973" lon="4.212150">
        <ele>10.285</ele>
        <time>2020-09-04T13:01:39Z</time>
      </trkpt>
      <trkpt lat="39.829781" lon="4.212045">
        <ele>9.786</ele>
        <time>2020-09-04T13:01:58Z</time>
      </trkpt>
      <trkpt lat="39.829789" lon="4.212062">
        <ele>9.730</ele>
        <time>2020-09-04T13:02:17Z</time>
      </trkpt>
      <trkpt lat="39.829736" lon="4.212084">
        <ele>9.796</ele>
        <time>2020-09-04T13:02:37Z</time>
      </trkpt>
      <trkpt lat="39.829702" lon="4.212090">
        <ele>9.731</ele>
        <time>2020-09-04T13:02:49Z</time>
      </trkpt>
      <trkpt lat="39.829699" lon="4.212112">
        <ele>9.224</ele>
        <time>2020-09-04T13:02:53Z</time>
      </trkpt>
      <trkpt lat="39.829663" lon="4.212350">
        <ele>9.708</ele>
        <time>2020-09-04T13:03:08Z</time>
      </trkpt>
      <trkpt lat="39.829622" lon="4.212560">
        <ele>9.784</ele>
        <time>2020-09-04T13:03:22Z</time>
      </trkpt>
      <trkpt lat="39.829590" lon="4.212823">
        <ele>9.796</ele>
        <time>2020-09-04T13:03:38Z</time>
      </trkpt>
      <trkpt lat="39.829579" lon="4.212931">
        <ele>9.799</ele>
        <time>2020-09-04T13:03:45Z</time>
      </trkpt>
      <trkpt lat="39.829545" lon="4.213197">
        <ele>10.266</ele>
        <time>2020-09-04T13:04:02Z</time>
      </trkpt>
      <trkpt lat="39.829523" lon="4.213398">
        <ele>10.284</ele>
        <time>2020-09-04T13:04:15Z</time>
      </trkpt>
      <trkpt lat="39.829489" lon="4.213633">
        <ele>10.211</ele>
        <time>2020-09-04T13:04:30Z</time>
      </trkpt>
      <trkpt lat="39.829474" lon="4.213771">
        <ele>10.222</ele>
        <time>2020-09-04T13:04:39Z</time>
      </trkpt>
      <trkpt lat="39.829428" lon="4.214045">
        <ele>10.216</ele>
        <time>2020-09-04T13:04:57Z</time>
      </trkpt>
      <trkpt lat="39.829411" lon="4.214278">
        <ele>11.612</ele>
        <time>2020-09-04T13:05:14Z</time>
      </trkpt>
      <trkpt lat="39.829409" lon="4.214304">
        <ele>11.632</ele>
        <time>2020-09-04T13:05:16Z</time>
      </trkpt>
      <trkpt lat="39.829411" lon="4.214455">
        <ele>10.705</ele>
        <time>2020-09-04T13:05:25Z</time>
      </trkpt>
      <trkpt lat="39.829352" lon="4.214723">
        <ele>10.708</ele>
        <time>2020-09-04T13:05:43Z</time>
      </trkpt>
      <trkpt lat="39.829311" lon="4.214909">
        <ele>10.296</ele>
        <time>2020-09-04T13:05:55Z</time>
      </trkpt>
      <trkpt lat="39.829281" lon="4.215154">
        <ele>10.238</ele>
        <time>2020-09-04T13:06:10Z</time>
      </trkpt>
      <trkpt lat="39.829276" lon="4.215376">
        <ele>9.781</ele>
        <time>2020-09-04T13:06:25Z</time>
      </trkpt>
      <trkpt lat="39.829278" lon="4.215609">
        <ele>9.748</ele>
        <time>2020-09-04T13:06:41Z</time>
      </trkpt>
      <trkpt lat="39.829279" lon="4.215623">
        <ele>9.766</ele>
        <time>2020-09-04T13:06:42Z</time>
      </trkpt>
      <trkpt lat="39.829274" lon="4.215691">
        <ele>9.713</ele>
        <time>2020-09-04T13:06:46Z</time>
      </trkpt>
      <trkpt lat="39.829281" lon="4.215824">
        <ele>9.784</ele>
        <time>2020-09-04T13:06:55Z</time>
      </trkpt>
      <trkpt lat="39.829257" lon="4.215847">
        <ele>10.258</ele>
        <time>2020-09-04T13:06:58Z</time>
      </trkpt>
      <trkpt lat="39.829198" lon="4.215895">
        <ele>10.261</ele>
        <time>2020-09-04T13:07:16Z</time>
      </trkpt>
      <trkpt lat="39.829201" lon="4.215888">
        <ele>10.221</ele>
        <time>2020-09-04T13:07:41Z</time>
      </trkpt>
      <trkpt lat="39.829202" lon="4.215889">
        <ele>10.213</ele>
        <time>2020-09-04T13:07:44Z</time>
      </trkpt>
      <trkpt lat="39.829208" lon="4.215902">
        <ele>9.708</ele>
        <time>2020-09-04T13:07:46Z</time>
      </trkpt>
      <trkpt lat="39.829233" lon="4.215954">
        <ele>10.241</ele>
        <time>2020-09-04T13:07:51Z</time>
      </trkpt>
      <trkpt lat="39.829263" lon="4.216245">
        <ele>10.293</ele>
        <time>2020-09-04T13:08:08Z</time>
      </trkpt>
      <trkpt lat="39.829282" lon="4.216487">
        <ele>10.226</ele>
        <time>2020-09-04T13:08:23Z</time>
      </trkpt>
      <trkpt lat="39.829313" lon="4.216704">
        <ele>9.713</ele>
        <time>2020-09-04T13:08:37Z</time>
      </trkpt>
      <trkpt lat="39.829323" lon="4.216831">
        <ele>10.221</ele>
        <time>2020-09-04T13:08:46Z</time>
      </trkpt>
      <trkpt lat="39.829307" lon="4.216893">
        <ele>10.278</ele>
        <time>2020-09-04T13:08:50Z</time>
      </trkpt>
      <trkpt lat="39.829291" lon="4.217097">
        <ele>10.269</ele>
        <time>2020-09-04T13:09:04Z</time>
      </trkpt>
      <trkpt lat="39.829295" lon="4.217123">
        <ele>10.243</ele>
        <time>2020-09-04T13:09:06Z</time>
      </trkpt>
      <trkpt lat="39.829316" lon="4.217353">
        <ele>10.281</ele>
        <time>2020-09-04T13:09:22Z</time>
      </trkpt>
      <trkpt lat="39.829323" lon="4.217418">
        <ele>10.261</ele>
        <time>2020-09-04T13:09:27Z</time>
      </trkpt>
      <trkpt lat="39.829377" lon="4.217658">
        <ele>9.217</ele>
        <time>2020-09-04T13:09:44Z</time>
      </trkpt>
      <trkpt lat="39.829415" lon="4.217790">
        <ele>9.208</ele>
        <time>2020-09-04T13:09:54Z</time>
      </trkpt>
      <trkpt lat="39.829420" lon="4.217932">
        <ele>8.793</ele>
        <time>2020-09-04T13:10:03Z</time>
      </trkpt>
      <trkpt lat="39.829424" lon="4.218124">
        <ele>7.865</ele>
        <time>2020-09-04T13:10:16Z</time>
      </trkpt>
      <trkpt lat="39.829403" lon="4.218124">
        <ele>7.328</ele>
        <time>2020-09-04T13:10:19Z</time>
      </trkpt>
      <trkpt lat="39.829257" lon="4.218084">
        <ele>5.925</ele>
        <time>2020-09-04T13:10:34Z</time>
      </trkpt>
      <trkpt lat="39.829235" lon="4.218094">
        <ele>5.453</ele>
        <time>2020-09-04T13:10:36Z</time>
      </trkpt>
      <trkpt lat="39.829116" lon="4.218136">
        <ele>5.450</ele>
        <time>2020-09-04T13:10:52Z</time>
      </trkpt>
      <trkpt lat="39.829144" lon="4.218174">
        <ele>4.951</ele>
        <time>2020-09-04T13:11:13Z</time>
      </trkpt>
      <trkpt lat="39.829146" lon="4.218225">
        <ele>3.985</ele>
        <time>2020-09-04T13:11:17Z</time>
      </trkpt>
      <trkpt lat="39.829184" lon="4.218317">
        <ele>2.057</ele>
        <time>2020-09-04T13:11:27Z</time>
      </trkpt>
      <trkpt lat="39.829226" lon="4.218347">
        <ele>1.100</ele>
        <time>2020-09-04T13:11:36Z</time>
      </trkpt>
      <trkpt lat="39.829288" lon="4.218457">
        <ele>1.120</ele>
        <time>2020-09-04T13:11:46Z</time>
      </trkpt>
      <trkpt lat="39.829351" lon="4.218561">
        <ele>1.108</ele>
        <time>2020-09-04T13:11:56Z</time>
      </trkpt>
      <trkpt lat="39.829289" lon="4.218744">
        <ele>0.650</ele>
        <time>2020-09-04T13:12:09Z</time>
      </trkpt>
      <trkpt lat="39.829276" lon="4.218758">
        <ele>1.122</ele>
        <time>2020-09-04T13:12:28Z</time>
      </trkpt>
      <trkpt lat="39.829270" lon="4.218786">
        <ele>1.175</ele>
        <time>2020-09-04T13:12:30Z</time>
      </trkpt>
      <trkpt lat="39.829211" lon="4.218970">
        <ele>3.512</ele>
        <time>2020-09-04T13:12:46Z</time>
      </trkpt>
      <trkpt lat="39.829163" lon="4.219130">
        <ele>5.920</ele>
        <time>2020-09-04T13:13:00Z</time>
      </trkpt>
      <trkpt lat="39.829086" lon="4.219301">
        <ele>6.877</ele>
        <time>2020-09-04T13:13:16Z</time>
      </trkpt>
      <trkpt lat="39.829026" lon="4.219283">
        <ele>5.928</ele>
        <time>2020-09-04T13:13:23Z</time>
      </trkpt>
      <trkpt lat="39.828918" lon="4.219319">
        <ele>5.932</ele>
        <time>2020-09-04T13:13:39Z</time>
      </trkpt>
      <trkpt lat="39.828793" lon="4.219324">
        <ele>6.826</ele>
        <time>2020-09-04T13:13:54Z</time>
      </trkpt>
      <trkpt lat="39.828658" lon="4.219334">
        <ele>5.447</ele>
        <time>2020-09-04T13:14:11Z</time>
      </trkpt>
      <trkpt lat="39.828630" lon="4.219292">
        <ele>5.411</ele>
        <time>2020-09-04T13:14:25Z</time>
      </trkpt>
      <trkpt lat="39.828631" lon="4.219310">
        <ele>5.408</ele>
        <time>2020-09-04T13:14:57Z</time>
      </trkpt>
      <trkpt lat="39.828543" lon="4.219364">
        <ele>5.957</ele>
        <time>2020-09-04T13:15:10Z</time>
      </trkpt>
      <trkpt lat="39.828385" lon="4.219423">
        <ele>4.979</ele>
        <time>2020-09-04T13:15:29Z</time>
      </trkpt>
      <trkpt lat="39.828330" lon="4.219445">
        <ele>3.962</ele>
        <time>2020-09-04T13:15:35Z</time>
      </trkpt>
      <trkpt lat="39.828233" lon="4.219517">
        <ele>3.949</ele>
        <time>2020-09-04T13:15:49Z</time>
      </trkpt>
      <trkpt lat="39.828204" lon="4.219558">
        <ele>4.457</ele>
        <time>2020-09-04T13:16:00Z</time>
      </trkpt>
      <trkpt lat="39.828211" lon="4.219575">
        <ele>3.914</ele>
        <time>2020-09-04T13:16:02Z</time>
      </trkpt>
      <trkpt lat="39.828117" lon="4.219620">
        <ele>3.915</ele>
        <time>2020-09-04T13:16:19Z</time>
      </trkpt>
      <trkpt lat="39.828028" lon="4.219670">
        <ele>3.529</ele>
        <time>2020-09-04T13:16:30Z</time>
      </trkpt>
      <trkpt lat="39.827923" lon="4.219744">
        <ele>3.514</ele>
        <time>2020-09-04T13:16:44Z</time>
      </trkpt>
      <trkpt lat="39.827830" lon="4.219806">
        <ele>3.954</ele>
        <time>2020-09-04T13:16:57Z</time>
      </trkpt>
      <trkpt lat="39.827676" lon="4.219891">
        <ele>3.509</ele>
        <time>2020-09-04T13:17:13Z</time>
      </trkpt>
      <trkpt lat="39.827611" lon="4.219932">
        <ele>2.508</ele>
        <time>2020-09-04T13:17:20Z</time>
      </trkpt>
      <trkpt lat="39.827594" lon="4.219952">
        <ele>2.536</ele>
        <time>2020-09-04T13:17:22Z</time>
      </trkpt>
      <trkpt lat="39.827578" lon="4.220013">
        <ele>2.558</ele>
        <time>2020-09-04T13:17:27Z</time>
      </trkpt>
      <trkpt lat="39.827461" lon="4.220200">
        <ele>2.561</ele>
        <time>2020-09-04T13:17:43Z</time>
      </trkpt>
      <trkpt lat="39.827332" lon="4.220376">
        <ele>2.578</ele>
        <time>2020-09-04T13:17:59Z</time>
      </trkpt>
      <trkpt lat="39.827315" lon="4.220502">
        <ele>2.526</ele>
        <time>2020-09-04T13:18:09Z</time>
      </trkpt>
      <trkpt lat="39.827207" lon="4.220704">
        <ele>3.053</ele>
        <time>2020-09-04T13:18:26Z</time>
      </trkpt>
      <trkpt lat="39.827094" lon="4.220859">
        <ele>3.044</ele>
        <time>2020-09-04T13:18:41Z</time>
      </trkpt>
      <trkpt lat="39.826938" lon="4.221031">
        <ele>2.518</ele>
        <time>2020-09-04T13:18:58Z</time>
      </trkpt>
      <trkpt lat="39.826890" lon="4.221028">
        <ele>3.096</ele>
        <time>2020-09-04T13:19:15Z</time>
      </trkpt>
      <trkpt lat="39.826794" lon="4.221171">
        <ele>2.531</ele>
        <time>2020-09-04T13:19:30Z</time>
      </trkpt>
      <trkpt lat="39.826741" lon="4.221243">
        <ele>2.524</ele>
        <time>2020-09-04T13:19:46Z</time>
      </trkpt>
      <trkpt lat="39.826735" lon="4.221252">
        <ele>3.008</ele>
        <time>2020-09-04T13:20:00Z</time>
      </trkpt>
      <trkpt lat="39.826735" lon="4.221250">
        <ele>2.514</ele>
        <time>2020-09-04T13:20:03Z</time>
      </trkpt>
      <trkpt lat="39.826722" lon="4.221271">
        <ele>2.516</ele>
        <time>2020-09-04T13:20:05Z</time>
      </trkpt>
      <trkpt lat="39.826568" lon="4.221509">
        <ele>2.019</ele>
        <time>2020-09-04T13:20:26Z</time>
      </trkpt>
      <trkpt lat="39.826435" lon="4.221761">
        <ele>2.016</ele>
        <time>2020-09-04T13:20:45Z</time>
      </trkpt>
      <trkpt lat="39.826295" lon="4.222011">
        <ele>1.524</ele>
        <time>2020-09-04T13:21:05Z</time>
      </trkpt>
      <trkpt lat="39.826197" lon="4.222292">
        <ele>1.171</ele>
        <time>2020-09-04T13:21:24Z</time>
      </trkpt>
      <trkpt lat="39.826099" lon="4.222526">
        <ele>1.542</ele>
        <time>2020-09-04T13:21:41Z</time>
      </trkpt>
      <trkpt lat="39.825976" lon="4.222720">
        <ele>1.166</ele>
        <time>2020-09-04T13:21:58Z</time>
      </trkpt>
      <trkpt lat="39.825842" lon="4.222933">
        <ele>1.186</ele>
        <time>2020-09-04T13:22:16Z</time>
      </trkpt>
      <trkpt lat="39.825705" lon="4.223132">
        <ele>1.160</ele>
        <time>2020-09-04T13:22:34Z</time>
      </trkpt>
      <trkpt lat="39.825547" lon="4.223348">
        <ele>0.626</ele>
        <time>2020-09-04T13:22:54Z</time>
      </trkpt>
      <trkpt lat="39.825410" lon="4.223532">
        <ele>0.608</ele>
        <time>2020-09-04T13:23:11Z</time>
      </trkpt>
      <trkpt lat="39.825248" lon="4.223742">
        <ele>0.693</ele>
        <time>2020-09-04T13:23:31Z</time>
      </trkpt>
      <trkpt lat="39.825095" lon="4.223973">
        <ele>1.555</ele>
        <time>2020-09-04T13:23:51Z</time>
      </trkpt>
      <trkpt lat="39.824964" lon="4.224173">
        <ele>1.138</ele>
        <time>2020-09-04T13:24:09Z</time>
      </trkpt>
      <trkpt lat="39.824819" lon="4.224382">
        <ele>1.155</ele>
        <time>2020-09-04T13:24:27Z</time>
      </trkpt>
      <trkpt lat="39.824685" lon="4.224540">
        <ele>1.123</ele>
        <time>2020-09-04T13:24:42Z</time>
      </trkpt>
      <trkpt lat="39.824518" lon="4.224790">
        <ele>1.120</ele>
        <time>2020-09-04T13:25:03Z</time>
      </trkpt>
      <trkpt lat="39.824373" lon="4.225006">
        <ele>1.511</ele>
        <time>2020-09-04T13:25:22Z</time>
      </trkpt>
      <trkpt lat="39.824232" lon="4.225201">
        <ele>2.525</ele>
        <time>2020-09-04T13:25:39Z</time>
      </trkpt>
      <trkpt lat="39.824093" lon="4.225399">
        <ele>4.441</ele>
        <time>2020-09-04T13:25:57Z</time>
      </trkpt>
      <trkpt lat="39.823970" lon="4.225580">
        <ele>4.981</ele>
        <time>2020-09-04T13:26:13Z</time>
      </trkpt>
      <trkpt lat="39.823807" lon="4.225791">
        <ele>5.409</ele>
        <time>2020-09-04T13:26:33Z</time>
      </trkpt>
      <trkpt lat="39.823658" lon="4.225996">
        <ele>5.908</ele>
        <time>2020-09-04T13:26:51Z</time>
      </trkpt>
      <trkpt lat="39.823504" lon="4.226236">
        <ele>5.949</ele>
        <time>2020-09-04T13:27:11Z</time>
      </trkpt>
      <trkpt lat="39.823392" lon="4.226427">
        <ele>6.311</ele>
        <time>2020-09-04T13:27:28Z</time>
      </trkpt>
      <trkpt lat="39.823244" lon="4.226624">
        <ele>6.814</ele>
        <time>2020-09-04T13:27:45Z</time>
      </trkpt>
      <trkpt lat="39.823152" lon="4.226835">
        <ele>7.861</ele>
        <time>2020-09-04T13:28:01Z</time>
      </trkpt>
      <trkpt lat="39.823107" lon="4.226984">
        <ele>6.869</ele>
        <time>2020-09-04T13:28:11Z</time>
      </trkpt>
      <trkpt lat="39.823071" lon="4.227256">
        <ele>6.376</ele>
        <time>2020-09-04T13:28:29Z</time>
      </trkpt>
      <trkpt lat="39.823062" lon="4.227332">
        <ele>6.397</ele>
        <time>2020-09-04T13:28:34Z</time>
      </trkpt>
      <trkpt lat="39.823042" lon="4.227363">
        <ele>6.341</ele>
        <time>2020-09-04T13:28:37Z</time>
      </trkpt>
      <trkpt lat="39.823019" lon="4.227418">
        <ele>6.819</ele>
        <time>2020-09-04T13:28:41Z</time>
      </trkpt>
      <trkpt lat="39.823031" lon="4.227480">
        <ele>6.309</ele>
        <time>2020-09-04T13:28:45Z</time>
      </trkpt>
      <trkpt lat="39.823002" lon="4.227577">
        <ele>6.319</ele>
        <time>2020-09-04T13:28:52Z</time>
      </trkpt>
      <trkpt lat="39.823029" lon="4.227732">
        <ele>6.808</ele>
        <time>2020-09-04T13:29:02Z</time>
      </trkpt>
      <trkpt lat="39.823041" lon="4.227759">
        <ele>6.866</ele>
        <time>2020-09-04T13:29:04Z</time>
      </trkpt>
      <trkpt lat="39.823049" lon="4.227805">
        <ele>6.888</ele>
        <time>2020-09-04T13:29:07Z</time>
      </trkpt>
      <trkpt lat="39.823072" lon="4.227903">
        <ele>6.831</ele>
        <time>2020-09-04T13:29:14Z</time>
      </trkpt>
      <trkpt lat="39.823183" lon="4.228107">
        <ele>7.818</ele>
        <time>2020-09-04T13:29:31Z</time>
      </trkpt>
      <trkpt lat="39.823312" lon="4.228341">
        <ele>8.726</ele>
        <time>2020-09-04T13:29:49Z</time>
      </trkpt>
      <trkpt lat="39.823359" lon="4.228439">
        <ele>9.273</ele>
        <time>2020-09-04T13:29:58Z</time>
      </trkpt>
      <trkpt lat="39.823314" lon="4.228546">
        <ele>9.244</ele>
        <time>2020-09-04T13:30:06Z</time>
      </trkpt>
      <trkpt lat="39.823220" lon="4.228714">
        <ele>7.868</ele>
        <time>2020-09-04T13:30:22Z</time>
      </trkpt>
      <trkpt lat="39.823181" lon="4.228889">
        <ele>4.942</ele>
        <time>2020-09-04T13:30:37Z</time>
      </trkpt>
      <trkpt lat="39.823143" lon="4.228874">
        <ele>4.422</ele>
        <time>2020-09-04T13:30:50Z</time>
      </trkpt>
      <trkpt lat="39.823191" lon="4.228958">
        <ele>4.914</ele>
        <time>2020-09-04T13:31:01Z</time>
      </trkpt>
      <trkpt lat="39.823206" lon="4.228978">
        <ele>4.408</ele>
        <time>2020-09-04T13:31:03Z</time>
      </trkpt>
      <trkpt lat="39.823243" lon="4.229070">
        <ele>4.959</ele>
        <time>2020-09-04T13:31:10Z</time>
      </trkpt>
      <trkpt lat="39.823264" lon="4.229103">
        <ele>4.941</ele>
        <time>2020-09-04T13:31:13Z</time>
      </trkpt>
      <trkpt lat="39.823376" lon="4.229276">
        <ele>4.964</ele>
        <time>2020-09-04T13:31:30Z</time>
      </trkpt>
      <trkpt lat="39.823386" lon="4.229308">
        <ele>4.441</ele>
        <time>2020-09-04T13:31:44Z</time>
      </trkpt>
      <trkpt lat="39.823385" lon="4.229321">
        <ele>4.969</ele>
        <time>2020-09-04T13:32:05Z</time>
      </trkpt>
      <trkpt lat="39.823383" lon="4.229334">
        <ele>4.946</ele>
        <time>2020-09-04T13:32:09Z</time>
      </trkpt>
      <trkpt lat="39.823329" lon="4.229481">
        <ele>4.417</ele>
        <time>2020-09-04T13:32:27Z</time>
      </trkpt>
      <trkpt lat="39.823314" lon="4.229554">
        <ele>4.451</ele>
        <time>2020-09-04T13:32:33Z</time>
      </trkpt>
      <trkpt lat="39.823277" lon="4.229605">
        <ele>4.472</ele>
        <time>2020-09-04T13:32:38Z</time>
      </trkpt>
      <trkpt lat="39.823164" lon="4.229619">
        <ele>3.513</ele>
        <time>2020-09-04T13:32:49Z</time>
      </trkpt>
      <trkpt lat="39.823043" lon="4.229496">
        <ele>3.914</ele>
        <time>2020-09-04T13:33:04Z</time>
      </trkpt>
      <trkpt lat="39.822904" lon="4.229355">
        <ele>3.908</ele>
        <time>2020-09-04T13:33:20Z</time>
      </trkpt>
      <trkpt lat="39.822772" lon="4.229298">
        <ele>3.942</ele>
        <time>2020-09-04T13:33:33Z</time>
      </trkpt>
      <trkpt lat="39.822682" lon="4.229402">
        <ele>5.414</ele>
        <time>2020-09-04T13:33:46Z</time>
      </trkpt>
      <trkpt lat="39.822570" lon="4.229573">
        <ele>6.317</ele>
        <time>2020-09-04T13:34:01Z</time>
      </trkpt>
      <trkpt lat="39.822534" lon="4.229653">
        <ele>7.824</ele>
        <time>2020-09-04T13:34:08Z</time>
      </trkpt>
      <trkpt lat="39.822579" lon="4.229714">
        <ele>7.832</ele>
        <time>2020-09-04T13:34:15Z</time>
      </trkpt>
      <trkpt lat="39.822595" lon="4.229756">
        <ele>7.339</ele>
        <time>2020-09-04T13:34:18Z</time>
      </trkpt>
      <trkpt lat="39.822691" lon="4.229941">
        <ele>7.830</ele>
        <time>2020-09-04T13:34:33Z</time>
      </trkpt>
      <trkpt lat="39.822705" lon="4.229962">
        <ele>8.344</ele>
        <time>2020-09-04T13:34:35Z</time>
      </trkpt>
      <trkpt lat="39.822780" lon="4.230126">
        <ele>8.363</ele>
        <time>2020-09-04T13:34:48Z</time>
      </trkpt>
      <trkpt lat="39.822838" lon="4.230228">
        <ele>8.344</ele>
        <time>2020-09-04T13:34:57Z</time>
      </trkpt>
      <trkpt lat="39.822860" lon="4.230261">
        <ele>8.318</ele>
        <time>2020-09-04T13:35:00Z</time>
      </trkpt>
      <trkpt lat="39.822852" lon="4.230294">
        <ele>8.708</ele>
        <time>2020-09-04T13:35:03Z</time>
      </trkpt>
      <trkpt lat="39.822764" lon="4.230378">
        <ele>8.331</ele>
        <time>2020-09-04T13:35:15Z</time>
      </trkpt>
      <trkpt lat="39.822689" lon="4.230500">
        <ele>8.743</ele>
        <time>2020-09-04T13:35:32Z</time>
      </trkpt>
      <trkpt lat="39.822622" lon="4.230582">
        <ele>8.746</ele>
        <time>2020-09-04T13:35:34Z</time>
      </trkpt>
      <trkpt lat="39.822514" lon="4.230688">
        <ele>9.213</ele>
        <time>2020-09-04T13:35:37Z</time>
      </trkpt>
      <trkpt lat="39.822383" lon="4.230820">
        <ele>9.751</ele>
        <time>2020-09-04T13:35:51Z</time>
      </trkpt>
      <trkpt lat="39.822312" lon="4.230887">
        <ele>9.758</ele>
        <time>2020-09-04T13:36:04Z</time>
      </trkpt>
      <trkpt lat="39.822208" lon="4.230970">
        <ele>9.789</ele>
        <time>2020-09-04T13:36:24Z</time>
      </trkpt>
      <trkpt lat="39.822208" lon="4.230975">
        <ele>9.793</ele>
        <time>2020-09-04T13:36:50Z</time>
      </trkpt>
    </trkseg>
  </trk>
</gpx>
